# Wetter Temperatur Luftdruck Luftfeuchtigkeit Sichtweite Windgeschwindigkeit Windrichtung Zeit
1 -273 0 0 0 0 0 12:54 14.10.2019
2 Clouds 6 1023 70 10000 11.3 250 12:36 14.10.2019
3 Clouds 6 1023 70 10000 11.3 250 12:18 14.10.2019
4 Clouds 6 1023 95 10000 4.6 250 11:43 14.10.2019
5 Clouds 6 1023 95 10000 4.6 250 11:24 14.10.2019
6 Clear 5 1023 60 10000 5.1 320 10:55 14.10.2019
7 Clear 5 1023 60 10000 5.1 320 10:37 14.10.2019
8 Clear 5 1023 60 10000 5.1 320 10:18 14.10.2019
9 Clear 4 1023 64 10000 3.1 320 09:41 14.10.2019
10 Clear 4 1023 64 10000 3.1 320 09:41 14.10.2019
11 Clear 4 1023 64 10000 3.1 320 09:20 14.10.2019
12 Clear 6 1024 56 10000 8.2 250 08:49 14.10.2019
13 Clear 6 1024 56 10000 8.2 250 08:23 14.10.2019
14 Clear 4 1024 60 10000 4.1 270 07:47 14.10.2019
15 Clear 4 1024 60 10000 4.1 270 07:24 14.10.2019
16 Clouds 4 1025 55 10000 5.7 320 06:57 14.10.2019
17 Clouds 4 1025 55 10000 5.7 320 06:28 14.10.2019
18 Clouds 3 1025 64 10000 3.1 320 05:56 14.10.2019
19 Clouds 3 1025 64 10000 3.1 320 05:25 14.10.2019
20 Clouds 3 1026 69 10000 3.6 320 03:50 14.10.2019
21 Clouds 3 1026 69 10000 3.6 320 03:23 14.10.2019
22 Clouds 3 1026 69 10000 8.2 230 02:25 14.10.2019
23 Clouds 4 1026 64 10000 10.8 230 01:19 14.10.2019
24 Clouds 5 1025 56 10000 11.8 230 00:42 14.10.2019
25 Clouds 5 1025 56 10000 11.8 230 00:18 14.10.2019
26 Clouds 5 1025 60 10000 12.3 230 23:40 13.10.2019
27 Clouds 5 1025 60 10000 12.3 230 23:19 13.10.2019
28 Clouds 5 1025 60 10000 12.3 230 23:19 13.10.2019
29 Clouds 6 1025 56 10000 11.3 230 22:57 13.10.2019
30 Clouds 6 1025 56 10000 11.3 230 22:57 13.10.2019
31 Clouds 6 1025 56 10000 11.3 230 22:39 13.10.2019
32 Clouds 6 1025 56 10000 11.3 230 22:19 13.10.2019
33 Clouds 6 1025 60 10000 12.9 230 21:57 13.10.2019
34 Clouds 6 1025 60 10000 12.9 230 21:36 13.10.2019
35 Clouds 6 1025 60 10000 12.9 230 21:18 13.10.2019
36 Clouds 5 1025 65 10000 12.9 230 20:56 13.10.2019
37 Clouds 5 1025 65 10000 12.9 230 20:37 13.10.2019
38 Clouds 5 1025 65 10000 12.9 230 20:37 13.10.2019
39 Clouds 5 1025 65 10000 12.9 230 20:37 13.10.2019
40 Clouds 5 1025 65 10000 12.9 230 20:18 13.10.2019
41 Clouds 5 1025 75 10000 11.8 230 19:55 13.10.2019
42 Clouds 5 1025 75 10000 11.8 230 19:36 13.10.2019
43 Clouds 5 1025 75 10000 11.8 230 19:36 13.10.2019
44 Clouds 5 1025 75 10000 11.8 230 19:18 13.10.2019
45 Clouds 4 1024 86 10000 12.9 230 18:41 13.10.2019
46 Clouds 4 1024 86 10000 12.9 230 18:21 13.10.2019
47 Clouds 4 1024 86 10000 12.9 230 18:21 13.10.2019
48 Clouds 3 1024 69 10000 10.3 230 17:59 13.10.2019
49 Clouds 3 1024 69 10000 10.3 230 17:41 13.10.2019
50 Clouds 3 1024 69 10000 10.3 230 17:41 13.10.2019
51 Clouds 3 1024 69 10000 10.3 230 17:41 13.10.2019
52 Clouds 3 1024 69 10000 10.3 230 17:23 13.10.2019
53 Rain 3 1024 69 10000 10.3 230 16:44 13.10.2019
54 Rain 3 1024 69 10000 10.3 230 16:20 13.10.2019
55 Rain 3 1024 69 10000 10.3 230 16:20 13.10.2019
56 Rain 3 1023 64 10000 7.2 180 15:58 13.10.2019
57 Rain 3 1023 64 10000 7.2 180 15:39 13.10.2019
58 Rain 3 1023 64 10000 7.2 180 15:21 13.10.2019
59 Rain 3 1023 69 10000 8.2 230 14:59 13.10.2019
60 Rain 3 1023 69 10000 8.2 230 14:40 13.10.2019
61 Rain 3 1023 69 10000 8.2 230 14:21 13.10.2019
62 Rain 2 1022 93 7000 6.7 230 13:58 13.10.2019
63 Rain 2 1022 93 7000 6.7 230 13:38 13.10.2019
64 Rain 2 1022 93 7000 6.7 230 13:20 13.10.2019
65 Drizzle 2 1021 80 4000 7.7 230 12:56 13.10.2019
66 Rain 2 1021 80 10000 9.3 230 12:38 13.10.2019
67 Rain 2 1021 80 10000 9.3 230 12:18 13.10.2019
68 Drizzle 2 1020 98 10000 2.1 230 11:55 13.10.2019
69 Drizzle 2 1020 98 10000 2.1 230 11:55 13.10.2019
70 Drizzle 2 1020 98 10000 2.1 230 11:37 13.10.2019
71 Drizzle 2 1020 98 10000 2.1 230 11:37 13.10.2019
72 Drizzle 2 1020 98 10000 2.1 230 11:18 13.10.2019
73 Drizzle 2 1018 93 6500 4.6 230 10:41 13.10.2019
74 Drizzle 2 1018 93 6500 4.6 230 10:23 13.10.2019
75 Drizzle 2 1018 93 6500 4.6 230 10:23 13.10.2019
76 Drizzle 2 1017 98 6500 9.3 230 09:41 13.10.2019
77 Clouds 1 1015 98 10000 9.8 230 09:22 13.10.2019
78 Clouds 1 1015 98 10000 9.8 230 08:59 13.10.2019
79 Clouds 1 1015 98 10000 9.8 230 08:40 13.10.2019
80 Clouds 1 1015 98 10000 9.8 230 08:21 13.10.2019
81 Rain 1 1013 98 10000 9.8 230 07:46 13.10.2019
82 Rain 1 1013 98 10000 9.8 230 07:21 13.10.2019
83 Rain 1 1010 86 10000 11.8 230 06:41 13.10.2019
84 Rain 1 1010 86 10000 11.8 230 06:41 13.10.2019
85 Rain 0 1009 98 10000 10.8 230 05:46 13.10.2019
86 Rain 1 1009 86 10000 9.8 230 04:46 13.10.2019
87 Rain 1 1007 86 10000 7.7 230 03:51 13.10.2019
88 Rain 1 1005 86 10000 7.2 180 02:42 13.10.2019
89 Snow 1 1004 86 1200 10.3 180 01:54 13.10.2019
90 Snow 1 1003 86 2500 5.7 180 01:30 13.10.2019
91 Snow 1 1001 80 1200 13.4 180 00:47 13.10.2019
92 Rain 1 1000 80 10000 7.7 200 00:22 13.10.2019
93 Rain 1 998 80 10000 8.2 230 23:57 12.10.2019
94 Rain 1 998 80 10000 8.2 230 23:39 12.10.2019
95 Rain 2 998 80 10000 8.2 230 23:19 12.10.2019
96 Rain 2 995 80 8000 8.7 230 22:57 12.10.2019
97 Rain 2 995 80 8000 8.7 230 22:38 12.10.2019
98 Snow 2 995 74 1200 13.4 230 22:20 12.10.2019
99 Snow 1 993 74 2000 11.3 230 21:55 12.10.2019
100 Snow 1 993 74 800 13.9 230 21:36 12.10.2019
101 Snow 1 993 74 800 13.9 230 21:18 12.10.2019
102 Snow 1 992 80 1200 10.3 230 20:40 12.10.2019
103 Snow 0 992 80 1200 10.3 230 20:22 12.10.2019
104 Snow 1 992 92 1200 2.6 320 19:38 12.10.2019
105 Snow 1 992 92 1200 2.6 320 19:20 12.10.2019
106 Snow 1 993 92 1200 3.1 270 18:57 12.10.2019
107 Snow 1 993 92 1200 3.1 270 18:39 12.10.2019
108 Snow 1 993 89 1200 3.1 270 18:20 12.10.2019
109 Snow 1 993 93 1200 4.6 250 17:43 12.10.2019
110 Snow 1 993 93 1200 4.6 250 17:19 12.10.2019
111 Rain 2 993 74 10000 7.2 230 16:54 12.10.2019
112 Rain 2 993 74 10000 7.2 230 16:54 12.10.2019
113 Rain 2 993 74 10000 7.2 230 16:36 12.10.2019
114 Rain 2 993 74 10000 7.2 230 16:18 12.10.2019
115 Rain 1 993 59 10000 8.2 230 15:44 12.10.2019
116 Rain 1 993 59 10000 8.2 230 15:25 12.10.2019
117 Snow 1 993 69 5000 9.3 220 14:43 12.10.2019
118 Rain 1 994 64 10000 7.2 230 14:22 12.10.2019
119 Rain 1 994 69 10000 7.2 230 13:59 12.10.2019
120 Rain 1 994 69 10000 7.2 230 13:40 12.10.2019
121 Rain 0 994 87 10000 9.8 230 13:21 12.10.2019
122 Snow -1 993 68 800 10.3 230 12:40 12.10.2019
123 Snow -1 993 68 3000 11.3 230 12:21 12.10.2019
124 Snow -1 993 68 3000 11.3 230 11:59 12.10.2019
125 Snow -1 993 68 3000 11.3 230 11:39 12.10.2019
126 Snow -1 993 68 6500 11.8 230 11:20 12.10.2019
127 Clouds 0 992 95 10000 11.8 230 10:44 12.10.2019
128 Clouds 0 992 95 10000 11.8 230 10:24 12.10.2019
129 Snow 0 992 95 6000 11.3 230 09:58 12.10.2019
130 Snow 0 992 95 6000 11.3 230 09:58 12.10.2019
131 Snow 0 992 95 6000 11.3 230 09:39 12.10.2019
132 Snow 0 992 94 6000 11.3 230 09:21 12.10.2019
133 Snow 0 991 92 6000 13.4 230 08:58 12.10.2019
134 Snow 0 991 92 6000 13.4 230 08:38 12.10.2019
135 Snow 0 991 92 6000 13.4 230 08:20 12.10.2019
136 -273 0 0 0 0 0 08:20 12.10.2019
137 Clouds -4 992 92 0 7.46 244.418 07:35 12.10.2019
138 Clouds -4 992 92 0 7.46 244.418 06:57 12.10.2019
139 Snow 1 989 86 3000 13.9 230 05:48 12.10.2019
140 Snow 1 989 86 3000 13.9 230 05:23 12.10.2019
141 Snow 2 987 80 5000 15.4 230 04:24 12.10.2019
142 Drizzle 2 986 93 10000 15.4 230 03:33 12.10.2019
143 Rain 4 984 98 10000 8.2 230 01:50 12.10.2019
144 Rain 4 984 97 10000 8.2 230 01:24 12.10.2019
145 Rain 4 983 69 10000 10.3 230 00:43 12.10.2019
146 Rain 4 983 69 10000 10.3 230 00:19 12.10.2019
147 Clouds 4 983 80 10000 8.7 230 23:40 11.10.2019
148 Clouds 4 983 80 10000 8.7 230 23:20 11.10.2019
149 Rain 5 983 80 10000 11.8 230 22:41 11.10.2019
150 Rain 6 983 80 10000 11.8 230 22:22 11.10.2019
151 Clouds 6 983 80 10000 5.1 230 21:59 11.10.2019
152 Clouds 6 983 80 10000 5.1 230 21:40 11.10.2019
153 Clouds 6 983 89 10000 5.1 230 21:21 11.10.2019
154 Clouds 6 984 56 10000 5.1 90 20:45 11.10.2019
155 Clouds 5 984 56 10000 5.1 90 20:27 11.10.2019
156 Clouds 6 984 45 10000 5.1 360 19:59 11.10.2019
157 Clouds 6 984 45 10000 5.1 360 19:39 11.10.2019
158 Clouds 6 984 45 10000 5.1 360 19:18 11.10.2019
159 Clouds 6 984 45 10000 5.1 360 19:18 11.10.2019
160 Clouds 6 984 45 10000 5.1 360 19:18 11.10.2019
161 Clouds 5 985 56 10000 8.7 360 18:59 11.10.2019
162 Clouds 5 985 56 10000 8.7 360 18:39 11.10.2019
163 Clouds 5 985 56 10000 8.7 360 18:19 11.10.2019
164 Rain 3 987 64 10000 9.3 340 17:59 11.10.2019
165 Rain 3 987 64 10000 9.3 340 17:38 11.10.2019
166 Rain 3 987 64 10000 9.3 340 17:19 11.10.2019
167 Rain 2 988 74 10000 10.3 340 16:59 11.10.2019
168 Rain 2 988 74 10000 10.3 340 16:39 11.10.2019
169 Rain 2 988 74 10000 10.3 340 16:39 11.10.2019
170 Rain 2 988 74 10000 10.3 340 16:19 11.10.2019
171 Rain 2 989 86 10000 9.3 340 15:55 11.10.2019
172 Rain 2 989 86 10000 9.3 340 15:36 11.10.2019
173 Rain 2 989 86 10000 9.3 340 15:18 11.10.2019
174 Rain 2 989 86 10000 9.3 340 15:18 11.10.2019
175 Rain 1 991 86 10000 9.3 340 14:42 11.10.2019
176 Rain 0 991 86 10000 9.3 340 14:21 11.10.2019
177 Rain -1 992 83 10000 9.3 20 13:46 11.10.2019
178 Rain -1 992 82 10000 9.3 20 13:26 11.10.2019
179 Rain -1 993 80 10000 2.1 290 12:58 11.10.2019
180 Rain -1 993 80 10000 2.1 290 12:40 11.10.2019
181 Rain -1 993 80 10000 2.1 290 12:21 11.10.2019
182 Clouds -2 994 86 10000 5.1 360 11:59 11.10.2019
183 Clouds -2 994 86 10000 5.1 360 11:39 11.10.2019
184 Clouds -2 994 86 10000 5.1 360 11:21 11.10.2019
185 Clouds -1 995 86 10000 3.6 270 10:56 11.10.2019
186 Clouds -1 995 86 10000 3.6 270 10:56 11.10.2019
187 Clouds -1 995 86 10000 3.6 270 10:37 11.10.2019
188 Clouds -1 995 86 10000 3.6 270 10:18 11.10.2019
189 Clouds -1 995 86 10000 3.6 270 10:18 11.10.2019
190 Clouds -2 996 92 10000 8.7 230 09:42 11.10.2019
191 Clouds -2 996 92 10000 8.7 230 09:21 11.10.2019
192 Clouds -2 996 92 10000 8.7 230 08:59 11.10.2019
193 Clouds -2 996 92 10000 8.7 230 08:39 11.10.2019
194 Clouds -2 996 92 10000 8.7 230 08:39 11.10.2019
195 Clouds -2 996 92 10000 8.7 230 08:20 11.10.2019
196 Snow -2 996 86 5000 8.2 230 07:57 11.10.2019
197 Snow -2 996 86 5000 8.2 230 07:38 11.10.2019
198 Snow -2 996 86 5000 8.2 230 07:19 11.10.2019
199 Snow -2 997 86 1500 9.8 230 06:43 11.10.2019
200 Snow -2 997 86 1500 9.8 230 06:19 11.10.2019
201 Snow -3 996 79 1500 10.3 230 05:32 11.10.2019
202 Snow -3 995 79 500 14.4 230 04:58 11.10.2019
203 Snow -3 993 79 8000 9.8 230 03:45 11.10.2019
204 Snow -2 992 92 1800 12.9 230 01:57 11.10.2019
205 Snow -1 990 92 500 13.9 230 00:42 11.10.2019
206 Snow -1 990 92 500 13.9 230 00:22 11.10.2019
207 Snow 0 990 85 5000 11.8 230 23:41 10.10.2019
208 Rain 0 989 85 10000 11.8 230 23:20 10.10.2019
209 Rain 0 988 85 10000 5.7 230 22:57 10.10.2019
210 Rain 0 988 85 10000 5.7 230 22:37 10.10.2019
211 Rain 0 988 85 10000 5.7 230 22:19 10.10.2019
212 Rain 0 987 85 10000 12.9 230 21:54 10.10.2019
213 Rain 0 987 85 10000 12.9 230 21:36 10.10.2019
214 Rain 0 987 81 10000 12.9 230 21:18 10.10.2019
215 Snow 0 987 84 1200 13.4 230 20:41 10.10.2019
216 Snow -1 987 84 1200 13.4 230 20:21 10.10.2019
217 Snow -1 987 84 1200 13.4 230 20:21 10.10.2019
218 Snow -1 985 84 1200 17 230 19:58 10.10.2019
219 Snow -1 985 84 1200 17 230 19:39 10.10.2019
220 Rain -1 985 84 10000 10.8 230 19:19 10.10.2019
221 Snow -1 989 86 1200 15.9 230 18:54 10.10.2019
222 Snow -1 989 86 500 15.4 230 18:36 10.10.2019
223 Snow -1 989 86 500 15.4 230 18:36 10.10.2019
224 Snow -1 989 86 500 15.4 230 18:18 10.10.2019
225 Snow 0 982 91 1200 14.4 230 17:40 10.10.2019
226 Snow 0 982 91 500 15.4 230 17:20 10.10.2019
227 Snow 0 981 91 500 17 230 16:58 10.10.2019
228 Snow 0 981 91 500 17 230 16:39 10.10.2019
229 Snow 0 979 91 800 14.9 230 16:21 10.10.2019
230 Snow 0 977 91 1200 15.9 230 15:43 10.10.2019
231 Snow 0 977 91 1200 15.9 230 15:43 10.10.2019
232 Snow 0 977 91 1200 15.9 230 15:24 10.10.2019
233 Snow -1 975 92 500 17 230 14:59 10.10.2019
234 Snow -1 975 92 500 17 230 14:37 10.10.2019
235 Snow -1 975 92 500 17 230 14:37 10.10.2019
236 Snow -1 975 92 3000 16.5 230 14:19 10.10.2019
237 Snow -1 975 92 3000 16.5 230 14:19 10.10.2019
238 Snow 0 997 91 2500 17 240 13:59 10.10.2019
239 Snow 0 997 91 2500 17 240 13:39 10.10.2019
240 Snow 0 972 91 500 14.4 250 13:18 10.10.2019
241 Snow 0 972 91 500 14.4 250 13:18 10.10.2019
242 Snow 0 970 91 1200 10.3 250 12:55 10.10.2019
243 Snow 0 970 91 1200 10.3 250 12:37 10.10.2019
244 Snow 0 970 90 1200 10.3 250 12:18 10.10.2019
245 Snow 1 969 86 500 9.3 250 11:42 10.10.2019
246 Snow 1 969 86 500 9.3 250 11:21 10.10.2019
247 Snow 1 969 86 3000 10.8 250 10:59 10.10.2019
248 Snow 1 969 86 3000 10.8 250 10:41 10.10.2019
249 Snow 1 969 86 3000 10.8 250 10:22 10.10.2019
250 Snow 2 969 64 500 6.7 270 09:55 10.10.2019
251 Snow 2 969 64 500 6.7 270 09:37 10.10.2019
252 Snow 2 969 64 500 6.7 270 09:19 10.10.2019
253 Snow 2 969 64 8000 5.7 270 08:41 10.10.2019
254 Snow 2 969 64 8000 5.7 270 08:22 10.10.2019
255 Snow 2 969 69 8000 3.6 290 07:58 10.10.2019
256 Snow 2 969 69 8000 3.6 290 07:38 10.10.2019
257 Snow 2 969 69 8000 3.6 290 07:19 10.10.2019
258 Snow 2 971 69 8000 6.7 230 06:45 10.10.2019
259 Rain 3 972 74 10000 5.7 320 05:57 10.10.2019
260 Rain 3 972 74 10000 5.7 320 05:23 10.10.2019
261 Clouds 3 973 97 10000 5.1 270 04:37 10.10.2019
262 Rain 4 971 94 8000 18.5 230 02:54 10.10.2019
263 Rain 5 972 94 8000 13.9 230 01:42 10.10.2019
264 Clouds 7 973 56 10000 1.5 230 01:23 10.10.2019
265 Clouds 8 975 52 10000 5.7 230 00:45 10.10.2019
266 Clouds 8 975 52 10000 5.7 230 00:19 10.10.2019
267 Clouds 8 975 61 10000 3.1 230 23:39 09.10.2019
268 Clouds 9 975 61 10000 3.1 230 23:19 09.10.2019
269 Clouds 9 977 52 10000 2.68 306.515 22:43 09.10.2019
270 Clouds 9 977 52 10000 2.68 306.515 22:24 09.10.2019
271 Clouds 9 979 97 10000 2.68 306.515 21:59 09.10.2019
272 Clouds 9 979 97 10000 2.68 306.515 21:39 09.10.2019
273 Clouds 9 979 91 10000 2.64 333.173 21:20 09.10.2019
274 Clouds 7 981 52 10000 3.1 180 20:56 09.10.2019
275 Clouds 7 981 52 10000 3.1 180 20:56 09.10.2019
276 Clouds 7 981 52 10000 3.1 180 20:37 09.10.2019
277 Clouds 8 981 52 10000 3.1 180 20:18 09.10.2019
278 Clouds 8 982 87 10000 2.78 342.399 19:45 09.10.2019
279 Clouds 8 982 87 10000 2.78 342.399 19:24 09.10.2019
280 Clouds 7 984 56 10000 2.6 140 18:58 09.10.2019
281 Clouds 7 984 56 10000 2.6 140 18:37 09.10.2019
282 Clouds 7 984 56 10000 2.6 140 18:18 09.10.2019
283 Clouds 6 986 60 10000 1.5 230 17:55 09.10.2019
284 Clouds 6 986 60 10000 1.5 230 17:36 09.10.2019
285 Clouds 6 986 60 10000 1.5 230 17:18 09.10.2019
286 Clouds 6 988 83 10000 7.7 230 16:41 09.10.2019
287 Clouds 6 988 83 10000 7.7 230 16:22 09.10.2019
288 Rain 5 989 83 10000 10.3 230 15:58 09.10.2019
289 Rain 5 989 83 10000 10.3 230 15:39 09.10.2019
290 Rain 5 989 87 10000 10.3 230 15:20 09.10.2019
291 Rain 3 990 87 10000 12.9 230 14:58 09.10.2019
292 Rain 3 990 87 10000 12.9 230 14:39 09.10.2019
293 Rain 3 990 87 10000 12.9 230 14:18 09.10.2019
294 Rain 3 991 74 10000 12.9 230 13:40 09.10.2019
295 Rain 3 991 74 10000 12.9 230 13:21 09.10.2019
296 Rain 2 990 74 10000 14.4 200 12:59 09.10.2019
297 Rain 2 990 74 10000 14.4 200 12:40 09.10.2019
298 Rain 2 990 74 10000 14.4 200 12:21 09.10.2019
299 Rain 2 991 80 10000 15.4 230 11:55 09.10.2019
300 Rain 2 991 80 10000 15.4 230 11:37 09.10.2019
301 Rain 2 991 80 10000 15.4 230 11:18 09.10.2019
302 Drizzle 2 991 88 10000 12.9 200 10:43 09.10.2019
303 Drizzle 2 991 88 10000 12.9 200 10:43 09.10.2019
304 Drizzle 2 991 88 10000 12.9 200 10:21 09.10.2019
305 Drizzle 2 990 80 10000 13.4 230 09:58 09.10.2019
306 Drizzle 2 990 80 10000 13.4 230 09:40 09.10.2019
307 Rain 2 991 80 10000 8.7 200 09:18 09.10.2019
308 Drizzle 2 990 80 10000 11.3 230 08:41 09.10.2019
309 Drizzle 2 990 80 10000 11.3 230 08:21 09.10.2019
310 Drizzle 2 990 80 10000 11.3 230 08:21 09.10.2019
311 Rain 2 990 89 10000 11.3 230 07:56 09.10.2019
312 Rain 2 990 89 10000 11.3 230 07:37 09.10.2019
313 Rain 2 990 89 10000 11.3 230 07:19 09.10.2019
314 Rain 2 990 89 10000 11.3 230 07:19 09.10.2019
315 Rain 2 989 89 10000 12.3 230 06:49 09.10.2019
316 Drizzle 4 989 80 10000 10.8 230 05:55 09.10.2019
317 Drizzle 4 989 80 10000 10.8 230 05:28 09.10.2019
318 Drizzle 4 989 80 10000 14.4 230 04:24 09.10.2019
319 Clouds 0 989 98 0 4.57 249.879 02:50 09.10.2019
320 Drizzle 4 988 80 10000 12.3 230 01:43 09.10.2019
321 Drizzle 4 988 80 10000 12.3 230 01:20 09.10.2019
322 Drizzle 4 988 80 10000 12.3 230 01:20 09.10.2019
323 Drizzle 4 989 80 10000 12.9 230 00:56 09.10.2019
324 Drizzle 4 989 80 10000 12.9 230 00:38 09.10.2019
325 Drizzle 6 989 80 10000 12.9 230 00:19 09.10.2019
326 Drizzle 6 990 65 10000 12.3 230 23:39 08.10.2019
327 Drizzle 6 990 65 10000 12.3 230 23:18 08.10.2019
328 Clouds 5 991 65 10000 13.4 230 22:56 08.10.2019
329 Clouds 5 991 65 10000 13.4 230 22:38 08.10.2019
330 Clouds 5 991 65 10000 13.4 230 22:19 08.10.2019
331 Clouds 6 992 60 10000 13.4 230 21:57 08.10.2019
332 Clouds 6 992 60 10000 13.4 230 21:39 08.10.2019
333 Clouds 6 992 60 10000 13.4 230 21:19 08.10.2019
334 Clouds 6 992 60 10000 13.4 230 21:19 08.10.2019
335 Rain 6 993 56 10000 12.9 230 20:56 08.10.2019
336 Rain 6 993 56 10000 12.9 230 20:37 08.10.2019
337 Rain 7 993 56 10000 12.9 230 20:19 08.10.2019
338 Clouds 6 995 91 10000 12.3 230 19:56 08.10.2019
339 Clouds 6 995 91 10000 12.3 230 19:37 08.10.2019
340 Clouds 6 995 91 10000 12.3 230 19:19 08.10.2019
341 Clouds 5 996 91 10000 10.3 230 18:46 08.10.2019
342 Clouds 5 996 91 10000 10.3 230 18:27 08.10.2019
343 Rain 4 997 86 10000 10.3 230 17:59 08.10.2019
344 Rain 4 997 86 10000 10.3 230 17:40 08.10.2019
345 Rain 4 997 86 10000 10.3 230 17:40 08.10.2019
346 Rain 4 997 86 10000 10.3 230 17:20 08.10.2019
347 Rain 4 997 86 10000 10.3 230 17:20 08.10.2019
348 Rain 4 998 93 10000 10.3 230 16:56 08.10.2019
349 Rain 4 998 93 10000 10.3 230 16:37 08.10.2019
350 Rain 4 998 93 10000 10.3 230 16:19 08.10.2019
351 Rain 3 999 84 10000 13.9 230 15:40 08.10.2019
352 Rain 3 999 85 10000 13.9 230 15:21 08.10.2019
353 Drizzle 2 998 80 10000 17 250 14:57 08.10.2019
354 Drizzle 2 998 80 10000 17 250 14:39 08.10.2019
355 Drizzle 2 998 80 10000 17 250 14:20 08.10.2019
356 Drizzle 1 998 86 10000 12.9 250 13:56 08.10.2019
357 Drizzle 1 998 86 10000 12.9 250 13:37 08.10.2019
358 Drizzle 1 998 86 10000 12.9 250 13:18 08.10.2019
359 Rain 1 998 86 10000 10.3 250 12:42 08.10.2019
360 Rain 1 998 86 10000 10.3 250 12:21 08.10.2019
361 Drizzle 1 991 86 6500 11.8 230 11:59 08.10.2019
362 Drizzle 1 991 86 6500 11.8 230 11:40 08.10.2019
363 Drizzle 1 991 86 6500 11.8 230 11:21 08.10.2019
364 Rain 1 995 86 3000 15.4 230 10:55 08.10.2019
365 Rain 1 995 86 3000 15.4 230 10:36 08.10.2019
366 Rain 1 995 86 3000 15.4 230 10:18 08.10.2019
367 Rain 0 994 93 3000 15.4 230 09:41 08.10.2019
368 Rain 0 994 93 3000 15.4 230 09:22 08.10.2019
369 Snow 0 993 93 3000 17 230 08:55 08.10.2019
370 Snow 0 993 94 3000 17 230 08:36 08.10.2019
371 Snow 0 993 94 3000 17 230 08:18 08.10.2019
372 Snow 0 993 94 1200 14.9 230 07:41 08.10.2019
373 Snow 0 993 94 1200 14.9 230 07:19 08.10.2019
374 Snow 4 992 69 1200 16.5 230 06:46 08.10.2019
375 Snow 0 991 96 800 15.4 230 06:23 08.10.2019
376 Snow 0 991 96 800 15.4 230 05:44 08.10.2019
377 Snow 0 991 96 800 15.4 230 05:44 08.10.2019
378 Snow 0 991 96 800 15.4 230 05:21 08.10.2019
379 Snow 0 991 96 800 15.4 230 05:21 08.10.2019
380 Snow 1 992 80 1200 8.7 230 03:32 08.10.2019
381 Snow 1 992 74 1800 9.8 230 02:46 08.10.2019
382 Snow 1 992 74 1800 9.8 230 02:26 08.10.2019
383 Snow 0 992 94 800 11.3 230 01:42 08.10.2019
384 Snow 0 991 95 1200 10.8 230 00:57 08.10.2019
385 Snow 0 991 95 1200 10.8 230 00:36 08.10.2019
386 Snow 0 991 85 1200 10.8 230 00:18 08.10.2019
387 Rain 1 990 64 1800 12.3 230 23:38 07.10.2019
388 Snow 0 989 92 800 14.4 230 23:19 07.10.2019
389 Snow 0 988 92 500 14.4 230 22:55 07.10.2019
390 Snow 0 988 92 1200 13.9 230 22:37 07.10.2019
391 Snow 0 988 92 1200 13.9 230 22:19 07.10.2019
392 Snow 0 987 100 1200 9.8 230 21:55 07.10.2019
393 Snow 0 987 100 500 13.4 230 21:37 07.10.2019
394 Snow 0 987 100 500 13.4 230 21:18 07.10.2019
395 Snow 0 987 77 800 17.5 230 20:56 07.10.2019
396 Snow 0 987 77 800 17.5 230 20:56 07.10.2019
397 Snow 0 987 77 800 17.5 230 20:38 07.10.2019
398 Snow 0 987 77 2000 6.7 230 20:18 07.10.2019
399 Snow 0 986 77 1200 8.2 230 19:54 07.10.2019
400 Snow 0 986 77 1200 8.2 230 19:54 07.10.2019
401 Snow 0 986 77 1200 8.2 230 19:36 07.10.2019
402 Snow 0 986 77 1200 8.2 230 19:18 07.10.2019
403 Snow 1 986 77 1200 6.2 270 18:41 07.10.2019
404 Snow 1 986 90 1200 6.2 270 18:19 07.10.2019
405 Snow 1 986 90 500 7.7 230 17:58 07.10.2019
406 Snow 1 986 90 500 7.7 230 17:40 07.10.2019
407 Snow 1 986 90 500 7.7 230 17:40 07.10.2019
408 Snow 1 986 90 500 7.7 230 17:19 07.10.2019
409 Snow 1 986 90 1200 4.1 230 16:46 07.10.2019
410 Snow 1 986 90 1200 4.1 230 16:28 07.10.2019
411 Snow 0 985 92 4000 4.1 230 15:57 07.10.2019
412 Snow 0 985 92 4000 4.1 230 15:39 07.10.2019
413 Snow 0 985 92 800 11.3 230 15:21 07.10.2019
414 Snow 0 985 92 300 12.9 200 14:41 07.10.2019
415 Snow 0 985 92 300 12.9 200 14:23 07.10.2019
416 Snow 1 985 80 500 7.7 200 13:45 07.10.2019
417 Snow 1 985 80 4000 7.7 230 13:21 07.10.2019
418 Snow 0 985 94 3000 7.7 230 12:58 07.10.2019
419 Snow 0 985 94 3000 7.7 230 12:40 07.10.2019
420 Snow 0 985 96 3000 7.7 230 12:21 07.10.2019
421 Snow 0 985 96 3000 7.7 230 12:21 07.10.2019
422 Drizzle 1 984 80 10000 4.6 230 11:59 07.10.2019
423 Drizzle 1 984 80 10000 4.6 230 11:40 07.10.2019
424 Drizzle 1 984 80 10000 4.6 230 11:21 07.10.2019
425 Clouds 1 985 80 10000 2.6 180 10:57 07.10.2019
426 Clouds 1 985 80 10000 2.6 180 10:39 07.10.2019
427 Clouds 1 985 80 10000 2.6 180 10:20 07.10.2019
428 Clouds -3 985 96 0 2.63 318.234 09:39 07.10.2019
429 Clouds 1 988 80 10000 10.8 230 09:21 07.10.2019
430 Clouds 1 988 80 10000 10.8 230 08:44 07.10.2019
431 Clouds 1 988 80 10000 10.8 230 08:44 07.10.2019
432 Clouds 1 988 80 10000 10.8 230 08:21 07.10.2019
433 Clouds 1 988 80 10000 8.2 230 07:56 07.10.2019
434 Clouds 1 988 80 10000 8.2 230 07:36 07.10.2019
435 Clouds 1 988 80 10000 8.2 230 07:18 07.10.2019
436 Clouds 1 988 80 10000 10.3 230 06:43 07.10.2019
437 Clouds 1 988 80 10000 10.3 230 06:20 07.10.2019
438 Clouds 2 989 80 10000 5.7 230 05:27 07.10.2019
439 Clouds 2 989 80 10000 12.9 230 04:54 07.10.2019
440 Clouds -2 990 90 0 3.03 265.585 03:48 07.10.2019
441 Clouds -2 990 90 0 3.03 265.585 03:48 07.10.2019
442 Clouds 3 989 64 10000 9.3 230 03:30 07.10.2019
443 Clouds 3 989 64 10000 9.3 230 02:53 07.10.2019
444 Clouds 3 989 64 10000 9.3 230 02:19 07.10.2019
445 Clouds 3 988 69 10000 12.9 230 01:24 07.10.2019
446 Drizzle 4 987 69 8000 17.5 230 00:53 07.10.2019
447 Drizzle 4 987 69 8000 17.5 230 00:26 07.10.2019
448 Clouds 1 988 94 0 3.78 229.728 23:59 06.10.2019
449 Clouds 1 988 94 0 3.78 229.728 23:40 06.10.2019
450 Clouds 8 985 65 10000 7.7 230 23:20 06.10.2019
451 Clouds 8 985 65 10000 7.7 230 22:57 06.10.2019
452 Clouds 8 985 65 10000 7.7 230 22:39 06.10.2019
453 Clouds 8 985 65 10000 7.7 230 22:39 06.10.2019
454 Clouds 8 985 65 10000 7.7 230 22:20 06.10.2019
455 Clouds 8 985 65 10000 9.8 230 21:56 06.10.2019
456 Clouds 8 985 65 10000 9.8 230 21:37 06.10.2019
457 Clouds 8 985 65 10000 9.8 230 21:19 06.10.2019
458 Clouds 7 986 70 10000 8.2 230 20:56 06.10.2019
459 Clouds 7 986 70 10000 8.2 230 20:38 06.10.2019
460 Clouds 7 986 70 10000 8.2 230 20:19 06.10.2019
461 Clouds 7 986 65 10000 7.7 230 19:56 06.10.2019
462 Clouds 7 986 65 10000 7.7 230 19:37 06.10.2019
463 Clouds 7 986 65 10000 7.7 230 19:18 06.10.2019
464 Rain 7 986 81 10000 9.8 230 18:56 06.10.2019
465 Rain 7 986 81 10000 9.8 230 18:56 06.10.2019
466 Rain 7 986 81 10000 9.8 230 18:37 06.10.2019
467 Rain 7 986 81 10000 9.8 230 18:18 06.10.2019
468 Rain 6 987 87 10000 11.8 230 17:43 06.10.2019
469 Rain 7 987 87 10000 11.8 230 17:20 06.10.2019
470 Rain 7 987 81 10000 10.3 230 16:56 06.10.2019
471 Rain 7 987 81 10000 10.3 230 16:38 06.10.2019
472 Rain 7 987 81 10000 10.3 230 16:19 06.10.2019
473 Rain 7 988 70 10000 8.7 230 15:43 06.10.2019
474 Rain 7 988 70 10000 8.7 230 15:22 06.10.2019
475 Clouds 5 988 65 10000 3.1 140 14:57 06.10.2019
476 Clouds 5 988 65 10000 3.1 140 14:39 06.10.2019
477 Clouds 5 988 65 10000 3.1 140 14:20 06.10.2019
478 -273 0 0 0 0 0 13:54 06.10.2019
479 -273 0 0 0 0 0 13:54 06.10.2019
480 Clouds 4 989 97 10000 1.65 260.904 13:36 06.10.2019
481 Clouds 4 989 94 10000 1.49 257.919 13:18 06.10.2019
482 Clouds 4 989 94 10000 1.49 257.919 13:18 06.10.2019
483 Clouds 3 990 94 10000 1.49 257.919 12:55 06.10.2019
484 Clouds 3 990 94 10000 1.49 257.919 12:54 06.10.2019
485 Clouds 3 990 94 10000 1.49 257.919 12:36 06.10.2019
486 Clouds 3 990 94 10000 1.49 257.919 12:36 06.10.2019
487 Clouds 3 990 98 10000 2.27 346.918 12:18 06.10.2019
488 Clouds 4 992 98 10000 1 90 11:42 06.10.2019
489 Clouds 4 992 98 10000 1 90 11:24 06.10.2019
490 Clouds 4 993 98 10000 2.27 346.918 10:56 06.10.2019
491 Clouds 4 993 98 10000 2.27 346.918 10:37 06.10.2019
492 Clouds 4 993 98 10000 2.27 346.918 10:19 06.10.2019
493 Clouds 3 994 98 10000 1.5 110 09:41 06.10.2019
494 Clouds 3 994 95 10000 1.5 110 09:20 06.10.2019
495 Clouds 3 994 95 10000 1.5 110 09:20 06.10.2019
496 Clouds 3 996 95 10000 3.1 70 08:49 06.10.2019
497 Clouds 3 996 96 10000 3.1 70 08:24 06.10.2019
498 Clouds 3 998 74 10000 3.1 70 07:58 06.10.2019
499 Clouds 3 998 74 10000 3.1 70 07:40 06.10.2019
500 Clear 3 1000 96 10000 2.6 70 06:53 06.10.2019
501 Clear 3 1001 74 10000 2.1 360 05:41 06.10.2019
502 Clear 3 1002 74 10000 4.1 360 04:40 06.10.2019
503 Clouds -1 1004 88 0 2.14 323.012 02:56 06.10.2019
504 Clear 4 1005 64 10000 7.2 230 02:32 06.10.2019
505 Clear 4 1005 64 10000 7.2 230 01:49 06.10.2019
506 Clear 4 1005 64 10000 7.2 230 01:30 06.10.2019
507 Clear 4 1005 64 10000 7.2 230 01:30 06.10.2019
508 Clear 5 1005 65 10000 7.7 230 00:59 06.10.2019
509 Clear 5 1005 65 10000 7.7 230 00:36 06.10.2019
510 Clear 5 1005 65 10000 7.7 230 00:18 06.10.2019
511 Clear 6 1005 62 10000 9.8 230 23:41 05.10.2019
512 Clear 6 1005 62 10000 9.8 230 23:19 05.10.2019
513 Clouds 6 1006 62 10000 8.2 230 22:55 05.10.2019
514 Clouds 6 1006 62 10000 8.2 230 22:36 05.10.2019
515 Clouds 6 1006 62 10000 8.2 230 22:18 05.10.2019
516 Clouds 7 1006 62 10000 7.2 230 21:41 05.10.2019
517 Clouds 7 1006 56 10000 7.2 230 21:22 05.10.2019
518 Clouds 6 1007 56 10000 10.8 230 20:58 05.10.2019
519 Clouds 6 1007 54 10000 10.8 230 20:39 05.10.2019
520 Clouds 7 1007 54 10000 10.8 230 20:19 05.10.2019
521 Clouds 7 1008 60 10000 10.8 230 19:56 05.10.2019
522 Clouds 7 1008 60 10000 10.8 230 19:36 05.10.2019
523 Clouds 7 1008 60 10000 10.8 230 19:18 05.10.2019
524 Clouds 6 1008 65 10000 10.8 230 18:54 05.10.2019
525 Clouds 6 1008 65 10000 10.8 230 18:36 05.10.2019
526 Clouds 6 1008 65 10000 10.8 230 18:18 05.10.2019
527 Clouds 6 1009 60 10000 12.9 230 17:41 05.10.2019
528 Clouds 6 1009 60 10000 12.9 230 17:21 05.10.2019
529 Rain 5 1009 62 10000 12.9 230 16:55 05.10.2019
530 Rain 5 1009 62 10000 12.9 230 16:55 05.10.2019
531 Rain 5 1009 62 10000 12.9 230 16:36 05.10.2019
532 Rain 5 1009 62 10000 12.9 230 16:18 05.10.2019
533 Rain 5 1009 62 10000 11.3 230 15:55 05.10.2019
534 Rain 5 1009 62 10000 11.3 230 15:37 05.10.2019
535 Rain 5 1009 74 10000 11.3 230 15:18 05.10.2019
536 Rain 3 1010 74 10000 10.3 230 14:41 05.10.2019
537 Rain 3 1010 74 10000 10.3 230 14:22 05.10.2019
538 Rain 3 1010 74 10000 11.3 230 13:44 05.10.2019
539 Rain 3 1010 74 10000 11.3 230 13:26 05.10.2019
540 Rain 2 1010 73 10000 11.3 230 12:58 05.10.2019
541 Rain 2 1010 73 10000 11.3 230 12:40 05.10.2019
542 Rain 2 1010 93 10000 11.3 230 12:19 05.10.2019
543 Clouds 2 1010 80 10000 11.8 230 11:39 05.10.2019
544 Clouds 2 1010 80 10000 11.8 230 11:20 05.10.2019
545 Clouds 2 1010 80 10000 10.8 230 10:57 05.10.2019
546 Clouds 2 1010 80 10000 10.8 230 10:38 05.10.2019
547 Clouds 2 1010 80 10000 10.8 230 10:19 05.10.2019
548 Clouds 2 1009 80 10000 11.8 230 09:40 05.10.2019
549 Clouds 2 1009 80 10000 11.8 230 09:22 05.10.2019
550 Clouds 2 1009 80 10000 12.3 230 08:42 05.10.2019
551 Clouds 2 1009 80 10000 12.3 230 08:23 05.10.2019
552 Clouds -4 1010 96 0 1.93 267.865 07:59 05.10.2019
553 Clouds -4 1010 96 0 1.93 267.865 07:39 05.10.2019
554 Clouds 2 1008 80 10000 14.4 230 07:20 05.10.2019
555 Clouds 2 1008 80 10000 14.4 230 06:52 05.10.2019
556 Clouds 2 1008 80 10000 14.4 230 06:52 05.10.2019
557 Clouds 2 1008 80 10000 14.4 230 06:20 05.10.2019
558 Drizzle 1 1009 94 10000 14.9 230 04:46 05.10.2019
559 Drizzle 1 1008 94 10000 15.9 230 03:31 05.10.2019
560 Drizzle 2 1009 89 10000 12.9 230 02:26 05.10.2019
561 Rain 2 1008 87 10000 12.9 230 01:25 05.10.2019
562 Drizzle 2 1006 87 8000 15.4 230 00:47 05.10.2019
563 Drizzle 2 1006 87 8000 15.4 230 00:47 05.10.2019
564 Drizzle 2 1006 87 8000 15.4 230 00:27 05.10.2019
565 Snow 3 1006 82 8000 17.5 230 23:56 04.10.2019
566 Drizzle 3 1006 82 10000 17.5 230 23:37 04.10.2019
567 Drizzle 3 1006 82 10000 17.5 230 23:18 04.10.2019
568 Drizzle 4 1004 82 10000 17 230 22:41 04.10.2019
569 Drizzle 4 1004 82 10000 17 230 22:23 04.10.2019
570 Snow 3 1004 82 10000 13.4 230 21:58 04.10.2019
571 Snow 3 1004 82 10000 13.4 230 21:40 04.10.2019
572 Snow 3 1004 79 10000 13.4 230 21:22 04.10.2019
573 Snow 2 1004 80 1200 11.8 230 20:58 04.10.2019
574 Snow 2 1004 80 1200 11.8 230 20:39 04.10.2019
575 Snow 3 1004 80 1200 11.8 230 20:21 04.10.2019
576 Snow 2 1002 80 500 15.9 230 19:55 04.10.2019
577 Snow 2 1002 80 500 15.9 230 19:37 04.10.2019
578 Snow 2 1002 80 500 15.9 230 19:18 04.10.2019
579 Snow 2 1001 80 3000 14.9 230 18:40 04.10.2019
580 Snow 2 1001 80 500 14.9 230 18:20 04.10.2019
581 Rain 3 1000 80 10000 12.9 230 17:58 04.10.2019
582 Rain 3 1000 80 10000 12.9 230 17:39 04.10.2019
583 Rain 3 1000 80 10000 12.9 230 17:21 04.10.2019
584 Snow 4 1000 93 1200 12.9 230 16:55 04.10.2019
585 Snow 4 1000 93 1200 12.9 230 16:37 04.10.2019
586 Snow 4 999 93 5000 18 230 16:18 04.10.2019
587 Snow 5 998 86 8000 13.9 230 15:55 04.10.2019
588 Snow 5 998 86 8000 13.9 230 15:55 04.10.2019
589 Snow 5 998 86 8000 13.9 230 15:37 04.10.2019
590 Snow 5 998 86 8000 13.9 230 15:19 04.10.2019
591 Rain 4 997 86 10000 15.4 230 14:54 04.10.2019
592 Rain 4 997 86 10000 15.4 230 14:36 04.10.2019
593 Rain 4 997 86 10000 15.4 230 14:18 04.10.2019
594 Clouds 4 997 86 10000 15.4 230 13:42 04.10.2019
595 Clouds 4 997 86 10000 15.4 230 13:19 04.10.2019
596 Drizzle 4 996 86 10000 12.3 230 12:46 04.10.2019
597 Drizzle 4 996 86 10000 12.3 230 12:46 04.10.2019
598 Drizzle 4 996 86 10000 12.3 230 12:28 04.10.2019
599 Drizzle 4 996 86 10000 14.4 230 11:58 04.10.2019
600 Drizzle 4 996 86 10000 14.4 230 11:40 04.10.2019
601 Drizzle 4 996 86 10000 14.4 230 11:40 04.10.2019
602 Drizzle 4 996 86 10000 14.4 230 11:20 04.10.2019
603 Drizzle 4 994 93 10000 13.4 230 10:40 04.10.2019
604 Drizzle 4 994 93 10000 13.4 230 10:20 04.10.2019
605 Rain 6 993 70 10000 11.3 200 09:45 04.10.2019
606 Rain 6 993 70 10000 11.3 200 09:27 04.10.2019
607 Clouds 6 993 70 10000 5.7 230 08:56 04.10.2019
608 Clouds 6 993 70 10000 5.7 230 08:38 04.10.2019
609 Clouds 6 993 70 10000 5.7 230 08:19 04.10.2019
610 Clouds 6 994 99 10000 8.2 230 07:43 04.10.2019
611 Clouds 6 994 99 10000 8.2 230 07:22 04.10.2019
612 Clouds 7 995 99 10000 9.8 200 06:43 04.10.2019
613 Clouds 7 995 98 10000 9.8 200 06:24 04.10.2019
614 Clouds 8 996 52 10000 2.6 180 05:38 04.10.2019
615 Clouds 8 996 52 10000 2.6 180 05:18 04.10.2019
616 Clouds 8 997 98 10000 8.2 230 03:47 04.10.2019
617 Clouds 8 997 98 10000 8.2 230 03:47 04.10.2019
618 Clouds 7 997 56 10000 6.2 270 02:53 04.10.2019
619 Clouds 8 998 52 10000 7.7 230 01:55 04.10.2019
620 Clouds 8 998 52 10000 7.7 230 01:30 04.10.2019
621 Clouds 8 998 52 10000 5.7 230 00:57 04.10.2019
622 Clouds 8 999 56 10000 9.8 230 23:55 03.10.2019
623 Clouds 8 999 56 10000 9.8 230 23:37 03.10.2019
624 Clouds 8 999 56 10000 9.8 230 23:18 03.10.2019
625 Clouds 8 999 56 10000 9.8 230 23:18 03.10.2019
626 Clouds 8 1000 52 10000 8.7 230 22:55 03.10.2019
627 Clouds 8 1000 52 10000 8.7 230 22:37 03.10.2019
628 Clouds 8 1000 52 10000 8.7 230 22:18 03.10.2019
629 -273 0 0 0 0 0 21:55 03.10.2019
630 Clouds 9 1000 82 10000 9.8 230 21:36 03.10.2019
631 Clouds 9 1000 73 10000 9.8 230 21:18 03.10.2019
632 Clouds 8 1002 52 10000 7.2 230 20:41 03.10.2019
633 Clouds 8 1002 52 10000 7.2 230 20:23 03.10.2019
634 Clouds 8 1003 71 10000 5.1 230 19:59 03.10.2019
635 Clouds 8 1003 71 10000 5.1 230 19:41 03.10.2019
636 Clouds 8 1003 71 10000 5.1 230 19:22 03.10.2019
637 Clouds 7 1003 56 10000 10.3 230 18:58 03.10.2019
638 Clouds 7 1003 56 10000 10.3 230 18:38 03.10.2019
639 Clouds 7 1003 56 10000 10.3 230 18:38 03.10.2019
640 Clouds 7 1003 56 10000 10.3 230 18:19 03.10.2019
641 Clouds 8 1003 52 10000 12.9 230 17:55 03.10.2019
642 Clouds 8 1003 52 10000 12.9 230 17:55 03.10.2019
643 Clouds 8 1003 52 10000 12.9 230 17:55 03.10.2019
644 Clouds 8 1003 52 10000 12.9 230 17:37 03.10.2019
645 Clouds 8 1003 52 10000 12.9 230 17:19 03.10.2019
646 Clouds 7 1004 65 10000 12.9 230 16:41 03.10.2019
647 Clouds 7 1004 65 10000 12.9 230 16:23 03.10.2019
648 Clouds 7 1004 60 10000 12.9 230 15:55 03.10.2019
649 Clouds 7 1004 60 10000 12.9 230 15:37 03.10.2019
650 Clouds 7 1004 60 10000 12.9 230 15:18 03.10.2019
651 Clouds 6 1004 56 10000 12.9 230 14:43 03.10.2019
652 Clouds 7 1004 56 10000 12.9 230 14:24 03.10.2019
653 Clouds 7 1004 52 10000 14.4 230 13:57 03.10.2019
654 Clouds 7 1004 52 10000 14.4 230 13:38 03.10.2019
655 Clouds 7 1004 52 10000 14.4 230 13:19 03.10.2019
656 Clouds 6 1005 56 10000 12.9 230 12:55 03.10.2019
657 Clouds 6 1005 56 10000 12.9 230 12:55 03.10.2019
658 -273 0 0 0 0 0 12:55 03.10.2019
659 Clouds 6 1005 56 10000 12.9 230 12:36 03.10.2019
660 Clouds 6 1005 56 10000 12.9 230 12:18 03.10.2019
661 Clouds 5 1006 60 10000 10.8 230 11:40 03.10.2019
662 Clouds 5 1006 60 10000 10.8 230 11:22 03.10.2019
663 Clouds 5 1007 60 10000 11.8 230 10:58 03.10.2019
664 Clouds 5 1007 60 10000 11.8 230 10:39 03.10.2019
665 Clouds 5 1007 60 10000 11.8 230 10:18 03.10.2019
666 Clouds 5 1007 65 10000 10.3 230 09:57 03.10.2019
667 Clouds 5 1007 65 10000 10.3 230 09:38 03.10.2019
668 Clouds 5 1007 65 10000 10.3 230 09:19 03.10.2019
669 Clear 5 1007 65 10000 11.8 230 08:43 03.10.2019
670 Clear 5 1007 65 10000 11.8 230 08:25 03.10.2019
671 Clear 5 1007 65 10000 13.4 230 07:56 03.10.2019
672 Clear 5 1007 65 10000 13.4 230 07:37 03.10.2019
673 Clear 5 1007 65 10000 13.4 230 07:19 03.10.2019
674 Clouds 5 1008 97 10000 11.8 230 06:45 03.10.2019
675 Clouds 5 1008 96 10000 11.8 230 06:18 03.10.2019
676 Clouds 5 1008 65 10000 13.4 230 05:38 03.10.2019
677 Clouds 5 1008 65 10000 13.9 230 04:50 03.10.2019
678 Clouds 5 1008 65 10000 13.9 230 04:25 03.10.2019
679 Clouds 5 1010 65 10000 12.3 230 03:21 03.10.2019
680 Clouds 5 1010 65 10000 13.4 230 02:37 03.10.2019
681 Clouds 6 1009 70 10000 15.9 230 01:51 03.10.2019
682 Clouds 6 1009 70 10000 15.9 230 01:32 03.10.2019
683 Clouds 6 1009 70 10000 16.5 230 00:47 03.10.2019
684 Clouds 6 1009 70 10000 16.5 230 00:18 03.10.2019
685 Clouds 6 1009 75 10000 13.9 230 23:43 02.10.2019
686 Clouds 7 1009 75 10000 13.9 230 23:21 02.10.2019
687 Clouds 7 1009 70 10000 8.7 230 22:44 02.10.2019
688 Clouds 7 1009 70 10000 8.7 230 22:44 02.10.2019
689 Clouds 7 1009 70 10000 8.7 230 22:21 02.10.2019
690 Clouds 7 1010 75 10000 11.8 230 21:56 02.10.2019
691 Clouds 7 1010 75 10000 11.8 230 21:56 02.10.2019
692 Clouds 7 1010 75 10000 11.8 230 21:38 02.10.2019
693 Clouds 7 1010 75 10000 11.8 230 21:20 02.10.2019
694 Clouds 6 1010 70 10000 14.4 230 20:57 02.10.2019
695 Clouds 6 1010 70 10000 14.4 230 20:38 02.10.2019
696 Clouds 9 1010 70 10000 14.4 230 20:20 02.10.2019
697 Clouds 9 1010 70 10000 13.9 230 19:55 02.10.2019
698 Clouds 9 1010 70 10000 13.9 230 19:55 02.10.2019
699 Clouds 9 1010 70 10000 13.9 230 19:54 02.10.2019
700 Clouds 9 1010 70 10000 13.9 230 19:36 02.10.2019
701 Clouds 9 1010 70 10000 13.9 230 19:36 02.10.2019
702 Clouds 9 1010 70 10000 13.9 230 19:18 02.10.2019
703 Clouds 8 1010 75 10000 14.9 230 18:56 02.10.2019
704 Clouds 8 1010 75 10000 14.9 230 18:36 02.10.2019
705 Clouds 8 1010 75 10000 14.9 230 18:18 02.10.2019
706 Clouds 8 1010 75 10000 12.3 230 17:42 02.10.2019
707 Clouds 8 1010 75 10000 12.3 230 17:21 02.10.2019
708 Clouds 8 1010 70 10000 12.9 230 16:59 02.10.2019
709 Clouds 8 1010 70 10000 12.9 230 16:39 02.10.2019
710 Clouds 7 1009 70 10000 14.4 230 16:20 02.10.2019
711 Clouds 7 1009 70 10000 14.4 230 15:57 02.10.2019
712 Clouds 7 1009 70 10000 14.4 230 15:38 02.10.2019
713 Clouds 7 1009 70 10000 14.4 230 15:18 02.10.2019
714 Clouds 7 1009 70 10000 14.4 230 15:18 02.10.2019
715 Clouds 5 1009 78 10000 14.4 230 14:45 02.10.2019
716 Clouds 5 1009 78 10000 14.4 230 14:27 02.10.2019
717 Clouds 5 1009 80 10000 10.3 230 13:58 02.10.2019
718 Clouds 5 1009 80 10000 10.3 230 13:40 02.10.2019
719 Clouds 5 1009 80 10000 10.3 230 13:21 02.10.2019
720 Clouds 4 1009 86 10000 8.7 230 12:54 02.10.2019
721 Clouds 4 1009 86 10000 8.7 230 12:36 02.10.2019
722 Clouds 4 1009 86 10000 8.7 230 12:18 02.10.2019
723 Clouds 4 1009 86 10000 8.7 230 12:18 02.10.2019
724 Rain 4 1009 80 10000 11.3 250 11:41 02.10.2019
725 Rain 4 1009 80 10000 11.3 250 11:21 02.10.2019
726 Clouds 4 1009 80 10000 11.3 250 10:40 02.10.2019
727 Clouds 4 1009 80 10000 11.3 250 10:19 02.10.2019
728 Clouds 4 1008 80 10000 12.9 250 09:42 02.10.2019
729 Clouds 4 1008 80 10000 12.9 250 09:20 02.10.2019
730 Clouds 4 1008 69 10000 12.9 230 08:57 02.10.2019
731 Clouds 4 1008 69 10000 12.9 230 08:39 02.10.2019
732 Clouds 4 1008 69 10000 12.9 230 08:20 02.10.2019
733 Clouds 4 1008 69 10000 2.6 270 07:55 02.10.2019
734 Clouds 4 1008 69 10000 2.6 270 07:37 02.10.2019
735 Clouds 4 1008 69 10000 2.6 270 07:37 02.10.2019
736 Clouds 4 1009 64 10000 7.7 250 07:18 02.10.2019
737 Clouds 4 1009 64 10000 7.7 250 06:28 02.10.2019
738 Clouds 3 1009 74 10000 4.1 270 05:51 02.10.2019
739 Clouds 3 1009 74 10000 4.1 270 05:22 02.10.2019
740 Clouds 3 1009 92 10000 3.6 270 04:18 02.10.2019
741 Clouds 4 1009 92 10000 7.2 270 03:45 02.10.2019
742 Clouds 4 1009 89 10000 11.3 230 02:38 02.10.2019
743 Clouds 4 1009 89 10000 11.3 230 02:20 02.10.2019
744 Clouds 5 1008 88 10000 10.3 230 00:55 02.10.2019
745 Clouds 5 1008 88 10000 10.3 230 00:30 02.10.2019
746 Clouds 5 1008 72 10000 12.9 230 23:57 01.10.2019
747 Clouds 5 1008 72 10000 12.9 230 23:39 01.10.2019
748 Clouds 5 1008 72 10000 12.9 230 23:21 01.10.2019
749 Clouds 5 1007 72 10000 13.4 230 22:58 01.10.2019
750 Clouds 5 1007 72 10000 13.4 230 22:58 01.10.2019
751 Clouds 5 1007 72 10000 13.4 230 22:38 01.10.2019
752 Clouds 5 1007 72 10000 13.4 230 22:18 01.10.2019
753 Rain 5 1007 72 10000 11.3 230 21:43 01.10.2019
754 Rain 5 1007 72 10000 11.3 230 21:43 01.10.2019
755 Rain 5 1007 71 10000 11.3 230 21:23 01.10.2019
756 Rain 5 1007 71 10000 11.3 230 21:23 01.10.2019
757 Clouds 4 1006 80 10000 10.3 230 20:59 01.10.2019
758 Clouds 4 1006 80 10000 10.3 230 20:59 01.10.2019
759 Clouds 4 1006 80 10000 10.3 230 20:39 01.10.2019
760 Clouds 5 1006 80 10000 10.3 230 20:20 01.10.2019
761 Clouds 5 1006 61 10000 8.2 230 19:58 01.10.2019
762 Clouds 5 1006 61 10000 8.2 230 19:40 01.10.2019
763 Clouds 5 1006 61 10000 8.2 230 19:21 01.10.2019
764 Clouds 3 1006 65 10000 10.8 230 18:56 01.10.2019
765 Clouds 3 1006 65 10000 10.8 230 18:38 01.10.2019
766 Clouds 3 1006 65 10000 10.8 230 18:19 01.10.2019
767 Rain 3 1006 69 10000 10.3 230 17:43 01.10.2019
768 Rain 3 1006 69 10000 10.3 230 17:22 01.10.2019
769 Rain 3 1005 74 8000 10.3 230 16:59 01.10.2019
770 Rain 3 1005 74 8000 10.3 230 16:41 01.10.2019
771 Rain 3 1005 74 8000 10.3 230 16:22 01.10.2019
772 Rain 3 1005 74 8000 10.3 230 16:22 01.10.2019
773 Snow 2 1005 80 5000 10.3 230 15:49 01.10.2019
774 Snow 2 1005 80 5000 10.3 230 15:25 01.10.2019
775 Clouds 1 1004 86 8000 7.7 230 14:58 01.10.2019
776 Clouds 1 1004 86 8000 7.7 230 14:40 01.10.2019
777 Snow 0 1004 86 8000 7.7 230 14:20 01.10.2019
778 Snow 0 1004 86 8000 9.3 230 13:56 01.10.2019
779 Snow 0 1004 86 8000 9.3 230 13:37 01.10.2019
780 Snow 0 1004 86 8000 9.3 230 13:37 01.10.2019
781 Snow 0 1004 86 8000 9.3 230 13:18 01.10.2019
782 Snow 1 1003 86 4000 11.3 230 12:55 01.10.2019
783 Snow 1 1003 86 4000 11.3 230 12:37 01.10.2019
784 Snow 1 1003 86 4000 11.3 230 12:18 01.10.2019
785 Snow 2 1002 80 4000 9.8 230 11:56 01.10.2019
786 Snow 2 1002 80 4000 9.8 230 11:36 01.10.2019
787 Snow 2 1002 80 4000 9.8 230 11:18 01.10.2019
788 Snow 2 1002 74 5000 8.7 230 10:46 01.10.2019
789 Snow 2 1002 74 5000 8.7 230 10:28 01.10.2019
790 Snow 1 1001 80 5000 8.7 230 09:45 01.10.2019
791 Snow 1 1001 80 5000 8.7 230 09:26 01.10.2019
792 Snow 1 1001 80 3000 8.2 230 08:45 01.10.2019
793 Snow 1 1001 80 3000 8.2 230 08:27 01.10.2019
794 Snow 1 1001 80 6500 7.2 230 07:56 01.10.2019
795 Snow 1 1001 80 6500 7.2 230 07:38 01.10.2019
796 Snow 1 1001 80 6500 7.2 230 07:19 01.10.2019
797 Clouds 1 1000 80 5000 6.7 230 06:41 01.10.2019
798 Clouds 1 1000 80 5000 6.7 230 06:18 01.10.2019
799 Rain 1 1000 86 10000 6.2 180 05:43 01.10.2019
800 Snow 1 1000 86 8000 4.6 230 04:42 01.10.2019
801 Rain 1 999 86 10000 8.2 230 03:46 01.10.2019
802 Snow 0 999 86 5000 7.2 230 02:20 01.10.2019
803 Snow 0 998 86 6000 10.8 230 01:56 01.10.2019
804 Snow 0 998 86 6000 10.8 230 01:56 01.10.2019
805 Snow 1 998 86 8000 9.8 230 00:46 01.10.2019
806 Snow 1 998 86 8000 9.8 230 00:25 01.10.2019
807 Snow 1 997 86 10000 9.3 230 23:42 30.09.2019
808 Snow 1 997 86 10000 9.3 230 23:23 30.09.2019
809 Rain 1 997 74 10000 10.8 230 22:58 30.09.2019
810 Rain 1 997 74 10000 10.8 230 22:40 30.09.2019
811 Rain 1 997 74 10000 10.8 230 22:21 30.09.2019
812 Rain 1 997 86 10000 10.3 230 21:55 30.09.2019
813 Rain 1 997 86 10000 10.3 230 21:37 30.09.2019
814 Rain 1 997 86 10000 10.3 230 21:19 30.09.2019
815 Rain 1 997 86 10000 6.2 230 20:55 30.09.2019
816 Rain 1 997 86 10000 6.2 230 20:37 30.09.2019
817 Rain 1 997 86 10000 6.2 230 20:19 30.09.2019
818 Rain 1 997 86 10000 6.2 230 20:19 30.09.2019
819 Rain 1 997 86 10000 12.3 230 19:55 30.09.2019
820 Rain 1 997 86 10000 12.3 230 19:37 30.09.2019
821 -273 0 0 0 0 0 19:18 30.09.2019
822 Rain 1 997 86 10000 12.3 230 19:18 30.09.2019
823 Rain 1 997 86 10000 12.3 230 19:18 30.09.2019
824 Snow 1 996 86 4000 13.4 230 18:41 30.09.2019
825 Snow 1 996 86 4000 13.4 230 18:22 30.09.2019
826 Rain 0 997 86 10000 10.3 230 17:57 30.09.2019
827 Rain 0 997 86 10000 10.3 230 17:39 30.09.2019
828 Rain 0 997 86 10000 10.3 230 17:20 30.09.2019
829 Snow 1 996 86 10000 11.3 230 16:55 30.09.2019
830 Snow 1 996 86 10000 11.3 230 16:36 30.09.2019
831 Snow 0 996 86 10000 11.3 230 16:18 30.09.2019
832 Rain 0 996 81 10000 11.3 230 15:54 30.09.2019
833 Rain 0 996 81 10000 11.3 230 15:36 30.09.2019
834 Rain 0 996 90 10000 11.3 230 15:18 30.09.2019
835 Rain 0 996 90 10000 12.9 230 14:54 30.09.2019
836 Rain 0 996 90 10000 12.9 230 14:36 30.09.2019
837 Rain 0 996 90 10000 12.9 230 14:18 30.09.2019
838 Rain 0 995 90 10000 10.3 230 13:43 30.09.2019
839 Rain 0 995 88 10000 10.3 230 13:22 30.09.2019
840 Rain 0 995 88 10000 11.3 230 12:57 30.09.2019
841 Rain 0 995 88 10000 11.3 230 12:39 30.09.2019
842 -273 0 0 0 0 0 12:19 30.09.2019
843 Rain 0 995 96 10000 7.7 230 11:43 30.09.2019
844 Rain 0 995 96 10000 7.7 230 11:22 30.09.2019
845 Snow 0 994 96 10000 7.2 230 10:59 30.09.2019
846 Snow 0 994 96 10000 7.2 230 10:38 30.09.2019
847 Snow 0 994 96 10000 7.2 230 10:19 30.09.2019
848 Rain 0 994 96 10000 7.7 230 09:58 30.09.2019
849 Rain 0 994 96 10000 7.7 230 09:39 30.09.2019
850 Rain 0 994 96 10000 7.7 230 09:19 30.09.2019
851 Clouds 1 994 80 10000 4.1 180 08:46 30.09.2019
852 Clouds 1 994 80 10000 4.1 180 08:27 30.09.2019
853 Clouds 0 993 95 10000 4.6 180 07:44 30.09.2019
854 Clouds 0 993 95 10000 4.6 180 07:44 30.09.2019
855 Clouds 0 993 95 10000 4.6 180 07:44 30.09.2019
856 Clouds 0 993 95 10000 4.6 180 07:25 30.09.2019
857 Rain 0 993 95 10000 5.1 180 06:50 30.09.2019
858 Rain 0 993 95 10000 5.1 180 06:31 30.09.2019
859 Rain 0 992 96 10000 5.7 180 05:46 30.09.2019
860 Rain 0 992 96 10000 5.7 180 05:46 30.09.2019
861 Rain 0 990 96 10000 5.7 140 03:33 30.09.2019
862 Rain 0 990 96 10000 5.7 140 03:33 30.09.2019
863 Clouds -2 988 97 0 3.14 187.457 02:45 30.09.2019
864 Snow 1 988 86 5000 4.1 140 01:33 30.09.2019
865 Snow 1 987 80 5000 5.1 140 00:42 30.09.2019
866 Snow 1 987 80 5000 5.1 140 00:21 30.09.2019
867 Drizzle 6 985 87 10000 7.2 160 23:45 29.09.2019
868 Drizzle 6 985 87 10000 7.2 160 23:23 29.09.2019
869 Drizzle 7 982 87 10000 12.9 160 22:55 29.09.2019
870 Drizzle 7 982 87 10000 12.9 160 22:37 29.09.2019
871 Drizzle 7 982 87 10000 12.9 160 22:37 29.09.2019
872 Drizzle 7 982 87 10000 12.9 160 22:19 29.09.2019
873 Clouds 7 981 87 10000 2.1 180 21:56 29.09.2019
874 Clouds 7 981 87 10000 2.1 180 21:37 29.09.2019
875 Clouds 7 981 87 10000 2.1 180 21:19 29.09.2019
876 Clouds 8 981 75 10000 1.37 329.719 20:44 29.09.2019
877 Clouds 8 981 75 10000 1.7 327.048 20:20 29.09.2019
878 Clouds 7 980 81 10000 2.1 50 19:59 29.09.2019
879 Clouds 7 980 81 10000 2.1 50 19:37 29.09.2019
880 Clouds 7 980 81 10000 2.1 50 19:37 29.09.2019
881 Clouds 7 980 81 10000 2.1 50 19:19 29.09.2019
882 Clouds 6 980 87 10000 1.7 327.048 18:56 29.09.2019
883 Clouds 6 980 87 10000 1.7 327.048 18:38 29.09.2019
884 Clouds 6 980 87 10000 2.71 343.205 18:19 29.09.2019
885 Clouds 6 980 87 10000 2.71 343.205 17:58 29.09.2019
886 Clouds 6 980 87 10000 2.71 343.205 17:38 29.09.2019
887 Clouds 6 980 87 10000 2.71 343.205 17:19 29.09.2019
888 Clouds 5 980 93 10000 2.71 343.205 16:58 29.09.2019
889 Clouds 5 980 93 10000 2.71 343.205 16:58 29.09.2019
890 Clouds 5 980 93 10000 2.71 343.205 16:39 29.09.2019
891 Clouds 5 980 93 10000 2.71 343.205 16:19 29.09.2019
892 Clouds 5 980 93 10000 2.71 343.205 16:19 29.09.2019
893 Clouds 5 980 86 10000 2.71 343.205 15:56 29.09.2019
894 Clouds 5 980 86 10000 2.71 343.205 15:36 29.09.2019
895 Clouds 5 980 86 10000 2.34 352.216 15:18 29.09.2019
896 Clouds 4 981 86 10000 2.34 352.216 14:55 29.09.2019
897 Clouds 4 981 86 10000 2.34 352.216 14:36 29.09.2019
898 Clouds 4 981 86 10000 2.34 352.216 14:18 29.09.2019
899 Clouds 3 981 93 10000 2.34 352.216 13:41 29.09.2019
900 Clouds 3 981 93 10000 1.77 344.731 13:19 29.09.2019
901 Clouds 3 981 93 10000 1.77 344.731 12:58 29.09.2019
902 Clouds 3 981 93 10000 1.77 344.731 12:40 29.09.2019
903 Clouds 3 981 93 10000 1.77 344.731 12:40 29.09.2019
904 Clouds 3 981 93 10000 2.16 349.878 12:21 29.09.2019
905 Rain 3 982 93 10000 2.6 90 11:57 29.09.2019
906 Rain 3 982 93 10000 2.6 90 11:39 29.09.2019
907 Rain 3 982 93 10000 2.6 90 11:18 29.09.2019
908 Rain 3 982 100 10000 2.6 360 10:57 29.09.2019
909 Rain 3 982 100 10000 2.6 360 10:57 29.09.2019
910 Rain 3 982 100 10000 2.6 360 10:37 29.09.2019
911 Rain 3 982 100 10000 2.6 360 10:18 29.09.2019
912 Rain 3 982 100 10000 2.6 360 10:18 29.09.2019
913 Rain 3 983 100 10000 3.6 90 09:47 29.09.2019
914 Rain 3 983 100 10000 3.6 90 09:21 29.09.2019
915 Clouds 3 983 100 10000 4.1 90 08:59 29.09.2019
916 Clouds 3 983 100 10000 4.1 90 08:39 29.09.2019
917 Clouds 3 983 100 10000 4.1 90 08:20 29.09.2019
918 Drizzle 3 984 100 8000 1.32 340.32 07:43 29.09.2019
919 Drizzle 3 984 100 8000 1.32 340.32 07:24 29.09.2019
920 Drizzle 4 986 93 8000 1.32 340.32 06:45 29.09.2019
921 Rain 4 986 93 4000 11.8 230 05:47 29.09.2019
922 Rain 7 986 81 4000 15.4 230 04:40 29.09.2019
923 Rain 7 986 81 4000 15.4 230 04:22 29.09.2019
924 Clouds 8 986 70 10000 2.6 50 02:47 29.09.2019
925 Clouds 8 986 70 10000 2.6 50 02:18 29.09.2019
926 Clouds 9 986 66 10000 2.6 90 01:32 29.09.2019
927 Clouds 11 987 57 10000 1.52 302.073 00:53 29.09.2019
928 Clouds 11 987 57 10000 2.32 323.949 00:21 29.09.2019
929 Clouds 11 987 57 10000 2.1 180 23:55 28.09.2019
930 Clouds 11 987 57 10000 2.1 180 23:36 28.09.2019
931 Clouds 11 987 57 10000 2.1 180 23:18 28.09.2019
932 Clouds 12 988 54 10000 4.1 320 22:39 28.09.2019
933 Clouds 12 988 54 10000 4.1 320 22:21 28.09.2019
934 Clouds 12 989 54 10000 5.1 340 21:57 28.09.2019
935 Clouds 12 989 54 10000 5.1 340 21:39 28.09.2019
936 Clouds 12 989 54 10000 5.1 340 21:39 28.09.2019
937 Clouds 12 989 54 10000 5.1 340 21:20 28.09.2019
938 Clouds 12 989 46 10000 6.2 320 20:57 28.09.2019
939 Clouds 12 989 46 10000 6.2 320 20:38 28.09.2019
940 Clouds 12 989 46 10000 6.2 320 20:18 28.09.2019
941 Clouds 12 990 46 10000 4.6 320 19:56 28.09.2019
942 Clouds 12 990 46 10000 4.6 320 19:37 28.09.2019
943 Clouds 12 990 46 10000 4.6 320 19:19 28.09.2019
944 Clouds 12 990 43 10000 2.1 50 18:54 28.09.2019
945 Clouds 12 990 43 10000 2.1 50 18:36 28.09.2019
946 Clouds 12 990 43 10000 2.1 50 18:18 28.09.2019
947 Clouds 12 991 43 10000 4.1 360 17:42 28.09.2019
948 Clouds 12 991 43 10000 4.1 360 17:22 28.09.2019
949 Clouds 12 991 43 10000 4.1 360 17:22 28.09.2019
950 Clouds 10 992 81 10000 3.56 345.323 16:57 28.09.2019
951 Clouds 10 992 81 10000 3.56 345.323 16:38 28.09.2019
952 Clouds 10 992 81 10000 3.56 345.323 16:20 28.09.2019
953 Clouds 7 993 81 10000 3.56 345.323 15:41 28.09.2019
954 Clouds 7 993 81 10000 2.13 336.816 15:22 28.09.2019
955 Clouds 6 994 87 10000 3.1 50 14:56 28.09.2019
956 Clouds 6 994 87 10000 3.1 50 14:56 28.09.2019
957 Clouds 6 994 87 10000 3.1 50 14:37 28.09.2019
958 Clouds 6 994 87 10000 3.1 50 14:19 28.09.2019
959 Clouds 6 995 87 10000 3.1 70 13:56 28.09.2019
960 Clouds 6 995 87 10000 3.1 70 13:37 28.09.2019
961 Clouds 6 995 87 10000 3.1 70 13:19 28.09.2019
962 Clouds 6 995 81 10000 2.6 90 12:40 28.09.2019
963 Clouds 6 995 81 10000 2.6 90 12:19 28.09.2019
964 Clouds 5 996 93 10000 2.1 360 11:43 28.09.2019
965 Clouds 5 996 93 10000 2.1 360 11:22 28.09.2019
966 Clouds 5 996 86 10000 2.17 333.896 10:59 28.09.2019
967 Clouds 5 996 86 10000 2.17 333.896 10:39 28.09.2019
968 Clouds 5 996 86 10000 2.17 333.896 10:19 28.09.2019
969 Clouds 6 997 81 10000 2.1 90 09:42 28.09.2019
970 Clouds 5 997 81 10000 2.1 90 09:23 28.09.2019
971 Clouds 5 997 81 10000 2.6 360 08:55 28.09.2019
972 Clouds 5 997 81 10000 2.6 360 08:37 28.09.2019
973 Clouds 5 997 81 10000 2.6 360 08:18 28.09.2019
974 Clouds 6 998 70 10000 2.1 230 07:43 28.09.2019
975 Clouds 6 998 70 10000 2.1 230 07:19 28.09.2019
976 Clouds 6 998 70 10000 1.86 326.079 06:52 28.09.2019
977 Clouds 6 998 70 10000 1.86 326.079 06:30 28.09.2019
978 Clouds 7 999 70 10000 1.89 300.662 05:43 28.09.2019
979 Clouds 7 999 70 10000 1.89 300.662 05:20 28.09.2019
980 Clouds 8 999 65 10000 1.89 300.662 04:38 28.09.2019
981 Clouds 8 1000 61 10000 2.1 230 03:49 28.09.2019
982 Clouds 8 1000 61 10000 2.1 230 03:21 28.09.2019
983 Clouds 9 1000 61 10000 1.99 320.845 02:44 28.09.2019
984 Clouds 10 1000 61 10000 1.99 320.845 02:26 28.09.2019
985 Clouds 10 1000 66 10000 2.6 50 01:47 28.09.2019
986 Clouds 10 1000 66 10000 2.6 50 01:26 28.09.2019
987 Clouds 11 1000 66 10000 1.66 315.195 00:49 28.09.2019
988 Clouds 11 1000 66 10000 1.66 315.195 00:31 28.09.2019
989 Clear 12 1000 54 10000 2.38 326.283 23:55 27.09.2019
990 Clear 12 1000 54 10000 2.38 326.283 23:36 27.09.2019
991 Clear 12 1000 54 10000 2.38 326.283 23:18 27.09.2019
992 Clear 14 1000 44 10000 2.38 326.283 22:41 27.09.2019
993 Clear 13 1000 44 10000 2.38 326.283 22:19 27.09.2019
994 Clear 13 1000 44 10000 2.38 326.283 22:19 27.09.2019
995 Clear 13 1000 41 10000 2.38 326.283 21:55 27.09.2019
996 Clear 13 1000 41 10000 2.38 326.283 21:37 27.09.2019
997 Clear 13 1000 41 10000 2.09 333.251 21:18 27.09.2019
998 Clear 13 1000 37 10000 2.09 333.251 20:55 27.09.2019
999 Clear 13 1000 37 10000 2.11 328.3 20:36 27.09.2019
1000 Clear 12 1000 37 10000 2.11 328.3 20:18 27.09.2019
1001 Clear 12 1001 57 10000 2.11 328.3 19:42 27.09.2019
1002 Clear 12 1001 57 10000 2.11 328.3 19:23 27.09.2019
1003 Clear 11 1001 61 10000 2.11 328.3 18:57 27.09.2019
1004 Clear 11 1001 61 10000 2.11 328.3 18:38 27.09.2019
1005 Clear 11 1001 61 10000 1.92 311.641 18:20 27.09.2019
1006 Clear 11 1001 61 10000 1.92 311.641 18:20 27.09.2019
1007 Clouds 10 1002 61 10000 1.5 50 17:40 27.09.2019
1008 Clouds 10 1002 61 10000 1.5 50 17:40 27.09.2019
1009 Clouds 10 1002 61 10000 1.5 50 17:22 27.09.2019
1010 Clouds 8 1002 75 10000 2.1 20 16:59 27.09.2019
1011 Clouds 8 1002 75 10000 2.1 20 16:41 27.09.2019
1012 Clouds 8 1002 75 10000 2.1 20 16:20 27.09.2019
1013 Clouds 8 1002 81 10000 1.92 311.641 15:58 27.09.2019
1014 Clouds 8 1002 81 10000 1.92 311.641 15:39 27.09.2019
1015 Clouds 8 1002 81 10000 3.17 323.738 15:19 27.09.2019
1016 Clouds 7 1002 75 10000 1.5 70 14:56 27.09.2019
1017 Clouds 7 1002 75 10000 1.5 70 14:37 27.09.2019
1018 Clouds 7 1002 75 10000 1.5 70 14:37 27.09.2019
1019 Clouds 5 1002 75 10000 1.5 70 14:18 27.09.2019
1020 Rain 5 1002 75 10000 1.5 340 13:55 27.09.2019
1021 Rain 5 1002 75 10000 1.5 340 13:37 27.09.2019
1022 Rain 5 1002 75 10000 1.5 340 13:18 27.09.2019
1023 Clouds 6 1002 65 10000 2.1 90 12:42 27.09.2019
1024 Clouds 6 1002 65 10000 2.1 90 12:20 27.09.2019
1025 Clouds 7 1002 87 10000 3.54 333.269 11:40 27.09.2019
1026 Clouds 7 1002 87 10000 3.54 333.269 11:40 27.09.2019
1027 Clouds 7 1002 87 10000 3.54 333.269 11:22 27.09.2019
1028 Clouds 7 1001 87 10000 3.54 333.269 10:58 27.09.2019
1029 Clouds 7 1001 87 10000 3.54 333.269 10:40 27.09.2019
1030 Clouds 7 1001 87 10000 3.54 333.269 10:20 27.09.2019
1031 Clouds 6 1001 75 10000 3.6 147 09:43 27.09.2019
1032 Clouds 6 1001 75 10000 3.6 147 09:22 27.09.2019
1033 Clouds 6 1001 75 10000 4.6 140 08:58 27.09.2019
1034 Clouds 6 1001 75 10000 4.6 140 08:39 27.09.2019
1035 Clouds 6 1001 75 10000 4.6 140 08:20 27.09.2019
1036 Clouds 6 1002 94 10000 3.1 140 07:46 27.09.2019
1037 Clouds 6 1002 94 10000 3.1 140 07:24 27.09.2019
1038 Clouds 6 1003 75 10000 3.6 140 06:43 27.09.2019
1039 Clouds 6 1003 75 10000 3.6 140 06:25 27.09.2019
1040 Clouds 7 1004 56 10000 3.28 342.902 05:51 27.09.2019
1041 Clouds 7 1004 56 10000 3.28 342.902 05:33 27.09.2019
1042 Clouds 8 1006 94 10000 3.28 342.902 03:57 27.09.2019
1043 Clouds 8 1006 94 10000 3.28 342.902 03:36 27.09.2019
1044 Clear 9 1007 94 10000 2.6 320 01:52 27.09.2019
1045 Clear 9 1007 96 10000 2.6 320 01:28 27.09.2019
1046 Clear 9 1007 96 10000 2.91 328.347 00:30 27.09.2019
1047 Clouds 9 1008 61 10000 3.1 230 23:56 26.09.2019
1048 Clouds 9 1008 61 10000 3.1 230 23:38 26.09.2019
1049 Clouds 9 1008 61 10000 3.1 230 23:19 26.09.2019
1050 Clouds 9 1008 61 10000 5.7 230 22:57 26.09.2019
1051 Clouds 9 1008 61 10000 5.7 230 22:39 26.09.2019
1052 Clouds 9 1008 61 10000 5.7 230 22:18 26.09.2019
1053 Clouds 10 1009 61 10000 6.7 230 21:57 26.09.2019
1054 Clouds 10 1009 61 10000 6.7 230 21:37 26.09.2019
1055 Clouds 10 1009 61 10000 6.7 230 21:19 26.09.2019
1056 Clouds 10 1009 61 10000 6.7 230 21:19 26.09.2019
1057 Clouds 9 1009 57 10000 6.2 230 20:58 26.09.2019
1058 -273 0 0 0 0 0 20:39 26.09.2019
1059 Clouds 9 1009 57 10000 6.2 230 20:21 26.09.2019
1060 Clouds 9 1010 61 10000 7.2 230 19:56 26.09.2019
1061 Clouds 9 1010 61 10000 7.2 230 19:37 26.09.2019
1062 Clouds 9 1010 61 10000 6.2 230 19:18 26.09.2019
1063 Clouds 9 1010 61 10000 6.2 230 18:42 26.09.2019
1064 Clouds 9 1010 61 10000 6.2 230 18:22 26.09.2019
1065 Clouds 10 1011 92 10000 6.2 260 17:59 26.09.2019
1066 Clouds 10 1011 92 10000 6.2 260 17:38 26.09.2019
1067 Clouds 8 1011 92 10000 6.2 260 17:19 26.09.2019
1068 Clouds 8 1011 65 10000 6.7 230 16:55 26.09.2019
1069 Clouds 8 1011 65 10000 6.7 230 16:37 26.09.2019
1070 Clouds 8 1011 65 10000 6.7 230 16:18 26.09.2019
1071 Clouds 6 1011 92 10000 3.6 340 15:42 26.09.2019
1072 Clouds 6 1011 96 10000 3.6 340 15:23 26.09.2019
1073 Clouds 6 1011 56 10000 2.6 340 14:59 26.09.2019
1074 Clouds 6 1011 56 10000 2.6 340 14:40 26.09.2019
1075 Clouds 6 1011 56 10000 2.6 340 14:21 26.09.2019
1076 Clouds 5 1010 65 10000 4.1 320 13:57 26.09.2019
1077 Clouds 5 1010 65 10000 4.1 320 13:39 26.09.2019
1078 Clouds 5 1010 65 10000 4.1 320 13:39 26.09.2019
1079 Clouds 5 1010 65 10000 4.1 320 13:39 26.09.2019
1080 Clouds 5 1010 65 10000 4.1 320 13:19 26.09.2019
1081 Clouds 4 1010 69 10000 4.1 320 12:43 26.09.2019
1082 Clouds 4 1010 69 10000 4.1 320 12:23 26.09.2019
1083 Clouds 4 1010 64 10000 4.1 320 11:57 26.09.2019
1084 Clouds 4 1010 64 10000 4.1 320 11:57 26.09.2019
1085 Clouds 4 1010 64 10000 4.1 320 11:39 26.09.2019
1086 Clouds 4 1010 64 10000 4.1 320 11:19 26.09.2019
1087 Clouds 4 1010 64 10000 4.1 320 11:19 26.09.2019
1088 Clouds 4 1009 64 10000 7.7 230 10:42 26.09.2019
1089 Clouds 5 1009 64 10000 7.7 230 10:23 26.09.2019
1090 Clear 6 1009 60 10000 7.7 230 09:58 26.09.2019
1091 Clear 6 1009 60 10000 7.7 230 09:40 26.09.2019
1092 Clear 6 1009 60 10000 7.7 230 09:19 26.09.2019
1093 Clear 5 1009 64 10000 12.3 200 08:51 26.09.2019
1094 Clear 5 1009 64 10000 12.3 200 08:31 26.09.2019
1095 Clouds 5 1009 64 10000 8.2 200 07:47 26.09.2019
1096 Clouds 5 1009 64 10000 8.2 200 07:22 26.09.2019
1097 Clouds 5 1009 64 10000 8.2 200 07:22 26.09.2019
1098 Clouds 5 1010 64 10000 5.7 200 06:55 26.09.2019
1099 Clouds 5 1009 56 10000 7.7 240 06:29 26.09.2019
1100 Clouds 5 1010 69 10000 7.7 230 05:59 26.09.2019
1101 Clouds 5 1010 69 10000 7.7 230 05:32 26.09.2019
1102 Rain 5 1010 69 10000 8.2 230 04:33 26.09.2019
1103 Rain 4 1009 69 10000 5.1 270 02:33 26.09.2019
1104 Rain 4 1008 69 10000 4.1 270 01:48 26.09.2019
1105 Rain 4 1008 69 10000 4.1 270 01:22 26.09.2019
1106 Rain 3 1007 74 10000 7.2 230 00:46 26.09.2019
1107 Rain 3 1007 74 10000 7.2 230 00:25 26.09.2019
1108 Drizzle 4 1006 64 10000 7.7 230 23:44 25.09.2019
1109 Drizzle 4 1006 64 10000 7.7 230 23:25 25.09.2019
1110 Rain 4 1004 93 10000 6.2 230 22:56 25.09.2019
1111 Rain 4 1004 93 10000 6.2 230 22:37 25.09.2019
1112 Rain 4 1004 93 10000 6.2 230 22:37 25.09.2019
1113 Rain 4 1004 93 10000 6.2 230 22:18 25.09.2019
1114 Drizzle 4 1004 60 10000 7.2 230 21:56 25.09.2019
1115 Drizzle 4 1004 60 10000 7.2 230 21:56 25.09.2019
1116 Drizzle 4 1004 60 10000 7.2 230 21:37 25.09.2019
1117 Drizzle 4 1004 60 10000 7.2 230 21:18 25.09.2019
1118 Drizzle 5 1002 60 10000 8.2 230 20:56 25.09.2019
1119 Drizzle 5 1002 60 10000 8.2 230 20:37 25.09.2019
1120 Drizzle 5 1002 60 10000 8.2 230 20:19 25.09.2019
1121 Clouds 5 1001 70 10000 8.7 230 19:40 25.09.2019
1122 Clouds 5 1001 70 10000 8.7 230 19:21 25.09.2019
1123 Drizzle 7 999 70 10000 14.4 230 18:57 25.09.2019
1124 Drizzle 7 999 70 10000 14.4 230 18:57 25.09.2019
1125 Drizzle 7 999 70 10000 14.4 230 18:38 25.09.2019
1126 Drizzle 7 999 70 10000 14.4 230 18:20 25.09.2019
1127 -273 0 0 0 0 0 17:55 25.09.2019
1128 Rain 6 999 75 10000 12.9 250 17:36 25.09.2019
1129 Rain 6 999 75 10000 12.9 250 17:18 25.09.2019
1130 Rain 6 998 86 8000 11.3 230 16:42 25.09.2019
1131 Rain 6 998 86 8000 11.3 230 16:23 25.09.2019
1132 Rain 6 996 86 8000 12.9 230 15:57 25.09.2019
1133 Rain 6 996 86 8000 12.9 230 15:39 25.09.2019
1134 Rain 6 996 86 8000 12.9 230 15:20 25.09.2019
1135 Rain 6 995 87 8000 14.4 230 14:43 25.09.2019
1136 Rain 6 995 87 8000 14.4 230 14:25 25.09.2019
1137 Rain 6 995 81 10000 2.6 230 13:58 25.09.2019
1138 Rain 6 995 81 10000 2.6 230 13:40 25.09.2019
1139 Rain 6 995 81 10000 2.6 230 13:20 25.09.2019
1140 Clouds 7 995 70 10000 5.1 203 12:57 25.09.2019
1141 Clouds 7 995 70 10000 5.1 203 12:37 25.09.2019
1142 Clouds 7 995 70 10000 5.1 203 12:19 25.09.2019
1143 Clouds 7 996 75 10000 2.1 360 11:41 25.09.2019
1144 Clouds 7 996 75 10000 2.1 360 11:20 25.09.2019
1145 Clouds 6 997 70 10000 1.57 286.567 10:48 25.09.2019
1146 Clouds 6 997 70 10000 1.57 286.567 10:27 25.09.2019
1147 Clouds 6 998 75 10000 5.1 270 09:59 25.09.2019
1148 Clouds 6 998 75 10000 5.1 270 09:41 25.09.2019
1149 Clouds 6 998 75 10000 5.1 270 09:23 25.09.2019
1150 Clouds 6 999 75 10000 2.64 341.222 08:59 25.09.2019
1151 Clouds 6 999 75 10000 2.64 341.222 08:40 25.09.2019
1152 Clouds 6 999 75 10000 2.64 341.222 08:20 25.09.2019
1153 Clouds 6 1001 75 10000 2.64 341.222 07:41 25.09.2019
1154 Clouds 6 1001 75 10000 2.64 341.222 07:23 25.09.2019
1155 Clouds 6 1001 75 10000 2.64 341.222 06:56 25.09.2019
1156 Clouds 6 1001 75 10000 2.64 341.222 06:36 25.09.2019
1157 Clouds 6 1002 70 10000 1.41 321.105 05:43 25.09.2019
1158 Clouds 6 1002 70 10000 1.41 321.105 05:20 25.09.2019
1159 Clouds 7 1004 65 10000 3.1 360 03:21 25.09.2019
1160 Clouds 7 1004 75 10000 10.3 230 01:39 25.09.2019
1161 Clouds 7 1003 75 10000 12.9 230 00:41 25.09.2019
1162 Clouds 7 1003 75 10000 12.9 230 00:23 25.09.2019
1163 Clouds 8 1001 70 10000 14.4 230 23:44 24.09.2019
1164 Clouds 10 1001 70 10000 14.4 230 23:22 24.09.2019
1165 Clouds 10 1001 70 10000 14.4 230 22:59 24.09.2019
1166 Clouds 10 1001 70 10000 14.4 230 22:38 24.09.2019
1167 Clouds 10 1001 70 10000 14.4 230 22:20 24.09.2019
1168 Clouds 11 1000 57 10000 16.5 230 21:56 24.09.2019
1169 Clouds 11 1000 57 10000 16.5 230 21:37 24.09.2019
1170 Clouds 11 1000 57 10000 16.5 230 21:18 24.09.2019
1171 Clouds 9 1000 57 10000 15.4 230 20:57 24.09.2019
1172 Clouds 9 1000 57 10000 15.4 230 20:38 24.09.2019
1173 Clouds 11 1000 57 10000 15.4 230 20:19 24.09.2019
1174 Clouds 11 999 57 10000 16.5 230 19:43 24.09.2019
1175 Clouds 11 999 57 10000 16.5 230 19:21 24.09.2019
1176 Clouds 10 999 61 10000 15.9 230 18:59 24.09.2019
1177 Clouds 10 999 61 10000 15.9 230 18:39 24.09.2019
1178 Clouds 10 999 61 10000 15.9 230 18:21 24.09.2019
1179 Rain 10 998 61 10000 18 230 17:57 24.09.2019
1180 Rain 10 998 61 10000 18 230 17:38 24.09.2019
1181 Rain 10 998 61 10000 18 230 17:38 24.09.2019
1182 Rain 10 998 61 10000 18 230 17:20 24.09.2019
1183 Clouds 10 997 70 10000 15.4 230 16:55 24.09.2019
1184 Clouds 10 997 70 10000 15.4 230 16:37 24.09.2019
1185 Clouds 10 997 70 10000 15.4 230 16:18 24.09.2019
1186 Rain 9 996 80 10000 16.5 230 15:41 24.09.2019
1187 Rain 9 996 97 10000 16.5 230 15:23 24.09.2019
1188 Rain 7 995 87 10000 12.9 230 14:41 24.09.2019
1189 Rain 7 995 87 10000 12.9 230 14:20 24.09.2019
1190 Rain 7 994 81 10000 2.39 271.965 13:55 24.09.2019
1191 Rain 7 994 81 10000 2.39 271.965 13:55 24.09.2019
1192 Rain 7 994 81 10000 2.39 271.965 13:37 24.09.2019
1193 Clouds 6 992 81 10000 2.6 70 13:18 24.09.2019
1194 Clouds 6 992 81 10000 2.6 70 12:39 24.09.2019
1195 Clouds 6 992 87 10000 2.23 328.152 12:19 24.09.2019
1196 Clouds 6 992 87 10000 2.23 328.152 11:43 24.09.2019
1197 Clouds 6 992 87 10000 2.23 328.152 11:43 24.09.2019
1198 Clouds 6 992 87 10000 2.23 328.152 11:22 24.09.2019
1199 Clouds 6 993 87 10000 2.1 140 10:58 24.09.2019
1200 Clouds 6 993 87 10000 2.1 140 10:39 24.09.2019
1201 Clouds 6 993 87 10000 2.1 140 10:20 24.09.2019
1202 Clouds 7 993 81 10000 2.1 140 09:46 24.09.2019
1203 Clouds 7 993 81 10000 2.1 140 09:46 24.09.2019
1204 Clouds 7 993 81 10000 2.1 140 09:46 24.09.2019
1205 Clouds 7 993 81 10000 2.1 140 09:27 24.09.2019
1206 Clouds 7 994 81 10000 2.6 140 08:58 24.09.2019
1207 Clouds 7 994 81 10000 2.6 140 08:40 24.09.2019
1208 Clouds 7 994 81 10000 2.6 140 08:40 24.09.2019
1209 Clouds 7 994 81 10000 2.6 140 08:22 24.09.2019
1210 Clouds 7 995 81 10000 2.6 140 07:57 24.09.2019
1211 Clouds 7 995 81 10000 2.6 140 07:38 24.09.2019
1212 Clouds 7 995 81 10000 2.6 140 07:19 24.09.2019
1213 Clouds 7 995 81 10000 2.6 140 06:37 24.09.2019
1214 Clouds 7 995 81 10000 2.6 140 06:37 24.09.2019
1215 Clouds 7 995 81 10000 2.6 140 06:18 24.09.2019
1216 Clouds 6 995 87 10000 1.5 140 05:21 24.09.2019
1217 Clouds 6 996 81 10000 2.6 230 03:46 24.09.2019
1218 Rain 7 997 81 10000 3.6 250 03:22 24.09.2019
1219 Rain 9 998 66 10000 6.2 340 02:43 24.09.2019
1220 Clouds 8 998 75 10000 3.1 360 01:41 24.09.2019
1221 Clouds 8 998 75 10000 2.48 333.922 00:41 24.09.2019
1222 Clouds 8 998 75 10000 3.01 341.433 00:22 24.09.2019
1223 Clouds 7 998 81 10000 3.01 341.433 23:42 23.09.2019
1224 Clouds 8 998 81 10000 3.01 341.433 23:22 23.09.2019
1225 Clouds 8 999 81 10000 3.01 341.433 22:41 23.09.2019
1226 Clouds 8 999 81 10000 3.01 341.433 22:21 23.09.2019
1227 Clouds 9 999 81 10000 3.01 341.433 21:59 23.09.2019
1228 Clouds 9 999 81 10000 3.01 341.433 21:41 23.09.2019
1229 Clouds 9 999 81 10000 3.01 341.433 21:41 23.09.2019
1230 Clouds 9 999 81 10000 3.01 341.433 21:41 23.09.2019
1231 Clouds 9 999 81 10000 3.01 341.433 21:41 23.09.2019
1232 Clouds 9 999 81 10000 1.98 338.942 21:20 23.09.2019
1233 Clouds 8 999 81 10000 1.98 338.942 20:59 23.09.2019
1234 Clouds 8 999 81 10000 1.92 338.221 20:39 23.09.2019
1235 Clouds 8 999 81 10000 1.92 338.221 20:19 23.09.2019
1236 Clouds 8 999 81 10000 2.1 230 19:40 23.09.2019
1237 Clouds 8 999 81 10000 2.1 230 19:22 23.09.2019
1238 Drizzle 8 1000 87 10000 3.6 230 18:59 23.09.2019
1239 Drizzle 8 1000 87 10000 3.6 230 18:41 23.09.2019
1240 Drizzle 8 1000 87 10000 3.6 230 18:41 23.09.2019
1241 Drizzle 8 1000 87 10000 3.6 230 18:19 23.09.2019
1242 Drizzle 8 1000 87 10000 4.1 230 17:57 23.09.2019
1243 Drizzle 8 1000 87 10000 4.1 230 17:39 23.09.2019
1244 Drizzle 8 1000 87 10000 4.1 230 17:39 23.09.2019
1245 Drizzle 8 1000 87 10000 4.1 230 17:20 23.09.2019
1246 Clouds 7 999 87 10000 3.1 320 16:57 23.09.2019
1247 Clouds 7 999 87 10000 3.1 320 16:36 23.09.2019
1248 Clouds 7 999 87 10000 3.1 320 16:18 23.09.2019
1249 Rain 6 999 75 10000 4.1 320 15:56 23.09.2019
1250 Rain 6 999 75 10000 4.1 320 15:38 23.09.2019
1251 Rain 6 999 75 10000 4.1 320 15:38 23.09.2019
1252 Rain 6 999 75 10000 4.1 320 15:18 23.09.2019
1253 Rain 6 999 75 10000 4.1 320 15:18 23.09.2019
1254 Rain 5 998 80 10000 8.2 230 14:40 23.09.2019
1255 Rain 5 998 80 10000 8.2 230 14:20 23.09.2019
1256 Drizzle 5 997 86 10000 10.3 230 13:58 23.09.2019
1257 Drizzle 5 997 86 10000 10.3 230 13:38 23.09.2019
1258 Drizzle 6 996 87 10000 5.1 270 13:18 23.09.2019
1259 Drizzle 6 996 87 10000 5.1 270 13:18 23.09.2019
1260 Drizzle 6 996 87 10000 5.1 270 13:18 23.09.2019
1261 Drizzle 6 996 87 10000 5.1 270 12:46 23.09.2019
1262 Drizzle 6 996 87 10000 5.1 270 12:23 23.09.2019
1263 Snow 6 996 81 10000 3.6 320 11:59 23.09.2019
1264 Snow 6 996 81 10000 3.6 320 11:40 23.09.2019
1265 Snow 6 996 81 10000 3.6 320 11:22 23.09.2019
1266 Drizzle 6 995 81 10000 10.3 230 10:49 23.09.2019
1267 Drizzle 6 995 81 10000 10.3 230 10:22 23.09.2019
1268 Drizzle 7 994 70 10000 4.1 270 09:59 23.09.2019
1269 Drizzle 7 994 70 10000 4.1 270 09:38 23.09.2019
1270 Drizzle 7 994 70 10000 4.1 270 09:20 23.09.2019
1271 Clouds 7 994 70 10000 2.6 230 08:47 23.09.2019
1272 Clouds 7 994 70 10000 2.6 230 08:28 23.09.2019
1273 Clouds 7 994 70 10000 4.6 230 07:57 23.09.2019
1274 Clouds 7 994 70 10000 4.6 230 07:28 23.09.2019
1275 Clouds 7 993 65 10000 4.6 230 06:37 23.09.2019
1276 Clouds 7 993 65 10000 2.1 270 05:54 23.09.2019
1277 Clouds 7 993 65 10000 2.1 270 05:21 23.09.2019
1278 Rain 6 993 70 10000 4.6 200 04:54 23.09.2019
1279 Clouds 6 993 70 10000 4.1 140 03:33 23.09.2019
1280 Clouds 7 994 65 10000 6.2 360 01:18 23.09.2019
1281 Clouds 7 994 65 10000 6.2 360 00:23 23.09.2019
1282 Clouds 8 994 65 10000 7.2 320 23:56 22.09.2019
1283 Clouds 8 994 65 10000 7.2 320 23:33 22.09.2019
1284 Clouds 7 996 70 10000 2.01 315.926 22:58 22.09.2019
1285 Clouds 7 996 70 10000 2.01 315.926 22:40 22.09.2019
1286 Clouds 7 996 70 10000 2.01 315.926 22:22 22.09.2019
1287 Clouds 7 996 100 10000 2.01 315.926 21:55 22.09.2019
1288 Clouds 7 996 100 10000 2.01 315.926 21:55 22.09.2019
1289 Clouds 7 996 100 10000 2.01 315.926 21:36 22.09.2019
1290 Clouds 7 996 100 10000 2.31 333.546 21:18 22.09.2019
1291 Clouds 7 997 65 10000 2.31 333.546 20:41 22.09.2019
1292 Clouds 7 997 65 10000 2.35 336.545 20:23 22.09.2019
1293 Clouds 7 999 65 10000 2.35 336.545 19:55 22.09.2019
1294 Clouds 7 999 65 10000 2.35 336.545 19:37 22.09.2019
1295 Clouds 6 999 70 10000 2.35 336.545 19:18 22.09.2019
1296 Clouds 6 999 70 10000 2.35 336.545 18:42 22.09.2019
1297 Clouds 6 999 70 10000 2.79 342.577 18:20 22.09.2019
1298 Clouds 6 1000 99 10000 2.79 342.577 17:59 22.09.2019
1299 Clouds 6 1000 99 10000 2.79 342.577 17:41 22.09.2019
1300 Clouds 6 1000 99 10000 2.79 342.577 17:20 22.09.2019
1301 Clouds 5 1001 75 10000 1.5 230 16:46 22.09.2019
1302 Clouds 5 1001 75 10000 1.5 230 16:27 22.09.2019
1303 Clouds 4 1002 69 10000 2.6 340 15:58 22.09.2019
1304 Clouds 4 1002 69 10000 2.6 340 15:40 22.09.2019
1305 Clouds 4 1002 69 10000 2.6 340 15:21 22.09.2019
1306 Clouds 3 1002 74 10000 4.1 320 14:45 22.09.2019
1307 Clouds 3 1002 74 10000 4.1 320 14:26 22.09.2019
1308 Clouds 2 1003 98 10000 3.6 360 13:59 22.09.2019
1309 Clouds 2 1003 98 10000 3.6 360 13:41 22.09.2019
1310 Clouds 2 1003 98 10000 3.6 360 13:22 22.09.2019
1311 Clouds 3 1003 74 10000 4.6 320 12:56 22.09.2019
1312 Clouds 3 1003 74 10000 4.6 320 12:37 22.09.2019
1313 Clouds 3 1003 98 10000 3.6 320 12:18 22.09.2019
1314 Clouds 3 1003 98 10000 3.6 320 11:42 22.09.2019
1315 Clouds 3 1003 98 10000 3.6 320 11:24 22.09.2019
1316 Clouds 4 1003 80 10000 6.7 230 10:55 22.09.2019
1317 Clouds 4 1003 80 10000 6.7 230 10:37 22.09.2019
1318 Clouds 4 1003 80 10000 6.7 230 10:18 22.09.2019
1319 Clouds 4 1003 69 10000 7.7 230 09:41 22.09.2019
1320 Clouds 4 1003 69 10000 7.7 230 09:20 22.09.2019
1321 Clouds 3 1003 99 10000 9.3 230 08:47 22.09.2019
1322 Clouds 3 1003 98 10000 9.3 230 08:25 22.09.2019
1323 Clouds 4 1003 98 10000 7.7 230 07:56 22.09.2019
1324 Clouds 4 1003 98 10000 7.7 230 07:38 22.09.2019
1325 Clouds 4 1002 80 10000 11.3 230 07:19 22.09.2019
1326 Clouds 4 1002 80 10000 11.3 230 06:55 22.09.2019
1327 Rain 2 1004 93 10000 9.8 250 05:36 22.09.2019
1328 Snow 2 1004 98 6000 5.1 230 03:49 22.09.2019
1329 Snow 1 1003 99 4000 5.7 230 02:38 22.09.2019
1330 Snow 1 1003 99 4000 5.7 230 02:20 22.09.2019
1331 Snow 1 1003 99 2000 2.1 250 01:23 22.09.2019
1332 Snow 1 1002 99 2000 1.5 230 00:37 22.09.2019
1333 Snow 1 1002 96 2000 1.5 230 00:18 22.09.2019
1334 Snow 1 1002 96 2000 1.5 230 00:18 22.09.2019
1335 Snow 2 1001 74 4000 3.6 230 23:41 21.09.2019
1336 Snow 2 1001 74 4000 3.6 230 23:20 21.09.2019
1337 Drizzle 2 1001 74 4000 5.7 230 22:39 21.09.2019
1338 Drizzle 2 1001 74 4000 5.7 230 22:39 21.09.2019
1339 Drizzle 2 1001 74 4000 5.7 230 22:21 21.09.2019
1340 Drizzle 1 1000 74 2000 11.8 230 21:55 21.09.2019
1341 Drizzle 1 1000 74 2000 11.8 230 21:37 21.09.2019
1342 Drizzle 1 1000 74 2000 11.8 230 21:18 21.09.2019
1343 Snow 1 999 74 1200 7.2 230 20:39 21.09.2019
1344 Snow 1 999 74 1200 7.2 230 20:39 21.09.2019
1345 Snow 1 999 74 1200 7.2 230 20:21 21.09.2019
1346 Snow 1 998 74 1200 12.9 230 19:48 21.09.2019
1347 Snow 2 998 74 1200 12.9 230 19:24 21.09.2019
1348 Snow 2 997 74 1200 11.8 230 18:55 21.09.2019
1349 Snow 2 997 74 1200 11.8 230 18:37 21.09.2019
1350 Snow 1 997 74 1200 11.8 230 18:19 21.09.2019
1351 Snow 1 997 80 1200 10.3 230 17:42 21.09.2019
1352 Snow 1 997 80 1200 10.3 230 17:21 21.09.2019
1353 Snow 1 996 74 1200 10.8 230 16:44 21.09.2019
1354 Snow 1 996 74 1200 10.8 230 16:24 21.09.2019
1355 Rain 0 995 80 10000 9.3 230 15:56 21.09.2019
1356 Snow 0 994 83 1200 11.3 230 15:38 21.09.2019
1357 Snow 0 994 86 1200 11.3 230 15:19 21.09.2019
1358 Snow -1 993 92 1200 10.3 230 14:44 21.09.2019
1359 Snow -1 993 92 1200 10.3 230 14:44 21.09.2019
1360 Snow -1 993 92 1200 10.3 230 14:26 21.09.2019
1361 Snow -1 991 86 10000 10.8 230 13:43 21.09.2019
1362 Snow -1 991 86 10000 10.8 230 13:23 21.09.2019
1363 Snow -1 990 92 8000 14.4 230 12:57 21.09.2019
1364 Snow -1 990 92 8000 14.4 230 12:39 21.09.2019
1365 Snow -1 990 92 8000 14.4 230 12:20 21.09.2019
1366 Snow 0 988 92 8000 12.9 230 11:51 21.09.2019
1367 Snow 0 988 92 8000 12.9 230 11:26 21.09.2019
1368 Clouds 0 987 92 500 9.8 230 10:56 21.09.2019
1369 Clouds 0 987 92 500 9.8 230 10:38 21.09.2019
1370 Clouds 0 987 92 500 9.8 230 10:20 21.09.2019
1371 Clouds 0 986 92 500 9.8 250 09:55 21.09.2019
1372 Clouds 0 986 92 500 9.8 250 09:37 21.09.2019
1373 Clouds 0 986 93 500 9.8 250 09:18 21.09.2019
1374 Snow -1 987 86 8000 5.1 270 08:43 21.09.2019
1375 Snow -1 987 86 8000 5.1 270 08:43 21.09.2019
1376 Snow -2 987 92 8000 8.2 250 07:58 21.09.2019
1377 Snow -2 987 92 8000 8.2 250 07:39 21.09.2019
1378 Snow -1 987 92 500 13.9 230 07:19 21.09.2019
1379 Snow -1 987 92 500 13.9 230 06:35 21.09.2019
1380 Snow 0 985 93 500 14.4 230 05:51 21.09.2019
1381 Snow 0 985 93 1200 9.3 230 04:39 21.09.2019
1382 Snow 0 984 93 1200 9.8 230 03:34 21.09.2019
1383 Snow 0 984 94 8000 8.7 230 02:25 21.09.2019
1384 Snow 1 983 86 3500 11.3 230 01:48 21.09.2019
1385 Snow 1 983 86 3500 11.3 230 01:25 21.09.2019
1386 Snow 1 981 94 1200 10.8 230 00:25 21.09.2019
1387 Snow 1 980 100 1200 7.7 230 23:56 20.09.2019
1388 Snow 2 980 100 1200 7.7 230 23:30 20.09.2019
1389 Snow 3 979 93 2000 7.2 250 22:56 20.09.2019
1390 Snow 3 979 93 2000 7.2 250 22:56 20.09.2019
1391 Snow 3 979 93 2000 7.2 250 22:37 20.09.2019
1392 Snow 3 979 93 2000 7.2 250 22:19 20.09.2019
1393 Snow 3 979 93 2000 7.2 250 22:19 20.09.2019
1394 Snow 2 978 93 1500 9.3 230 21:55 20.09.2019
1395 Snow 2 978 91 5000 8.2 230 21:36 20.09.2019
1396 Snow 2 978 94 5000 8.2 230 21:18 20.09.2019
1397 Snow 3 977 94 5000 7.7 230 20:41 20.09.2019
1398 Snow 3 977 94 5000 7.7 230 20:20 20.09.2019
1399 Snow 3 977 86 5000 6.2 230 19:56 20.09.2019
1400 Rain 3 977 86 10000 3.1 290 19:37 20.09.2019
1401 Rain 2 977 100 10000 7.2 230 19:19 20.09.2019
1402 Rain 2 977 100 10000 7.2 230 18:39 20.09.2019
1403 Rain 2 977 100 10000 7.2 230 18:20 20.09.2019
1404 Rain 2 977 93 10000 6.2 230 17:57 20.09.2019
1405 Rain 2 977 93 10000 6.2 230 17:39 20.09.2019
1406 Rain 3 977 93 10000 6.2 230 17:20 20.09.2019
1407 Rain 4 976 86 8000 7.7 230 16:41 20.09.2019
1408 Rain 4 976 86 8000 7.7 230 16:19 20.09.2019
1409 Rain 4 976 80 9000 10.8 260 15:43 20.09.2019
1410 Rain 3 976 80 9000 10.8 260 15:23 20.09.2019
1411 Rain 3 976 86 10000 7.7 230 14:58 20.09.2019
1412 Rain 3 976 86 10000 7.7 230 14:38 20.09.2019
1413 Rain 3 976 86 10000 7.7 230 14:18 20.09.2019
1414 Clouds -1 977 94 0 3.5 253.549 13:47 20.09.2019
1415 Clouds -1 977 94 0 3.5 253.549 13:47 20.09.2019
1416 Rain 3 976 86 4000 12.9 230 13:27 20.09.2019
1417 Rain 3 976 86 4000 12.9 230 12:57 20.09.2019
1418 Rain 3 976 86 4000 12.9 230 12:36 20.09.2019
1419 Clouds 2 976 93 10000 2.13 290.918 12:18 20.09.2019
1420 Clouds 2 976 93 10000 2.13 290.918 11:48 20.09.2019
1421 Clouds 2 976 93 10000 2.13 290.918 11:20 20.09.2019
1422 Clouds 2 977 98 10000 2.6 270 10:43 20.09.2019
1423 Clouds 2 977 98 10000 2.6 270 10:24 20.09.2019
1424 Rain 2 978 98 10000 2.1 20 09:55 20.09.2019
1425 Rain 2 978 98 10000 2.1 20 09:36 20.09.2019
1426 Rain 2 978 98 10000 2.1 20 09:36 20.09.2019
1427 Drizzle 2 979 98 10000 2.1 230 09:18 20.09.2019
1428 Drizzle 2 979 98 10000 2.1 230 08:41 20.09.2019
1429 Drizzle 2 979 98 10000 2.1 230 08:21 20.09.2019
1430 Drizzle 1 979 100 10000 3.1 340 07:45 20.09.2019
1431 Drizzle 1 979 100 10000 3.1 340 07:26 20.09.2019
1432 Drizzle 2 981 98 10000 2.6 230 06:44 20.09.2019
1433 Drizzle 2 981 98 10000 2.6 230 06:44 20.09.2019
1434 Drizzle 2 981 97 10000 2.6 230 06:20 20.09.2019
1435 Drizzle 2 982 97 10000 2.1 270 05:43 20.09.2019
1436 Drizzle 2 983 97 10000 4.1 230 03:36 20.09.2019
1437 Drizzle 2 983 97 10000 4.1 230 03:18 20.09.2019
1438 Drizzle 2 984 97 10000 5.1 230 01:44 20.09.2019
1439 Drizzle 2 984 97 10000 5.1 230 01:44 20.09.2019
1440 Clouds 2 985 93 10000 5.7 230 00:48 20.09.2019
1441 Clouds 2 985 93 10000 5.7 230 00:21 20.09.2019
1442 Drizzle 2 985 100 10000 10.3 230 23:42 19.09.2019
1443 Drizzle 2 985 100 10000 10.3 230 23:19 19.09.2019
1444 Rain 3 985 93 10000 9.3 230 22:55 19.09.2019
1445 Rain 3 985 93 10000 9.3 230 22:36 19.09.2019
1446 Rain 3 985 93 10000 9.3 230 22:18 19.09.2019
1447 Rain 3 985 93 10000 9.3 230 21:55 19.09.2019
1448 Drizzle 3 985 93 10000 12.3 230 21:36 19.09.2019
1449 Drizzle 3 985 93 10000 12.3 230 21:18 19.09.2019
1450 Drizzle 2 985 100 10000 12.9 230 20:43 19.09.2019
1451 Drizzle 2 985 100 10000 12.9 230 20:43 19.09.2019
1452 Drizzle 2 985 100 10000 12.9 230 20:21 19.09.2019
1453 Rain 2 985 93 10000 8.7 230 19:55 19.09.2019
1454 Rain 2 985 93 10000 8.7 230 19:37 19.09.2019
1455 Snow 2 985 93 5000 8.7 230 19:19 19.09.2019
1456 Snow 2 985 93 5000 8.7 230 18:42 19.09.2019
1457 Snow 3 985 93 5000 8.7 230 18:24 19.09.2019
1458 Snow 3 984 93 5000 6.2 230 17:54 19.09.2019
1459 Snow 3 984 93 5000 6.2 230 17:36 19.09.2019
1460 Snow 3 984 93 5000 6.2 230 17:18 19.09.2019
1461 Rain 2 984 86 10000 8.7 230 16:43 19.09.2019
1462 Rain 2 984 86 10000 8.7 230 16:20 19.09.2019
1463 Rain 2 983 93 10000 10.3 230 15:56 19.09.2019
1464 Rain 2 983 93 10000 10.3 230 15:38 19.09.2019
1465 Rain 2 983 93 10000 10.3 230 15:18 19.09.2019
1466 Rain 2 982 93 10000 6.2 230 14:41 19.09.2019
1467 Rain 2 982 93 10000 6.2 230 14:22 19.09.2019
1468 Clouds 1 982 89 10000 5.1 270 13:58 19.09.2019
1469 Clouds 1 982 89 10000 5.1 270 13:38 19.09.2019
1470 Clouds 1 982 89 10000 5.1 270 13:38 19.09.2019
1471 Drizzle 10 982 92 10000 5.7 230 13:19 19.09.2019
1472 Drizzle 10 982 92 10000 5.7 230 12:38 19.09.2019
1473 Drizzle 2 982 80 10000 5.7 230 12:18 19.09.2019
1474 Drizzle 2 982 80 10000 5.7 230 11:56 19.09.2019
1475 Drizzle 2 982 80 10000 5.7 230 11:37 19.09.2019
1476 Drizzle 2 982 80 10000 5.7 230 11:18 19.09.2019
1477 Clouds -2 982 94 0 1.96 308.021 10:40 19.09.2019
1478 Clouds 2 983 80 10000 4.1 230 10:21 19.09.2019
1479 Clouds 2 983 80 10000 4.1 230 09:58 19.09.2019
1480 Clouds 2 983 80 10000 4.1 230 09:40 19.09.2019
1481 Clouds 2 983 80 10000 4.1 230 09:20 19.09.2019
1482 Clouds 2 983 80 10000 2.1 270 08:51 19.09.2019
1483 Clouds 2 983 80 10000 2.1 270 08:26 19.09.2019
1484 Clouds 3 984 86 10000 9.8 230 07:45 19.09.2019
1485 Clouds 3 984 86 10000 9.8 230 07:23 19.09.2019
1486 Clouds 3 984 74 10000 11.8 230 06:58 19.09.2019
1487 Clouds 3 984 74 10000 11.8 230 06:38 19.09.2019
1488 Clouds 3 984 74 10000 11.8 230 06:20 19.09.2019
1489 Clouds 2 984 97 10000 8.7 230 05:48 19.09.2019
1490 Clouds 3 985 86 10000 9.3 230 04:20 19.09.2019
1491 Rain 3 984 86 10000 9.8 230 03:20 19.09.2019
1492 Drizzle 3 984 93 10000 12.3 230 01:40 19.09.2019
1493 Drizzle 3 984 93 10000 12.3 230 01:19 19.09.2019
1494 Drizzle 4 983 80 10000 10.8 230 00:43 19.09.2019
1495 Drizzle 4 983 80 10000 10.8 230 00:19 19.09.2019
1496 Clouds 5 982 75 10000 10.3 230 23:38 18.09.2019
1497 Clouds 5 982 75 10000 10.3 230 23:19 18.09.2019
1498 Clouds 6 982 70 10000 11.3 230 22:41 18.09.2019
1499 Clouds 6 982 70 10000 11.3 230 22:19 18.09.2019
1500 Clouds 6 982 70 10000 10.3 230 21:57 18.09.2019
1501 Clouds 6 982 70 10000 10.3 230 21:39 18.09.2019
1502 Clouds 6 982 70 10000 10.3 230 21:18 18.09.2019
1503 Clouds 6 982 70 10000 9.3 230 20:57 18.09.2019
1504 Clouds 6 982 70 10000 9.3 230 20:39 18.09.2019
1505 Clouds 7 982 77 10000 7.2 230 20:21 18.09.2019
1506 Clouds 7 982 77 10000 7.2 230 19:57 18.09.2019
1507 Clouds 7 982 77 10000 7.2 230 19:38 18.09.2019
1508 Clouds 6 982 70 10000 5.7 230 19:19 18.09.2019
1509 Clouds 6 982 70 10000 5.7 230 19:19 18.09.2019
1510 Clouds 6 982 70 10000 5.7 230 18:55 18.09.2019
1511 Clouds 6 982 70 10000 5.7 230 18:36 18.09.2019
1512 Clouds 6 982 70 10000 5.7 230 18:36 18.09.2019
1513 Clouds 6 982 70 10000 5.7 230 18:18 18.09.2019
1514 Clouds 6 982 80 10000 5.1 230 17:56 18.09.2019
1515 Clouds 6 982 80 10000 5.1 230 17:56 18.09.2019
1516 Clouds 6 982 80 10000 5.1 230 17:38 18.09.2019
1517 Clouds 6 982 80 10000 5.1 230 17:18 18.09.2019
1518 Clouds 6 982 80 10000 5.1 230 17:18 18.09.2019
1519 Clouds 6 982 80 10000 6.2 230 16:43 18.09.2019
1520 Clouds 6 982 80 10000 6.2 230 16:22 18.09.2019
1521 Clouds 5 982 80 10000 5.1 230 15:59 18.09.2019
1522 Clouds 5 982 80 10000 5.1 230 15:40 18.09.2019
1523 Clouds 5 982 80 10000 5.1 230 15:21 18.09.2019
1524 Clouds 3 983 86 10000 1.65 317.628 14:58 18.09.2019
1525 Clouds 3 983 86 10000 1.65 317.628 14:40 18.09.2019
1526 Clouds 3 983 86 10000 1.65 317.628 14:22 18.09.2019
1527 Clouds 3 983 86 10000 1.65 317.628 14:22 18.09.2019
1528 Clouds 3 983 87 10000 1.65 317.628 13:59 18.09.2019
1529 Clouds 3 983 87 10000 1.65 317.628 13:39 18.09.2019
1530 Clouds 3 983 86 10000 1.37 306.478 13:18 18.09.2019
1531 Clouds 3 983 86 10000 1.37 306.478 12:47 18.09.2019
1532 Clouds 3 983 86 10000 1.37 306.478 12:29 18.09.2019
1533 Clouds 3 984 86 10000 1.5 140 11:55 18.09.2019
1534 Clouds 3 984 86 10000 1.5 140 11:37 18.09.2019
1535 Clouds 3 984 86 10000 1.5 140 11:18 18.09.2019
1536 Clouds 3 984 86 10000 2.6 140 10:40 18.09.2019
1537 Clouds 3 984 86 10000 2.6 140 10:21 18.09.2019
1538 Clouds 3 985 86 10000 2.05 335.813 09:58 18.09.2019
1539 Clouds 3 985 86 10000 2.05 335.813 09:38 18.09.2019
1540 Clouds 3 985 86 10000 2.42 343.174 09:19 18.09.2019
1541 Clouds 3 986 86 10000 3.1 320 08:42 18.09.2019
1542 Clouds 3 986 86 10000 3.1 320 08:23 18.09.2019
1543 Clouds 3 988 86 10000 2.1 290 07:53 18.09.2019
1544 Clouds 3 988 86 10000 2.1 290 07:35 18.09.2019
1545 Clouds 3 989 86 10000 2.1 250 06:59 18.09.2019
1546 Clouds 3 989 86 10000 2.1 250 06:35 18.09.2019
1547 Clouds 4 991 80 10000 1.33 345.818 05:46 18.09.2019
1548 Clouds 4 992 80 10000 1.33 345.818 04:43 18.09.2019
1549 Clouds 4 995 80 10000 3.6 270 02:41 18.09.2019
1550 Clouds 4 995 80 10000 3.6 270 02:18 18.09.2019
1551 Clouds 5 996 75 10000 6.2 230 01:20 18.09.2019
1552 Clouds 5 996 80 10000 9.3 230 00:47 18.09.2019
1553 Rain 5 997 80 10000 10.3 230 00:19 18.09.2019
1554 Rain 5 997 80 10000 10.3 230 23:44 17.09.2019
1555 Rain 6 997 80 10000 10.3 230 23:22 17.09.2019
1556 Clouds 5 997 80 10000 11.3 230 22:42 17.09.2019
1557 Clouds 5 997 80 10000 11.3 230 22:24 17.09.2019
1558 Clouds 5 998 80 10000 10.3 230 21:55 17.09.2019
1559 Clouds 5 998 80 10000 10.3 230 21:55 17.09.2019
1560 Clouds 5 998 80 10000 10.3 230 21:37 17.09.2019
1561 Clouds 5 998 80 10000 10.3 230 21:19 17.09.2019
1562 Clouds 5 998 80 10000 10.3 230 21:19 17.09.2019
1563 Clouds 3 998 86 10000 3.6 230 20:58 17.09.2019
1564 Clouds 3 998 86 10000 3.6 230 20:40 17.09.2019
1565 Rain 2 998 86 10000 3.6 230 20:21 17.09.2019
1566 Rain 2 999 86 10000 3.1 340 19:58 17.09.2019
1567 Rain 2 999 86 10000 3.1 340 19:39 17.09.2019
1568 Drizzle 2 999 86 10000 1.5 50 19:19 17.09.2019
1569 Drizzle 2 999 86 10000 1.5 50 18:56 17.09.2019
1570 Drizzle 2 999 86 10000 1.5 50 18:38 17.09.2019
1571 Drizzle 2 999 86 10000 1.5 50 18:20 17.09.2019
1572 Snow 1 1000 93 5000 1.5 70 17:45 17.09.2019
1573 Snow 1 1000 93 5000 1.5 70 17:20 17.09.2019
1574 Drizzle 2 1000 95 5000 1 90 16:57 17.09.2019
1575 Drizzle 2 1000 95 5000 1 90 16:39 17.09.2019
1576 Drizzle 2 1000 95 5000 1 90 16:21 17.09.2019
1577 Drizzle 2 1000 95 5000 1 90 16:21 17.09.2019
1578 Snow 0 1000 95 4000 1.71 317.181 15:40 17.09.2019
1579 Snow 0 1000 96 4000 1.38 315.412 15:20 17.09.2019
1580 Rain 1 1001 96 6000 1.38 315.412 14:56 17.09.2019
1581 Rain 1 1001 96 6000 1.38 315.412 14:38 17.09.2019
1582 Rain 1 1001 96 6000 1.38 315.412 14:19 17.09.2019
1583 Snow 0 1001 96 3000 1.5 20 13:56 17.09.2019
1584 Snow 0 1001 96 3000 1.5 20 13:56 17.09.2019
1585 Snow 0 1001 96 3000 1.5 20 13:38 17.09.2019
1586 Snow 0 1001 96 3000 1.5 20 13:20 17.09.2019
1587 Snow 1 1001 86 3000 1 340 12:42 17.09.2019
1588 Snow 1 1001 86 3000 1 340 12:19 17.09.2019
1589 Clouds 1 1001 86 10000 3.1 50 11:45 17.09.2019
1590 Clouds 1 1001 86 10000 3.1 50 11:26 17.09.2019
1591 Clouds 1 1000 86 10000 1.69 320.995 10:59 17.09.2019
1592 Clouds 1 1000 86 10000 1.69 320.995 10:40 17.09.2019
1593 Clouds 1 1000 86 10000 1.69 320.995 10:20 17.09.2019
1594 Clouds 1 1001 80 10000 2.6 360 09:54 17.09.2019
1595 Clouds 1 1001 80 10000 2.6 360 09:36 17.09.2019
1596 Clouds 1 1001 80 10000 2.6 360 09:18 17.09.2019
1597 Clouds 1 1001 80 10000 0.66 319.239 08:43 17.09.2019
1598 Clouds 1 1001 80 10000 0.66 319.239 08:43 17.09.2019
1599 Clouds 1 1001 80 10000 0.76 315.641 08:24 17.09.2019
1600 Clouds 1 1001 80 10000 3.1 90 07:44 17.09.2019
1601 Clouds 1 1001 80 10000 3.1 90 07:26 17.09.2019
1602 Snow 1 1001 80 10000 2.6 50 06:53 17.09.2019
1603 Snow 1 1001 80 10000 2.6 50 06:29 17.09.2019
1604 Rain 1 1001 80 10000 2.6 360 05:53 17.09.2019
1605 Clouds 1 1002 86 10000 2.1 360 04:55 17.09.2019
1606 Clouds 2 1002 80 10000 2.6 20 03:41 17.09.2019
1607 Clouds 2 1002 80 10000 3.6 50 02:39 17.09.2019
1608 Clouds 3 1003 69 10000 2.1 110 01:50 17.09.2019
1609 Clouds 3 1003 69 10000 2.6 140 00:50 17.09.2019
1610 Clouds 4 1003 80 10000 2.6 180 23:41 16.09.2019
1611 Clouds 5 1003 80 10000 2.6 180 23:20 16.09.2019
1612 Clouds 6 1003 85 10000 3.1 230 22:59 16.09.2019
1613 Clouds 6 1003 85 10000 3.1 230 22:40 16.09.2019
1614 Clouds 6 1003 85 10000 3.1 230 22:21 16.09.2019
1615 Clouds 5 1003 85 10000 3.6 230 21:56 16.09.2019
1616 Clouds 5 1003 85 10000 3.6 230 21:38 16.09.2019
1617 Clouds 5 1003 82 10000 3.6 230 21:19 16.09.2019
1618 Clouds 4 1003 80 10000 3.6 230 20:42 16.09.2019
1619 Clouds 5 1003 80 10000 3.6 230 20:23 16.09.2019
1620 Clouds 5 1002 86 10000 2.6 230 19:58 16.09.2019
1621 Clouds 5 1002 86 10000 2.6 230 19:39 16.09.2019
1622 Clouds 4 1002 86 10000 0.72 70.024 19:20 16.09.2019
1623 Clouds 4 1002 86 10000 0.72 70.024 18:56 16.09.2019
1624 Clouds 4 1002 86 10000 0.72 70.024 18:37 16.09.2019
1625 Rain 4 1002 93 10000 2.6 200 18:18 16.09.2019
1626 Rain 4 1002 93 10000 2.6 200 17:42 16.09.2019
1627 Rain 4 1002 93 10000 2.6 200 17:24 16.09.2019
1628 Rain 3 1002 100 10000 1 200 16:57 16.09.2019
1629 Rain 3 1002 100 10000 1 200 16:38 16.09.2019
1630 Rain 3 1002 100 10000 1 200 16:20 16.09.2019
1631 Rain 2 1001 100 10000 1 340 15:56 16.09.2019
1632 Rain 2 1001 100 10000 1 340 15:37 16.09.2019
1633 Rain 2 1001 100 10000 1 340 15:37 16.09.2019
1634 Rain 2 1001 100 10000 1 340 15:18 16.09.2019
1635 Snow 0 1001 96 5000 0.97 120.206 14:44 16.09.2019
1636 Snow 0 1001 96 5000 0.97 120.206 14:23 16.09.2019
1637 Snow 1 1001 96 3000 3.1 290 13:58 16.09.2019
1638 Snow 1 1001 96 3000 3.1 290 13:39 16.09.2019
1639 Snow 1 1001 88 3000 3.1 290 13:20 16.09.2019
1640 Snow 1 1000 88 3000 2.1 290 12:43 16.09.2019
1641 Snow 1 1000 88 3000 2.1 290 12:25 16.09.2019
1642 Snow 1 1000 88 3000 2.1 290 12:25 16.09.2019
1643 -273 0 0 0 0 0 12:25 16.09.2019
1644 Snow 1 1000 94 3000 4.6 160 11:55 16.09.2019
1645 Snow 1 1000 94 3000 4.6 160 11:37 16.09.2019
1646 Snow 1 1000 94 3000 4.6 160 11:19 16.09.2019
1647 Snow 2 999 94 10000 2.1 340 10:38 16.09.2019
1648 Snow 2 999 94 10000 2.1 340 10:20 16.09.2019
1649 Snow 1 999 86 8000 1.5 50 09:58 16.09.2019
1650 Snow 1 999 86 8000 1.5 50 09:39 16.09.2019
1651 Snow 1 999 86 8000 1.5 50 09:19 16.09.2019
1652 Snow 1 999 80 8000 1.5 290 08:46 16.09.2019
1653 Snow 1 999 80 8000 1.5 290 08:25 16.09.2019
1654 Snow 1 999 86 10000 2.6 290 07:56 16.09.2019
1655 Snow 1 999 86 10000 2.6 290 07:37 16.09.2019
1656 Snow 1 999 86 8000 2.1 270 07:19 16.09.2019
1657 Snow 1 999 86 8000 2.1 270 06:45 16.09.2019
1658 Snow 1 999 86 8000 2.1 270 06:26 16.09.2019
1659 Snow 1 1001 80 8000 3.6 230 05:49 16.09.2019
1660 Snow 1 1001 80 8000 3.6 230 05:29 16.09.2019
1661 Snow 1 1001 80 10000 3.1 230 04:33 16.09.2019
1662 Rain 1 1002 80 10000 6.2 230 02:33 16.09.2019
1663 Clouds 2 1003 74 10000 10.3 230 00:44 16.09.2019
1664 Clouds 2 1003 74 10000 10.3 230 00:25 16.09.2019
1665 Clouds 2 1004 64 10000 10.8 230 23:44 15.09.2019
1666 Clouds 2 1004 64 10000 10.8 230 23:21 15.09.2019
1667 Clouds 2 1004 80 10000 11.3 230 22:56 15.09.2019
1668 Clouds 2 1004 80 10000 11.3 230 22:36 15.09.2019
1669 Clouds 2 1004 80 10000 11.3 230 22:18 15.09.2019
1670 Rain 3 1004 65 10000 11.8 230 21:55 15.09.2019
1671 Rain 3 1004 65 10000 11.8 230 21:55 15.09.2019
1672 Rain 3 1004 65 10000 11.8 230 21:36 15.09.2019
1673 Rain 3 1004 65 10000 11.8 230 21:36 15.09.2019
1674 Rain 3 1004 65 10000 11.8 230 21:18 15.09.2019
1675 Rain 3 1004 64 10000 12.9 230 20:42 15.09.2019
1676 Rain 3 1004 64 10000 12.9 230 20:42 15.09.2019
1677 Rain 3 1004 64 10000 12.9 230 20:24 15.09.2019
1678 Clouds 4 1005 64 10000 11.8 230 19:46 15.09.2019
1679 Clouds 4 1005 64 10000 11.8 230 19:26 15.09.2019
1680 Clouds 4 1005 64 10000 10.3 230 18:55 15.09.2019
1681 Clouds 4 1005 64 10000 10.3 230 18:36 15.09.2019
1682 Clouds 4 1005 70 10000 9.3 230 18:18 15.09.2019
1683 Clouds 4 1005 70 10000 9.3 230 17:41 15.09.2019
1684 Clouds 4 1005 70 10000 9.3 230 17:21 15.09.2019
1685 Clouds 4 1005 70 10000 5.1 230 16:55 15.09.2019
1686 Clouds 4 1005 70 10000 5.1 230 16:37 15.09.2019
1687 Clouds 4 1005 70 10000 5.1 230 16:37 15.09.2019
1688 Clouds 4 1005 70 10000 5.1 230 16:18 15.09.2019
1689 Clouds 4 1005 70 10000 5.1 230 16:18 15.09.2019
1690 Rain 3 1004 93 10000 7.7 180 15:41 15.09.2019
1691 Rain 3 1004 93 10000 7.7 180 15:41 15.09.2019
1692 Rain 3 1004 93 10000 7.7 180 15:21 15.09.2019
1693 Rain 3 1004 93 10000 6.7 180 14:59 15.09.2019
1694 Rain 3 1004 93 10000 6.7 180 14:40 15.09.2019
1695 Rain 3 1004 93 10000 6.7 180 14:22 15.09.2019
1696 Drizzle 4 1003 86 10000 9.3 140 13:47 15.09.2019
1697 Drizzle 4 1003 86 10000 9.3 140 13:25 15.09.2019
1698 Drizzle 3 1001 93 10000 6.7 160 12:58 15.09.2019
1699 Drizzle 3 1001 93 10000 6.7 160 12:40 15.09.2019
1700 Drizzle 3 1001 93 10000 6.7 160 12:20 15.09.2019
1701 Drizzle 4 1000 86 10000 5.1 160 11:43 15.09.2019
1702 Drizzle 4 1000 86 10000 5.1 160 11:23 15.09.2019
1703 Drizzle 4 997 80 10000 11.3 230 10:59 15.09.2019
1704 Drizzle 4 997 80 10000 11.3 230 10:40 15.09.2019
1705 Drizzle 4 997 80 10000 11.3 230 10:21 15.09.2019
1706 Drizzle 4 996 80 10000 9.3 230 09:43 15.09.2019
1707 Drizzle 4 996 80 10000 9.3 230 09:21 15.09.2019
1708 Clouds 4 996 98 10000 7.2 230 08:58 15.09.2019
1709 Clouds 4 996 98 10000 7.2 230 08:39 15.09.2019
1710 Clouds 4 996 98 10000 7.2 230 08:19 15.09.2019
1711 Clouds 4 995 86 10000 8.7 230 07:41 15.09.2019
1712 Clouds 4 994 80 10000 7.7 230 06:44 15.09.2019
1713 Clouds 3 994 93 10000 8.2 230 05:35 15.09.2019
1714 Rain 3 993 93 10000 2.1 340 03:19 15.09.2019
1715 Drizzle 3 992 93 10000 2.6 340 02:19 15.09.2019
1716 Drizzle 4 991 86 10000 1.5 290 01:36 15.09.2019
1717 Rain 4 991 93 10000 1.5 230 00:57 15.09.2019
1718 Rain 4 991 93 10000 1.5 230 00:57 15.09.2019
1719 Rain 4 991 93 10000 1.5 230 00:37 15.09.2019
1720 Rain 4 991 93 10000 1.5 230 00:18 15.09.2019
1721 Rain 4 990 86 8000 1.5 180 23:56 14.09.2019
1722 Rain 4 990 86 8000 1.5 180 23:37 14.09.2019
1723 Rain 5 990 86 8000 1.5 180 23:19 14.09.2019
1724 Rain 5 990 86 8000 1.5 180 23:19 14.09.2019
1725 Rain 5 989 80 8000 2.1 180 22:55 14.09.2019
1726 Rain 5 989 80 8000 2.1 180 22:37 14.09.2019
1727 Rain 5 989 80 8000 2.1 180 22:18 14.09.2019
1728 Rain 7 989 70 10000 0.87 260.603 21:40 14.09.2019
1729 Rain 7 989 70 10000 1.6 329.313 21:20 14.09.2019
1730 Rain 7 988 75 10000 1.5 50 20:58 14.09.2019
1731 Rain 7 988 79 10000 1.5 50 20:39 14.09.2019
1732 Rain 7 988 79 10000 1.5 50 20:21 14.09.2019
1733 Rain 7 988 56 10000 1.5 140 19:47 14.09.2019
1734 Rain 7 988 56 10000 1.5 140 19:22 14.09.2019
1735 Clouds 7 988 60 10000 2.1 180 18:58 14.09.2019
1736 Clouds 7 988 60 10000 2.1 180 18:38 14.09.2019
1737 Clouds 7 988 60 10000 2.1 180 18:20 14.09.2019
1738 Clouds 6 988 79 10000 2.6 180 17:44 14.09.2019
1739 Clouds 6 988 79 10000 2.6 180 17:24 14.09.2019
1740 Clouds 6 988 65 10000 1.5 180 16:56 14.09.2019
1741 Clouds 6 988 65 10000 1.5 180 16:38 14.09.2019
1742 Clouds 6 988 65 10000 1.5 180 16:18 14.09.2019
1743 Rain 4 989 69 10000 2.6 270 15:42 14.09.2019
1744 Rain 4 989 69 10000 2.6 270 15:22 14.09.2019
1745 Rain 4 989 69 10000 2.6 270 15:22 14.09.2019
1746 Rain 4 989 88 10000 2.1 90 14:55 14.09.2019
1747 Rain 4 989 88 10000 2.1 90 14:36 14.09.2019
1748 Rain 4 989 88 10000 2.1 90 14:18 14.09.2019
1749 Rain 4 989 88 10000 2.1 90 14:18 14.09.2019
1750 Rain 4 989 86 10000 3.1 180 13:44 14.09.2019
1751 Rain 4 989 86 10000 3.1 180 13:20 14.09.2019
1752 Clouds 5 991 52 10000 2.59 335.993 12:45 14.09.2019
1753 Clouds 5 991 52 10000 2.43 350.282 12:23 14.09.2019
1754 Clouds 5 990 52 10000 2.6 320 11:41 14.09.2019
1755 Clouds 5 990 52 10000 2.6 320 11:41 14.09.2019
1756 Clouds 5 990 52 10000 2.6 320 11:20 14.09.2019
1757 Clouds 4 991 55 10000 5.7 320 10:40 14.09.2019
1758 Clouds 4 991 55 10000 5.7 320 10:22 14.09.2019
1759 Clouds 4 992 55 10000 6.7 360 09:58 14.09.2019
1760 Clouds 4 992 55 10000 6.7 360 09:40 14.09.2019
1761 Clouds 4 992 55 10000 6.7 360 09:21 14.09.2019
1762 Clouds 4 992 55 10000 6.7 360 09:21 14.09.2019
1763 Clouds 4 993 60 10000 8.2 320 08:56 14.09.2019
1764 Clouds 4 993 60 10000 8.2 320 08:38 14.09.2019
1765 Clouds 4 993 60 10000 8.2 320 08:19 14.09.2019
1766 Clouds 4 994 60 10000 3.6 320 07:43 14.09.2019
1767 Clouds 4 994 60 10000 3.6 320 07:21 14.09.2019
1768 Clouds 4 995 93 10000 3.1 20 06:33 14.09.2019
1769 Clouds 3 996 64 10000 2.6 290 05:43 14.09.2019
1770 Clear 4 997 55 10000 2.1 360 04:27 14.09.2019
1771 Clear 4 998 60 10000 2.6 230 03:20 14.09.2019
1772 Clear 4 998 64 10000 5.7 360 02:42 14.09.2019
1773 Clouds 5 999 56 10000 2.6 340 01:45 14.09.2019
1774 Clouds 5 999 56 10000 2.6 340 01:19 14.09.2019
1775 Clouds 5 999 52 10000 1.84 326.846 00:40 14.09.2019
1776 Clouds 5 999 52 10000 1.41 342.847 00:21 14.09.2019
1777 Clear 4 1000 69 10000 1.41 342.847 23:55 13.09.2019
1778 Clear 4 1000 69 10000 1.41 342.847 23:36 13.09.2019
1779 Clear 4 1000 69 10000 1.41 342.847 23:18 13.09.2019
1780 Clouds 7 1001 48 10000 1.41 342.847 22:40 13.09.2019
1781 Clouds 7 1001 48 10000 1.41 342.847 22:22 13.09.2019
1782 Clear 7 1001 39 10000 2.6 180 21:59 13.09.2019
1783 Clear 7 1001 39 10000 2.6 180 21:39 13.09.2019
1784 Clear 7 1001 39 10000 2.6 180 21:19 13.09.2019
1785 Clear 8 1002 39 10000 3.1 180 20:57 13.09.2019
1786 Clear 8 1002 39 10000 3.1 180 20:57 13.09.2019
1787 Clear 8 1002 39 10000 3.1 180 20:57 13.09.2019
1788 Clear 8 1002 39 10000 3.1 180 20:37 13.09.2019
1789 Clear 8 1002 39 10000 3.1 180 20:19 13.09.2019
1790 Clouds 8 1002 36 10000 2.6 360 19:44 13.09.2019
1791 Clouds 7 1002 36 10000 2.6 360 19:23 13.09.2019
1792 Clear 6 1003 48 10000 2.6 180 18:59 13.09.2019
1793 Clear 6 1003 48 10000 2.6 180 18:38 13.09.2019
1794 Clouds 6 1004 48 10000 1.5 50 18:19 13.09.2019
1795 Clouds 6 1004 48 10000 1.5 50 17:44 13.09.2019
1796 Clouds 6 1004 48 10000 1.5 50 17:22 13.09.2019
1797 Clouds 5 1004 60 10000 4.1 20 16:59 13.09.2019
1798 Clouds 5 1004 60 10000 4.1 20 16:40 13.09.2019
1799 Clouds 5 1004 60 10000 4.1 20 16:19 13.09.2019
1800 Clouds 4 1004 51 10000 6.2 340 15:42 13.09.2019
1801 Clouds 4 1004 51 10000 6.2 340 15:23 13.09.2019
1802 Clouds 2 1004 59 10000 4.1 340 14:55 13.09.2019
1803 Clouds 2 1004 59 10000 4.1 340 14:55 13.09.2019
1804 Clouds 2 1004 59 10000 4.1 340 14:55 13.09.2019
1805 Clouds 2 1004 59 10000 4.1 340 14:36 13.09.2019
1806 Clouds 2 1004 59 10000 4.1 340 14:18 13.09.2019
1807 Clouds 2 1004 59 10000 4.1 340 14:18 13.09.2019
1808 Clouds 0 1005 89 10000 6.2 340 13:41 13.09.2019
1809 Clouds 0 1005 84 10000 6.2 340 13:22 13.09.2019
1810 Clouds 1 1004 64 10000 4.1 340 12:45 13.09.2019
1811 -273 0 0 0 0 0 12:25 13.09.2019
1812 Clouds 1 1004 55 10000 4.6 320 11:57 13.09.2019
1813 Clouds 1 1004 55 10000 4.6 320 11:20 13.09.2019
1814 Clouds 1 1004 55 10000 3.6 320 10:54 13.09.2019
1815 Clouds 1 1004 55 10000 3.6 320 10:36 13.09.2019
1816 Clouds 1 1004 55 10000 3.6 320 10:18 13.09.2019
1817 Clouds 1 1004 55 10000 2.1 270 09:42 13.09.2019
1818 Clouds 1 1004 55 10000 2.1 270 09:19 13.09.2019
1819 Clouds 1 1005 59 10000 2.1 230 08:42 13.09.2019
1820 Clouds 1 1005 59 10000 2.1 230 08:42 13.09.2019
1821 Clouds 1 1005 59 10000 2.1 230 08:21 13.09.2019
1822 Clouds 1 1005 59 10000 2.1 230 08:21 13.09.2019
1823 Clouds 1 1005 59 10000 2.1 230 08:21 13.09.2019
1824 Clouds 1 1005 59 10000 2.33 300.235 07:59 13.09.2019
1825 Clouds 1 1005 59 10000 2.33 300.235 07:40 13.09.2019
1826 Clouds 2 1006 55 10000 2.6 270 06:55 13.09.2019
1827 Clouds 2 1006 55 10000 2.6 270 06:37 13.09.2019
1828 Clouds 1 1007 69 10000 3.1 270 05:34 13.09.2019
1829 Clouds 2 1008 64 10000 4.1 270 03:52 13.09.2019
1830 Clouds 2 1008 64 10000 4.1 270 03:25 13.09.2019
1831 Clouds 3 1008 59 10000 2.19 304.313 02:20 13.09.2019
1832 Clouds 3 1009 59 10000 3.1 250 01:36 13.09.2019
1833 Clouds 4 1009 51 10000 2.1 200 00:59 13.09.2019
1834 Clouds 4 1009 51 10000 2.1 200 00:34 13.09.2019
1835 Clouds 5 1010 48 10000 2.6 250 23:53 12.09.2019
1836 Clouds 5 1010 48 10000 2.6 250 23:25 12.09.2019
1837 Clouds 5 1010 48 10000 1.5 250 22:58 12.09.2019
1838 Clouds 5 1010 48 10000 1.5 250 22:39 12.09.2019
1839 Clouds 5 1010 48 10000 1.5 250 22:21 12.09.2019
1840 Clouds 5 1011 52 10000 3.1 200 21:55 12.09.2019
1841 Clouds 5 1011 52 10000 3.1 200 21:37 12.09.2019
1842 Clouds 5 1011 52 10000 3.1 200 21:18 12.09.2019
1843 Clouds 5 1012 48 10000 1.5 140 20:44 12.09.2019
1844 Clouds 5 1012 48 10000 1.5 140 20:23 12.09.2019
1845 Clouds 5 1013 48 10000 1.5 110 19:57 12.09.2019
1846 Clouds 5 1013 48 10000 1.5 110 19:39 12.09.2019
1847 Clouds 5 1013 48 10000 1.5 110 19:39 12.09.2019
1848 Clouds 3 1014 60 10000 1.71 291.249 19:19 12.09.2019
1849 Clouds 3 1014 60 10000 1.71 291.249 18:56 12.09.2019
1850 Clouds 3 1014 60 10000 1.71 291.249 18:36 12.09.2019
1851 Clouds 3 1014 55 10000 2.08 297.094 18:18 12.09.2019
1852 Clouds 3 1014 55 10000 2.08 297.094 17:40 12.09.2019
1853 Clouds 3 1014 55 10000 2.08 297.094 17:20 12.09.2019
1854 Clouds 3 1015 59 10000 2.6 360 16:56 12.09.2019
1855 -273 0 0 0 0 0 16:56 12.09.2019
1856 Clouds 3 1015 59 10000 2.6 360 16:37 12.09.2019
1857 Clouds 3 1015 59 10000 2.6 360 16:19 12.09.2019
1858 Clouds 2 1015 74 10000 2.1 270 15:41 12.09.2019
1859 Clouds 2 1015 74 10000 2.1 270 15:23 12.09.2019
1860 Clouds 2 1015 74 10000 2.1 270 15:23 12.09.2019
1861 Clouds 1 1016 74 10000 3.1 320 14:46 12.09.2019
1862 Clouds 1 1016 74 10000 3.1 320 14:22 12.09.2019
1863 Clouds 0 1016 81 10000 3.1 320 13:58 12.09.2019
1864 Clouds 0 1016 81 10000 3.1 320 13:37 12.09.2019
1865 Clouds 0 1016 82 10000 3.1 320 13:19 12.09.2019
1866 Clouds 0 1016 82 10000 7.7 250 12:45 12.09.2019
1867 Clouds 0 1016 93 10000 7.7 250 12:19 12.09.2019
1868 Clouds 1 1015 80 10000 11.3 230 11:56 12.09.2019
1869 Clouds 1 1015 80 10000 11.3 230 11:38 12.09.2019
1870 Clouds 1 1015 80 10000 11.3 230 11:19 12.09.2019
1871 Rain 1 1015 74 10000 12.9 230 10:44 12.09.2019
1872 Rain 1 1015 74 10000 12.9 230 10:25 12.09.2019
1873 Rain 0 1014 93 10000 9.3 230 09:45 12.09.2019
1874 Rain 0 1014 94 10000 9.3 230 09:25 12.09.2019
1875 Snow 0 1014 94 10000 10.8 230 08:59 12.09.2019
1876 Snow 0 1014 91 10000 10.8 230 08:40 12.09.2019
1877 Snow 0 1014 91 10000 10.8 230 08:22 12.09.2019
1878 Rain 0 1014 91 10000 12.3 230 07:40 12.09.2019
1879 Rain 0 1013 91 10000 12.3 230 07:19 12.09.2019
1880 Rain 0 1013 91 10000 12.3 230 06:51 12.09.2019
1881 Rain 0 1013 87 10000 12.3 230 06:23 12.09.2019
1882 Clouds -5 1012 87 0 3.55 234.504 05:51 12.09.2019
1883 Rain -1 1011 86 10000 12.3 230 05:32 12.09.2019
1884 Clouds -5 1012 87 0 3.55 234.504 04:40 12.09.2019
1885 Clouds -4 1009 88 0 7.79 230.373 02:43 12.09.2019
1886 Snow 0 1007 86 8000 9.3 230 01:37 12.09.2019
1887 Snow 0 1007 86 8000 9.3 230 01:18 12.09.2019
1888 Snow 1 1006 80 5000 8.7 230 00:42 12.09.2019
1889 Snow 1 1006 80 5000 8.7 230 00:24 12.09.2019
1890 Snow 2 1004 74 8000 12.9 230 23:42 11.09.2019
1891 Snow 1 1004 74 8000 12.9 230 23:22 11.09.2019
1892 Snow 2 1002 60 10000 10.8 230 22:57 11.09.2019
1893 Snow 2 1002 60 10000 10.8 230 22:37 11.09.2019
1894 Snow 2 1002 60 10000 10.8 230 22:19 11.09.2019
1895 Clouds 3 1001 64 10000 7.7 230 21:43 11.09.2019
1896 Clouds 3 1001 64 10000 7.7 230 21:25 11.09.2019
1897 Drizzle 3 999 74 10000 6.2 230 20:58 11.09.2019
1898 Drizzle 3 999 74 10000 6.2 230 20:40 11.09.2019
1899 Drizzle 3 999 74 10000 6.2 230 20:20 11.09.2019
1900 Drizzle 3 998 81 10000 10.3 230 19:58 11.09.2019
1901 Drizzle 3 998 81 10000 10.3 230 19:40 11.09.2019
1902 Drizzle 3 998 81 10000 10.3 230 19:21 11.09.2019
1903 Drizzle 4 996 80 10000 11.3 230 18:58 11.09.2019
1904 Drizzle 4 996 80 10000 11.3 230 18:40 11.09.2019
1905 Drizzle 4 996 80 10000 11.3 230 18:22 11.09.2019
1906 Rain 5 995 80 8000 9.3 230 17:56 11.09.2019
1907 Rain 5 995 80 8000 9.3 230 17:38 11.09.2019
1908 Rain 5 995 80 8000 9.3 230 17:20 11.09.2019
1909 Rain 5 992 75 8000 12.9 232 16:48 11.09.2019
1910 Rain 5 992 75 8000 12.9 232 16:25 11.09.2019
1911 Clouds 6 991 61 10000 4.1 230 15:59 11.09.2019
1912 Clouds 6 991 61 10000 4.1 230 15:40 11.09.2019
1913 Clouds 6 991 61 10000 4.1 230 15:19 11.09.2019
1914 Clouds 7 990 65 10000 2.1 293.877 14:55 11.09.2019
1915 Clouds 7 990 65 10000 2.1 293.877 14:36 11.09.2019
1916 Clouds 7 990 65 10000 2.1 293.877 14:18 11.09.2019
1917 Clouds 6 990 75 10000 2.1 70 13:38 11.09.2019
1918 Clouds 6 990 75 10000 2.1 70 13:38 11.09.2019
1919 Clouds 6 990 75 10000 2.1 70 13:20 11.09.2019
1920 Clouds 6 990 75 10000 2.1 70 13:20 11.09.2019
1921 Clouds 7 990 65 10000 2.6 90 12:56 11.09.2019
1922 Clouds 7 990 65 10000 2.6 90 12:38 11.09.2019
1923 Clouds 7 990 65 10000 2.6 90 12:20 11.09.2019
1924 Clouds 7 992 70 10000 2.6 230 11:39 11.09.2019
1925 Clouds 7 992 70 10000 2.6 230 11:21 11.09.2019
1926 Clouds 7 992 70 10000 2.6 230 11:21 11.09.2019
1927 Clouds 7 992 70 10000 2.1 180 10:57 11.09.2019
1928 Clouds 7 992 70 10000 2.1 180 10:38 11.09.2019
1929 Clouds 7 992 70 10000 2.1 180 10:19 11.09.2019
1930 Clouds 7 993 70 10000 5.7 90 09:39 11.09.2019
1931 Clouds 7 993 70 10000 5.7 90 09:20 11.09.2019
1932 Clouds 6 994 81 10000 3.6 90 08:55 11.09.2019
1933 Clouds 6 994 81 10000 3.6 90 08:55 11.09.2019
1934 Clouds 6 994 81 10000 3.6 90 08:37 11.09.2019
1935 Clouds 6 994 81 10000 3.6 90 08:19 11.09.2019
1936 Clouds 6 996 75 10000 2.93 334.501 07:40 11.09.2019
1937 Clouds 6 996 75 10000 2.93 334.501 07:21 11.09.2019
1938 Clouds 6 998 75 10000 2.6 90 06:48 11.09.2019
1939 Clouds 6 998 75 10000 2.6 90 06:27 11.09.2019
1940 Clouds 6 999 75 10000 1.5 320 05:36 11.09.2019
1941 Clouds 6 999 75 10000 1.5 320 05:18 11.09.2019
1942 Clouds 6 1000 70 10000 2.1 250 04:22 11.09.2019
1943 Clouds 6 1002 70 10000 1.5 290 03:31 11.09.2019
1944 Clouds 7 1003 70 10000 1.5 360 02:40 11.09.2019
1945 Clouds 8 1004 65 10000 3.26 318.874 01:42 11.09.2019
1946 Clouds 8 1006 61 10000 1.5 320 00:49 11.09.2019
1947 Clouds 8 1006 61 10000 1.5 320 00:20 11.09.2019
1948 Clouds 8 1006 61 10000 1.5 320 00:20 11.09.2019
1949 Clouds 7 1006 70 10000 2.1 270 23:41 10.09.2019
1950 Clouds 8 1006 70 10000 2.1 270 23:22 10.09.2019
1951 Clouds 8 1007 65 10000 3.6 230 22:59 10.09.2019
1952 Clouds 8 1007 65 10000 3.6 230 22:41 10.09.2019
1953 Clouds 8 1007 65 10000 3.6 230 22:19 10.09.2019
1954 Clouds 9 1008 57 10000 3.68 323.407 21:55 10.09.2019
1955 Clouds 9 1008 57 10000 3.68 323.407 21:37 10.09.2019
1956 Clouds 9 1008 57 10000 3.14 329.562 21:18 10.09.2019
1957 Clouds 10 1009 53 10000 3.14 329.562 20:57 10.09.2019
1958 Clouds 10 1009 53 10000 3.35 330.749 20:38 10.09.2019
1959 Clouds 9 1009 53 10000 3.35 330.749 20:19 10.09.2019
1960 Clouds 9 1010 88 10000 3.6 360 19:56 10.09.2019
1961 Clouds 9 1010 88 10000 3.6 360 19:37 10.09.2019
1962 Clouds 9 1010 88 10000 3.6 360 19:37 10.09.2019
1963 Clouds 8 1012 45 10000 3.35 330.749 19:18 10.09.2019
1964 Clouds 8 1012 45 10000 3.35 330.749 18:46 10.09.2019
1965 Clouds 8 1012 45 10000 3.35 330.749 18:46 10.09.2019
1966 Clouds 8 1012 45 10000 2.47 332.211 18:23 10.09.2019
1967 Clouds 8 1012 45 10000 2.47 332.211 18:23 10.09.2019
1968 Clouds 6 1013 52 10000 2.1 200 17:59 10.09.2019
1969 Clouds 6 1013 52 10000 2.1 200 17:59 10.09.2019
1970 Clouds 6 1013 52 10000 2.1 200 17:41 10.09.2019
1971 Clouds 6 1013 52 10000 2.1 200 17:21 10.09.2019
1972 Clouds 5 1014 65 10000 3.1 50 16:57 10.09.2019
1973 Clouds 5 1014 65 10000 3.1 50 16:38 10.09.2019
1974 Clouds 4 1014 65 10000 3.1 50 16:20 10.09.2019
1975 Clouds 4 1015 64 10000 2.1 340 15:56 10.09.2019
1976 Clouds 4 1015 64 10000 2.1 340 15:38 10.09.2019
1977 Clouds 4 1015 64 10000 2.1 340 15:19 10.09.2019
1978 Clear 3 1016 64 10000 4.1 340 14:40 10.09.2019
1979 Clear 3 1016 64 10000 4.1 340 14:22 10.09.2019
1980 Clear 2 1016 64 10000 4.1 340 13:49 10.09.2019
1981 Clear 2 1016 64 10000 4.1 340 13:24 10.09.2019
1982 Clear 2 1017 69 10000 4.1 340 12:58 10.09.2019
1983 Clear 2 1017 69 10000 4.1 340 12:40 10.09.2019
1984 Clear 2 1018 59 10000 3.1 320 12:22 10.09.2019
1985 Clear 2 1018 59 10000 3.1 320 11:43 10.09.2019
1986 Clear 2 1018 59 10000 3.1 320 11:23 10.09.2019
1987 Clear 2 1018 59 10000 4.6 340 10:59 10.09.2019
1988 Clear 2 1018 59 10000 4.6 340 10:38 10.09.2019
1989 Clear 2 1019 64 10000 6.2 360 10:18 10.09.2019
1990 Clear 2 1019 64 10000 6.2 360 09:47 10.09.2019
1991 Clear 2 1019 64 10000 6.2 360 09:20 10.09.2019
1992 Clear 2 1019 64 10000 6.2 360 09:20 10.09.2019
1993 Clear 3 1020 59 10000 6.2 340 08:59 10.09.2019
1994 Clear 3 1020 59 10000 6.2 340 08:41 10.09.2019
1995 Clear 3 1020 59 10000 6.2 340 08:21 10.09.2019
1996 Clear 3 1020 59 10000 5.1 290 07:44 10.09.2019
1997 Clear 3 1020 59 10000 5.1 290 07:25 10.09.2019
1998 Clear 3 1020 59 10000 5.1 290 07:25 10.09.2019
1999 Clear 3 1021 64 10000 4.1 290 06:48 10.09.2019
2000 Clear 3 1021 64 10000 4.1 290 06:29 10.09.2019
2001 Clear 4 1021 60 10000 3.1 270 04:57 10.09.2019
2002 Clear 4 1021 60 10000 3.1 320 02:46 10.09.2019
2003 Clear 4 1021 60 10000 3.1 320 02:22 10.09.2019
2004 Clear 4 1021 60 10000 3.1 320 02:22 10.09.2019
2005 Clear 4 1021 60 10000 3.1 320 02:22 10.09.2019
2006 Clear 4 1021 64 10000 3.1 270 01:54 10.09.2019
2007 Clear 4 1021 64 10000 3.1 270 01:54 10.09.2019
2008 Clear 4 1021 64 10000 3.1 270 01:28 10.09.2019
2009 Clouds 5 1020 65 10000 6.2 230 00:44 10.09.2019
2010 Clouds 5 1020 65 10000 6.2 230 00:24 10.09.2019
2011 Clouds 5 1020 65 10000 6.7 230 23:46 09.09.2019
2012 Clouds 6 1019 65 10000 7.7 230 23:20 09.09.2019
2013 Clouds 6 1019 65 10000 7.7 230 22:56 09.09.2019
2014 Clouds 6 1019 65 10000 7.7 230 22:38 09.09.2019
2015 Clouds 6 1019 72 10000 7.7 230 22:20 09.09.2019
2016 Clouds 6 1019 72 10000 7.7 230 21:56 09.09.2019
2017 Clouds 6 1019 72 10000 7.7 230 21:37 09.09.2019
2018 Clouds 6 1019 60 10000 7.7 230 21:19 09.09.2019
2019 Clouds 6 1019 60 10000 7.7 230 20:55 09.09.2019
2020 Clouds 6 1019 61 10000 7.7 230 20:37 09.09.2019
2021 Clouds 6 1018 60 10000 7.7 230 20:19 09.09.2019
2022 Clouds 6 1018 60 10000 7.7 230 19:57 09.09.2019
2023 Clouds 6 1018 60 10000 7.7 230 19:39 09.09.2019
2024 Clouds 5 1018 61 10000 5.7 250 19:19 09.09.2019
2025 Clouds 5 1018 61 10000 5.7 250 19:19 09.09.2019
2026 Clouds 5 1018 65 10000 5.7 250 18:57 09.09.2019
2027 Clouds 5 1018 65 10000 5.7 250 18:39 09.09.2019
2028 Clouds 5 1017 67 10000 9.3 230 18:20 09.09.2019
2029 Clouds 5 1017 67 10000 9.3 230 17:57 09.09.2019
2030 Clouds 5 1017 67 10000 9.3 230 17:39 09.09.2019
2031 Clouds 5 1016 69 10000 6.2 230 17:20 09.09.2019
2032 Clouds 5 1016 69 10000 6.2 230 16:55 09.09.2019
2033 Clouds 5 1016 69 10000 6.2 230 16:55 09.09.2019
2034 Clouds 5 1016 69 10000 6.2 230 16:37 09.09.2019
2035 Rain 3 1015 69 10000 7.7 230 16:18 09.09.2019
2036 Rain 3 1015 69 10000 7.7 230 15:54 09.09.2019
2037 Rain 3 1015 69 10000 7.7 230 15:36 09.09.2019
2038 Rain 3 1014 74 10000 7.7 230 15:18 09.09.2019
2039 Rain 3 1014 74 10000 7.7 230 14:40 09.09.2019
2040 Rain 3 1014 74 10000 7.7 230 14:40 09.09.2019
2041 Rain 3 1014 74 10000 7.7 230 14:22 09.09.2019
2042 Rain 3 1013 89 10000 7.7 230 13:59 09.09.2019
2043 Rain 3 1013 89 10000 7.7 230 13:41 09.09.2019
2044 Rain 3 1012 88 10000 7.7 230 13:19 09.09.2019
2045 Rain 3 1012 88 10000 7.7 230 12:57 09.09.2019
2046 Rain 3 1012 88 10000 7.7 230 12:38 09.09.2019
2047 Clouds 3 1010 74 10000 5.7 230 12:19 09.09.2019
2048 Clouds 3 1010 74 10000 5.7 230 11:43 09.09.2019
2049 Clouds 3 1009 94 10000 7.7 230 11:20 09.09.2019
2050 Clouds 3 1009 94 10000 7.7 230 10:57 09.09.2019
2051 Clouds 3 1009 94 10000 7.7 230 10:39 09.09.2019
2052 Clouds 3 1008 74 10000 8.7 230 10:19 09.09.2019
2053 Clouds 3 1008 74 10000 8.7 230 09:49 09.09.2019
2054 Clouds 3 1008 74 10000 8.7 230 09:30 09.09.2019
2055 Clouds 3 1006 74 10000 7.7 230 08:57 09.09.2019
2056 Clouds 3 1006 74 10000 7.7 230 08:38 09.09.2019
2057 Clouds 2 1005 96 10000 6.7 230 08:19 09.09.2019
2058 Clouds 2 1005 96 10000 6.7 230 07:44 09.09.2019
2059 Clouds 2 1004 93 10000 7.2 230 07:22 09.09.2019
2060 Clouds 2 1004 93 10000 7.2 230 06:56 09.09.2019
2061 Rain 2 1004 93 10000 7.2 230 06:31 09.09.2019
2062 Drizzle 3 1002 86 10000 8.2 230 04:45 09.09.2019
2063 Rain 4 1000 86 10000 8.7 230 02:43 09.09.2019
2064 Rain 5 999 75 10000 8.2 230 01:47 09.09.2019
2065 Rain 5 998 75 10000 7.2 230 00:39 09.09.2019
2066 Clouds 6 998 70 10000 6.2 230 00:20 09.09.2019
2067 Clouds 6 998 70 10000 6.2 230 23:41 08.09.2019
2068 Clouds 6 998 70 10000 6.2 230 23:23 08.09.2019
2069 Clouds 8 997 91 10000 3.6 230 22:43 08.09.2019
2070 Clouds 8 997 91 10000 3.6 230 22:23 08.09.2019
2071 Clouds 8 997 91 10000 1.34 312.403 21:59 08.09.2019
2072 Clouds 8 997 91 10000 1.34 312.403 21:40 08.09.2019
2073 Clouds 8 997 81 10000 2.57 337.085 21:22 08.09.2019
2074 Clouds 8 997 52 10000 2.57 337.085 20:56 08.09.2019
2075 Clouds 8 997 52 10000 2.62 333.396 20:37 08.09.2019
2076 Clouds 6 997 70 10000 2.1 90 20:19 08.09.2019
2077 Clouds 6 997 70 10000 2.1 90 19:56 08.09.2019
2078 Clouds 6 997 70 10000 2.1 90 19:37 08.09.2019
2079 Clouds 6 998 70 10000 2.6 90 19:18 08.09.2019
2080 Clouds 6 998 70 10000 2.6 90 19:18 08.09.2019
2081 Clouds 6 998 70 10000 2.6 90 18:55 08.09.2019
2082 Clouds 6 998 70 10000 2.6 90 18:37 08.09.2019
2083 Clouds 6 998 70 10000 3.1 320 18:18 08.09.2019
2084 Clouds 6 998 70 10000 3.1 320 17:38 08.09.2019
2085 Clouds 4 999 94 10000 2.49 328.433 17:19 08.09.2019
2086 Clouds 4 999 94 10000 2.49 328.433 16:58 08.09.2019
2087 Clouds 4 999 94 10000 2.49 328.433 16:40 08.09.2019
2088 Clouds 3 999 94 10000 2.49 328.433 16:20 08.09.2019
2089 Clouds 3 999 94 10000 2.49 328.433 16:20 08.09.2019
2090 Clouds 3 999 94 10000 2.49 328.433 15:57 08.09.2019
2091 Clouds 3 999 94 10000 2.49 328.433 15:39 08.09.2019
2092 Clouds 3 999 93 10000 2.43 335.049 15:20 08.09.2019
2093 Clouds 4 1000 80 10000 2.43 335.049 14:41 08.09.2019
2094 Clouds 4 1000 80 10000 2.43 335.049 14:22 08.09.2019
2095 Clear 3 1000 59 10000 2.43 335.049 13:58 08.09.2019
2096 Clear 3 1000 59 10000 2.43 335.049 13:40 08.09.2019
2097 Clear 3 1000 59 10000 2.43 335.049 13:40 08.09.2019
2098 Clear 3 1000 59 10000 2.29 329.637 13:22 08.09.2019
2099 Clear 3 1000 69 10000 2.29 329.637 12:58 08.09.2019
2100 Clear 3 1000 69 10000 2.29 329.637 12:40 08.09.2019
2101 Clear 3 1000 69 10000 1.5 20 12:22 08.09.2019
2102 Clear 3 1000 69 10000 1.5 20 11:57 08.09.2019
2103 Clear 3 1000 69 10000 1.5 20 11:37 08.09.2019
2104 Clear 3 1000 74 10000 2.36 325.274 11:19 08.09.2019
2105 Clear 3 1000 74 10000 2.36 325.274 10:43 08.09.2019
2106 Clear 3 1000 74 10000 2.36 325.274 10:23 08.09.2019
2107 Clear 3 1001 69 10000 2.6 320 09:58 08.09.2019
2108 Clear 3 1001 69 10000 2.6 320 09:37 08.09.2019
2109 Clear 3 1001 74 10000 2.2 318.596 09:19 08.09.2019
2110 Clear 3 1001 74 10000 2.17 316.01 08:40 08.09.2019
2111 Clear 3 1001 74 10000 2.17 316.01 08:40 08.09.2019
2112 Clear 3 1001 74 10000 2.17 316.01 08:19 08.09.2019
2113 Clear 3 1001 74 10000 2.17 316.01 07:59 08.09.2019
2114 Clear 3 1001 74 10000 2.17 316.01 07:37 08.09.2019
2115 Clear 3 1002 69 10000 1.5 50 07:19 08.09.2019
2116 Clear 3 1002 69 10000 1.5 50 06:44 08.09.2019
2117 Clear 3 1002 74 10000 2.45 317.651 05:44 08.09.2019
2118 Clear 3 1002 74 10000 2.45 317.651 05:26 08.09.2019
2119 Clouds 3 1003 69 10000 2.71 325.394 03:24 08.09.2019
2120 Clouds 4 1003 64 10000 4.6 320 02:51 08.09.2019
2121 Clouds 4 1004 64 10000 2.1 320 01:54 08.09.2019
2122 Clouds 4 1004 64 10000 2.1 320 01:33 08.09.2019
2123 Clouds 4 1004 64 10000 2.1 320 01:33 08.09.2019
2124 Clouds 5 1005 56 10000 1.5 270 00:49 08.09.2019
2125 Clouds 5 1005 56 10000 1.5 270 00:31 08.09.2019
2126 Clouds 6 1005 81 10000 5.1 230 23:58 07.09.2019
2127 Clouds 6 1005 81 10000 5.1 230 23:37 07.09.2019
2128 Clouds 6 1005 56 10000 6.7 230 23:19 07.09.2019
2129 Clouds 6 1005 56 10000 6.7 230 22:44 07.09.2019
2130 Clouds 6 1005 56 10000 6.7 230 22:25 07.09.2019
2131 Clear 6 1005 60 10000 6.2 230 21:59 07.09.2019
2132 Clear 6 1005 60 10000 6.2 230 21:39 07.09.2019
2133 Clear 6 1007 60 10000 3.6 200 21:21 07.09.2019
2134 Clear 6 1007 60 10000 3.6 200 20:41 07.09.2019
2135 Clear 6 1007 60 10000 3.6 200 20:22 07.09.2019
2136 Clear 6 1007 60 10000 1.5 90 19:57 07.09.2019
2137 Clear 6 1007 60 10000 1.5 90 19:38 07.09.2019
2138 Clear 4 1008 69 10000 3.1 50 19:20 07.09.2019
2139 Clear 4 1008 69 10000 3.1 50 18:59 07.09.2019
2140 Clear 4 1008 69 10000 3.1 50 18:40 07.09.2019
2141 Clear 4 1009 73 10000 1.26 327.763 18:21 07.09.2019
2142 Clear 4 1009 73 10000 1.26 327.763 17:59 07.09.2019
2143 Clear 4 1009 73 10000 1.26 327.763 17:39 07.09.2019
2144 Clear 4 1009 73 10000 1.26 327.763 17:39 07.09.2019
2145 Clear 4 1009 73 10000 1.26 327.763 17:39 07.09.2019
2146 Clear 4 1010 73 10000 2.1 340 17:19 07.09.2019
2147 Clear 4 1010 73 10000 2.1 340 17:18 07.09.2019
2148 Clear 4 1010 73 10000 2.1 340 16:58 07.09.2019
2149 Clear 4 1010 73 10000 2.1 340 16:58 07.09.2019
2150 Clear 4 1010 73 10000 2.1 340 16:40 07.09.2019
2151 Clear 3 1011 74 10000 2.1 360 16:19 07.09.2019
2152 Clear 3 1011 74 10000 2.1 360 15:46 07.09.2019
2153 Clear 3 1011 74 10000 2.1 360 15:26 07.09.2019
2154 Clear 1 1012 74 10000 2.6 340 14:57 07.09.2019
2155 Clear 1 1012 74 10000 2.6 340 14:57 07.09.2019
2156 Clear 1 1012 74 10000 2.6 340 14:37 07.09.2019
2157 Clouds 1 1012 80 10000 1.28 280.537 14:18 07.09.2019
2158 Clouds 1 1012 80 10000 1.28 280.537 13:56 07.09.2019
2159 Clouds 1 1012 80 10000 1.28 280.537 13:38 07.09.2019
2160 Clouds 2 1012 74 10000 3.1 20 13:20 07.09.2019
2161 Clouds 2 1012 74 10000 3.1 20 12:44 07.09.2019
2162 Clouds 2 1012 74 10000 3.1 20 12:24 07.09.2019
2163 Clouds 1 1013 74 10000 5.7 360 11:42 07.09.2019
2164 Clouds 1 1013 74 10000 5.7 360 11:22 07.09.2019
2165 Clouds 1 1014 80 10000 4.6 360 10:59 07.09.2019
2166 Clouds 1 1014 80 10000 4.6 360 10:38 07.09.2019
2167 Clear 1 1014 74 10000 4.1 320 10:19 07.09.2019
2168 Clear 1 1014 74 10000 4.1 320 09:43 07.09.2019
2169 Clear 1 1014 74 10000 4.1 320 09:25 07.09.2019
2170 Clear 1 1015 74 10000 2.6 360 08:57 07.09.2019
2171 Clear 1 1015 74 10000 2.6 360 08:37 07.09.2019
2172 Clouds 1 1015 74 10000 3.1 320 08:19 07.09.2019
2173 Clouds 1 1015 74 10000 3.1 320 07:45 07.09.2019
2174 Clouds 1 1015 74 10000 3.1 320 07:24 07.09.2019
2175 Clouds 1 1016 80 10000 2.1 320 06:45 07.09.2019
2176 Clear 1 1016 80 10000 4.1 340 06:19 07.09.2019
2177 Clear 1 1017 80 10000 3.1 340 04:45 07.09.2019
2178 Clear 2 1017 69 10000 2.1 290 04:19 07.09.2019
2179 Clear 2 1017 74 10000 3.1 270 02:44 07.09.2019
2180 Clear 2 1017 74 10000 2.6 340 01:44 07.09.2019
2181 Clouds 3 1017 74 10000 2.1 360 01:18 07.09.2019
2182 Clouds 3 1017 74 10000 2.1 360 00:39 07.09.2019
2183 Clear 4 1017 64 10000 1.53 343.822 00:19 07.09.2019
2184 Clear 4 1017 64 10000 1.53 343.822 23:40 06.09.2019
2185 Clear 4 1017 64 10000 1.53 343.822 23:21 06.09.2019
2186 Clear 4 1017 69 10000 1.53 343.822 22:57 06.09.2019
2187 Clear 4 1017 69 10000 1.53 343.822 22:37 06.09.2019
2188 Clear 4 1017 69 10000 1.53 343.822 22:37 06.09.2019
2189 Clear 5 1018 64 10000 1.53 343.822 22:19 06.09.2019
2190 Clear 5 1018 64 10000 1.53 343.822 21:56 06.09.2019
2191 Clear 5 1018 64 10000 1.53 343.822 21:38 06.09.2019
2192 Clear 4 1019 64 10000 1.33 344.907 21:20 06.09.2019
2193 Clear 4 1019 64 10000 1.33 344.907 20:57 06.09.2019
2194 Clear 4 1019 64 10000 1.47 340.872 20:38 06.09.2019
2195 Clear 4 1019 64 10000 2.6 90 20:18 06.09.2019
2196 Clear 4 1019 64 10000 2.6 90 19:42 06.09.2019
2197 Clear 4 1019 64 10000 2.6 90 19:24 06.09.2019
2198 Clear 4 1020 64 10000 1.47 340.872 18:59 06.09.2019
2199 Clear 4 1020 64 10000 1.47 340.872 18:40 06.09.2019
2200 Clear 3 1020 55 10000 1.67 340.319 18:22 06.09.2019
2201 Clear 3 1020 55 10000 1.67 340.319 17:57 06.09.2019
2202 Clear 3 1020 55 10000 1.67 340.319 17:37 06.09.2019
2203 Clear 2 1021 74 10000 1.67 340.319 17:18 06.09.2019
2204 Clear 2 1021 74 10000 1.67 340.319 16:39 06.09.2019
2205 Clear 2 1021 80 10000 2.6 360 16:18 06.09.2019
2206 Clear 2 1021 80 10000 2.6 360 15:41 06.09.2019
2207 Clear 2 1021 80 10000 2.6 360 15:23 06.09.2019
2208 Clear 0 1021 86 10000 2.1 340 14:48 06.09.2019
2209 Clear -1 1021 80 10000 2.6 270 14:20 06.09.2019
2210 Clear -1 1021 80 10000 2.6 270 13:59 06.09.2019
2211 Clear -1 1021 80 10000 2.6 270 13:41 06.09.2019
2212 Clear -1 1022 92 10000 1.67 323.945 13:19 06.09.2019
2213 Clear -1 1022 92 10000 1.67 323.945 12:38 06.09.2019
2214 Clear 0 1022 93 10000 2.1 320 12:18 06.09.2019
2215 Clear 0 1022 93 10000 2.1 320 11:43 06.09.2019
2216 Clear 0 1022 93 10000 2.1 320 11:24 06.09.2019
2217 Clear 0 1022 93 10000 3.1 320 10:59 06.09.2019
2218 Clear 0 1022 93 10000 3.1 320 10:40 06.09.2019
2219 Clear 0 1022 93 10000 3.1 320 10:21 06.09.2019
2220 Clear 0 1022 93 10000 3.1 320 09:57 06.09.2019
2221 Clear 0 1022 93 10000 3.1 320 09:36 06.09.2019
2222 Clear 0 1023 93 10000 3.1 320 09:18 06.09.2019
2223 Clear 0 1023 93 10000 3.1 320 08:42 06.09.2019
2224 Clear 0 1023 93 10000 3.1 320 08:24 06.09.2019
2225 Clouds -5 1022 93 0 1.51 316.423 07:47 06.09.2019
2226 Clouds -5 1022 93 0 1.51 316.423 07:27 06.09.2019
2227 Clouds -5 1022 93 0 1.51 316.423 06:57 06.09.2019
2228 Clouds -3 1023 90 0 0.79 283.027 06:21 06.09.2019
2229 Clouds -3 1023 90 0 0.79 283.027 05:43 06.09.2019
2230 Clouds -3 1023 90 0 0.79 283.027 04:49 06.09.2019
2231 Clouds -3 1023 90 0 0.79 283.027 03:53 06.09.2019
2232 Clouds 2 1024 74 10000 6.2 230 02:23 06.09.2019
2233 Clouds 3 1023 69 10000 7.7 230 00:44 06.09.2019
2234 Clouds 5 1023 65 10000 8.2 230 23:55 05.09.2019
2235 Clouds 5 1023 65 10000 8.2 230 23:37 05.09.2019
2236 Clouds 6 1023 90 10000 8.7 230 23:18 05.09.2019
2237 Clouds 6 1023 90 10000 8.7 230 22:42 05.09.2019
2238 Clouds 6 1023 90 10000 8.7 230 22:24 05.09.2019
2239 Clear 6 1023 90 10000 8.7 230 21:56 05.09.2019
2240 Clear 6 1023 90 10000 8.7 230 21:38 05.09.2019
2241 Clear 5 1023 82 10000 7.2 230 21:19 05.09.2019
2242 Clear 5 1023 82 10000 7.2 230 20:57 05.09.2019
2243 Clear 5 1023 81 10000 7.2 230 20:37 05.09.2019
2244 Clouds 5 1024 75 10000 9.3 230 20:19 05.09.2019
2245 Clouds 5 1024 75 10000 9.3 230 19:55 05.09.2019
2246 Clouds 5 1024 75 10000 9.3 230 19:37 05.09.2019
2247 Clouds 5 1024 75 10000 9.3 230 19:18 05.09.2019
2248 Clouds 5 1024 75 10000 9.3 230 19:18 05.09.2019
2249 Clouds 5 1024 81 10000 8.7 230 18:40 05.09.2019
2250 Clouds 4 1025 69 10000 7.7 230 18:20 05.09.2019
2251 Clouds 4 1025 69 10000 7.7 230 17:56 05.09.2019
2252 Clouds 4 1025 69 10000 7.7 230 17:38 05.09.2019
2253 Clear 4 1025 69 10000 2.6 320 17:20 05.09.2019
2254 Clear 4 1025 69 10000 2.6 320 16:42 05.09.2019
2255 Clear 3 1025 74 10000 3.1 320 16:21 05.09.2019
2256 Clear 3 1025 74 10000 3.1 320 15:58 05.09.2019
2257 Clear 3 1025 74 10000 3.1 320 15:39 05.09.2019
2258 Clear 2 1025 69 10000 4.1 320 15:19 05.09.2019
2259 Clear 2 1025 69 10000 4.1 320 14:54 05.09.2019
2260 Clear 2 1025 69 10000 4.1 320 14:36 05.09.2019
2261 Clear 2 1026 69 10000 3.1 320 14:18 05.09.2019
2262 Clear 2 1026 69 10000 3.1 320 13:41 05.09.2019
2263 Clear 2 1026 69 10000 4.1 340 13:18 05.09.2019
2264 Clear 2 1026 69 10000 4.1 340 12:42 05.09.2019
2265 Clear 2 1026 69 10000 4.1 340 12:24 05.09.2019
2266 Clear 2 1026 64 10000 2.1 290 11:56 05.09.2019
2267 Clear 2 1026 64 10000 2.1 290 11:36 05.09.2019
2268 Clear 3 1027 59 10000 3.1 290 11:18 05.09.2019
2269 Clear 3 1027 59 10000 3.1 290 10:37 05.09.2019
2270 Clear 3 1027 59 10000 3.1 290 10:37 05.09.2019
2271 Clear 3 1027 74 10000 3.6 230 10:19 05.09.2019
2272 Clear 3 1027 74 10000 3.6 230 09:57 05.09.2019
2273 Clear 3 1027 74 10000 3.6 230 09:38 05.09.2019
2274 Clear 3 1027 69 10000 2.6 250 09:18 05.09.2019
2275 Clear 3 1027 69 10000 2.6 250 08:43 05.09.2019
2276 Clear 3 1027 69 10000 2.6 250 08:24 05.09.2019
2277 Clear 4 1027 60 10000 2.1 340 07:44 05.09.2019
2278 Clear 4 1027 60 10000 2.1 340 07:25 05.09.2019
2279 Clear 5 1028 56 10000 2.6 320 06:50 05.09.2019
2280 Clear 5 1028 56 10000 2.6 320 06:29 05.09.2019
2281 Clear 5 1028 56 10000 3.1 270 05:49 05.09.2019
2282 Clear 5 1028 56 10000 3.1 270 05:28 05.09.2019
2283 Clear 5 1028 60 10000 4.1 230 04:45 05.09.2019
2284 Clouds 6 1029 56 10000 4.6 230 04:19 05.09.2019
2285 Clouds 6 1029 56 10000 6.2 230 03:22 05.09.2019
2286 Clouds 6 1029 56 10000 6.2 230 02:42 05.09.2019
2287 Clouds 5 1028 65 10000 8.2 230 02:18 05.09.2019
2288 Clouds 5 1028 65 10000 8.2 230 01:25 05.09.2019
2289 Clouds 5 1029 65 10000 8.2 230 00:42 05.09.2019
2290 Clear 6 1028 56 10000 7.7 230 00:20 05.09.2019
2291 Clear 6 1028 56 10000 7.7 230 23:45 04.09.2019
2292 Clear 5 1028 56 10000 7.7 230 23:23 04.09.2019
2293 Clear 5 1029 56 10000 8.7 230 22:57 04.09.2019
2294 Clear 5 1029 56 10000 8.7 230 22:38 04.09.2019
2295 Clear 5 1029 52 10000 10.8 230 22:18 04.09.2019
2296 Clear 5 1029 52 10000 10.8 230 21:39 04.09.2019
2297 Clear 5 1029 60 10000 11.8 230 21:20 04.09.2019
2298 Clear 5 1029 60 10000 11.8 230 20:56 04.09.2019
2299 Clear 5 1029 60 10000 11.8 230 20:37 04.09.2019
2300 Clear 5 1030 60 10000 10.8 230 20:18 04.09.2019
2301 Clear 5 1030 60 10000 10.8 230 19:45 04.09.2019
2302 Clear 5 1030 60 10000 10.8 230 19:25 04.09.2019
2303 Clear 5 1030 60 10000 10.8 230 18:58 04.09.2019
2304 Clear 5 1030 65 10000 10.3 230 18:38 04.09.2019
2305 Clouds 5 1030 65 10000 9.8 230 18:19 04.09.2019
2306 Clouds 5 1030 65 10000 9.8 230 17:41 04.09.2019
2307 Clouds 5 1030 65 10000 9.8 230 17:23 04.09.2019
2308 Clouds 5 1030 65 10000 9.8 230 16:57 04.09.2019
2309 Clouds 5 1030 56 10000 11.3 230 16:39 04.09.2019
2310 Clouds 5 1030 56 10000 11.3 230 16:21 04.09.2019
2311 -273 0 0 0 0 0 15:55 04.09.2019
2312 Clouds 4 1030 55 10000 10.8 230 15:37 04.09.2019
2313 Clouds 4 1030 60 10000 9.8 230 15:18 04.09.2019
2314 Clouds 4 1030 60 10000 9.8 230 14:54 04.09.2019
2315 Clouds 4 1030 60 10000 9.8 230 14:36 04.09.2019
2316 Clouds 3 1030 69 10000 10.8 230 14:18 04.09.2019
2317 Clouds 3 1030 69 10000 10.8 230 13:39 04.09.2019
2318 Clouds 3 1029 74 10000 9.3 230 13:21 04.09.2019
2319 Clouds 3 1029 74 10000 9.3 230 12:46 04.09.2019
2320 Clouds 3 1029 74 10000 9.3 230 12:27 04.09.2019
2321 Clouds 3 1029 69 10000 12.3 230 11:59 04.09.2019
2322 Clouds 3 1029 69 10000 12.3 230 11:40 04.09.2019
2323 Clouds 3 1029 69 10000 12.3 230 11:21 04.09.2019
2324 Clear 2 1029 74 10000 11.8 230 10:57 04.09.2019
2325 Clear 2 1029 74 10000 11.8 230 10:38 04.09.2019
2326 Clear 2 1029 74 10000 10.3 230 10:20 04.09.2019
2327 Clear 2 1029 74 10000 10.3 230 09:46 04.09.2019
2328 Clear 2 1029 74 10000 10.3 230 09:21 04.09.2019
2329 Clear 2 1029 74 10000 11.3 230 08:57 04.09.2019
2330 Clear 2 1029 74 10000 11.3 230 08:38 04.09.2019
2331 Clouds 2 1028 69 10000 10.8 230 08:19 04.09.2019
2332 Clouds 2 1028 69 10000 10.8 230 07:40 04.09.2019
2333 Clouds 3 1029 64 10000 11.3 230 07:22 04.09.2019
2334 Clouds 3 1029 64 10000 11.3 230 06:39 04.09.2019
2335 Clouds 2 1029 69 10000 11.3 230 04:56 04.09.2019
2336 Clouds 2 1029 69 10000 11.3 230 04:56 04.09.2019
2337 Clouds 2 1029 69 10000 10.8 230 04:25 04.09.2019
2338 Clouds 2 1029 69 10000 10.3 230 03:39 04.09.2019
2339 Clouds 2 1029 69 10000 9.3 230 01:21 04.09.2019
2340 Clouds 2 1029 74 10000 9.8 230 00:46 04.09.2019
2341 Clouds 2 1029 74 10000 9.8 230 00:27 04.09.2019
2342 Clouds 2 1029 74 10000 7.2 230 23:53 03.09.2019
2343 Rain 3 1029 74 10000 7.2 230 23:27 03.09.2019
2344 Rain 3 1029 69 10000 8.2 230 22:57 03.09.2019
2345 Rain 3 1029 69 10000 8.2 230 22:39 03.09.2019
2346 Rain 2 1029 64 10000 8.7 230 22:21 03.09.2019
2347 Rain 2 1029 64 10000 8.7 230 21:55 03.09.2019
2348 Rain 2 1029 64 10000 8.7 230 21:55 03.09.2019
2349 Rain 2 1029 64 10000 8.7 230 21:36 03.09.2019
2350 Rain 2 1029 64 10000 8.7 230 21:36 03.09.2019
2351 Rain 2 1029 64 10000 8.2 230 21:18 03.09.2019
2352 Rain 2 1029 64 10000 8.2 230 20:42 03.09.2019
2353 Rain 1 1029 64 10000 8.7 230 20:24 03.09.2019
2354 Rain 1 1029 64 10000 8.7 230 19:55 03.09.2019
2355 Rain 1 1029 64 10000 8.7 230 19:37 03.09.2019
2356 Rain 1 1029 64 10000 8.7 230 19:18 03.09.2019
2357 Rain 1 1029 74 10000 7.7 200 18:44 03.09.2019
2358 Rain 1 1029 74 10000 7.7 200 18:25 03.09.2019
2359 Rain 1 1029 74 10000 7.7 200 18:25 03.09.2019
2360 Rain 1 1029 74 10000 7.7 200 17:57 03.09.2019
2361 Rain 1 1029 74 10000 4.1 180 17:39 03.09.2019
2362 Snow 1 1028 80 6000 4.1 116 17:19 03.09.2019
2363 Snow 1 1028 80 6000 4.1 116 16:44 03.09.2019
2364 Snow 1 1028 80 6000 4.1 116 16:23 03.09.2019
2365 Snow 1 1029 86 4000 4.1 200 15:59 03.09.2019
2366 Snow 1 1029 86 4000 4.1 200 15:39 03.09.2019
2367 Snow 0 1028 96 5000 5.1 160 15:21 03.09.2019
2368 Snow 0 1028 96 5000 5.1 160 14:57 03.09.2019
2369 Snow 0 1028 96 5000 5.1 160 14:39 03.09.2019
2370 Rain 0 1028 96 8000 6.2 160 14:20 03.09.2019
2371 Rain 0 1028 96 8000 6.2 160 13:56 03.09.2019
2372 Rain 0 1028 96 8000 6.2 160 13:37 03.09.2019
2373 Snow 0 1027 96 4000 6.2 160 13:19 03.09.2019
2374 Snow 0 1027 96 4000 6.2 160 12:48 03.09.2019
2375 Snow 0 1027 96 4000 6.2 160 12:29 03.09.2019
2376 Snow 0 1026 96 3000 7.7 160 11:58 03.09.2019
2377 Snow 0 1026 96 3000 7.7 160 11:38 03.09.2019
2378 Snow 0 1026 96 3000 6.7 180 11:19 03.09.2019
2379 Snow 0 1026 96 3000 6.7 180 10:54 03.09.2019
2380 Snow 0 1026 96 3000 6.7 180 10:36 03.09.2019
2381 Snow 0 1025 96 3000 7.2 180 10:18 03.09.2019
2382 Snow 0 1025 96 3000 7.2 180 10:18 03.09.2019
2383 Snow 0 1025 96 3000 7.2 180 09:41 03.09.2019
2384 Snow 0 1025 95 3000 8.7 180 09:23 03.09.2019
2385 Snow 0 1025 95 3000 8.7 180 08:39 03.09.2019
2386 Snow 0 1025 95 3000 8.7 180 08:21 03.09.2019
2387 Snow 0 1024 95 6500 8.2 230 07:54 03.09.2019
2388 Snow 0 1024 95 6500 8.2 230 07:36 03.09.2019
2389 Snow 1 1023 80 6500 11.3 230 07:18 03.09.2019
2390 Snow 1 1023 80 6500 11.3 230 06:41 03.09.2019
2391 Snow 1 1018 93 4000 13.4 160 03:45 03.09.2019
2392 Rain 2 1017 97 6000 12.3 230 02:59 03.09.2019
2393 Rain 2 1017 97 6000 12.3 230 02:38 03.09.2019
2394 Rain 2 1016 97 6000 13.9 230 02:20 03.09.2019
2395 Rain 2 1016 97 6000 13.9 230 01:43 03.09.2019
2396 Rain 2 1016 97 6000 13.9 230 01:25 03.09.2019
2397 Rain 2 1015 97 6000 13.9 230 00:31 03.09.2019
2398 Rain 2 1014 96 6000 17.5 230 23:57 02.09.2019
2399 Rain 2 1014 96 6000 17.5 230 23:37 02.09.2019
2400 Drizzle 3 1016 96 10000 17 230 23:19 02.09.2019
2401 Drizzle 3 1016 96 10000 17 230 22:55 02.09.2019
2402 Drizzle 3 1016 96 10000 17 230 22:36 02.09.2019
2403 Drizzle 4 1017 86 10000 15.4 230 22:18 02.09.2019
2404 Drizzle 4 1017 86 10000 15.4 230 21:55 02.09.2019
2405 Drizzle 4 1017 86 10000 15.4 230 21:37 02.09.2019
2406 Drizzle 2 1017 91 10000 15.9 230 21:18 02.09.2019
2407 Drizzle 2 1017 91 10000 15.9 230 20:42 02.09.2019
2408 Drizzle 2 1017 91 10000 15.9 230 20:42 02.09.2019
2409 Drizzle 3 1018 91 10000 17 230 20:23 02.09.2019
2410 Drizzle 3 1018 91 10000 17 230 19:59 02.09.2019
2411 Drizzle 3 1018 91 10000 17 230 19:40 02.09.2019
2412 Drizzle 3 1018 91 10000 17 230 19:22 02.09.2019
2413 Rain 4 1018 91 10000 17.5 230 18:57 02.09.2019
2414 Rain 4 1018 91 10000 17.5 230 18:37 02.09.2019
2415 Rain 3 1018 93 9000 7.7 240 18:18 02.09.2019
2416 Rain 4 1018 86 10000 14.4 230 17:40 02.09.2019
2417 Rain 4 1018 86 10000 14.4 230 17:21 02.09.2019
2418 Rain 3 1020 93 10000 12.9 230 16:59 02.09.2019
2419 Rain 3 1020 93 10000 12.9 230 16:59 02.09.2019
2420 Rain 3 1020 93 10000 12.9 230 16:39 02.09.2019
2421 Rain 3 1020 93 10000 12.9 230 16:39 02.09.2019
2422 Rain 3 1020 93 10000 12.9 250 16:20 02.09.2019
2423 Rain 3 1020 93 10000 12.9 250 15:49 02.09.2019
2424 Rain 3 1020 93 10000 12.9 250 15:29 02.09.2019
2425 Rain 2 1021 93 10000 11.3 250 14:58 02.09.2019
2426 Rain 2 1021 93 10000 11.3 250 14:40 02.09.2019
2427 Rain 2 1021 93 10000 11.3 250 14:22 02.09.2019
2428 Rain 2 1021 80 10000 12.9 250 13:56 02.09.2019
2429 Rain 2 1021 80 10000 12.9 250 13:37 02.09.2019
2430 Rain 2 1021 74 10000 11.3 250 13:19 02.09.2019
2431 Rain 2 1021 74 10000 11.3 250 12:45 02.09.2019
2432 Rain 2 1021 74 10000 11.3 250 12:25 02.09.2019
2433 Rain 2 1021 80 10000 11.3 230 11:59 02.09.2019
2434 Rain 2 1021 80 10000 11.3 230 11:39 02.09.2019
2435 Rain 2 1021 80 10000 11.3 230 11:21 02.09.2019
2436 Rain 2 1021 80 10000 13.9 230 10:57 02.09.2019
2437 Rain 2 1021 80 10000 13.9 230 10:38 02.09.2019
2438 Snow 1 1021 86 10000 12.3 230 10:20 02.09.2019
2439 Snow 1 1021 86 10000 12.3 230 09:55 02.09.2019
2440 Snow 1 1021 86 10000 12.3 230 09:37 02.09.2019
2441 Snow 1 1022 80 10000 12.3 230 09:18 02.09.2019
2442 Snow 1 1022 80 10000 12.3 230 08:39 02.09.2019
2443 Snow 1 1022 80 10000 12.3 230 08:39 02.09.2019
2444 Snow 1 1022 80 10000 12.3 230 08:39 02.09.2019
2445 Snow 1 1022 80 10000 11.3 230 08:18 02.09.2019
2446 Snow 1 1022 80 10000 11.3 230 07:41 02.09.2019
2447 Rain 1 1022 80 10000 8.7 250 07:21 02.09.2019
2448 Rain 1 1022 80 10000 8.7 250 06:45 02.09.2019
2449 Rain 1 1022 80 10000 8.7 250 06:25 02.09.2019
2450 Rain 1 1023 86 10000 8.7 230 05:48 02.09.2019
2451 Rain 1 1023 80 10000 9.8 230 05:19 02.09.2019
2452 Rain 1 1023 80 10000 9.8 230 04:21 02.09.2019
2453 Snow 1 1023 86 8000 9.8 230 01:48 02.09.2019
2454 Snow 1 1022 86 8000 9.3 230 00:49 02.09.2019
2455 Snow 1 1022 86 8000 9.3 230 00:31 02.09.2019
2456 Snow 1 1021 86 5000 10.3 230 23:46 01.09.2019
2457 Snow 1 1021 86 5000 10.3 230 23:23 01.09.2019
2458 Snow 1 1021 86 6000 3.1 180 22:59 01.09.2019
2459 Snow 1 1021 86 6000 3.1 180 22:40 01.09.2019
2460 Snow 1 1020 86 5000 9.8 180 22:19 01.09.2019
2461 Snow 1 1020 86 5000 9.8 180 21:57 01.09.2019
2462 Snow 1 1020 86 5000 9.8 180 21:39 01.09.2019
2463 Snow 1 1019 80 5000 7.7 180 21:20 01.09.2019
2464 Snow 1 1019 80 5000 7.7 180 20:57 01.09.2019
2465 Snow 1 1019 80 5000 7.7 180 20:38 01.09.2019
2466 Snow 1 1019 80 5000 7.7 180 20:38 01.09.2019
2467 Snow 1 1018 86 3000 10.3 180 20:18 01.09.2019
2468 Snow 1 1018 86 3000 10.3 180 19:57 01.09.2019
2469 Snow 1 1018 86 3000 10.3 180 19:37 01.09.2019
2470 Snow 1 1018 86 3000 10.3 180 19:19 01.09.2019
2471 Snow 1 1016 80 5000 9.8 230 18:43 01.09.2019
2472 Snow 1 1016 80 5000 9.8 230 18:25 01.09.2019
2473 Snow -1 1015 80 3500 9.3 200 17:55 01.09.2019
2474 Snow -1 1015 80 3500 9.3 200 17:55 01.09.2019
2475 Snow -1 1015 80 3500 9.3 200 17:37 01.09.2019
2476 Snow -1 1015 80 3500 9.3 200 17:19 01.09.2019
2477 Rain -1 1014 74 3000 9.3 200 16:39 01.09.2019
2478 Snow -1 1013 80 2500 7.7 230 16:19 01.09.2019
2479 Snow -1 1013 80 2500 7.7 230 15:48 01.09.2019
2480 Snow -1 1013 80 2500 7.7 230 15:29 01.09.2019
2481 Snow -1 1012 80 2500 9.3 230 14:59 01.09.2019
2482 Snow -1 1012 80 2500 9.3 230 14:40 01.09.2019
2483 Snow -1 1011 80 1200 9.3 230 14:20 01.09.2019
2484 Snow -1 1011 80 1200 9.3 230 13:54 01.09.2019
2485 Snow -1 1011 80 1200 9.3 230 13:36 01.09.2019
2486 Snow -1 1011 80 1200 9.3 230 13:18 01.09.2019
2487 Snow -1 1010 80 1200 8.2 200 12:41 01.09.2019
2488 Snow -1 1008 80 1200 11.3 230 12:22 01.09.2019
2489 Snow -1 1008 80 1200 11.3 230 11:41 01.09.2019
2490 Snow -1 1007 86 2000 10.3 230 11:20 01.09.2019
2491 Snow -1 1007 86 2000 10.3 230 10:58 01.09.2019
2492 Snow -1 1007 86 2000 10.3 230 10:40 01.09.2019
2493 Snow -1 1008 80 500 10.3 230 10:21 01.09.2019
2494 Snow -1 1008 80 500 10.3 230 09:43 01.09.2019
2495 Snow -1 1008 80 500 10.3 230 09:25 01.09.2019
2496 Snow -1 1008 80 500 10.8 230 08:44 01.09.2019
2497 Snow -1 1008 80 500 10.8 230 08:24 01.09.2019
2498 Snow -1 1009 86 800 10.3 230 07:51 01.09.2019
2499 Snow -1 1009 86 800 10.3 230 07:33 01.09.2019
2500 Snow -1 1009 92 2000 11.3 230 06:47 01.09.2019
2501 Snow -1 1009 92 2000 11.3 230 06:26 01.09.2019
2502 Snow 0 1009 93 2000 10.8 230 05:56 01.09.2019
2503 Snow 0 1009 93 2000 10.8 230 05:56 01.09.2019
2504 Snow 0 1010 93 1500 12.3 230 04:31 01.09.2019
2505 Snow 0 1010 93 1500 13.4 230 03:42 01.09.2019
2506 Snow 1 1010 86 1000 11.3 230 02:57 01.09.2019
2507 Snow 1 1010 86 1000 11.3 230 02:26 01.09.2019
2508 Snow 1 1010 86 1000 10.3 230 01:50 01.09.2019
2509 Snow 1 1010 86 1000 10.3 230 01:50 01.09.2019
2510 Snow 1 1010 95 1000 8.2 230 01:23 01.09.2019
2511 Snow 1 1010 95 700 9.3 230 00:45 01.09.2019
2512 Snow 1 1011 87 1500 10.8 230 00:22 01.09.2019
2513 Snow 1 1011 87 1500 10.8 230 23:54 31.08.2019
2514 Snow 1 1011 87 1500 10.8 230 23:36 31.08.2019
2515 Snow 3 1010 69 5000 11.3 230 23:18 31.08.2019
2516 Snow 3 1010 69 5000 11.3 230 23:18 31.08.2019
2517 Snow 3 1010 69 5000 11.3 230 22:42 31.08.2019
2518 Snow 3 1010 69 5000 11.3 230 22:24 31.08.2019
2519 Snow 3 1010 69 2000 10.8 230 21:56 31.08.2019
2520 Snow 3 1010 69 2000 10.8 230 21:37 31.08.2019
2521 Drizzle 4 1010 64 10000 15.4 230 21:19 31.08.2019
2522 Drizzle 4 1010 64 10000 15.4 230 20:47 31.08.2019
2523 Drizzle 4 1010 64 10000 15.4 230 20:28 31.08.2019
2524 Rain 4 1008 64 10000 16.5 230 19:56 31.08.2019
2525 Rain 4 1008 64 10000 16.5 230 19:38 31.08.2019
2526 Rain 4 1008 64 10000 16.5 230 19:38 31.08.2019
2527 Rain 5 1008 64 10000 16.5 230 19:20 31.08.2019
2528 Clouds 5 1009 64 10000 16.5 230 18:40 31.08.2019
2529 Clouds 6 1010 77 10000 14.9 230 18:21 31.08.2019
2530 Clouds 6 1010 77 10000 14.9 230 17:57 31.08.2019
2531 Clouds 6 1010 77 10000 14.9 230 17:37 31.08.2019
2532 Clouds 6 1010 77 10000 14.9 230 17:37 31.08.2019
2533 Clouds 5 1009 75 10000 16.5 230 17:19 31.08.2019
2534 Clouds 5 1009 75 10000 16.5 230 17:19 31.08.2019
2535 Clouds 5 1009 75 10000 16.5 230 16:58 31.08.2019
2536 Clouds 5 1009 75 10000 16.5 230 16:40 31.08.2019
2537 Clouds 5 1010 86 10000 14.4 230 16:21 31.08.2019
2538 Clouds 5 1010 86 10000 14.4 230 15:57 31.08.2019
2539 Clouds 5 1010 86 10000 14.4 230 15:36 31.08.2019
2540 Clouds 3 1009 86 10000 14.9 230 15:18 31.08.2019
2541 Clouds 3 1009 86 10000 14.9 230 14:41 31.08.2019
2542 Clouds 3 1009 86 10000 14.9 230 14:22 31.08.2019
2543 Clouds 3 1008 95 10000 9.8 230 13:42 31.08.2019
2544 Clouds 3 1008 96 10000 9.8 230 13:23 31.08.2019
2545 Clouds 3 1008 96 10000 9.8 230 12:59 31.08.2019
2546 Clouds 3 1008 96 10000 9.8 230 12:39 31.08.2019
2547 Clouds 3 1008 96 10000 11.3 230 12:20 31.08.2019
2548 Clouds 3 1008 96 10000 11.3 230 11:56 31.08.2019
2549 Clouds 3 1008 96 10000 11.3 230 11:38 31.08.2019
2550 Clouds 3 1007 96 10000 9.8 230 11:20 31.08.2019
2551 Clouds 3 1007 96 10000 9.8 230 10:42 31.08.2019
2552 Clouds 3 1007 96 10000 9.3 230 10:19 31.08.2019
2553 Clouds 3 1007 96 10000 9.3 230 10:19 31.08.2019
2554 Clouds 3 1007 96 10000 9.3 230 09:59 31.08.2019
2555 Clouds 3 1007 96 10000 9.3 230 09:38 31.08.2019
2556 Clouds 3 1006 74 10000 6.7 230 09:19 31.08.2019
2557 Clouds 3 1006 74 10000 6.7 230 08:43 31.08.2019
2558 Clouds 3 1006 74 10000 6.7 230 08:25 31.08.2019
2559 Clouds 3 1005 74 10000 5.1 230 07:42 31.08.2019
2560 Clouds 3 1005 74 10000 2.1 230 07:23 31.08.2019
2561 Clouds 3 1005 74 10000 2.1 230 06:44 31.08.2019
2562 Clouds 4 1004 69 10000 1.5 270 06:20 31.08.2019
2563 Clouds 4 1004 69 10000 1.5 270 05:34 31.08.2019
2564 Clouds 4 1004 69 10000 1.65 276.125 04:36 31.08.2019
2565 Clouds 4 1004 69 10000 2.1 320 03:50 31.08.2019
2566 Clouds 4 1004 69 10000 3.1 320 02:50 31.08.2019
2567 Clouds 4 1004 69 10000 3.6 250 01:56 31.08.2019
2568 Clouds 4 1004 69 10000 3.6 250 01:36 31.08.2019
2569 Clouds 4 1004 80 10000 5.7 230 01:18 31.08.2019
2570 Clouds 4 1004 80 10000 5.7 230 00:41 31.08.2019
2571 Clouds 5 1004 80 10000 5.7 230 00:23 31.08.2019
2572 Clouds 6 1003 75 10000 6.2 230 23:40 30.08.2019
2573 Clouds 5 1003 98 10000 4.6 230 23:18 30.08.2019
2574 Clouds 5 1003 98 10000 4.6 230 22:43 30.08.2019
2575 Clouds 5 1003 98 10000 4.6 230 22:25 30.08.2019
2576 Clouds 6 1003 98 10000 5.1 230 21:59 30.08.2019
2577 Clouds 6 1003 98 10000 5.1 230 21:38 30.08.2019
2578 Clouds 5 1003 90 10000 2.1 180 21:20 30.08.2019
2579 Clouds 5 1003 90 10000 2.1 180 21:20 30.08.2019
2580 Clouds 5 1003 90 10000 2.1 180 20:59 30.08.2019
2581 Clouds 5 1003 90 10000 2.1 180 20:41 30.08.2019
2582 Clouds 4 1003 69 10000 1.5 140 20:20 30.08.2019
2583 Clouds 4 1003 69 10000 1.5 140 19:59 30.08.2019
2584 Clouds 4 1003 69 10000 1.5 140 19:39 30.08.2019
2585 Clouds 4 1003 69 10000 1.5 140 19:19 30.08.2019
2586 Clouds 4 1003 90 10000 1.5 70 18:55 30.08.2019
2587 Clouds 4 1003 90 10000 1.5 70 18:37 30.08.2019
2588 Clouds 3 1003 80 10000 2.1 290 18:18 30.08.2019
2589 Clear 4 1003 86 10000 1.73 306.103 17:55 30.08.2019
2590 Clear 4 1003 86 10000 1.73 306.103 17:37 30.08.2019
2591 Clear 2 1003 93 10000 1.5 20 17:18 30.08.2019
2592 Clear 2 1003 93 10000 1.5 20 16:43 30.08.2019
2593 Clear 1 1003 93 10000 1.5 20 16:23 30.08.2019
2594 Clear 1 1003 80 10000 1 290 15:45 30.08.2019
2595 Clear 1 1003 80 10000 1 290 15:45 30.08.2019
2596 Clear 1 1003 80 10000 1 290 15:25 30.08.2019
2597 Clouds 1 1002 74 10000 2.1 320 14:58 30.08.2019
2598 Clouds 1 1002 74 10000 2.1 320 14:40 30.08.2019
2599 Clouds 1 1002 74 10000 2.1 320 14:22 30.08.2019
2600 Clouds 1 1002 74 10000 2.1 320 13:43 30.08.2019
2601 Clouds 1 1002 74 10000 2.1 320 13:23 30.08.2019
2602 Clear 1 1001 80 10000 2.1 290 12:58 30.08.2019
2603 Clear 1 1001 80 10000 2.1 290 12:39 30.08.2019
2604 Clouds 3 1001 94 10000 2.1 290 12:21 30.08.2019
2605 Clouds 3 1001 94 10000 2.1 290 12:21 30.08.2019
2606 Clouds 3 1001 94 10000 2.1 290 11:41 30.08.2019
2607 Clouds 3 1001 94 10000 2.1 290 11:23 30.08.2019
2608 Clouds 3 1001 94 10000 2.6 230 10:42 30.08.2019
2609 Clouds 3 1001 94 10000 2.6 230 10:23 30.08.2019
2610 Clouds 2 1001 94 10000 2.6 250 09:58 30.08.2019
2611 Clouds 2 1001 94 10000 2.6 250 09:40 30.08.2019
2612 Clouds 3 1000 97 10000 5.1 230 09:19 30.08.2019
2613 Clouds 3 1000 97 10000 5.1 230 08:54 30.08.2019
2614 Clouds 3 1000 97 10000 5.1 230 08:54 30.08.2019
2615 Clouds 3 1000 97 10000 5.1 230 08:36 30.08.2019
2616 Clouds 3 1000 97 10000 5.1 230 08:36 30.08.2019
2617 Clouds 3 1000 97 10000 4.1 230 08:18 30.08.2019
2618 Clouds 3 1000 97 10000 4.1 230 07:39 30.08.2019
2619 Clouds 3 999 74 10000 4.1 250 07:21 30.08.2019
2620 Clouds 3 999 74 10000 4.1 250 06:45 30.08.2019
2621 Clouds 3 999 74 10000 4.1 250 06:27 30.08.2019
2622 Clouds 3 999 98 10000 5.1 250 05:44 30.08.2019
2623 Clouds 2 998 80 10000 6.7 230 03:59 30.08.2019
2624 Clouds 2 998 80 10000 6.7 230 03:38 30.08.2019
2625 Clouds 2 998 98 10000 8.2 230 02:56 30.08.2019
2626 Clouds 2 998 98 10000 8.2 230 02:26 30.08.2019
2627 Rain 2 997 98 10000 7.7 230 01:28 30.08.2019
2628 Rain 3 996 86 10000 5.7 230 00:38 30.08.2019
2629 Drizzle 4 994 86 10000 5.1 140 00:18 30.08.2019
2630 Drizzle 4 994 86 10000 5.1 140 23:40 29.08.2019
2631 Drizzle 3 994 86 10000 5.1 140 23:20 29.08.2019
2632 Drizzle 3 993 80 10000 7.7 230 22:44 29.08.2019
2633 Rain 3 991 98 10000 8.7 230 22:25 29.08.2019
2634 Rain 3 991 97 10000 8.7 230 21:56 29.08.2019
2635 Rain 3 991 97 10000 8.7 230 21:38 29.08.2019
2636 Drizzle 5 990 75 10000 10.3 230 21:20 29.08.2019
2637 Drizzle 5 990 75 10000 10.3 230 20:54 29.08.2019
2638 Drizzle 5 990 75 10000 10.3 230 20:36 29.08.2019
2639 Drizzle 4 990 75 10000 10.3 230 20:18 29.08.2019
2640 Rain 4 988 99 10000 11.8 230 19:44 29.08.2019
2641 Rain 4 988 99 10000 11.8 230 19:25 29.08.2019
2642 Rain 4 988 99 10000 11.3 230 18:45 29.08.2019
2643 Rain 4 988 98 10000 11.3 230 18:21 29.08.2019
2644 Rain 4 986 65 10000 9.3 230 17:58 29.08.2019
2645 Rain 4 986 65 10000 9.3 230 17:39 29.08.2019
2646 Rain 4 986 65 10000 9.3 230 17:20 29.08.2019
2647 Rain 4 986 65 10000 9.3 230 17:20 29.08.2019
2648 Drizzle 3 986 64 10000 8.7 230 16:59 29.08.2019
2649 Clouds 0 987 98 0 2.06 238.573 16:40 29.08.2019
2650 Rain 3 984 74 10000 8.2 230 16:22 29.08.2019
2651 Rain 3 984 74 10000 8.2 230 15:40 29.08.2019
2652 Clouds 3 983 74 10000 10.3 230 15:21 29.08.2019
2653 Clouds 3 983 74 10000 10.3 230 14:56 29.08.2019
2654 Clouds 3 983 74 10000 10.3 230 14:37 29.08.2019
2655 Clouds 2 982 98 10000 10.3 230 14:19 29.08.2019
2656 Clouds 2 982 98 10000 10.3 230 13:54 29.08.2019
2657 Clouds 2 982 98 10000 10.3 230 13:36 29.08.2019
2658 Clouds 2 980 98 10000 8.2 230 13:18 29.08.2019
2659 Clouds 2 980 98 10000 8.2 230 12:55 29.08.2019
2660 Clouds 2 980 98 10000 8.2 230 12:36 29.08.2019
2661 Clouds 2 979 80 10000 8.2 230 12:18 29.08.2019
2662 Clouds 2 979 80 10000 8.2 230 11:40 29.08.2019
2663 Clouds 2 978 98 10000 7.7 230 11:20 29.08.2019
2664 Clouds 2 978 98 10000 7.7 230 10:55 29.08.2019
2665 Clouds 2 978 98 10000 7.7 230 10:37 29.08.2019
2666 Clouds 2 977 98 10000 8.2 230 10:19 29.08.2019
2667 Clouds 2 977 94 10000 8.2 230 09:41 29.08.2019
2668 Clouds 2 977 93 10000 7.2 230 09:18 29.08.2019
2669 Clouds 2 977 93 10000 7.2 230 08:41 29.08.2019
2670 Clouds 2 977 93 10000 7.2 230 08:23 29.08.2019
2671 Clouds 2 975 80 10000 12.3 230 07:54 29.08.2019
2672 Clouds 2 975 80 10000 12.3 230 07:34 29.08.2019
2673 Clouds 2 975 93 10000 9.8 230 06:57 29.08.2019
2674 Clouds 2 975 93 10000 9.8 230 06:37 29.08.2019
2675 Rain 2 975 97 10000 8.2 230 05:52 29.08.2019
2676 Drizzle 2 974 93 10000 7.7 230 05:21 29.08.2019
2677 Drizzle 2 974 93 10000 7.7 230 04:47 29.08.2019
2678 Drizzle 2 974 93 10000 7.7 230 04:26 29.08.2019
2679 Rain 2 972 93 10000 9.3 230 01:54 29.08.2019
2680 Rain 2 972 93 10000 9.3 230 01:35 29.08.2019
2681 Rain 3 971 86 10000 7.7 230 00:47 29.08.2019
2682 Clouds 3 971 92 10000 8.2 230 00:23 29.08.2019
2683 Clouds 3 971 92 10000 8.2 230 23:59 28.08.2019
2684 Clouds 3 971 92 10000 8.2 230 23:39 28.08.2019
2685 Clouds 4 971 92 10000 8.2 230 23:21 28.08.2019
2686 Clouds 4 971 92 10000 8.2 230 22:56 28.08.2019
2687 Clouds 5 971 92 10000 7.7 230 22:38 28.08.2019
2688 Clouds 5 971 92 10000 8.7 230 22:18 28.08.2019
2689 Clouds 5 971 91 10000 8.7 230 21:41 28.08.2019
2690 Clouds 5 971 67 10000 8.7 230 21:23 28.08.2019
2691 Clouds 5 971 67 10000 7.7 200 20:56 28.08.2019
2692 Clouds 5 971 67 10000 7.7 200 20:38 28.08.2019
2693 Clouds 6 971 67 10000 7.7 200 20:20 28.08.2019
2694 Clouds 6 971 67 10000 7.7 200 19:42 28.08.2019
2695 Clouds 6 971 67 10000 7.7 200 19:22 28.08.2019
2696 Clouds 6 971 67 10000 6.2 200 18:58 28.08.2019
2697 Clouds 6 971 67 10000 6.2 200 18:37 28.08.2019
2698 Rain 6 971 52 10000 3.1 140 18:19 28.08.2019
2699 Rain 6 971 52 10000 3.1 140 17:39 28.08.2019
2700 Rain 3 971 60 10000 6.2 320 17:19 28.08.2019
2701 Rain 3 971 60 10000 6.2 320 16:55 28.08.2019
2702 Rain 3 971 60 10000 6.2 320 16:37 28.08.2019
2703 Clouds 2 971 69 10000 4.1 320 16:18 28.08.2019
2704 Clouds 2 971 69 10000 4.1 320 15:38 28.08.2019
2705 Clouds 1 971 74 10000 2.1 250 15:20 28.08.2019
2706 Clouds 1 971 74 10000 2.1 250 14:57 28.08.2019
2707 Clouds 1 971 74 10000 2.1 250 14:39 28.08.2019
2708 Clouds 1 972 69 10000 1 270 14:20 28.08.2019
2709 Clouds 1 972 69 10000 1 270 13:58 28.08.2019
2710 Clouds 1 972 69 10000 1 270 13:38 28.08.2019
2711 Clouds 0 972 80 10000 2.6 340 13:19 28.08.2019
2712 Clouds 0 972 80 10000 2.6 340 12:42 28.08.2019
2713 Clouds 0 972 80 10000 2.6 340 12:24 28.08.2019
2714 Clear 1 972 80 10000 2.6 320 11:57 28.08.2019
2715 Clear 1 972 80 10000 2.6 320 11:39 28.08.2019
2716 Clear 1 972 80 10000 2.6 320 11:20 28.08.2019
2717 Clear 1 972 80 10000 2.6 320 10:55 28.08.2019
2718 Clouds -3 974 91 0 1.75 316.321 10:37 28.08.2019
2719 Clouds 3 972 64 10000 5.1 250 10:18 28.08.2019
2720 Clouds 3 972 64 10000 5.1 250 09:41 28.08.2019
2721 Clouds 3 972 64 10000 10.3 230 09:20 28.08.2019
2722 Clouds 3 972 64 10000 10.3 230 08:40 28.08.2019
2723 Clouds 3 972 64 10000 10.3 230 08:21 28.08.2019
2724 Clouds 4 971 55 10000 10.8 200 07:59 28.08.2019
2725 Clouds 4 971 55 10000 10.8 200 07:37 28.08.2019
2726 Clouds 5 971 48 10000 5.1 290 07:18 28.08.2019
2727 Clouds 5 971 48 10000 5.1 290 06:44 28.08.2019
2728 Clouds 4 971 60 10000 3.28 336.084 05:52 28.08.2019
2729 Clouds 4 971 64 10000 9.3 340 04:28 28.08.2019
2730 Clouds 4 975 64 10000 7.2 320 01:56 28.08.2019
2731 Clouds 4 975 64 10000 7.2 320 01:30 28.08.2019
2732 Drizzle 5 975 56 10000 7.2 320 00:43 28.08.2019
2733 Rain 6 976 48 10000 11.3 340 00:21 28.08.2019
2734 Rain 6 976 48 10000 11.3 340 23:40 27.08.2019
2735 Rain 6 976 48 10000 11.3 340 23:22 27.08.2019
2736 Rain 6 976 48 10000 11.3 340 23:22 27.08.2019
2737 Clouds 6 976 42 10000 14.9 340 22:57 27.08.2019
2738 Clouds 6 976 42 10000 14.9 340 22:38 27.08.2019
2739 Rain 7 978 39 10000 13.4 340 22:20 27.08.2019
2740 Rain 7 978 39 10000 13.4 340 21:56 27.08.2019
2741 Rain 7 978 39 10000 13.4 340 21:37 27.08.2019
2742 Clouds 8 978 39 10000 17 340 21:18 27.08.2019
2743 Clouds 8 978 39 10000 17 340 20:42 27.08.2019
2744 Rain 8 980 39 10000 13.9 340 20:22 27.08.2019
2745 Rain 8 980 39 10000 13.9 340 19:59 27.08.2019
2746 Rain 8 980 39 10000 13.9 340 19:40 27.08.2019
2747 Rain 8 980 39 10000 13.9 340 19:22 27.08.2019
2748 Clouds 8 983 45 10000 11.8 340 18:55 27.08.2019
2749 Clouds 8 983 45 10000 11.8 340 18:36 27.08.2019
2750 Clouds 7 986 42 10000 2.6 240 18:18 27.08.2019
2751 Clouds 6 985 45 10000 6.2 340 17:42 27.08.2019
2752 Clouds 6 985 45 10000 6.2 340 17:22 27.08.2019
2753 Clouds 6 985 45 10000 6.2 340 17:22 27.08.2019
2754 Clouds 5 987 60 10000 5.1 360 16:48 27.08.2019
2755 Clouds 4 987 60 10000 5.1 360 16:28 27.08.2019
2756 Clouds 4 988 64 10000 6.7 360 15:58 27.08.2019
2757 Clouds 4 988 64 10000 6.7 360 15:40 27.08.2019
2758 Clouds 4 988 64 10000 6.7 360 15:21 27.08.2019
2759 Clouds 4 988 65 10000 6.7 50 14:58 27.08.2019
2760 Clouds 4 988 65 10000 6.7 50 14:40 27.08.2019
2761 Clouds 4 988 60 10000 9.8 20 14:20 27.08.2019
2762 Clouds 4 988 60 10000 9.8 20 13:42 27.08.2019
2763 Clouds 4 988 60 10000 9.8 20 13:23 27.08.2019
2764 Clouds 4 988 60 10000 9.8 20 13:23 27.08.2019
2765 Clouds 4 989 60 10000 8.2 360 12:55 27.08.2019
2766 Clouds 4 989 60 10000 8.2 360 12:37 27.08.2019
2767 Clouds 4 990 55 10000 8.2 20 12:18 27.08.2019
2768 Clouds 4 990 55 10000 8.2 20 11:43 27.08.2019
2769 Clouds 4 990 55 10000 8.2 20 11:24 27.08.2019
2770 Clouds 5 990 44 10000 8.7 20 10:42 27.08.2019
2771 Clouds 4 990 48 10000 8.2 360 10:21 27.08.2019
2772 Clouds 4 990 48 10000 8.2 360 09:58 27.08.2019
2773 Clouds 4 990 48 10000 8.2 360 09:38 27.08.2019
2774 Clouds 4 990 44 10000 7.7 320 09:20 27.08.2019
2775 Clouds 4 990 44 10000 7.7 320 08:48 27.08.2019
2776 Clouds 4 990 44 10000 7.7 320 08:27 27.08.2019
2777 Clouds 4 990 44 10000 7.7 320 08:27 27.08.2019
2778 Clouds 3 990 44 10000 7.2 320 07:59 27.08.2019
2779 Clouds 3 990 44 10000 7.2 320 07:38 27.08.2019
2780 Clouds 3 991 44 10000 7.7 320 07:19 27.08.2019
2781 Clouds 3 991 44 10000 7.7 320 06:50 27.08.2019
2782 Clouds 4 991 51 10000 4.6 320 06:22 27.08.2019
2783 Clouds 4 991 51 10000 4.6 320 05:30 27.08.2019
2784 Clouds 4 990 60 10000 5.1 270 04:33 27.08.2019
2785 Clouds 4 989 60 10000 5.7 360 03:33 27.08.2019
2786 Clouds 4 987 69 10000 3.1 320 02:23 27.08.2019
2787 Clouds 4 987 69 10000 3.1 320 01:35 27.08.2019
2788 Rain 5 986 75 10000 3.1 360 00:54 27.08.2019
2789 Rain 5 986 75 10000 3.1 360 00:29 27.08.2019
2790 Clouds 5 984 80 10000 5.1 320 23:59 26.08.2019
2791 Clouds 5 984 80 10000 5.1 320 23:37 26.08.2019
2792 Clouds 6 984 80 10000 5.1 320 23:19 26.08.2019
2793 Clouds 6 983 75 10000 3.1 50 22:39 26.08.2019
2794 Clouds 6 983 75 10000 3.1 50 22:19 26.08.2019
2795 Clouds 5 982 81 10000 2.6 90 21:57 26.08.2019
2796 Clouds 5 982 81 10000 2.6 90 21:37 26.08.2019
2797 Clouds 5 982 81 10000 2.6 90 21:18 26.08.2019
2798 Rain 5 982 86 10000 2.6 180 20:54 26.08.2019
2799 Rain 5 982 86 10000 2.6 180 20:36 26.08.2019
2800 Rain 5 982 86 10000 2.6 180 20:36 26.08.2019
2801 Rain 5 982 86 10000 2.6 180 20:18 26.08.2019
2802 Rain 5 981 93 10000 2.6 160 19:42 26.08.2019
2803 Rain 5 981 93 10000 2.6 160 19:19 26.08.2019
2804 Drizzle 5 982 93 10000 4.1 250 18:58 26.08.2019
2805 Drizzle 5 982 93 10000 4.1 250 18:37 26.08.2019
2806 Drizzle 5 982 93 10000 4.1 250 18:37 26.08.2019
2807 Drizzle 5 982 93 10000 4.1 250 18:19 26.08.2019
2808 Drizzle 5 981 86 10000 7.7 20 17:44 26.08.2019
2809 Drizzle 5 981 86 10000 7.7 20 17:20 26.08.2019
2810 Drizzle 5 982 75 10000 6.2 20 16:57 26.08.2019
2811 Drizzle 5 982 75 10000 6.2 20 16:39 26.08.2019
2812 Drizzle 5 982 75 10000 6.2 20 16:18 26.08.2019
2813 Drizzle 5 982 75 10000 6.2 20 16:18 26.08.2019
2814 Drizzle 5 982 75 10000 6.2 20 16:18 26.08.2019
2815 Rain 6 982 75 6000 10.3 340 15:54 26.08.2019
2816 Rain 6 982 75 6000 10.3 340 15:36 26.08.2019
2817 Rain 6 982 75 6000 10.3 340 15:18 26.08.2019
2818 Drizzle 7 982 70 10000 6.2 50 14:42 26.08.2019
2819 Drizzle 7 982 70 10000 6.2 50 14:22 26.08.2019
2820 Drizzle 8 985 39 10000 9.3 360 13:44 26.08.2019
2821 Drizzle 8 985 39 10000 9.3 360 13:23 26.08.2019
2822 Clouds 8 987 39 10000 11.3 340 12:57 26.08.2019
2823 Clouds 8 987 39 10000 11.3 340 12:39 26.08.2019
2824 Clouds 8 987 39 10000 11.3 340 12:20 26.08.2019
2825 Clouds 8 989 42 10000 11.3 360 11:39 26.08.2019
2826 Clouds 8 989 42 10000 11.3 360 11:21 26.08.2019
2827 Clouds 8 991 42 10000 7.2 360 10:58 26.08.2019
2828 Clouds 8 991 42 10000 7.2 360 10:39 26.08.2019
2829 Clouds 8 991 42 10000 7.2 360 10:19 26.08.2019
2830 Clouds 7 993 42 10000 6.2 20 09:42 26.08.2019
2831 Clouds 7 993 42 10000 6.2 20 09:24 26.08.2019
2832 Clouds 7 996 42 10000 2.6 50 08:58 26.08.2019
2833 Clouds 7 996 42 10000 2.6 50 08:39 26.08.2019
2834 Clouds 7 996 42 10000 2.6 50 08:21 26.08.2019
2835 Clouds 7 999 48 10000 6.7 360 07:45 26.08.2019
2836 Clouds 7 999 48 10000 6.7 360 07:25 26.08.2019
2837 Clouds 8 1000 45 10000 4.6 360 06:58 26.08.2019
2838 Clouds 8 1000 45 10000 4.6 360 06:39 26.08.2019
2839 Clouds 8 1000 45 10000 4.6 360 06:18 26.08.2019
2840 Clouds 6 1002 60 10000 7.2 360 05:33 26.08.2019
2841 Clouds 6 1002 60 10000 8.2 360 04:22 26.08.2019
2842 Clouds 6 1004 60 10000 5.7 360 02:40 26.08.2019
2843 Clouds 6 1004 60 10000 5.7 360 02:40 26.08.2019
2844 Clouds 4 1004 93 10000 3.1 320 01:23 26.08.2019
2845 Clear 5 1004 93 10000 2.38 347.479 00:45 26.08.2019
2846 Clear 5 1004 93 10000 2.38 347.479 00:26 26.08.2019
2847 Clear 6 1005 94 10000 2.6 90 23:45 25.08.2019
2848 Clear 6 1005 94 10000 2.6 90 23:21 25.08.2019
2849 Clear 7 1005 65 10000 1.5 230 22:59 25.08.2019
2850 Clear 7 1005 65 10000 1.5 230 22:40 25.08.2019
2851 Clear 7 1005 65 10000 1.5 230 22:20 25.08.2019
2852 Clear 8 1004 52 10000 2.1 360 21:58 25.08.2019
2853 Clear 8 1004 52 10000 2.1 360 21:58 25.08.2019
2854 Clear 8 1004 52 10000 2.1 360 21:39 25.08.2019
2855 Clear 8 1004 52 10000 2.1 360 21:19 25.08.2019
2856 Clear 8 1004 49 10000 2.1 50 20:56 25.08.2019
2857 Clear 8 1004 49 10000 2.1 50 20:38 25.08.2019
2858 Clear 8 1004 49 10000 2.1 50 20:19 25.08.2019
2859 Clear 7 1005 52 10000 2.33 358.917 19:41 25.08.2019
2860 Clear 7 1005 52 10000 2.33 358.917 19:23 25.08.2019
2861 Clear 7 1005 52 10000 2.1 50 18:59 25.08.2019
2862 Clear 7 1005 52 10000 2.1 50 18:40 25.08.2019
2863 Clear 7 1005 52 10000 2.1 50 18:22 25.08.2019
2864 Clear 6 1005 56 10000 1.13 310.529 17:59 25.08.2019
2865 Clear 6 1005 56 10000 1.13 310.529 17:40 25.08.2019
2866 Clear 6 1005 56 10000 1.13 310.529 17:20 25.08.2019
2867 Clouds 5 1005 65 10000 2.1 360 16:41 25.08.2019
2868 Clouds 5 1005 65 10000 2.1 360 16:23 25.08.2019
2869 Clouds 5 1004 95 10000 1.13 310.529 15:56 25.08.2019
2870 Clouds 5 1004 95 10000 1.13 310.529 15:37 25.08.2019
2871 Clouds 5 1004 97 10000 1.14 290.639 15:19 25.08.2019
2872 Clouds 4 1004 69 10000 1.14 290.639 14:39 25.08.2019
2873 Clouds 4 1004 69 10000 1.14 290.639 14:21 25.08.2019
2874 Clouds 4 1003 64 10000 1.14 290.639 13:45 25.08.2019
2875 Clouds 4 1003 64 10000 1.55 306.204 13:22 25.08.2019
2876 Clouds 4 1002 69 10000 1.55 306.204 12:56 25.08.2019
2877 Clouds 4 1002 69 10000 1.55 306.204 12:38 25.08.2019
2878 Clouds 4 1002 69 10000 1.65 284.701 12:20 25.08.2019
2879 Clouds 5 1001 75 10000 1.5 90 11:56 25.08.2019
2880 Clouds 5 1001 75 10000 1.5 90 11:36 25.08.2019
2881 Clouds 5 1001 75 10000 1.5 90 11:18 25.08.2019
2882 Clear 5 1000 94 10000 1.5 320 10:41 25.08.2019
2883 Clear 5 1000 94 10000 1.5 320 10:21 25.08.2019
2884 Clear 4 1000 86 10000 1.5 90 09:59 25.08.2019
2885 Clear 4 1000 86 10000 1.5 90 09:41 25.08.2019
2886 Clear 4 1000 86 10000 1.5 90 09:22 25.08.2019
2887 Clear 4 999 86 10000 4.1 90 08:44 25.08.2019
2888 Clear 4 999 86 10000 4.1 90 08:22 25.08.2019
2889 Clear 4 999 86 10000 2.1 20 07:45 25.08.2019
2890 Clear 4 999 86 10000 2.1 20 07:23 25.08.2019
2891 Clouds 5 998 80 10000 2.1 90 06:31 25.08.2019
2892 Clouds 5 998 75 10000 2.2 336.384 04:58 25.08.2019
2893 Clouds 6 997 70 10000 1.5 50 03:43 25.08.2019
2894 Clouds 6 997 70 10000 2.6 340 02:41 25.08.2019
2895 Clouds 6 996 70 10000 3.1 340 01:42 25.08.2019
2896 Clouds 7 996 65 10000 6.2 360 00:41 25.08.2019
2897 Clouds 7 996 65 10000 6.2 360 00:21 25.08.2019
2898 Clouds 8 995 61 10000 2.6 320 23:53 24.08.2019
2899 Clouds 8 995 61 10000 2.6 320 23:24 24.08.2019
2900 Clouds 8 995 61 10000 2.6 320 22:57 24.08.2019
2901 Clouds 8 994 61 10000 6.7 360 22:39 24.08.2019
2902 Clouds 8 994 61 10000 6.7 360 22:19 24.08.2019
2903 Clouds 9 994 66 10000 5.7 360 21:56 24.08.2019
2904 Clouds 9 994 66 10000 5.7 360 21:38 24.08.2019
2905 Clouds 9 994 66 10000 5.7 360 21:20 24.08.2019
2906 Clouds 9 994 66 10000 6.7 360 20:56 24.08.2019
2907 Clouds 9 994 66 10000 6.7 360 20:56 24.08.2019
2908 Clouds 9 994 66 10000 6.7 360 20:37 24.08.2019
2909 Clouds 9 994 66 10000 6.7 360 20:18 24.08.2019
2910 Clouds 9 994 66 10000 9.8 360 19:57 24.08.2019
2911 Clouds 9 994 66 10000 9.8 360 19:57 24.08.2019
2912 Clouds 9 994 66 10000 9.8 360 19:37 24.08.2019
2913 Clouds 9 994 66 10000 9.8 360 19:18 24.08.2019
2914 Clouds 9 994 66 10000 9.8 360 19:18 24.08.2019
2915 Clouds 9 994 65 10000 2.6 340 18:42 24.08.2019
2916 Clouds 9 994 65 10000 2.6 340 18:23 24.08.2019
2917 Clouds 8 995 65 10000 1.5 70 17:45 24.08.2019
2918 Clouds 8 995 65 10000 1.5 70 17:25 24.08.2019
2919 Clouds 7 994 70 10000 3.1 230 16:55 24.08.2019
2920 Clouds 7 994 70 10000 3.1 230 16:36 24.08.2019
2921 Clouds 7 994 70 10000 3.1 230 16:18 24.08.2019
2922 Clouds 7 996 70 10000 3.1 110 15:41 24.08.2019
2923 Clouds 7 996 70 10000 3.1 110 15:23 24.08.2019
2924 Clouds 4 996 69 10000 3.1 230 14:45 24.08.2019
2925 Clouds 4 996 69 10000 3.1 230 14:23 24.08.2019
2926 Clouds 4 996 95 10000 2.6 250 13:59 24.08.2019
2927 Clouds 4 996 95 10000 2.6 250 13:41 24.08.2019
2928 Clouds 4 996 96 10000 2.6 250 13:22 24.08.2019
2929 Clouds 5 997 96 10000 2.1 250 12:58 24.08.2019
2930 Clouds 5 997 96 10000 2.1 250 12:39 24.08.2019
2931 Clouds 5 997 95 10000 2.1 250 12:20 24.08.2019
2932 Clouds 4 998 80 10000 2.1 320 11:45 24.08.2019
2933 Clouds 4 998 80 10000 2.1 320 11:23 24.08.2019
2934 Clouds 4 998 80 10000 2.6 250 10:53 24.08.2019
2935 Clouds 4 998 80 10000 2.6 250 10:24 24.08.2019
2936 Clouds 5 999 80 10000 3.6 140 09:55 24.08.2019
2937 Clouds 5 999 80 10000 3.6 140 09:36 24.08.2019
2938 Clouds 5 999 80 10000 3.6 140 09:18 24.08.2019
2939 Clouds 4 1000 80 10000 3.1 180 08:41 24.08.2019
2940 Clouds 4 1000 80 10000 3.1 180 08:22 24.08.2019
2941 Clouds 5 1001 75 10000 2.6 230 07:50 24.08.2019
2942 Clouds 5 1001 75 10000 2.6 230 07:27 24.08.2019
2943 Clouds 5 1002 75 10000 5.7 340 06:30 24.08.2019
2944 Rain 4 1003 86 10000 2.6 340 05:43 24.08.2019
2945 Rain 4 1003 86 10000 2.6 340 05:23 24.08.2019
2946 Drizzle 4 1004 86 10000 2.1 340 03:38 24.08.2019
2947 Drizzle 4 1005 80 10000 3.1 320 02:33 24.08.2019
2948 Clouds 4 1006 80 10000 2.1 320 01:47 24.08.2019
2949 Clouds 4 1006 80 10000 2.1 320 01:22 24.08.2019
2950 Clouds 5 1006 98 10000 4.1 290 00:43 24.08.2019
2951 Clouds 5 1006 96 10000 4.1 290 00:18 24.08.2019
2952 Clouds 6 1007 96 10000 4.1 360 23:43 23.08.2019
2953 Clouds 6 1007 96 10000 4.1 360 23:19 23.08.2019
2954 Clouds 6 1008 70 10000 1 360 22:43 23.08.2019
2955 Clouds 6 1008 70 10000 1 360 22:24 23.08.2019
2956 Clouds 6 1009 70 10000 5.1 360 21:54 23.08.2019
2957 Clouds 6 1009 70 10000 5.1 360 21:36 23.08.2019
2958 Clouds 6 1009 70 10000 5.1 360 21:18 23.08.2019
2959 Clouds 6 1010 75 10000 3.1 360 20:45 23.08.2019
2960 Clouds 6 1010 75 10000 3.1 360 20:27 23.08.2019
2961 Clouds 6 1011 75 10000 2.1 270 19:45 23.08.2019
2962 Clouds 6 1011 75 10000 2.1 270 19:19 23.08.2019
2963 Clouds 6 1012 75 10000 1.5 230 18:54 23.08.2019
2964 Clouds 6 1012 75 10000 1.5 230 18:36 23.08.2019
2965 Clouds 6 1012 75 10000 1.5 230 18:18 23.08.2019
2966 Clouds 6 1012 75 10000 4.33 354.183 17:41 23.08.2019
2967 Clouds 6 1012 75 10000 4.33 354.183 17:21 23.08.2019
2968 Clouds 5 1012 65 10000 3.1 320 16:49 23.08.2019
2969 Clouds 5 1012 65 10000 3.1 320 16:30 23.08.2019
2970 Clouds 5 1012 65 10000 3.1 320 16:30 23.08.2019
2971 Clouds 5 1013 75 10000 3.1 90 15:59 23.08.2019
2972 Clouds 5 1013 75 10000 3.1 90 15:39 23.08.2019
2973 Clouds 4 1013 75 10000 3.1 90 15:21 23.08.2019
2974 Clouds 4 1014 90 10000 3.52 3.831 14:44 23.08.2019
2975 Clouds 4 1014 90 10000 3.52 3.831 14:21 23.08.2019
2976 Clouds 4 1014 90 10000 3.52 3.831 13:59 23.08.2019
2977 Clouds 4 1014 90 10000 3.52 3.831 13:41 23.08.2019
2978 Clouds 4 1014 90 10000 3.34 6.547 13:23 23.08.2019
2979 Clouds 3 1015 90 10000 3.34 6.547 12:58 23.08.2019
2980 Clouds 3 1015 90 10000 3.34 6.547 12:40 23.08.2019
2981 Clouds 3 1015 86 10000 2.94 4.266 12:21 23.08.2019
2982 Clouds 3 1016 86 10000 2.1 230 11:57 23.08.2019
2983 Clouds 3 1016 86 10000 2.1 230 11:39 23.08.2019
2984 Clouds 3 1016 86 10000 2.1 230 11:19 23.08.2019
2985 Clouds 2 1016 93 10000 2.1 230 10:55 23.08.2019
2986 Clouds 2 1016 93 10000 2.1 230 10:37 23.08.2019
2987 Clouds 2 1016 93 10000 2.1 230 10:18 23.08.2019
2988 Clouds 2 1017 93 10000 2.1 320 09:43 23.08.2019
2989 Clouds 2 1017 93 10000 2.1 320 09:20 23.08.2019
2990 Clear 2 1018 93 10000 3.6 20 08:45 23.08.2019
2991 Clear 2 1018 93 10000 3.6 20 08:21 23.08.2019
2992 Clear 2 1019 93 10000 2.19 6.502 07:57 23.08.2019
2993 Clear 2 1019 93 10000 2.19 6.502 07:38 23.08.2019
2994 Clear 2 1019 93 10000 2.19 6.502 07:20 23.08.2019
2995 Clear 3 1019 86 10000 2.1 320 06:41 23.08.2019
2996 Clear 3 1019 86 10000 2.1 320 06:22 23.08.2019
2997 Clear 3 1020 86 10000 1.69 7.914 05:44 23.08.2019
2998 Clear 3 1020 86 10000 1.69 7.914 05:25 23.08.2019
2999 Clouds 4 1020 80 10000 1.69 7.914 03:46 23.08.2019
3000 Clouds 4 1020 80 10000 0.71 313.798 02:38 23.08.2019
3001 Clouds 4 1020 80 10000 0.71 313.798 02:20 23.08.2019
3002 Clouds 5 1019 75 10000 1.5 90 00:58 23.08.2019
3003 Clouds 5 1019 75 10000 1.5 90 00:39 23.08.2019
3004 Clouds 5 1019 75 10000 1.5 90 00:18 23.08.2019
3005 Clouds 4 1019 80 10000 2.6 320 23:41 22.08.2019
3006 Clouds 5 1019 80 10000 2.6 320 23:21 22.08.2019
3007 Clouds 5 1019 75 10000 3.6 230 22:42 22.08.2019
3008 Clouds 5 1019 75 10000 3.6 230 22:24 22.08.2019
3009 Clouds 5 1019 75 10000 3.6 230 22:24 22.08.2019
3010 Clouds 5 1019 75 10000 3.6 50 21:59 22.08.2019
3011 Clouds 5 1019 75 10000 3.6 50 21:40 22.08.2019
3012 Clouds 5 1019 75 10000 3.6 50 21:22 22.08.2019
3013 Clouds 5 1018 84 10000 2.6 50 20:58 22.08.2019
3014 Clouds 5 1018 84 10000 2.6 50 20:40 22.08.2019
3015 Clouds 5 1018 84 10000 2.6 50 20:40 22.08.2019
3016 Clouds 5 1018 84 10000 2.6 50 20:20 22.08.2019
3017 Clouds 5 1018 84 10000 1.29 307.972 19:57 22.08.2019
3018 Clouds 5 1018 84 10000 1.29 307.972 19:39 22.08.2019
3019 Clouds 5 1018 84 10000 1.29 307.972 19:20 22.08.2019
3020 Clear 5 1017 84 10000 1.29 307.972 18:58 22.08.2019
3021 Clear 5 1017 84 10000 1.29 307.972 18:39 22.08.2019
3022 Clear 5 1017 80 10000 1.29 311.278 18:19 22.08.2019
3023 Clear 4 1017 80 10000 1.29 311.278 17:56 22.08.2019
3024 Clear 4 1017 80 10000 1.29 311.278 17:56 22.08.2019
3025 Clear 4 1017 80 10000 1.29 311.278 17:38 22.08.2019
3026 Clear 4 1017 80 10000 1.29 311.278 17:19 22.08.2019
3027 Clear 4 1017 80 10000 1.29 311.278 16:56 22.08.2019
3028 Clear 4 1017 80 10000 1.29 311.278 16:56 22.08.2019
3029 Clear 4 1017 80 10000 1.29 311.278 16:37 22.08.2019
3030 Clear 4 1017 80 10000 1.29 311.278 16:18 22.08.2019
3031 Clear 4 1017 80 10000 1.29 311.278 16:18 22.08.2019
3032 Clear 4 1017 80 10000 1.29 311.278 16:18 22.08.2019
3033 Clear 4 1017 80 10000 1.29 311.278 16:18 22.08.2019
3034 Clear 4 1017 80 10000 1.29 311.278 16:18 22.08.2019
3035 Clouds 2 1016 80 10000 1.29 311.278 15:41 22.08.2019
3036 Clouds 2 1016 80 10000 1.29 311.278 15:41 22.08.2019
3037 Clouds 2 1016 91 10000 1.59 319.387 15:23 22.08.2019
3038 Clouds 3 1015 69 10000 1.5 270 14:58 22.08.2019
3039 Clouds 3 1015 69 10000 1.5 270 14:40 22.08.2019
3040 Clouds 3 1015 69 10000 1.5 270 14:20 22.08.2019
3041 Clouds 3 1015 69 10000 1.5 270 14:20 22.08.2019
3042 Clouds 3 1015 91 10000 2.1 290 13:56 22.08.2019
3043 Clouds 3 1015 91 10000 2.1 290 13:38 22.08.2019
3044 Clouds 3 1015 90 10000 2.1 290 13:18 22.08.2019
3045 Clouds 4 1014 86 10000 3.1 70 12:40 22.08.2019
3046 Clouds 4 1014 86 10000 3.1 70 12:22 22.08.2019
3047 Clouds 4 1014 93 10000 1.5 360 11:58 22.08.2019
3048 Clouds 4 1014 93 10000 1.5 360 11:40 22.08.2019
3049 Clouds 4 1014 93 10000 1.5 360 11:20 22.08.2019
3050 Clouds 4 1014 93 10000 1.5 360 11:20 22.08.2019
3051 Clouds 4 1014 93 10000 1.5 360 11:20 22.08.2019
3052 Clouds 4 1013 69 10000 1.5 270 10:57 22.08.2019
3053 Clouds 4 1013 69 10000 1.5 270 10:38 22.08.2019
3054 Clouds 4 1013 69 10000 1.5 270 10:19 22.08.2019
3055 Clouds 4 1013 80 10000 1.5 140 09:56 22.08.2019
3056 Clouds 4 1013 80 10000 1.5 140 09:37 22.08.2019
3057 Clouds 4 1013 80 10000 1.5 140 09:19 22.08.2019
3058 Clouds 4 1013 69 10000 2.29 336.565 08:41 22.08.2019
3059 Clouds 4 1013 69 10000 2.29 336.565 08:22 22.08.2019
3060 Clouds 4 1013 69 10000 2.29 336.565 07:58 22.08.2019
3061 Clouds 4 1013 69 10000 2.29 336.565 07:38 22.08.2019
3062 Clouds 4 1013 69 10000 2.29 336.565 07:19 22.08.2019
3063 Clouds 4 1013 69 10000 2.29 336.565 06:46 22.08.2019
3064 Clouds 4 1013 69 10000 3.11 347.483 06:21 22.08.2019
3065 Clouds 4 1013 64 10000 1.5 320 05:29 22.08.2019
3066 Clouds 4 1013 60 10000 3.6 340 03:44 22.08.2019
3067 Clouds -2 1014 89 0 3.94 354.308 02:36 22.08.2019
3068 Clouds 5 1014 52 10000 5.1 360 01:36 22.08.2019
3069 Clouds 5 1014 56 10000 3.6 340 00:57 22.08.2019
3070 Clouds 5 1014 56 10000 3.6 340 00:39 22.08.2019
3071 Clouds 5 1014 56 10000 3.6 340 00:20 22.08.2019
3072 Clouds 5 1015 56 10000 4.6 360 23:42 21.08.2019
3073 Clouds 6 1015 56 10000 4.6 360 23:24 21.08.2019
3074 Clouds 6 1015 52 10000 5.1 360 22:58 21.08.2019
3075 Clouds 6 1015 52 10000 5.1 360 22:39 21.08.2019
3076 Clouds 6 1015 52 10000 5.1 360 22:20 21.08.2019
3077 Clouds 6 1015 52 10000 6.2 340 21:56 21.08.2019
3078 Clouds 6 1015 52 10000 6.2 340 21:38 21.08.2019
3079 Clouds 6 1015 52 10000 6.2 340 21:19 21.08.2019
3080 Clouds 6 1015 52 10000 7.2 340 20:56 21.08.2019
3081 Clouds 6 1015 52 10000 7.2 340 20:38 21.08.2019
3082 Clouds 6 1015 52 10000 7.2 340 20:20 21.08.2019
3083 Clouds 6 1016 52 10000 2.6 340 19:43 21.08.2019
3084 Clouds 6 1016 52 10000 2.6 340 19:24 21.08.2019
3085 Clouds 5 1016 52 10000 2.1 360 18:58 21.08.2019
3086 Clouds 5 1016 52 10000 2.1 360 18:39 21.08.2019
3087 Clouds 5 1016 52 10000 2.1 360 18:20 21.08.2019
3088 Clear 5 1016 60 10000 3.97 353.325 17:45 21.08.2019
3089 Clear 5 1016 60 10000 3.97 353.325 17:23 21.08.2019
3090 Clear 5 1017 55 10000 3.97 353.325 16:58 21.08.2019
3091 Clear 5 1017 55 10000 3.97 353.325 16:39 21.08.2019
3092 Clear 5 1017 55 10000 3.97 353.325 16:20 21.08.2019
3093 Clear 3 1017 51 10000 4.6 320 15:58 21.08.2019
3094 Clear 3 1017 51 10000 4.6 320 15:38 21.08.2019
3095 Clear 3 1017 51 10000 4.6 320 15:20 21.08.2019
3096 Clear 2 1017 51 10000 2.6 320 14:56 21.08.2019
3097 Clear 2 1017 51 10000 2.6 320 14:38 21.08.2019
3098 Clear 2 1017 51 10000 2.6 320 14:19 21.08.2019
3099 Clear 3 1018 74 10000 3.5 345.325 13:43 21.08.2019
3100 Clear 3 1018 74 10000 3.43 346.863 13:21 21.08.2019
3101 Clear 3 1018 74 10000 3.43 346.863 12:58 21.08.2019
3102 Clear 3 1018 74 10000 3.43 346.863 12:40 21.08.2019
3103 Clear -3 1019 71 0 3.09 347.075 12:20 21.08.2019
3104 Clear -3 1019 71 0 3.09 347.075 12:20 21.08.2019
3105 Clear 4 1018 51 10000 2.1 270 11:56 21.08.2019
3106 Clear 4 1018 51 10000 2.1 270 11:38 21.08.2019
3107 Clear 4 1018 51 10000 2.1 270 11:19 21.08.2019
3108 Clear 4 1019 51 10000 2.1 270 10:56 21.08.2019
3109 Clear 4 1019 51 10000 2.1 270 10:37 21.08.2019
3110 Clear 4 1019 51 10000 2.1 270 10:19 21.08.2019
3111 Clear 5 1020 48 10000 1.5 270 09:42 21.08.2019
3112 Clear 5 1020 48 10000 1.5 270 09:23 21.08.2019
3113 Clear 5 1020 48 10000 2.1 20 08:58 21.08.2019
3114 Clear 5 1020 48 10000 2.1 20 08:39 21.08.2019
3115 Clear 5 1020 48 10000 2.1 20 08:20 21.08.2019
3116 Clear 4 1021 51 10000 3.6 320 07:40 21.08.2019
3117 Clear 4 1021 51 10000 3.6 320 07:20 21.08.2019
3118 Clear 4 1021 51 10000 3.06 345.236 06:48 21.08.2019
3119 Clear 4 1021 51 10000 2.54 335.302 06:21 21.08.2019
3120 Clear 5 1022 65 10000 1 360 05:41 21.08.2019
3121 Clear 5 1022 65 10000 1 360 05:19 21.08.2019
3122 Clear 4 1023 69 10000 2.54 335.302 03:28 21.08.2019
3123 Clear 4 1024 69 10000 2.4 327.417 01:47 21.08.2019
3124 Clear 5 1024 70 10000 2.38 330.781 00:45 21.08.2019
3125 Clear 6 1024 78 10000 2.27 331.046 00:24 21.08.2019
3126 Clear 6 1024 60 10000 3.1 50 23:57 20.08.2019
3127 Clear 6 1024 60 10000 3.1 50 23:38 20.08.2019
3128 Clear 6 1024 60 10000 3.1 50 23:18 20.08.2019
3129 Clear 7 1025 56 10000 2.27 331.046 22:56 20.08.2019
3130 Clear 7 1025 56 10000 2.27 331.046 22:37 20.08.2019
3131 Clear 7 1025 56 10000 2.27 331.046 22:18 20.08.2019
3132 Clear 7 1025 56 10000 2.27 331.046 21:57 20.08.2019
3133 Clear 7 1025 56 10000 2.33 329.213 21:37 20.08.2019
3134 Clear 7 1025 56 10000 2.28 342.59 21:19 20.08.2019
3135 Clear 6 1026 56 10000 2.28 342.59 20:42 20.08.2019
3136 Clear 6 1026 56 10000 2.28 342.59 20:24 20.08.2019
3137 -273 0 0 0 0 0 19:56 20.08.2019
3138 Clear 5 1026 64 10000 2.28 342.59 19:38 20.08.2019
3139 Clear 5 1026 64 10000 2.28 342.59 19:20 20.08.2019
3140 Clear 4 1027 64 10000 2.28 342.59 18:55 20.08.2019
3141 Clear 4 1027 64 10000 2.28 342.59 18:55 20.08.2019
3142 Clear 4 1024 69 0 2.28 342.59 18:36 20.08.2019
3143 Clear 3 1027 69 10000 1.92 345.862 18:18 20.08.2019
3144 Clear 3 1027 69 10000 1.92 345.862 17:39 20.08.2019
3145 Clear 2 1027 74 10000 1.92 345.862 17:20 20.08.2019
3146 Clear 2 1027 74 10000 1.92 345.862 16:48 20.08.2019
3147 Clear 2 1027 74 10000 1.92 345.862 16:28 20.08.2019
3148 Clear 0 1028 59 10000 1.92 345.862 15:59 20.08.2019
3149 Clear 0 1028 59 10000 1.92 345.862 15:41 20.08.2019
3150 Clear -1 1028 69 10000 1.78 324.241 15:18 20.08.2019
3151 Clear -1 1028 69 10000 1.78 324.241 14:56 20.08.2019
3152 Clear -1 1028 69 10000 1.78 324.241 14:38 20.08.2019
3153 Clear -2 1028 69 10000 1.5 270 14:18 20.08.2019
3154 Clear -2 1028 69 10000 1.5 270 13:55 20.08.2019
3155 Clear -2 1028 69 10000 1.5 270 13:36 20.08.2019
3156 Clear -2 1029 86 10000 1.68 329.429 13:18 20.08.2019
3157 Clear -2 1029 86 10000 1.68 329.429 12:45 20.08.2019
3158 Clear -2 1029 86 10000 1.78 326.818 12:24 20.08.2019
3159 Clear -2 1028 75 10000 2.1 320 11:55 20.08.2019
3160 Clear -2 1028 75 10000 2.1 320 11:37 20.08.2019
3161 Clear -2 1029 75 10000 1.78 326.818 11:18 20.08.2019
3162 Clear -2 1029 75 10000 1.78 326.818 10:55 20.08.2019
3163 Clear -2 1029 75 10000 1.78 326.818 10:37 20.08.2019
3164 Clear 0 1029 75 10000 1.78 326.818 10:18 20.08.2019
3165 Clear 0 1029 75 10000 1.78 326.818 09:41 20.08.2019
3166 Clear 0 1029 84 10000 1.64 336.742 09:22 20.08.2019
3167 Clear 0 1029 84 10000 1.64 336.742 08:43 20.08.2019
3168 Clear 0 1029 84 10000 1.64 336.742 08:24 20.08.2019
3169 Clear 1 1029 80 10000 1.64 336.742 07:58 20.08.2019
3170 Clear 1 1029 80 10000 1.64 336.742 07:40 20.08.2019
3171 Clear 1 1029 74 10000 1.64 336.742 07:22 20.08.2019
3172 Clear 1 1029 74 10000 1.64 336.742 06:48 20.08.2019
3173 Clear 2 1029 74 10000 1.64 336.211 06:22 20.08.2019
3174 Clear 2 1029 74 10000 1.64 336.211 05:48 20.08.2019
3175 Clear 3 1029 64 10000 1.5 320 04:45 20.08.2019
3176 Clear 3 1029 64 10000 2.1 290 03:26 20.08.2019
3177 Clear 3 1029 64 10000 2.1 320 02:24 20.08.2019
3178 Clear 3 1029 69 10000 1.5 340 01:22 20.08.2019
3179 Clear 4 1029 93 10000 2.1 340 00:45 20.08.2019
3180 Clear 4 1029 93 10000 2.1 340 00:26 20.08.2019
3181 Clear 5 1028 91 10000 1.5 270 23:52 19.08.2019
3182 Clear 5 1028 91 10000 1.5 270 23:52 19.08.2019
3183 Clear 6 1028 91 10000 2.6 230 23:19 19.08.2019
3184 Clear 6 1028 91 10000 2.6 230 22:59 19.08.2019
3185 Clear 6 1028 91 10000 2.6 230 22:59 19.08.2019
3186 Clear 6 1028 91 10000 2.6 230 22:41 19.08.2019
3187 Clear 6 1028 91 10000 2.6 230 22:21 19.08.2019
3188 Clear 6 1028 91 10000 2.6 230 22:21 19.08.2019
3189 Clear 6 1028 91 10000 2.1 230 21:58 19.08.2019
3190 Clear 6 1028 92 10000 2.1 230 21:39 19.08.2019
3191 Clear 6 1028 92 10000 2.1 230 21:39 19.08.2019
3192 Clear 6 1028 75 10000 2.6 230 21:20 19.08.2019
3193 Clear 6 1028 75 10000 2.6 230 20:57 19.08.2019
3194 Clear 6 1028 75 10000 2.6 230 20:38 19.08.2019
3195 Clear 6 1028 75 10000 2.1 230 20:19 19.08.2019
3196 Clear 6 1028 75 10000 2.1 230 19:55 19.08.2019
3197 Clear 6 1028 75 10000 2.1 230 19:36 19.08.2019
3198 Clear 6 1028 75 10000 2.1 230 19:18 19.08.2019
3199 Clear 5 1028 79 10000 3.1 230 18:42 19.08.2019
3200 Clear 4 1028 83 10000 5.1 230 18:24 19.08.2019
3201 Clear 4 1028 83 10000 5.1 230 17:58 19.08.2019
3202 Clear 4 1028 83 10000 5.1 230 17:40 19.08.2019
3203 Clear 4 1028 83 10000 5.1 230 17:19 19.08.2019
3204 Clear 4 1028 83 10000 5.1 230 16:56 19.08.2019
3205 Clear 4 1028 83 10000 4.1 230 16:37 19.08.2019
3206 Clear 4 1028 83 10000 4.1 230 16:18 19.08.2019
3207 Clear 3 1028 74 10000 4.1 230 15:45 19.08.2019
3208 Clear 3 1028 74 10000 4.1 230 15:20 19.08.2019
3209 Clear 3 1027 80 10000 8.7 230 14:56 19.08.2019
3210 Clear 3 1027 80 10000 8.7 230 14:37 19.08.2019
3211 Clear 3 1027 80 10000 8.7 230 14:19 19.08.2019
3212 Clear 2 1026 74 10000 10.3 180 13:56 19.08.2019
3213 Clear 2 1026 74 10000 10.3 180 13:36 19.08.2019
3214 Clear 2 1026 74 10000 10.3 180 13:18 19.08.2019
3215 Clear 3 1026 74 10000 1.23 208.856 12:43 19.08.2019
3216 Clear 3 1026 74 10000 1.76 238.969 12:23 19.08.2019
3217 Clear 3 1026 69 10000 1.76 238.969 11:56 19.08.2019
3218 Clear 3 1026 69 10000 1.76 238.969 11:36 19.08.2019
3219 Clear 3 1026 69 10000 1.76 238.969 11:18 19.08.2019
3220 Clouds 3 1026 69 10000 3.6 270 10:40 19.08.2019
3221 Clouds 3 1026 69 10000 3.6 270 10:19 19.08.2019
3222 Clouds 3 1026 69 10000 2.6 250 09:56 19.08.2019
3223 Clouds 3 1026 69 10000 2.6 250 09:38 19.08.2019
3224 Clouds 3 1026 69 10000 2.6 250 09:20 19.08.2019
3225 Clear 3 1026 69 10000 9.3 230 08:45 19.08.2019
3226 Clear 3 1026 69 10000 9.3 230 08:25 19.08.2019
3227 Clouds 3 1026 69 10000 8.2 230 07:57 19.08.2019
3228 Clouds 3 1026 69 10000 8.2 230 07:39 19.08.2019
3229 Clouds 3 1026 69 10000 8.2 230 07:19 19.08.2019
3230 Clouds 3 1026 69 10000 8.2 230 07:19 19.08.2019
3231 Clouds 4 1026 69 10000 10.3 230 06:36 19.08.2019
3232 Clear 3 1026 74 10000 10.3 230 05:28 19.08.2019
3233 Clear 3 1025 74 10000 11.8 230 04:34 19.08.2019
3234 Clear 3 1026 69 10000 10.8 230 03:28 19.08.2019
3235 Clear 3 1026 69 10000 12.9 230 02:53 19.08.2019
3236 Clear 3 1026 69 10000 13.9 230 01:45 19.08.2019
3237 Clear 4 1025 69 10000 11.8 230 00:59 19.08.2019
3238 Clear 4 1025 69 10000 11.8 230 00:37 19.08.2019
3239 Clear 4 1025 69 10000 11.8 230 00:18 19.08.2019
3240 Clear 4 1025 69 10000 13.9 230 23:39 18.08.2019
3241 Clear 4 1025 69 10000 13.9 230 23:20 18.08.2019
3242 Clear 3 1025 55 10000 11.3 230 22:40 18.08.2019
3243 Clear 4 1025 55 10000 11.3 230 22:21 18.08.2019
3244 Clear 4 1026 55 10000 12.9 230 21:57 18.08.2019
3245 Clear 4 1026 55 10000 12.9 230 21:39 18.08.2019
3246 Clear 4 1026 55 10000 12.9 230 21:20 18.08.2019
3247 Clear 4 1026 55 10000 11.8 230 20:57 18.08.2019
3248 Clear 4 1026 55 10000 11.8 230 20:38 18.08.2019
3249 Clear 4 1026 55 10000 11.8 230 20:20 18.08.2019
3250 Clear 3 1027 55 10000 8.7 230 19:42 18.08.2019
3251 Clear 3 1027 55 10000 8.7 230 19:23 18.08.2019
3252 Clear 2 1027 55 10000 10.8 230 18:57 18.08.2019
3253 Clear 2 1027 55 10000 10.8 230 18:39 18.08.2019
3254 Clear 2 1027 55 10000 10.8 230 18:21 18.08.2019
3255 Clouds 2 1028 55 10000 8.2 230 17:55 18.08.2019
3256 Clouds 2 1028 55 10000 8.2 230 17:36 18.08.2019
3257 Clouds 2 1028 55 10000 8.2 230 17:18 18.08.2019
3258 Clear 2 1028 64 10000 3.6 230 16:43 18.08.2019
3259 Clear 2 1028 64 10000 3.6 230 16:24 18.08.2019
3260 Clouds 1 1028 64 10000 3.1 230 15:59 18.08.2019
3261 Clouds 1 1028 64 10000 3.1 230 15:39 18.08.2019
3262 Clouds 1 1028 64 10000 3.1 230 15:20 18.08.2019
3263 Clouds 1 1028 64 10000 6.7 230 14:57 18.08.2019
3264 Clouds 1 1028 64 10000 6.7 230 14:38 18.08.2019
3265 Clouds 1 1028 64 10000 6.7 230 14:19 18.08.2019
3266 Clouds 1 1029 64 10000 5.7 270 13:56 18.08.2019
3267 Clouds 1 1029 64 10000 5.7 270 13:38 18.08.2019
3268 Clouds 1 1029 64 10000 5.7 270 13:19 18.08.2019
3269 Clear 0 1029 89 10000 5.7 230 12:44 18.08.2019
3270 Clear 0 1029 88 10000 5.7 230 12:22 18.08.2019
3271 Clear 1 1028 59 10000 7.7 230 11:55 18.08.2019
3272 Clear 1 1028 59 10000 7.7 230 11:37 18.08.2019
3273 Clear 1 1028 59 10000 7.7 230 11:18 18.08.2019
3274 Clear 1 1029 59 10000 8.2 230 10:41 18.08.2019
3275 Clear 1 1029 59 10000 7.7 230 10:22 18.08.2019
3276 Clear 1 1029 59 10000 7.7 230 09:51 18.08.2019
3277 Clear 1 1029 59 10000 7.7 230 09:24 18.08.2019
3278 Clear 1 1029 59 10000 5.7 230 08:59 18.08.2019
3279 Clear 1 1029 59 10000 5.7 230 08:40 18.08.2019
3280 Clear 1 1029 59 10000 5.7 230 08:21 18.08.2019
3281 Clear 1 1029 69 10000 6.7 230 07:48 18.08.2019
3282 Clear 1 1029 69 10000 6.7 230 07:48 18.08.2019
3283 Clear 1 1029 69 10000 6.7 230 07:29 18.08.2019
3284 Clear 1 1030 64 10000 7.7 230 05:48 18.08.2019
3285 Clouds 1 1029 69 10000 7.2 230 04:53 18.08.2019
3286 Clouds 1 1030 69 10000 8.2 230 03:42 18.08.2019
3287 Clouds 1 1029 69 10000 9.3 230 02:46 18.08.2019
3288 Clouds 1 1029 69 10000 9.3 230 02:24 18.08.2019
3289 Clouds 2 1029 64 10000 9.8 230 01:44 18.08.2019
3290 Clouds 2 1029 64 10000 9.8 230 01:19 18.08.2019
3291 Clouds 2 1029 64 10000 6.7 230 00:38 18.08.2019
3292 Clouds 2 1029 64 10000 6.7 230 00:38 18.08.2019
3293 Clouds 2 1029 64 10000 6.7 230 00:19 18.08.2019
3294 Clouds 2 1028 69 10000 7.7 230 23:57 17.08.2019
3295 Clouds 2 1028 69 10000 7.7 230 23:37 17.08.2019
3296 Clouds 2 1028 69 10000 7.7 230 23:18 17.08.2019
3297 Clouds 2 1028 69 10000 7.7 230 23:18 17.08.2019
3298 Clouds 3 1028 69 10000 7.7 230 22:56 17.08.2019
3299 Clouds 3 1028 69 10000 7.7 230 22:37 17.08.2019
3300 Clouds 3 1028 69 10000 7.7 230 22:19 17.08.2019
3301 Clouds 3 1028 69 10000 9.3 230 21:41 17.08.2019
3302 Clouds 3 1028 69 10000 9.3 230 21:23 17.08.2019
3303 Clouds 3 1027 69 10000 6.7 230 20:41 17.08.2019
3304 Clouds 3 1027 69 10000 6.7 230 20:21 17.08.2019
3305 Clouds 3 1027 64 10000 8.2 230 19:59 17.08.2019
3306 Clouds 3 1027 64 10000 8.2 230 19:41 17.08.2019
3307 Clouds 3 1027 64 10000 8.2 230 19:22 17.08.2019
3308 Clouds 3 1027 74 10000 8.2 230 18:54 17.08.2019
3309 Clouds 3 1027 74 10000 8.2 230 18:36 17.08.2019
3310 Clouds 3 1027 74 10000 8.2 230 18:18 17.08.2019
3311 Clouds 3 1027 74 10000 8.2 230 18:18 17.08.2019
3312 Clouds 3 1027 64 10000 5.7 230 17:42 17.08.2019
3313 Clouds 3 1027 64 10000 5.7 230 17:21 17.08.2019
3314 Clouds 2 1026 64 10000 5.7 230 16:56 17.08.2019
3315 Clouds 2 1026 64 10000 5.7 230 16:37 17.08.2019
3316 Clouds 2 1026 64 10000 5.7 230 16:18 17.08.2019
3317 Clouds 2 1025 64 10000 7.7 230 15:42 17.08.2019
3318 Clouds 2 1025 64 10000 7.7 230 15:42 17.08.2019
3319 Clouds 2 1025 64 10000 7.7 230 15:22 17.08.2019
3320 Clouds 2 1025 93 10000 5.1 230 14:58 17.08.2019
3321 Clouds 2 1025 93 10000 5.1 230 14:39 17.08.2019
3322 Clouds 2 1025 93 10000 5.1 230 14:21 17.08.2019
3323 Rain 2 1023 93 10000 2.6 180 13:44 17.08.2019
3324 Rain 2 1023 90 10000 2.6 180 13:19 17.08.2019
3325 Clouds 2 1023 80 10000 5.7 140 12:44 17.08.2019
3326 Clouds 2 1023 80 10000 5.7 140 12:20 17.08.2019
3327 Rain 2 1021 80 10000 5.7 200 11:58 17.08.2019
3328 Rain 2 1021 80 10000 5.7 200 11:38 17.08.2019
3329 Rain 2 1021 80 10000 5.7 200 11:20 17.08.2019
3330 Rain 2 1020 80 10000 8.2 200 10:41 17.08.2019
3331 Rain 2 1020 80 10000 8.2 200 10:21 17.08.2019
3332 Rain 2 1020 74 10000 3.1 180 09:57 17.08.2019
3333 Rain 2 1020 74 10000 3.1 180 09:37 17.08.2019
3334 Rain 2 1020 74 10000 3.1 180 09:18 17.08.2019
3335 Rain 2 1019 74 10000 7.7 230 08:46 17.08.2019
3336 Rain 2 1019 74 10000 7.7 230 08:20 17.08.2019
3337 Rain 2 1018 80 10000 8.7 230 07:42 17.08.2019
3338 Rain 2 1018 80 10000 8.7 230 07:20 17.08.2019
3339 Rain 2 1018 80 10000 8.7 230 07:20 17.08.2019
3340 Rain 2 1017 74 10000 5.7 200 06:21 17.08.2019
3341 Drizzle 2 1015 95 10000 8.2 180 04:36 17.08.2019
3342 Drizzle 2 1015 95 10000 8.2 180 04:18 17.08.2019
3343 Rain 2 1011 98 10000 11.8 230 02:38 17.08.2019
3344 Clouds 3 1011 74 10000 9.3 230 01:39 17.08.2019
3345 Clouds 3 1011 74 10000 9.3 230 01:19 17.08.2019
3346 Clouds 3 1010 74 10000 10.3 230 00:46 17.08.2019
3347 Clouds 3 1010 74 10000 10.3 230 00:21 17.08.2019
3348 Clouds 3 1009 74 10000 11.3 230 23:44 16.08.2019
3349 Clouds 3 1009 74 10000 11.3 230 23:24 16.08.2019
3350 Clouds 4 1008 69 10000 12.9 230 22:43 16.08.2019
3351 Clouds 4 1008 69 10000 12.9 230 22:20 16.08.2019
3352 Clouds 4 1008 97 10000 12.3 230 21:58 16.08.2019
3353 Clouds 4 1008 97 10000 12.3 230 21:38 16.08.2019
3354 Clouds 4 1008 93 10000 12.3 230 21:18 16.08.2019
3355 Clouds 4 1007 69 10000 9.8 230 20:43 16.08.2019
3356 Clouds 4 1007 69 10000 9.8 230 20:20 16.08.2019
3357 Clouds 4 1008 74 10000 10.8 230 19:58 16.08.2019
3358 Clouds 4 1008 74 10000 10.8 230 19:39 16.08.2019
3359 Clouds 4 1008 74 10000 10.8 230 19:19 16.08.2019
3360 Drizzle 3 1009 69 10000 7.7 230 18:42 16.08.2019
3361 Drizzle 3 1009 69 10000 7.7 230 18:23 16.08.2019
3362 Clouds 4 1009 69 10000 7.7 230 17:48 16.08.2019
3363 Clouds 4 1009 69 10000 7.7 230 17:28 16.08.2019
3364 Clouds 3 1009 74 10000 6.2 250 16:59 16.08.2019
3365 Clouds 3 1009 74 10000 6.2 250 16:59 16.08.2019
3366 Clouds 3 1009 74 10000 6.2 250 16:40 16.08.2019
3367 Clouds 3 1009 74 10000 6.2 250 16:19 16.08.2019
3368 Clouds 2 1010 80 10000 5.1 270 15:56 16.08.2019
3369 Clouds 2 1010 80 10000 5.1 270 15:38 16.08.2019
3370 Clouds 2 1010 80 10000 5.1 270 15:19 16.08.2019
3371 Clouds 2 1010 74 10000 4.1 270 14:56 16.08.2019
3372 Clouds 2 1010 74 10000 4.1 270 14:56 16.08.2019
3373 Clouds 2 1010 74 10000 4.1 270 14:37 16.08.2019
3374 Clouds 2 1010 74 10000 4.1 270 14:18 16.08.2019
3375 Clouds 2 1010 74 10000 4.1 270 14:18 16.08.2019
3376 Clouds 2 1010 69 10000 6.2 250 13:40 16.08.2019
3377 Clouds 2 1010 69 10000 6.2 250 13:21 16.08.2019
3378 Clouds 2 1010 69 10000 2.1 250 12:41 16.08.2019
3379 Clouds 2 1010 69 10000 2.1 250 12:41 16.08.2019
3380 Clouds 2 1010 69 10000 2.1 250 12:22 16.08.2019
3381 Clouds 2 1010 74 10000 7.2 230 11:58 16.08.2019
3382 Clouds 2 1010 74 10000 7.2 230 11:39 16.08.2019
3383 Clouds 2 1010 74 10000 7.2 230 11:21 16.08.2019
3384 Clouds 2 1009 80 10000 9.3 230 10:43 16.08.2019
3385 Clouds 2 1009 80 10000 9.3 230 10:21 16.08.2019
3386 Clouds 2 1010 69 10000 9.8 230 09:39 16.08.2019
3387 Clouds 2 1010 69 10000 9.8 230 09:20 16.08.2019
3388 Clouds 2 1010 55 10000 8.7 230 08:59 16.08.2019
3389 Clouds 2 1010 55 10000 8.7 230 08:39 16.08.2019
3390 Clouds 2 1010 55 10000 8.7 230 08:20 16.08.2019
3391 Clouds 2 1010 80 10000 7.2 230 07:49 16.08.2019
3392 Clouds 2 1010 80 10000 7.2 230 07:28 16.08.2019
3393 Clouds 2 1010 80 10000 7.7 230 06:55 16.08.2019
3394 Clouds 2 1010 80 10000 7.7 230 06:19 16.08.2019
3395 Clouds 2 1011 74 10000 7.2 250 05:34 16.08.2019
3396 Clouds 2 1010 69 10000 7.2 230 03:20 16.08.2019
3397 Clouds 3 1010 64 10000 7.2 250 01:54 16.08.2019
3398 Clouds 3 1010 64 10000 7.2 250 01:27 16.08.2019
3399 Rain 3 1010 64 10000 6.2 230 00:55 16.08.2019
3400 Rain 3 1010 64 10000 6.2 230 00:36 16.08.2019
3401 Rain 3 1010 64 10000 6.2 230 00:18 16.08.2019
3402 Rain 3 1009 74 10000 10.3 230 23:42 15.08.2019
3403 Rain 3 1009 74 10000 10.3 230 23:19 15.08.2019
3404 Rain 3 1009 99 10000 7.7 230 22:55 15.08.2019
3405 Rain 3 1009 99 10000 7.7 230 22:36 15.08.2019
3406 Rain 3 1009 99 10000 7.7 230 22:18 15.08.2019
3407 Clouds 3 1008 86 10000 9.3 230 21:40 15.08.2019
3408 Clouds 3 1008 86 10000 9.3 230 21:20 15.08.2019
3409 Rain 4 1008 80 10000 10.3 230 20:59 15.08.2019
3410 Rain 4 1008 80 10000 10.3 230 20:40 15.08.2019
3411 Rain 4 1008 80 10000 10.3 230 20:21 15.08.2019
3412 Rain 3 1008 96 10000 11.3 230 19:54 15.08.2019
3413 Rain 3 1008 96 10000 11.3 230 19:36 15.08.2019
3414 Rain 3 1008 96 10000 11.3 230 19:18 15.08.2019
3415 Rain 3 1008 74 10000 11.3 230 18:41 15.08.2019
3416 Rain 4 1008 74 10000 11.3 230 18:21 15.08.2019
3417 Rain 4 1008 64 10000 8.2 250 17:55 15.08.2019
3418 Rain 4 1008 64 10000 8.2 250 17:37 15.08.2019
3419 Rain 4 1008 64 10000 8.2 250 17:19 15.08.2019
3420 Clouds 4 1008 69 10000 5.1 290 16:47 15.08.2019
3421 Clouds 3 1007 69 10000 10.3 270 16:25 15.08.2019
3422 Clouds 4 1009 64 10000 3.6 320 15:56 15.08.2019
3423 Clouds 4 1009 64 10000 3.6 320 15:38 15.08.2019
3424 Clouds 4 1009 64 10000 3.6 320 15:18 15.08.2019
3425 Clouds -1 1009 74 10000 3.6 270 14:42 15.08.2019
3426 Clouds -1 1009 74 10000 3.6 270 14:42 15.08.2019
3427 Clouds -1 1009 74 10000 3.6 270 14:23 15.08.2019
3428 Clouds -1 1009 80 10000 3.6 320 13:57 15.08.2019
3429 Clouds -1 1009 80 10000 3.6 320 13:39 15.08.2019
3430 Clouds -1 1009 80 10000 3.6 320 13:20 15.08.2019
3431 Clouds -1 1009 80 10000 3.6 320 13:20 15.08.2019
3432 Clear -1 1009 86 10000 5.1 270 12:56 15.08.2019
3433 Clear -1 1009 86 10000 5.1 270 12:38 15.08.2019
3434 Clear -1 1009 86 10000 5.1 270 12:18 15.08.2019
3435 Clouds 0 1010 83 10000 3.6 270 11:57 15.08.2019
3436 Clouds 0 1010 83 10000 3.6 270 11:36 15.08.2019
3437 Clouds 0 1010 83 10000 3.6 270 11:18 15.08.2019
3438 Clouds 0 1010 83 10000 3.6 270 11:18 15.08.2019
3439 Clear 0 1011 83 10000 3.1 270 10:39 15.08.2019
3440 Clear 0 1011 83 10000 3.1 270 10:39 15.08.2019
3441 Clear 0 1011 83 10000 3.1 270 10:20 15.08.2019
3442 Clear 0 1012 83 10000 3.6 270 09:55 15.08.2019
3443 Clear 0 1012 83 10000 3.6 270 09:37 15.08.2019
3444 Clear 0 1012 89 10000 3.6 270 09:18 15.08.2019
3445 Clear 0 1013 89 10000 3.1 320 08:37 15.08.2019
3446 Clear 0 1013 89 10000 3.1 320 08:19 15.08.2019
3447 Clear 0 1014 89 10000 5.1 270 07:45 15.08.2019
3448 Clear 0 1014 89 10000 5.1 270 07:27 15.08.2019
3449 Clear 0 1015 89 10000 4.6 320 06:55 15.08.2019
3450 Clear 0 1015 89 10000 4.6 320 06:33 15.08.2019
3451 Clear 0 1016 91 10000 3.6 270 05:51 15.08.2019
3452 Clear 0 1016 91 10000 3.6 270 05:29 15.08.2019
3453 Clear 2 1016 74 10000 6.2 270 04:39 15.08.2019
3454 Clouds 2 1017 74 10000 10.3 230 03:48 15.08.2019
3455 Clouds -5 1018 93 0 1.9 270.965 02:46 15.08.2019
3456 Clouds 3 1017 74 10000 9.3 230 01:58 15.08.2019
3457 Clouds 3 1017 74 10000 9.3 230 01:38 15.08.2019
3458 Clouds 3 1017 74 10000 7.7 250 00:42 15.08.2019
3459 Clouds 3 1017 74 10000 7.7 250 00:22 15.08.2019
3460 Clouds 4 1017 69 10000 10.3 230 23:59 14.08.2019
3461 Clouds 4 1017 69 10000 10.3 230 23:40 14.08.2019
3462 Clouds 5 1017 69 10000 10.3 230 23:20 14.08.2019
3463 Clouds 5 1017 95 10000 8.7 230 22:59 14.08.2019
3464 Clouds 5 1017 95 10000 8.7 230 22:40 14.08.2019
3465 Clouds 5 1017 95 10000 8.7 230 22:21 14.08.2019
3466 Clouds 5 1017 69 10000 10.3 230 21:57 14.08.2019
3467 Clouds 5 1017 69 10000 10.3 230 21:38 14.08.2019
3468 Clouds 5 1017 69 10000 10.3 230 21:19 14.08.2019
3469 Clouds 4 1018 64 10000 10.8 230 20:42 14.08.2019
3470 Clouds 4 1018 64 10000 10.8 230 20:22 14.08.2019
3471 Clouds 4 1018 69 10000 10.3 230 19:59 14.08.2019
3472 Clouds 4 1018 69 10000 10.3 230 19:39 14.08.2019
3473 Rain 3 1018 74 10000 10.3 230 19:21 14.08.2019
3474 Rain 3 1018 74 10000 10.3 230 18:57 14.08.2019
3475 Rain 3 1018 74 10000 10.3 230 18:39 14.08.2019
3476 Rain 3 1018 74 10000 10.3 230 18:20 14.08.2019
3477 Rain 3 1017 74 10000 11.3 250 17:58 14.08.2019
3478 Rain 3 1017 74 10000 11.3 250 17:37 14.08.2019
3479 Rain 3 1017 74 10000 11.3 250 17:19 14.08.2019
3480 Rain 3 1017 74 10000 11.3 250 17:19 14.08.2019
3481 Clouds 3 1017 80 10000 11.3 250 16:55 14.08.2019
3482 Clouds 3 1017 80 10000 11.3 250 16:36 14.08.2019
3483 Clouds 3 1017 80 10000 11.3 250 16:18 14.08.2019
3484 Clouds 2 1016 74 10000 9.3 250 15:42 14.08.2019
3485 Clouds 2 1016 74 10000 9.3 250 15:18 14.08.2019
3486 Clouds 2 1016 74 10000 11.3 230 14:54 14.08.2019
3487 Clouds 2 1016 74 10000 11.3 230 14:36 14.08.2019
3488 Clouds 2 1016 74 10000 11.3 230 14:18 14.08.2019
3489 Clouds 2 1015 74 10000 9.3 250 13:43 14.08.2019
3490 Clouds 2 1015 74 10000 9.3 250 13:24 14.08.2019
3491 Clouds 2 1015 74 10000 9.3 250 12:56 14.08.2019
3492 Clouds 2 1015 74 10000 9.3 250 12:38 14.08.2019
3493 Clouds 2 1015 74 10000 9.3 250 12:20 14.08.2019
3494 Clouds 2 1014 80 10000 9.8 250 11:55 14.08.2019
3495 Clouds 2 1014 80 10000 9.8 250 11:37 14.08.2019
3496 Clouds 2 1014 80 10000 9.8 250 11:18 14.08.2019
3497 Clouds 2 1013 74 10000 9.8 230 10:42 14.08.2019
3498 Clouds 2 1013 74 10000 9.8 230 10:23 14.08.2019
3499 Rain 2 1013 80 10000 9.8 250 09:55 14.08.2019
3500 Rain 2 1013 80 10000 9.8 250 09:36 14.08.2019
3501 Rain 2 1013 80 10000 9.8 250 09:18 14.08.2019
3502 Rain 2 1013 80 10000 5.7 270 08:36 14.08.2019
3503 Rain 2 1013 80 10000 5.7 270 08:18 14.08.2019
3504 Clouds 3 1013 64 10000 3.1 200 07:45 14.08.2019
3505 Clouds 3 1013 64 10000 3.1 200 07:27 14.08.2019
3506 Clouds 3 1013 69 10000 1.5 50 06:44 14.08.2019
3507 Clouds 3 1013 64 10000 2.1 90 05:48 14.08.2019
3508 Clouds 3 1013 64 10000 3.1 140 04:45 14.08.2019
3509 Clouds 3 1014 55 10000 1.5 320 02:56 14.08.2019
3510 Clouds 3 1014 55 10000 1.5 320 02:26 14.08.2019
3511 Clouds 3 1015 55 10000 2.1 360 01:38 14.08.2019
3512 Clouds 3 1016 64 10000 2.6 360 00:54 14.08.2019
3513 Clouds 4 1016 55 10000 2.17 325.275 23:50 13.08.2019
3514 Clouds 3 1016 55 10000 2.17 325.275 23:25 13.08.2019
3515 Clouds 3 1017 55 10000 5.7 360 22:58 13.08.2019
3516 Clouds 3 1017 55 10000 5.7 360 22:39 13.08.2019
3517 Clouds 3 1017 55 10000 5.7 360 22:21 13.08.2019
3518 Clear 3 1018 55 10000 4.1 360 21:57 13.08.2019
3519 Clear 3 1018 55 10000 4.1 360 21:37 13.08.2019
3520 Clear 3 1018 55 10000 4.1 360 21:19 13.08.2019
3521 Clear 3 1014 51 10000 2.6 360 20:46 13.08.2019
3522 Clear 3 1014 51 10000 2.6 360 20:20 13.08.2019
3523 Clouds 3 1019 74 10000 2.6 360 19:59 13.08.2019
3524 Clouds 3 1019 74 10000 2.6 360 19:59 13.08.2019
3525 Clouds 3 1019 74 10000 2.6 360 19:40 13.08.2019
3526 Clouds 3 1019 74 10000 2.6 360 19:21 13.08.2019
3527 Clouds 1 1020 74 10000 3.1 360 18:42 13.08.2019
3528 Clouds 1 1020 74 10000 3.1 360 18:42 13.08.2019
3529 Clouds 1 1020 74 10000 3.1 360 18:23 13.08.2019
3530 Clouds 0 1021 80 10000 5.1 360 17:58 13.08.2019
3531 Clouds 0 1021 80 10000 5.1 360 17:40 13.08.2019
3532 Clouds 0 1021 80 10000 5.1 360 17:20 13.08.2019
3533 Clouds -1 1022 83 10000 5.1 360 16:56 13.08.2019
3534 Clouds -1 1022 83 10000 5.1 360 16:38 13.08.2019
3535 Clouds -1 1022 83 10000 5.1 360 16:19 13.08.2019
3536 Clouds -2 1022 83 10000 6.7 360 15:39 13.08.2019
3537 Clouds -2 1022 87 10000 6.7 360 15:20 13.08.2019
3538 Clouds -2 1022 87 10000 6.2 360 14:58 13.08.2019
3539 Clouds -2 1022 87 10000 6.2 360 14:38 13.08.2019
3540 Clouds -2 1022 87 10000 6.2 360 14:18 13.08.2019
3541 Clear -1 1023 92 10000 5.1 320 13:42 13.08.2019
3542 Clear -1 1023 92 10000 5.1 320 13:21 13.08.2019
3543 Clear -1 1023 86 10000 3.6 270 12:59 13.08.2019
3544 Clear -1 1023 86 10000 3.6 270 12:40 13.08.2019
3545 Clear -1 1023 86 10000 3.6 270 12:22 13.08.2019
3546 Clear -2 1023 92 10000 4.1 270 11:58 13.08.2019
3547 Clear -2 1023 92 10000 4.1 270 11:38 13.08.2019
3548 Clear -2 1023 92 10000 4.1 270 11:19 13.08.2019
3549 Clear -2 1023 92 10000 5.1 270 10:56 13.08.2019
3550 Clear -2 1023 92 10000 5.1 270 10:56 13.08.2019
3551 Clear -2 1023 92 10000 5.1 270 10:37 13.08.2019
3552 Clear -2 1023 92 10000 5.1 270 10:18 13.08.2019
3553 Clear -2 1024 86 10000 5.7 270 09:42 13.08.2019
3554 Clear -2 1024 86 10000 5.7 270 09:23 13.08.2019
3555 Clear -2 1024 79 10000 5.1 320 08:44 13.08.2019
3556 Clear -2 1024 79 10000 5.1 320 08:44 13.08.2019
3557 Clear -2 1024 79 10000 5.1 320 08:23 13.08.2019
3558 Clear -1 1025 80 10000 4.6 320 07:58 13.08.2019
3559 Clear -1 1025 80 10000 4.6 320 07:34 13.08.2019
3560 Clear -1 1025 80 10000 4.1 320 06:59 13.08.2019
3561 Clouds -6 1024 87 0 1.67 280.514 06:40 13.08.2019
3562 Clear 0 1025 87 10000 3.1 320 05:35 13.08.2019
3563 Clear 1 1025 80 10000 6.2 230 03:35 13.08.2019
3564 Clouds 1 1025 86 10000 8.2 230 02:19 13.08.2019
3565 Clouds 2 1025 90 10000 10.3 230 01:19 13.08.2019
3566 Clouds 2 1025 90 10000 9.8 230 00:47 13.08.2019
3567 Clouds 2 1025 93 10000 13.9 230 23:57 12.08.2019
3568 Clouds 2 1025 93 10000 13.9 230 23:38 12.08.2019
3569 Clouds 3 1025 93 10000 13.9 230 23:19 12.08.2019
3570 Clouds 3 1025 100 10000 12.9 230 22:40 12.08.2019
3571 Clouds 3 1025 100 10000 12.9 230 22:20 12.08.2019
3572 Clouds 3 1025 100 10000 12.9 230 22:20 12.08.2019
3573 Clouds 3 1025 93 10000 12.9 230 21:56 12.08.2019
3574 Clouds 3 1025 93 10000 12.9 230 21:37 12.08.2019
3575 Clouds 3 1025 93 10000 12.9 230 21:19 12.08.2019
3576 Clouds 3 1026 93 10000 9.3 230 20:57 12.08.2019
3577 Clouds 3 1026 93 10000 9.3 230 20:38 12.08.2019
3578 Clouds 3 1026 93 10000 9.3 230 20:20 12.08.2019
3579 Clouds 3 1026 82 10000 10.3 230 19:56 12.08.2019
3580 Clouds 3 1026 82 10000 10.3 230 19:56 12.08.2019
3581 Clouds 3 1026 82 10000 10.3 230 19:37 12.08.2019
3582 Clouds 3 1026 82 10000 10.3 230 19:19 12.08.2019
3583 Clouds 2 1026 82 10000 11.3 230 18:55 12.08.2019
3584 Clouds 2 1026 82 10000 11.3 230 18:55 12.08.2019
3585 Clouds 2 1026 82 10000 11.3 230 18:55 12.08.2019
3586 Clouds 2 1026 82 10000 11.3 230 18:37 12.08.2019
3587 Clouds 2 1026 88 10000 11.3 230 18:19 12.08.2019
3588 Clouds 2 1026 88 10000 11.3 230 18:19 12.08.2019
3589 Clouds 2 1026 88 10000 11.3 230 18:19 12.08.2019
3590 Clouds 2 1026 100 10000 10.3 230 17:46 12.08.2019
3591 Clouds 2 1026 100 10000 10.3 230 17:28 12.08.2019
3592 Clouds 1 1026 88 10000 9.3 250 16:57 12.08.2019
3593 Clouds 1 1026 88 10000 9.3 250 16:39 12.08.2019
3594 Clouds 1 1026 88 10000 9.3 250 16:20 12.08.2019
3595 Clouds 1 1026 88 10000 9.3 250 16:20 12.08.2019
3596 Rain 1 1026 88 10000 10.3 250 15:58 12.08.2019
3597 Rain 1 1026 88 10000 10.3 250 15:39 12.08.2019
3598 Rain 1 1026 88 10000 10.3 250 15:39 12.08.2019
3599 Rain 1 1026 93 10000 10.3 250 15:20 12.08.2019
3600 Rain 0 1026 93 10000 10.3 250 14:55 12.08.2019
3601 Rain 0 1026 93 10000 10.3 250 14:37 12.08.2019
3602 Rain 0 1026 93 10000 10.3 250 14:36 12.08.2019
3603 Rain 0 1026 93 10000 10.3 250 14:18 12.08.2019
3604 Clouds 0 1026 93 10000 7.7 250 13:42 12.08.2019
3605 Clouds 0 1026 93 10000 7.7 250 13:23 12.08.2019
3606 Clouds 0 1026 93 10000 9.3 250 12:44 12.08.2019
3607 Clouds 0 1026 95 10000 9.3 250 12:22 12.08.2019
3608 Clouds 0 1026 95 10000 9.3 250 11:56 12.08.2019
3609 Clouds 0 1026 95 10000 9.3 250 11:56 12.08.2019
3610 Clouds 0 1026 95 10000 9.3 250 11:38 12.08.2019
3611 Clouds 0 1026 95 10000 9.3 250 11:19 12.08.2019
3612 Clouds 0 1025 95 10000 8.2 250 10:41 12.08.2019
3613 Clouds 0 1025 95 10000 8.2 250 10:23 12.08.2019
3614 Clouds 0 1025 95 10000 9.3 250 09:56 12.08.2019
3615 Clouds 0 1025 95 10000 9.3 250 09:37 12.08.2019
3616 Clouds 0 1025 95 10000 9.3 250 09:19 12.08.2019
3617 Clouds 0 1025 95 10000 9.8 250 08:42 12.08.2019
3618 Clouds 0 1025 95 10000 9.8 250 08:24 12.08.2019
3619 Clouds 0 1026 95 10000 9.3 250 07:59 12.08.2019
3620 Clouds 0 1026 95 10000 9.3 250 07:41 12.08.2019
3621 Clouds 0 1026 95 10000 9.3 250 07:20 12.08.2019
3622 Clouds 0 1025 95 10000 7.7 250 06:44 12.08.2019
3623 Clouds 0 1025 94 10000 7.2 250 04:40 12.08.2019
3624 Rain 0 1024 94 10000 9.3 230 02:44 12.08.2019
3625 Rain 0 1024 94 10000 8.2 230 01:53 12.08.2019
3626 Rain 0 1024 94 10000 8.2 230 01:20 12.08.2019
3627 Rain 0 1023 94 10000 7.7 230 00:57 12.08.2019
3628 Rain 0 1023 94 10000 7.7 230 00:38 12.08.2019
3629 Rain 0 1023 90 10000 7.7 230 00:19 12.08.2019
3630 Clouds 0 1021 90 10000 10.3 230 23:42 11.08.2019
3631 Clouds 0 1021 90 10000 10.3 230 23:20 11.08.2019
3632 Clouds 0 1021 90 10000 10.8 230 22:58 11.08.2019
3633 Clouds 0 1021 90 10000 10.8 230 22:39 11.08.2019
3634 Clouds 0 1021 90 10000 10.8 230 22:19 11.08.2019
3635 Clouds -1 1020 92 10000 10.3 230 21:58 11.08.2019
3636 Clouds -1 1020 92 10000 10.3 230 21:39 11.08.2019
3637 Clouds -1 1020 92 10000 10.3 230 21:20 11.08.2019
3638 Clouds -1 1020 92 10000 10.8 230 20:56 11.08.2019
3639 Clouds -1 1020 92 10000 10.8 230 20:38 11.08.2019
3640 Clouds -1 1020 92 10000 10.8 230 20:19 11.08.2019
3641 Snow -1 1019 86 10000 10.3 230 19:42 11.08.2019
3642 Snow -1 1019 86 10000 10.3 230 19:18 11.08.2019
3643 Snow -1 1019 92 10000 10.8 230 18:41 11.08.2019
3644 Snow -1 1019 92 10000 10.8 230 18:21 11.08.2019
3645 Rain -1 1018 92 10000 10.3 230 17:57 11.08.2019
3646 Rain -1 1018 92 10000 10.3 230 17:39 11.08.2019
3647 Rain -1 1018 92 10000 10.3 230 17:20 11.08.2019
3648 Rain -1 1018 92 10000 10.3 230 17:20 11.08.2019
3649 Rain -1 1018 86 10000 10.8 230 16:56 11.08.2019
3650 Rain -1 1018 86 10000 10.8 230 16:37 11.08.2019
3651 Rain -1 1018 86 10000 10.8 230 16:18 11.08.2019
3652 Clouds -2 1017 86 10000 9.3 230 15:43 11.08.2019
3653 Clouds -2 1017 86 10000 9.3 230 15:24 11.08.2019
3654 Snow -2 1016 86 5000 9.3 230 14:58 11.08.2019
3655 Snow -2 1016 86 5000 9.3 230 14:39 11.08.2019
3656 Snow -2 1016 86 5000 9.3 230 14:19 11.08.2019
3657 Rain -2 1015 86 10000 9.3 230 13:44 11.08.2019
3658 Rain -2 1015 86 10000 9.3 230 13:25 11.08.2019
3659 Rain -2 1014 86 10000 8.7 230 12:49 11.08.2019
3660 Rain -2 1014 86 10000 8.7 230 12:25 11.08.2019
3661 Snow -3 1013 92 6000 10.3 230 11:57 11.08.2019
3662 Snow -3 1013 92 6000 10.3 230 11:38 11.08.2019
3663 Snow -3 1013 92 6000 10.3 230 11:20 11.08.2019
3664 Clouds -3 1012 92 10000 8.7 230 10:55 11.08.2019
3665 Clouds -3 1012 92 10000 8.7 230 10:36 11.08.2019
3666 Clouds -3 1012 92 10000 8.7 230 10:18 11.08.2019
3667 Clouds -3 1012 92 10000 8.7 230 10:18 11.08.2019
3668 Snow -3 1011 92 6500 8.7 230 09:40 11.08.2019
3669 Snow -3 1011 92 6500 8.7 230 09:22 11.08.2019
3670 Snow -3 1010 79 6500 8.2 230 08:48 11.08.2019
3671 Snow -3 1010 79 6500 8.2 230 08:29 11.08.2019
3672 Snow -4 1009 92 6500 8.2 230 07:56 11.08.2019
3673 Snow -4 1009 92 6500 8.2 230 07:27 11.08.2019
3674 Snow -4 1009 92 5000 6.7 230 06:45 11.08.2019
3675 Snow -4 1009 92 5000 6.7 230 06:21 11.08.2019
3676 Snow -3 1006 92 2500 7.2 230 04:37 11.08.2019
3677 Snow -3 1004 92 1200 5.7 230 02:49 11.08.2019
3678 Snow -3 1003 86 1200 11.8 230 01:51 11.08.2019
3679 Snow -3 1003 86 1200 11.8 230 01:26 11.08.2019
3680 Snow -3 1003 86 1200 13.4 230 00:54 11.08.2019
3681 Snow -3 1003 86 1200 13.4 230 00:34 11.08.2019
3682 Snow -3 1002 86 2000 10.8 230 23:49 10.08.2019
3683 Snow -3 1002 86 2000 10.8 230 23:29 10.08.2019
3684 Snow -3 1002 86 2000 12.9 230 22:48 10.08.2019
3685 Snow -3 1002 86 2000 12.9 230 22:27 10.08.2019
3686 Snow -3 1002 86 2000 11.3 230 21:59 10.08.2019
3687 Snow -3 1002 86 2000 11.3 230 21:58 10.08.2019
3688 Snow -3 1002 86 2000 11.3 230 21:39 10.08.2019
3689 Snow -3 1002 86 2000 11.3 230 21:21 10.08.2019
3690 Snow -3 1002 86 2000 11.3 230 21:21 10.08.2019
3691 Snow -3 1001 79 2000 13.4 230 20:57 10.08.2019
3692 Snow -3 1001 79 2000 13.4 230 20:39 10.08.2019
3693 Snow -3 1001 79 2000 13.4 230 20:18 10.08.2019
3694 Snow -2 1001 79 2000 13.4 230 19:41 10.08.2019
3695 Snow -3 1001 79 2000 13.4 230 19:22 10.08.2019
3696 Snow -3 1001 79 1200 8.7 230 18:42 10.08.2019
3697 Snow -3 1001 79 1200 8.7 230 18:23 10.08.2019
3698 Rain -3 1001 79 10000 13.4 230 17:56 10.08.2019
3699 Rain -3 1001 79 10000 13.4 230 17:38 10.08.2019
3700 Rain -3 1001 79 10000 13.4 230 17:19 10.08.2019
3701 Snow -3 1000 92 2500 13.4 230 16:42 10.08.2019
3702 Snow -3 1000 92 2500 13.4 230 16:22 10.08.2019
3703 Snow -3 1000 92 10000 13.4 230 15:45 10.08.2019
3704 Snow -3 1000 92 10000 13.4 230 15:22 10.08.2019
3705 Snow -4 999 92 2500 12.3 230 14:44 10.08.2019
3706 Snow -4 999 92 2500 12.3 230 14:19 10.08.2019
3707 Rain -4 998 92 10000 13.4 230 13:41 10.08.2019
3708 Rain -4 998 92 10000 13.4 230 13:20 10.08.2019
3709 Rain -4 998 85 10000 11.8 230 12:54 10.08.2019
3710 Rain -4 998 85 10000 11.8 230 12:36 10.08.2019
3711 Rain -4 998 85 10000 11.8 230 12:18 10.08.2019
3712 Clouds -4 997 100 500 11.3 180 11:41 10.08.2019
3713 Clouds -4 997 100 500 11.3 180 11:22 10.08.2019
3714 Clouds -3 996 92 500 12.9 230 10:55 10.08.2019
3715 Clouds -3 996 92 500 12.9 230 10:36 10.08.2019
3716 Clouds -3 996 92 500 12.9 230 10:18 10.08.2019
3717 Clouds -4 995 100 500 14.9 230 09:40 10.08.2019
3718 Clouds -4 995 100 500 14.9 230 09:22 10.08.2019
3719 Snow -3 995 92 8000 13.9 200 08:42 10.08.2019
3720 Snow -3 995 92 8000 13.9 200 08:20 10.08.2019
3721 Clouds -4 994 100 500 12.9 200 07:54 10.08.2019
3722 Clouds -4 994 100 500 12.9 200 07:54 10.08.2019
3723 Clouds -4 994 100 500 12.9 200 07:29 10.08.2019
3724 Clouds -2 993 100 100 15.4 230 06:49 10.08.2019
3725 Clouds -2 993 100 100 15.4 230 06:26 10.08.2019
3726 Clouds -2 993 92 1000 16.5 230 05:26 10.08.2019
3727 Snow -1 992 92 1000 13.9 230 04:35 10.08.2019
3728 Snow 0 990 84 2000 19 230 02:56 10.08.2019
3729 Snow 0 990 84 2000 19 230 02:26 10.08.2019
3730 Snow 0 990 84 2000 18 230 01:42 10.08.2019
3731 Snow 0 990 85 2000 18 230 01:22 10.08.2019
3732 Clouds -5 992 85 0 12.24 236.969 00:49 10.08.2019
3733 Rain 2 988 100 10000 19.5 230 00:25 10.08.2019
3734 Rain 2 988 100 10000 19.5 230 23:45 09.08.2019
3735 Rain 2 988 100 10000 19.5 230 23:24 09.08.2019
3736 Rain 2 986 74 10000 22.1 230 22:58 09.08.2019
3737 Rain 2 986 74 10000 22.1 230 22:39 09.08.2019
3738 Rain 3 986 74 10000 22.1 230 22:21 09.08.2019
3739 Rain 3 987 69 10000 20.1 230 21:55 09.08.2019
3740 Rain 3 987 69 10000 20.1 230 21:36 09.08.2019
3741 Rain 3 987 69 10000 20.1 230 21:18 09.08.2019
3742 Rain 4 986 74 10000 19.5 230 20:54 09.08.2019
3743 Rain 4 986 74 10000 19.5 230 20:36 09.08.2019
3744 Rain 4 986 74 10000 19.5 230 20:18 09.08.2019
3745 Rain 5 987 75 10000 19.5 230 19:41 09.08.2019
3746 Rain 5 987 75 10000 19.5 230 19:19 09.08.2019
3747 Rain 5 987 75 10000 19.5 230 19:19 09.08.2019
3748 Rain 5 988 80 10000 16.5 230 18:42 09.08.2019
3749 Rain 5 988 80 10000 16.5 230 18:22 09.08.2019
3750 Rain 5 987 80 10000 17 230 17:58 09.08.2019
3751 Rain 5 987 80 10000 17 230 17:40 09.08.2019
3752 Rain 5 987 80 10000 17 230 17:22 09.08.2019
3753 -273 0 0 0 0 0 16:42 09.08.2019
3754 Rain 4 987 86 10000 16.5 230 16:42 09.08.2019
3755 Rain 4 987 86 10000 16.5 230 16:23 09.08.2019
3756 Rain 4 987 90 10000 18 230 15:58 09.08.2019
3757 Rain 4 987 90 10000 18 230 15:39 09.08.2019
3758 Rain 4 987 95 10000 18 230 15:20 09.08.2019
3759 Rain 4 986 95 10000 18 230 14:55 09.08.2019
3760 Rain 4 986 95 10000 18 230 14:37 09.08.2019
3761 Rain 4 986 95 10000 18 230 14:19 09.08.2019
3762 Clouds 4 986 86 10000 17 230 13:43 09.08.2019
3763 Clouds 4 986 86 10000 17 230 13:20 09.08.2019
3764 Clouds 4 985 80 10000 16.5 230 12:47 09.08.2019
3765 Clouds 4 985 80 10000 16.5 230 12:24 09.08.2019
3766 Clouds 4 985 80 10000 14.4 230 11:59 09.08.2019
3767 Clouds 4 985 80 10000 14.4 230 11:59 09.08.2019
3768 Clouds 4 985 80 10000 14.4 230 11:37 09.08.2019
3769 Clouds 4 985 80 10000 14.4 230 11:19 09.08.2019
3770 Clouds 3 984 86 10000 13.9 230 10:41 09.08.2019
3771 Clouds 3 984 86 10000 13.9 230 10:22 09.08.2019
3772 Drizzle 4 984 86 5000 12.3 230 09:46 09.08.2019
3773 Drizzle 4 984 86 5000 12.3 230 09:20 09.08.2019
3774 Drizzle 4 984 80 5000 9.3 230 08:59 09.08.2019
3775 Drizzle 4 984 80 5000 9.3 230 08:41 09.08.2019
3776 Drizzle 4 984 80 5000 9.3 230 08:21 09.08.2019
3777 Drizzle 4 984 80 10000 6.2 230 07:53 09.08.2019
3778 Drizzle 4 984 80 10000 6.2 230 07:24 09.08.2019
3779 Drizzle 5 984 99 10000 2.1 230 06:57 09.08.2019
3780 Drizzle 5 984 99 10000 2.1 230 06:36 09.08.2019
3781 Drizzle 5 984 99 10000 2.1 230 06:18 09.08.2019
3782 Clouds 5 986 99 10000 2.6 90 04:37 09.08.2019
3783 Clouds 5 989 99 10000 2.6 360 02:23 09.08.2019
3784 Clouds 5 990 99 10000 5.7 140 00:58 09.08.2019
3785 Clouds 5 990 99 10000 5.7 140 00:40 09.08.2019
3786 Clouds 5 990 99 10000 5.7 140 00:22 09.08.2019
3787 Clouds 4 992 80 10000 5.1 140 23:39 08.08.2019
3788 Clouds 5 992 80 10000 5.1 140 23:20 08.08.2019
3789 Clouds 5 993 80 10000 5.1 140 22:59 08.08.2019
3790 Clouds 5 993 80 10000 5.1 140 22:37 08.08.2019
3791 Clouds 5 993 80 10000 5.1 140 22:19 08.08.2019
3792 Clouds 5 994 86 10000 4.6 140 21:59 08.08.2019
3793 Clouds 5 994 86 10000 4.6 140 21:41 08.08.2019
3794 Clouds 5 994 86 10000 4.6 140 21:22 08.08.2019
3795 Clouds 5 996 80 10000 1.94 329.518 20:56 08.08.2019
3796 Clouds 5 996 80 10000 2.08 335.101 20:38 08.08.2019
3797 Clouds 5 996 80 10000 2.08 335.101 20:19 08.08.2019
3798 Clouds 5 998 80 10000 1.5 50 19:44 08.08.2019
3799 Clouds 5 998 80 10000 1.5 50 19:24 08.08.2019
3800 Clouds 4 1001 86 10000 2.08 335.101 18:45 08.08.2019
3801 Clouds 4 1001 86 10000 1.91 334.091 18:24 08.08.2019
3802 Drizzle 4 1002 93 10000 1.5 320 17:59 08.08.2019
3803 Drizzle 4 1002 93 10000 1.5 320 17:41 08.08.2019
3804 Drizzle 4 1002 93 10000 1.5 320 17:22 08.08.2019
3805 Drizzle 4 1003 86 10000 2.6 320 16:55 08.08.2019
3806 Drizzle 4 1003 86 10000 2.6 320 16:37 08.08.2019
3807 Drizzle 4 1003 86 10000 2.6 320 16:19 08.08.2019
3808 Drizzle 3 1003 99 10000 4.1 320 15:42 08.08.2019
3809 Drizzle 3 1003 98 10000 4.1 320 15:23 08.08.2019
3810 Drizzle 3 1004 98 10000 6.2 230 14:59 08.08.2019
3811 Drizzle 3 1004 98 10000 6.2 230 14:37 08.08.2019
3812 Drizzle 3 1004 98 10000 6.2 230 14:18 08.08.2019
3813 Clouds 3 1004 86 10000 9.8 230 13:40 08.08.2019
3814 Clouds 3 1004 86 10000 9.8 230 13:22 08.08.2019
3815 Rain 3 1004 93 10000 10.3 230 12:43 08.08.2019
3816 Rain 3 1004 93 10000 10.3 230 12:23 08.08.2019
3817 Drizzle 3 1004 86 10000 10.8 230 11:59 08.08.2019
3818 Drizzle 3 1004 86 10000 10.8 230 11:39 08.08.2019
3819 Drizzle 3 1004 86 10000 10.8 230 11:21 08.08.2019
3820 Drizzle 3 1005 86 10000 13.4 230 10:41 08.08.2019
3821 Drizzle 3 1005 86 10000 13.4 230 10:22 08.08.2019
3822 Clouds 2 1006 97 10000 10.8 230 09:53 08.08.2019
3823 Clouds 2 1006 97 10000 10.8 230 09:32 08.08.2019
3824 Clouds 2 1006 97 10000 7.2 230 08:59 08.08.2019
3825 Clouds 2 1006 95 10000 7.2 230 08:40 08.08.2019
3826 Clouds 2 1006 95 10000 7.2 230 08:20 08.08.2019
3827 Snow 2 1007 95 8000 5.36 243.129 07:41 08.08.2019
3828 Snow 2 1007 95 8000 5.36 243.129 07:20 08.08.2019
3829 Snow 1 1006 95 5000 4.1 320 06:56 08.08.2019
3830 Snow 1 1006 95 5000 4.1 320 06:37 08.08.2019
3831 Snow 1 1006 96 5000 4.1 250 05:53 08.08.2019
3832 Snow 1 1006 96 5000 4.1 250 05:20 08.08.2019
3833 Snow 1 1005 96 2000 9.3 230 03:54 08.08.2019
3834 Snow 1 1004 97 1500 10.8 230 02:58 08.08.2019
3835 Snow 1 1003 97 1500 11.3 230 01:38 08.08.2019
3836 Snow 1 1003 86 1500 12.3 230 00:27 08.08.2019
3837 Snow 1 1001 86 2000 11.8 230 23:59 07.08.2019
3838 Snow 2 1001 86 2000 11.8 230 23:22 07.08.2019
3839 Snow 2 1000 91 2000 11.8 230 22:59 07.08.2019
3840 Snow 2 1000 91 2000 11.8 230 22:40 07.08.2019
3841 Snow 2 1000 91 2000 11.8 230 22:20 07.08.2019
3842 Snow 2 1000 91 2000 11.8 230 22:20 07.08.2019
3843 Snow 1 998 91 2000 12.9 230 21:56 07.08.2019
3844 Snow 1 998 91 2000 12.9 230 21:38 07.08.2019
3845 Snow 1 998 74 2000 12.9 230 21:19 07.08.2019
3846 Snow 1 997 74 1200 11.8 230 20:55 07.08.2019
3847 Snow 1 997 76 1200 11.8 230 20:36 07.08.2019
3848 Snow 1 997 76 1200 11.8 230 20:18 07.08.2019
3849 Snow 0 996 76 8000 15.4 230 19:40 07.08.2019
3850 Snow 1 996 76 8000 15.4 230 19:22 07.08.2019
3851 Snow 1 996 76 8000 15.4 230 19:22 07.08.2019
3852 Snow 1 993 76 1200 18.5 230 18:59 07.08.2019
3853 Snow 1 993 76 1200 18.5 230 18:39 07.08.2019
3854 Snow 1 993 85 1200 18.5 230 18:19 07.08.2019
3855 Clouds 0 991 85 1200 18 230 17:54 07.08.2019
3856 Clouds 0 991 85 1200 18 230 17:54 07.08.2019
3857 Clouds 0 991 85 1200 18 230 17:54 07.08.2019
3858 Clouds 0 991 85 1200 18 230 17:36 07.08.2019
3859 Clouds 0 991 85 1200 18 230 17:18 07.08.2019
3860 Clouds 0 990 85 1500 19.5 230 16:54 07.08.2019
3861 Clouds 0 990 85 1500 19.5 230 16:54 07.08.2019
3862 Clouds 0 990 85 1500 19.5 230 16:36 07.08.2019
3863 Clouds 0 990 85 1500 19.5 230 16:18 07.08.2019
3864 Clouds 0 991 85 1200 12.9 250 15:42 07.08.2019
3865 Clouds 0 991 87 1200 12.9 250 15:19 07.08.2019
3866 Clouds 0 991 87 1200 12.9 250 14:49 07.08.2019
3867 Clouds 0 991 87 1200 12.9 250 14:30 07.08.2019
3868 Clouds 0 991 87 1200 12.9 250 14:30 07.08.2019
3869 Clouds 0 991 87 1500 14.4 250 13:57 07.08.2019
3870 Clouds 0 991 87 1500 14.4 250 13:38 07.08.2019
3871 Clouds 0 991 87 1500 14.4 250 13:19 07.08.2019
3872 Snow 1 991 87 3000 12.9 250 12:56 07.08.2019
3873 Snow 1 991 87 3000 12.9 250 12:37 07.08.2019
3874 Snow 1 991 88 3000 12.9 250 12:19 07.08.2019
3875 Snow 1 992 86 1200 11.8 250 11:43 07.08.2019
3876 Snow 1 992 86 1200 11.8 250 11:21 07.08.2019
3877 Snow 1 992 80 2500 10.8 270 10:58 07.08.2019
3878 Snow 1 992 80 2500 10.8 270 10:40 07.08.2019
3879 Snow 1 992 80 2500 10.8 270 10:19 07.08.2019
3880 Snow -1 993 92 2000 10.3 270 09:46 07.08.2019
3881 Snow -1 993 92 2000 10.3 270 09:24 07.08.2019
3882 Snow -1 993 92 1200 10.3 230 08:59 07.08.2019
3883 Snow -1 993 92 1200 10.3 230 08:41 07.08.2019
3884 Snow -1 993 92 1200 10.3 230 08:23 07.08.2019
3885 Clouds -1 993 92 2000 15.4 230 07:45 07.08.2019
3886 Clouds -1 993 92 2000 15.4 230 07:26 07.08.2019
3887 Snow -2 993 100 2000 10.3 230 06:43 07.08.2019
3888 Snow -2 993 100 2000 10.3 230 06:21 07.08.2019
3889 Snow -2 992 92 3500 12.9 230 05:40 07.08.2019
3890 Snow -2 991 92 2500 7.7 230 04:29 07.08.2019
3891 Snow -2 990 86 800 7.7 230 02:54 07.08.2019
3892 Snow -2 990 86 800 7.7 230 02:36 07.08.2019
3893 Snow -2 989 86 500 12.3 250 01:49 07.08.2019
3894 Snow -1 988 80 1200 7.2 270 00:53 07.08.2019
3895 Snow -1 988 80 1200 7.2 270 00:23 07.08.2019
3896 Snow -1 986 80 1200 11.3 230 23:48 06.08.2019
3897 Snow -1 986 80 1200 11.3 230 23:23 06.08.2019
3898 Snow -1 986 80 4000 6.2 230 22:59 06.08.2019
3899 Snow -1 986 80 4000 6.2 230 22:40 06.08.2019
3900 Snow -1 986 80 4000 6.2 230 22:40 06.08.2019
3901 Snow -1 986 80 4000 6.2 230 22:21 06.08.2019
3902 Snow -1 985 86 4000 5.1 270 21:57 06.08.2019
3903 Snow -1 985 86 4000 5.1 270 21:38 06.08.2019
3904 Snow -1 985 86 4000 5.1 270 21:19 06.08.2019
3905 Snow -1 984 92 6000 3.6 230 20:43 06.08.2019
3906 Snow -1 984 92 6000 3.6 230 20:24 06.08.2019
3907 Snow -1 984 86 1200 7.2 230 19:49 06.08.2019
3908 Snow -1 984 86 1200 7.2 230 19:29 06.08.2019
3909 Snow -1 984 86 1200 3.1 320 18:57 06.08.2019
3910 Snow -1 984 86 1200 3.1 320 18:38 06.08.2019
3911 Snow -1 984 86 1200 3.1 320 18:19 06.08.2019
3912 Snow -1 983 86 10000 4.6 270 17:56 06.08.2019
3913 Snow -1 983 86 10000 4.6 270 17:37 06.08.2019
3914 Snow -1 983 86 10000 4.6 270 17:19 06.08.2019
3915 Snow -1 983 86 10000 2.87 276.556 16:43 06.08.2019
3916 Snow -1 983 86 10000 2.87 276.556 16:24 06.08.2019
3917 Rain -1 983 86 10000 3.6 230 15:58 06.08.2019
3918 Rain -1 983 86 10000 3.6 230 15:39 06.08.2019
3919 Rain -1 983 86 10000 3.6 230 15:21 06.08.2019
3920 Rain -1 982 95 10000 6.7 230 14:46 06.08.2019
3921 Rain -1 982 95 10000 6.7 230 14:27 06.08.2019
3922 Rain -1 982 74 10000 7.2 230 13:59 06.08.2019
3923 Rain -1 982 74 10000 7.2 230 13:41 06.08.2019
3924 Rain -1 982 74 10000 7.2 230 13:41 06.08.2019
3925 Rain -1 982 74 10000 7.2 230 13:23 06.08.2019
3926 Clouds -6 983 96 0 2.18 285.631 12:59 06.08.2019
3927 Clouds -6 983 96 0 2.18 285.631 12:39 06.08.2019
3928 Clouds -5 982 96 0 2.17 282.923 12:21 06.08.2019
3929 Clouds -5 982 96 0 2.17 282.923 12:21 06.08.2019
3930 Clouds -5 982 96 0 2.17 282.923 11:45 06.08.2019
3931 Clouds -5 982 96 0 2.17 282.923 11:20 06.08.2019
3932 Clouds -5 982 96 0 2.17 282.923 10:56 06.08.2019
3933 Clouds -5 982 96 0 2.17 282.923 10:38 06.08.2019
3934 Clouds -5 982 96 0 2.17 282.923 10:20 06.08.2019
3935 Clouds -5 982 96 0 2.17 282.923 09:41 06.08.2019
3936 Rain 1 980 64 10000 5.7 250 09:21 06.08.2019
3937 Rain 1 980 64 10000 5.7 250 09:21 06.08.2019
3938 Rain 1 980 64 10000 5.7 250 08:49 06.08.2019
3939 Clouds -5 980 94 0 2.33 293.028 08:28 06.08.2019
3940 Clouds -5 980 94 0 2.33 293.028 07:59 06.08.2019
3941 Clouds -5 980 94 0 2.33 293.028 07:29 06.08.2019
3942 Clouds -5 980 94 0 2.33 293.028 06:44 06.08.2019
3943 Clouds 0 980 96 10000 7.7 250 06:21 06.08.2019
3944 Clouds 0 980 96 10000 7.7 250 05:21 06.08.2019
3945 Snow 0 977 97 800 12.3 230 02:00 06.08.2019
3946 Snow 0 977 97 800 12.3 230 01:25 06.08.2019
3947 Snow 0 978 97 1200 6.2 230 00:39 06.08.2019
3948 Snow 1 978 86 1200 9.8 230 23:59 05.08.2019
3949 Snow 3 978 86 1200 9.8 230 23:20 05.08.2019
3950 Drizzle 4 978 48 10000 11.8 230 22:42 05.08.2019
3951 Drizzle 4 978 48 10000 11.8 230 22:23 05.08.2019
3952 Drizzle 5 978 48 10000 6.2 270 21:58 05.08.2019
3953 Drizzle 5 978 48 10000 6.2 270 21:40 05.08.2019
3954 Drizzle 5 978 48 10000 6.2 270 21:19 05.08.2019
3955 Drizzle 6 979 44 10000 6.7 270 20:56 05.08.2019
3956 Drizzle 6 979 44 10000 6.7 270 20:38 05.08.2019
3957 Drizzle 6 979 44 10000 6.7 270 20:20 05.08.2019
3958 Clouds 5 980 44 10000 7.7 320 19:43 05.08.2019
3959 Clouds 5 980 44 10000 7.7 320 19:25 05.08.2019
3960 Clouds 5 982 41 10000 8.7 320 18:59 05.08.2019
3961 Clouds 5 982 41 10000 8.7 320 18:40 05.08.2019
3962 Clouds 5 982 41 10000 8.7 320 18:19 05.08.2019
3963 Clouds 5 982 41 10000 8.7 320 18:19 05.08.2019
3964 Clouds 4 982 38 10000 7.7 320 17:46 05.08.2019
3965 Clouds 4 982 38 10000 7.7 320 17:27 05.08.2019
3966 Clouds 3 983 44 10000 10.3 320 16:47 05.08.2019
3967 Clouds 3 983 44 10000 10.3 320 16:27 05.08.2019
3968 Clouds 2 985 55 10000 7.7 360 15:57 05.08.2019
3969 Clouds 2 985 55 10000 7.7 360 15:39 05.08.2019
3970 Clouds 2 985 55 10000 7.7 360 15:39 05.08.2019
3971 Clouds 2 985 55 10000 7.7 360 15:20 05.08.2019
3972 Clouds 2 986 51 10000 7.7 320 14:39 05.08.2019
3973 Clouds 2 986 51 10000 7.7 320 14:19 05.08.2019
3974 Clouds 0 987 95 10000 5.1 320 13:45 05.08.2019
3975 Clouds 0 987 94 10000 5.1 320 13:23 05.08.2019
3976 Clear 0 989 94 10000 2.82 333.962 12:49 05.08.2019
3977 Clear 0 989 85 10000 2.49 328.653 12:21 05.08.2019
3978 Clear -7 989 85 0 2.49 328.653 11:54 05.08.2019
3979 Clear -7 989 85 0 2.49 328.653 11:36 05.08.2019
3980 Clear -7 989 85 0 2.49 328.653 11:18 05.08.2019
3981 Clear -7 989 85 0 2.49 328.653 10:43 05.08.2019
3982 Clear -7 989 85 0 2.49 328.653 10:22 05.08.2019
3983 Clear -7 989 85 0 2.49 328.653 09:44 05.08.2019
3984 Clear -1 992 80 10000 2.6 360 09:26 05.08.2019
3985 Clear -1 992 80 10000 2.6 360 08:59 05.08.2019
3986 Clear -1 992 80 10000 2.6 360 08:41 05.08.2019
3987 Clear -1 992 80 10000 2.6 360 08:20 05.08.2019
3988 Clear -1 992 80 10000 2.6 360 07:45 05.08.2019
3989 Clear -1 992 80 10000 2.6 360 07:26 05.08.2019
3990 Clear 0 992 87 10000 3.1 320 06:35 05.08.2019
3991 Clear 1 993 74 10000 3.1 270 05:52 05.08.2019
3992 Clear 1 993 74 10000 3.1 270 05:20 05.08.2019
3993 Clear 2 993 80 10000 3.6 270 04:27 05.08.2019
3994 Clouds 2 993 80 10000 5.1 270 03:38 05.08.2019
3995 Clouds 2 993 89 10000 8.2 230 02:36 05.08.2019
3996 Clouds 3 993 74 10000 7.7 230 01:35 05.08.2019
3997 Clouds 3 993 89 10000 7.7 230 00:43 05.08.2019
3998 Clouds 3 993 98 10000 7.7 230 00:23 05.08.2019
3999 Clouds 3 993 98 10000 6.7 230 23:58 04.08.2019
4000 Clouds 3 993 98 10000 6.7 230 23:40 04.08.2019
4001 Clouds 3 993 98 10000 6.7 230 23:19 04.08.2019
4002 Clouds 3 992 98 10000 8.7 230 22:55 04.08.2019
4003 Clouds 3 992 98 10000 8.7 230 22:37 04.08.2019
4004 Clouds 3 992 98 10000 8.7 230 22:18 04.08.2019
4005 Clouds 3 992 98 10000 8.7 230 21:43 04.08.2019
4006 Clouds 3 992 91 10000 8.7 230 21:20 04.08.2019
4007 Clouds 3 992 88 10000 8.2 230 20:46 04.08.2019
4008 Clouds 3 992 88 10000 8.2 230 20:21 04.08.2019
4009 Clouds 3 993 88 10000 7.7 230 19:59 04.08.2019
4010 Clouds 3 993 88 10000 7.7 230 19:39 04.08.2019
4011 Clouds 3 993 88 10000 7.7 230 19:21 04.08.2019
4012 Clouds 3 993 88 10000 5.1 230 18:42 04.08.2019
4013 Clouds 3 993 88 10000 5.1 230 18:42 04.08.2019
4014 Clouds 3 993 95 10000 5.1 230 18:21 04.08.2019
4015 Clouds 3 993 74 10000 2.06 323.28 17:46 04.08.2019
4016 Clouds 3 993 74 10000 2.06 323.28 17:26 04.08.2019
4017 Clouds 3 994 74 10000 3.1 270 16:59 04.08.2019
4018 Clouds 3 994 74 10000 3.1 270 16:40 04.08.2019
4019 Clouds 3 994 74 10000 3.1 270 16:20 04.08.2019
4020 Clouds 2 993 80 10000 2.1 270 15:44 04.08.2019
4021 Clouds 2 993 80 10000 2.1 270 15:23 04.08.2019
4022 Clouds 1 993 74 10000 4.1 270 14:45 04.08.2019
4023 Clouds 1 993 74 10000 4.1 270 14:27 04.08.2019
4024 Clouds 2 993 93 10000 1.58 291.344 13:59 04.08.2019
4025 Clouds 2 993 93 10000 1.58 291.344 13:41 04.08.2019
4026 Clouds 2 993 93 10000 1.59 279.445 13:22 04.08.2019
4027 Clouds 2 993 95 10000 1.59 279.445 12:44 04.08.2019
4028 Clouds 2 993 98 10000 1.85 293.881 12:25 04.08.2019
4029 Clouds 2 993 98 10000 3.1 320 11:56 04.08.2019
4030 Clouds 2 993 98 10000 3.1 320 11:37 04.08.2019
4031 Clouds 2 993 98 10000 3.1 320 11:19 04.08.2019
4032 Clouds 2 993 98 10000 4.6 230 10:40 04.08.2019
4033 Clouds 2 993 98 10000 4.6 230 10:20 04.08.2019
4034 Drizzle 2 992 93 10000 10.8 230 09:44 04.08.2019
4035 Drizzle 2 992 93 10000 10.8 230 09:22 04.08.2019
4036 Clouds 3 991 86 10000 9.3 230 08:45 04.08.2019
4037 Clouds 3 991 86 10000 9.3 230 08:26 04.08.2019
4038 Clouds 3 991 74 10000 5.1 230 07:52 04.08.2019
4039 Clouds 3 992 74 10000 2.6 320 06:57 04.08.2019
4040 Clouds 3 992 74 10000 2.6 320 06:28 04.08.2019
4041 Clouds 4 992 80 10000 4.6 230 04:26 04.08.2019
4042 Clouds 4 992 80 10000 7.2 230 02:41 04.08.2019
4043 Clouds 4 991 98 10000 9.3 230 01:39 04.08.2019
4044 Clouds 4 991 97 10000 9.3 230 01:18 04.08.2019
4045 Clouds 5 991 56 10000 2.6 250 00:41 04.08.2019
4046 Clouds 5 991 56 10000 2.6 250 00:19 04.08.2019
4047 Clouds 5 990 56 10000 4.1 360 23:40 03.08.2019
4048 Clouds 5 990 56 10000 4.1 360 23:18 03.08.2019
4049 Clouds 3 990 97 10000 6.7 230 22:44 03.08.2019
4050 Clouds 3 990 97 10000 6.7 230 22:21 03.08.2019
4051 Clouds 4 990 80 10000 10.3 230 21:56 03.08.2019
4052 Clouds 4 990 80 10000 10.3 230 21:36 03.08.2019
4053 Clouds 4 990 80 10000 10.3 230 21:36 03.08.2019
4054 Clouds 4 990 80 10000 10.3 230 21:18 03.08.2019
4055 Clouds 4 990 80 10000 10.3 230 21:18 03.08.2019
4056 Clouds 4 989 86 10000 11.3 230 20:41 03.08.2019
4057 Clouds 4 989 86 10000 11.3 230 20:20 03.08.2019
4058 Clouds 4 988 80 10000 13.4 230 19:42 03.08.2019
4059 Clouds 7 988 80 10000 13.4 230 19:24 03.08.2019
4060 Drizzle 8 987 70 10000 13.9 230 18:53 03.08.2019
4061 Drizzle 8 987 70 10000 13.9 230 18:27 03.08.2019
4062 Rain 7 985 75 10000 11.3 230 17:49 03.08.2019
4063 Rain 7 985 75 10000 11.3 230 17:22 03.08.2019
4064 Rain 6 983 75 6000 15.4 230 16:56 03.08.2019
4065 Rain 6 983 75 6000 15.4 230 16:37 03.08.2019
4066 Rain 7 983 75 6000 15.4 230 16:19 03.08.2019
4067 Clouds 8 982 61 10000 6.2 250 15:43 03.08.2019
4068 Clouds 8 982 61 10000 6.2 250 15:23 03.08.2019
4069 Rain 8 981 45 10000 7.7 320 14:41 03.08.2019
4070 Rain 8 981 45 10000 7.7 320 14:21 03.08.2019
4071 Rain 6 982 70 10000 6.2 160 13:52 03.08.2019
4072 Rain 6 982 70 10000 6.2 160 13:25 03.08.2019
4073 Drizzle 8 984 97 10000 3.1 290 12:58 03.08.2019
4074 Drizzle 8 984 97 10000 3.1 290 12:39 03.08.2019
4075 Drizzle 8 984 97 10000 3.1 290 12:21 03.08.2019
4076 Drizzle 6 984 60 10000 8.2 360 11:49 03.08.2019
4077 Drizzle 6 984 60 10000 8.2 360 11:27 03.08.2019
4078 Drizzle 5 987 97 10000 8.2 360 10:42 03.08.2019
4079 Drizzle 5 987 97 10000 8.2 360 10:22 03.08.2019
4080 Drizzle 5 989 75 10000 8.7 360 09:44 03.08.2019
4081 Drizzle 5 989 75 10000 8.7 360 09:22 03.08.2019
4082 Drizzle 5 991 97 10000 10.3 360 08:52 03.08.2019
4083 Drizzle 5 992 97 10000 9.3 360 07:55 03.08.2019
4084 Drizzle 5 992 97 10000 9.3 360 07:32 03.08.2019
4085 Drizzle 5 995 97 10000 8.2 360 06:36 03.08.2019
4086 Rain 5 1000 56 10000 5.7 360 04:52 03.08.2019
4087 Clouds 4 1003 64 10000 8.2 360 02:39 03.08.2019
4088 Clouds 4 1004 64 10000 8.2 360 01:50 03.08.2019
4089 Clouds 2 1007 74 10000 3.49 356.062 00:49 03.08.2019
4090 Clouds 3 1007 74 10000 2.14 1.338 23:59 02.08.2019
4091 Clouds 3 1007 74 10000 2.14 1.338 23:40 02.08.2019
4092 Clear 3 1008 74 10000 1 70 23:19 02.08.2019
4093 Clouds 5 1008 69 10000 2.14 1.338 22:57 02.08.2019
4094 Clouds 5 1008 69 10000 2.14 1.338 22:38 02.08.2019
4095 Clouds 5 1008 69 10000 2.14 1.338 22:19 02.08.2019
4096 Clouds 5 1008 93 10000 2.14 1.338 21:43 02.08.2019
4097 Clouds 5 1008 80 10000 2.03 331.981 21:25 02.08.2019
4098 Clouds 5 1008 69 10000 1.94 331.673 20:59 02.08.2019
4099 Clouds 5 1008 69 10000 1.94 331.673 20:40 02.08.2019
4100 Clouds 5 1008 69 10000 1.94 331.673 20:20 02.08.2019
4101 Clouds 5 1009 69 10000 1.94 331.673 19:46 02.08.2019
4102 Clouds 5 1009 69 10000 1.94 331.673 19:26 02.08.2019
4103 Clouds 4 1009 69 10000 2.1 360 18:45 02.08.2019
4104 Clouds 4 1009 69 10000 2.1 360 18:26 02.08.2019
4105 Clouds 4 1009 74 10000 2.03 327.046 17:48 02.08.2019
4106 Clouds 4 1009 74 10000 2.03 327.046 17:25 02.08.2019
4107 Clouds 3 1008 80 10000 2.03 327.046 16:58 02.08.2019
4108 Clouds 3 1008 80 10000 2.03 327.046 16:38 02.08.2019
4109 Clouds 3 1008 80 10000 2.03 327.046 16:19 02.08.2019
4110 Clouds 3 1008 74 10000 3.1 250 15:39 02.08.2019
4111 Clouds 3 1008 74 10000 3.1 250 15:19 02.08.2019
4112 Clouds 2 1008 69 10000 2.01 316.575 14:46 02.08.2019
4113 Clouds 2 1008 69 10000 2.01 316.575 14:19 02.08.2019
4114 Clear 2 1000 74 10000 6.2 230 13:49 02.08.2019
4115 Clear 2 1000 74 10000 6.2 230 13:27 02.08.2019
4116 -273 0 0 0 0 0 12:46 02.08.2019
4117 Clear 2 1006 74 10000 6.7 230 12:23 02.08.2019
4118 Clear 2 1006 74 10000 1.5 320 11:55 02.08.2019
4119 Clear 2 1006 74 10000 1.5 320 11:37 02.08.2019
4120 Clear 2 1006 74 10000 1.5 320 11:18 02.08.2019
4121 Clear 2 1006 74 10000 2.6 360 10:41 02.08.2019
4122 Clear 2 1006 74 10000 2.6 360 10:23 02.08.2019
4123 Clear 3 1005 74 10000 3.6 320 09:52 02.08.2019
4124 Clear 3 1005 74 10000 3.6 320 09:26 02.08.2019
4125 Clouds 2 1005 95 10000 9.3 230 08:50 02.08.2019
4126 Clouds 2 1005 95 10000 9.3 230 08:23 02.08.2019
4127 Clear 3 1005 64 10000 2.6 270 07:51 02.08.2019
4128 Clear 3 1005 64 10000 2.6 270 07:31 02.08.2019
4129 Clear 3 1004 64 10000 5.7 230 06:51 02.08.2019
4130 Clear 3 1004 64 10000 5.7 230 06:24 02.08.2019
4131 Clouds 1 1004 80 10000 4.1 230 05:26 02.08.2019
4132 Clouds 3 1003 92 10000 4.1 270 03:29 02.08.2019
4133 Rain 3 1002 86 10000 10.3 230 02:33 02.08.2019
4134 Drizzle 4 1001 86 10000 6.7 230 00:47 02.08.2019
4135 Drizzle 4 1001 86 10000 6.7 230 00:18 02.08.2019
4136 Clouds 4 1000 86 10000 2.6 90 23:43 01.08.2019
4137 Clouds 4 1000 86 10000 2.6 90 23:19 01.08.2019
4138 Clouds 5 1000 75 10000 4.1 90 22:40 01.08.2019
4139 Clouds 5 1000 75 10000 4.1 90 22:21 01.08.2019
4140 Clear 5 1000 75 10000 2.47 309.273 21:44 01.08.2019
4141 Clear 5 1000 75 10000 3.06 0.88 21:24 01.08.2019
4142 Clear 5 1001 80 10000 3.6 90 20:59 01.08.2019
4143 Clear 5 1001 80 10000 3.6 90 20:40 01.08.2019
4144 Clear 5 1001 80 10000 3.6 90 20:21 01.08.2019
4145 Clouds 5 1002 80 10000 2.77 359.028 19:44 01.08.2019
4146 Clouds 5 1002 80 10000 2.77 359.028 19:22 01.08.2019
4147 Clear 4 1002 86 10000 1 360 18:46 01.08.2019
4148 Clear 4 1002 86 10000 1 360 18:25 01.08.2019
4149 Clouds 4 1003 80 10000 2.1 50 17:57 01.08.2019
4150 Clouds 4 1003 80 10000 2.1 50 17:39 01.08.2019
4151 Clouds 4 1003 80 10000 2.1 50 17:20 01.08.2019
4152 Clouds 2 1003 80 10000 4.1 340 16:44 01.08.2019
4153 Clouds 2 1003 80 10000 4.1 340 16:21 01.08.2019
4154 Clouds 2 1004 86 10000 4.1 340 15:45 01.08.2019
4155 Clouds 2 1004 86 10000 4.1 340 15:20 01.08.2019
4156 Clouds 3 1003 94 10000 1.5 320 14:44 01.08.2019
4157 Clouds 3 1003 94 10000 1.5 320 14:22 01.08.2019
4158 Rain 3 1003 80 10000 2.1 320 13:59 01.08.2019
4159 Rain 3 1003 80 10000 2.1 320 13:41 01.08.2019
4160 Rain 3 1003 80 10000 2.1 320 13:21 01.08.2019
4161 Rain 3 1003 94 10000 2.1 230 12:52 01.08.2019
4162 Rain 3 1003 94 10000 2.1 230 12:33 01.08.2019
4163 Drizzle 4 1003 80 10000 3.1 180 11:58 01.08.2019
4164 Drizzle 4 1003 80 10000 3.1 180 11:40 01.08.2019
4165 Drizzle 4 1003 80 10000 3.1 180 11:22 01.08.2019
4166 Clouds 4 1003 95 10000 2.21 316.157 10:45 01.08.2019
4167 Clouds 4 1003 95 10000 2.21 316.157 10:27 01.08.2019
4168 Clouds 4 1003 95 10000 1.5 360 09:56 01.08.2019
4169 Clouds 4 1003 95 10000 1.5 360 09:38 01.08.2019
4170 Clouds 4 1003 94 10000 1.5 360 09:20 01.08.2019
4171 Clouds 4 1003 93 10000 2.1 50 08:42 01.08.2019
4172 Clouds 4 1003 93 10000 2.1 50 08:19 01.08.2019
4173 Clouds 4 1003 93 10000 1.92 340.676 07:46 01.08.2019
4174 Clouds 4 1003 93 10000 1.92 340.676 07:21 01.08.2019
4175 Clouds 4 1003 93 10000 1.92 340.676 06:45 01.08.2019
4176 Clouds 4 1002 69 10000 1.5 270 05:37 01.08.2019
4177 Clouds 4 1002 69 10000 1.5 270 02:41 01.08.2019
4178 Clouds 4 1001 97 10000 1 360 01:45 01.08.2019
4179 Clouds 4 1001 97 10000 2.1 360 00:41 01.08.2019
4180 Clouds 4 1001 96 10000 2.1 360 00:19 01.08.2019
4181 Clouds 4 1001 80 10000 1.39 343.408 23:42 31.07.2019
4182 Clouds 5 1001 80 10000 1.39 343.408 23:20 31.07.2019
4183 Clouds 5 1000 75 10000 1.39 343.408 22:46 31.07.2019
4184 Clouds 5 1000 75 10000 1.39 343.408 22:28 31.07.2019
4185 Rain 5 1000 96 10000 1.39 343.408 21:45 31.07.2019
4186 Rain 5 1000 93 10000 2.06 8.217 21:24 31.07.2019
4187 Rain 5 1000 75 10000 1.97 3.758 20:58 31.07.2019
4188 Rain 5 1000 75 10000 1.97 3.758 20:39 31.07.2019
4189 Rain 5 1000 75 10000 1.97 3.758 20:21 31.07.2019
4190 Clouds 5 1000 80 10000 1.97 3.758 19:41 31.07.2019
4191 Clouds 5 1000 80 10000 1.97 3.758 19:23 31.07.2019
4192 Rain 5 1000 90 10000 1.97 3.758 18:41 31.07.2019
4193 Rain 5 1000 89 10000 1.99 351.409 18:23 31.07.2019
4194 Clouds 4 1000 80 10000 1.99 351.409 17:56 31.07.2019
4195 Clouds 4 1000 80 10000 1.99 351.409 17:37 31.07.2019
4196 Clouds 4 1000 80 10000 1.99 351.409 17:19 31.07.2019
4197 Clouds 4 1000 86 10000 1.5 270 16:42 31.07.2019
4198 Clouds 4 1000 86 10000 1.5 270 16:19 31.07.2019
4199 Drizzle 3 1000 64 10000 1.5 320 15:44 31.07.2019
4200 Drizzle 3 1000 64 10000 1.5 320 15:24 31.07.2019
4201 Clouds 3 1000 59 10000 2.6 270 14:42 31.07.2019
4202 Clouds 3 1000 59 10000 2.6 270 14:21 31.07.2019
4203 Clouds 2 1000 80 10000 2.31 345.699 13:57 31.07.2019
4204 Clouds 2 1000 80 10000 2.31 345.699 13:38 31.07.2019
4205 Clouds 2 1000 80 10000 2.59 359.403 13:19 31.07.2019
4206 Clouds 1 1000 80 10000 2.59 359.403 12:45 31.07.2019
4207 Clouds 1 1000 80 10000 2.59 359.403 12:45 31.07.2019
4208 Clouds -2 1001 95 0 2.59 359.403 12:26 31.07.2019
4209 Clouds 2 1000 69 10000 2.1 270 11:55 31.07.2019
4210 Clouds 2 1000 69 10000 2.1 270 11:36 31.07.2019
4211 Clouds 2 1000 69 10000 2.1 270 11:18 31.07.2019
4212 Clouds 2 1000 74 10000 4.6 20 10:41 31.07.2019
4213 Clouds 2 1000 74 10000 4.6 20 10:20 31.07.2019
4214 Clouds 3 1001 64 10000 2.58 8.812 09:43 31.07.2019
4215 Clouds 3 1001 64 10000 3 0.592 09:24 31.07.2019
4216 Clouds 3 1001 64 10000 3 0.592 09:24 31.07.2019
4217 Clouds 2 1001 69 10000 3.26 1.492 08:44 31.07.2019
4218 Clouds 2 1001 69 10000 3.26 1.492 08:26 31.07.2019
4219 Clouds 2 1001 64 10000 2.1 270 07:57 31.07.2019
4220 Clouds 2 1001 64 10000 2.1 270 07:34 31.07.2019
4221 Clouds 2 1002 59 10000 1.5 270 06:18 31.07.2019
4222 Clouds 2 1003 64 10000 4.6 320 04:42 31.07.2019
4223 Clouds 2 1004 64 10000 3.6 320 01:21 31.07.2019
4224 Clouds 3 1005 59 10000 5.1 320 23:57 30.07.2019
4225 Clouds 3 1005 59 10000 5.1 320 23:39 30.07.2019
4226 Clouds 3 1005 59 10000 5.1 320 23:18 30.07.2019
4227 Clouds 3 1005 59 10000 4.1 320 22:42 30.07.2019
4228 Clouds 4 1005 59 10000 4.1 320 22:23 30.07.2019
4229 Clouds 4 1006 100 10000 7.7 360 21:38 30.07.2019
4230 Clouds 4 1006 100 10000 7.7 360 21:20 30.07.2019
4231 Clouds 4 1006 55 10000 6.7 360 20:58 30.07.2019
4232 Clouds 4 1006 55 10000 6.7 360 20:39 30.07.2019
4233 Clouds 4 1006 55 10000 6.7 360 20:20 30.07.2019
4234 Clouds 4 1007 55 10000 7.2 360 19:49 30.07.2019
4235 Clouds 4 1007 55 10000 7.2 360 19:30 30.07.2019
4236 Clouds 3 1007 55 10000 6.2 360 18:48 30.07.2019
4237 Clouds 3 1007 55 10000 6.2 360 18:27 30.07.2019
4238 Clouds 3 1008 59 10000 7.2 340 17:59 30.07.2019
4239 Clouds 3 1008 59 10000 7.2 340 17:41 30.07.2019
4240 Clouds 3 1008 59 10000 7.2 340 17:19 30.07.2019
4241 Clouds 2 1008 59 10000 8.2 340 16:46 30.07.2019
4242 Clouds 2 1008 59 10000 8.2 340 16:20 30.07.2019
4243 Clouds 2 1009 64 10000 7.2 340 15:44 30.07.2019
4244 Clouds 2 1009 64 10000 7.2 340 15:23 30.07.2019
4245 Clouds 2 1009 59 10000 5.7 320 14:59 30.07.2019
4246 Clouds 2 1009 59 10000 5.7 320 14:40 30.07.2019
4247 Clouds 2 1009 59 10000 5.7 320 14:18 30.07.2019
4248 Clouds 3 1009 59 10000 3.1 320 13:41 30.07.2019
4249 Clouds 3 1009 59 10000 3.1 320 13:23 30.07.2019
4250 Clouds 1 1009 69 10000 1.5 270 12:55 30.07.2019
4251 Clouds 1 1009 69 10000 1.5 270 12:37 30.07.2019
4252 Clouds 1 1009 69 10000 1.5 270 12:18 30.07.2019
4253 Clouds 1 1009 69 10000 1.5 320 11:38 30.07.2019
4254 Clouds 1 1009 69 10000 1.5 320 11:19 30.07.2019
4255 Clouds 1 1009 74 10000 2.1 290 10:42 30.07.2019
4256 Clouds 1 1009 74 10000 2.1 290 10:23 30.07.2019
4257 Clouds 0 1009 93 10000 2.1 270 09:49 30.07.2019
4258 Clouds 0 1009 93 10000 2.1 270 09:30 30.07.2019
4259 Clouds 1 1010 80 10000 2.6 270 08:47 30.07.2019
4260 Clouds 1 1010 80 10000 2.6 270 08:28 30.07.2019
4261 Clouds 1 1010 80 10000 1.5 270 07:47 30.07.2019
4262 Clouds 1 1010 80 10000 1.5 270 07:47 30.07.2019
4263 Clouds 1 1010 80 10000 1.5 270 07:28 30.07.2019
4264 Clouds 1 1010 74 10000 1.5 270 06:47 30.07.2019
4265 Clouds 0 1011 95 10000 2.1 270 05:56 30.07.2019
4266 Clouds 0 1011 95 10000 2.1 270 05:32 30.07.2019
4267 Clouds 1 1011 74 10000 1.55 346.87 01:41 30.07.2019
4268 Clouds 1 1011 80 10000 2.1 270 00:45 30.07.2019
4269 Clouds 1 1011 80 10000 2.1 270 00:20 30.07.2019
4270 Clear 2 1011 74 10000 2.1 50 23:44 29.07.2019
4271 Clear 3 1011 74 10000 2.1 50 23:26 29.07.2019
4272 Clear 3 1011 74 10000 2.1 50 23:26 29.07.2019
4273 Clear 3 1011 74 10000 2.1 50 22:57 29.07.2019
4274 Clear 3 1011 59 10000 1.5 50 22:38 29.07.2019
4275 Clear 3 1011 59 10000 1.5 50 22:20 29.07.2019
4276 -273 0 0 0 0 0 21:56 29.07.2019
4277 Clear 3 1011 59 10000 1.14 356.842 21:37 29.07.2019
4278 Clear 3 1011 59 10000 1.29 2.673 21:18 29.07.2019
4279 Clear 3 1011 69 10000 1.5 180 20:48 29.07.2019
4280 Clear 3 1011 69 10000 1.5 180 20:24 29.07.2019
4281 Clear 3 1011 64 10000 1.29 2.673 19:56 29.07.2019
4282 Clear 3 1011 64 10000 1.29 2.673 19:37 29.07.2019
4283 Clear 3 1011 64 10000 1.29 2.673 19:19 29.07.2019
4284 Clear 2 1011 69 10000 1.29 2.673 18:42 29.07.2019
4285 Clear 2 1011 69 10000 1.11 333.922 18:22 29.07.2019
4286 Clear 1 1010 64 10000 1.11 333.922 17:51 29.07.2019
4287 Clear 1 1010 64 10000 1.11 333.922 17:33 29.07.2019
4288 Clear 0 1010 64 10000 1.11 333.922 16:58 29.07.2019
4289 Clear 0 1010 64 10000 1.11 333.922 16:39 29.07.2019
4290 Clear 0 1010 64 10000 1.11 333.922 16:21 29.07.2019
4291 Clouds -1 1009 80 10000 2.6 270 15:50 29.07.2019
4292 Clouds -1 1009 80 10000 2.6 270 15:31 29.07.2019
4293 Clouds -1 1009 90 10000 1.35 304.598 14:46 29.07.2019
4294 Clouds -1 1009 90 10000 1.35 304.598 14:21 29.07.2019
4295 Clouds 0 1008 90 10000 2.1 320 13:59 29.07.2019
4296 Clouds 0 1008 90 10000 2.1 320 13:41 29.07.2019
4297 Clouds 0 1008 90 10000 2.1 320 13:22 29.07.2019
4298 Clouds 1 1007 69 10000 3.6 290 12:42 29.07.2019
4299 Clouds 1 1007 69 10000 3.6 290 12:22 29.07.2019
4300 Clouds 2 1006 69 10000 2.6 250 11:43 29.07.2019
4301 Clouds 2 1006 69 10000 2.6 250 11:43 29.07.2019
4302 Clouds 2 1006 69 10000 2.6 250 11:21 29.07.2019
4303 Clouds 2 1006 69 10000 2.6 270 10:45 29.07.2019
4304 Clouds 2 1006 69 10000 2.6 270 10:24 29.07.2019
4305 Clouds 2 1005 69 10000 5.1 250 09:45 29.07.2019
4306 Clouds 2 1005 69 10000 5.1 250 09:25 29.07.2019
4307 Clouds 2 1004 64 10000 4.6 230 08:57 29.07.2019
4308 Clouds 2 1004 64 10000 4.6 230 08:31 29.07.2019
4309 Clouds 3 1003 55 10000 5.7 230 07:58 29.07.2019
4310 Clouds 3 1003 55 10000 5.7 230 07:36 29.07.2019
4311 Clouds 3 1002 55 10000 7.7 230 06:45 29.07.2019
4312 Clouds 3 1001 59 10000 7.2 230 05:46 29.07.2019
4313 Clouds 3 1000 69 10000 9.3 230 04:50 29.07.2019
4314 Clouds 3 996 86 10000 9.3 230 01:59 29.07.2019
4315 Clouds 3 996 86 10000 9.3 230 01:41 29.07.2019
4316 Clouds 3 996 86 10000 9.3 230 01:21 29.07.2019
4317 Clouds 3 996 86 10000 9.3 230 01:21 29.07.2019
4318 Clouds 4 995 90 10000 7.7 230 00:41 29.07.2019
4319 Clouds 4 995 97 10000 7.7 230 00:19 29.07.2019
4320 Clouds 4 993 80 10000 7.7 230 23:40 28.07.2019
4321 Clouds 4 993 80 10000 7.7 230 23:18 28.07.2019
4322 Clouds 4 992 86 10000 6.2 230 22:38 28.07.2019
4323 Clouds 4 992 86 10000 6.2 230 22:38 28.07.2019
4324 Clouds 4 992 86 10000 6.2 230 22:19 28.07.2019
4325 Drizzle 3 991 93 10000 7.7 230 21:46 28.07.2019
4326 Drizzle 3 991 93 10000 7.7 230 21:18 28.07.2019
4327 Rain 5 989 86 5000 12.9 230 20:45 28.07.2019
4328 Rain 5 989 86 5000 12.9 230 20:27 28.07.2019
4329 Clouds 6 987 81 10000 3.6 230 19:42 28.07.2019
4330 Clouds 6 987 81 10000 3.6 230 19:22 28.07.2019
4331 Clouds 8 988 65 10000 2.1 90 18:51 28.07.2019
4332 Clouds 8 988 65 10000 2.1 90 18:32 28.07.2019
4333 Clouds 8 988 65 10000 2.1 90 18:32 28.07.2019
4334 Clouds 6 987 81 10000 1.84 315.793 17:59 28.07.2019
4335 Clouds 6 987 81 10000 1.84 315.793 17:41 28.07.2019
4336 Clouds 6 987 81 10000 1.84 315.793 17:21 28.07.2019
4337 Clouds 6 987 81 10000 2.1 90 16:47 28.07.2019
4338 Clouds 6 987 81 10000 2.1 90 16:28 28.07.2019
4339 Clouds 6 988 81 10000 1.5 140 15:59 28.07.2019
4340 Clouds 6 988 81 10000 1.5 140 15:41 28.07.2019
4341 Clouds 6 988 81 10000 1.5 140 15:21 28.07.2019
4342 Clouds 7 988 70 10000 3.1 140 14:37 28.07.2019
4343 Clouds 7 988 70 10000 3.1 140 14:19 28.07.2019
4344 Clouds 1 991 99 0 1.8 320.684 13:44 28.07.2019
4345 Clouds 6 988 70 10000 1.5 340 13:23 28.07.2019
4346 Clouds 6 988 70 10000 1.5 340 12:59 28.07.2019
4347 Clouds 6 988 70 10000 1.5 340 12:40 28.07.2019
4348 Clouds 6 988 70 10000 1.5 340 12:22 28.07.2019
4349 Clouds 6 989 70 10000 3.1 90 11:47 28.07.2019
4350 Clouds 6 989 70 10000 3.1 90 11:27 28.07.2019
4351 Clouds 8 989 52 10000 2.6 340 10:41 28.07.2019
4352 Clouds 8 989 52 10000 2.6 340 10:22 28.07.2019
4353 Clouds 8 990 52 10000 4.1 320 09:47 28.07.2019
4354 Clouds 8 990 52 10000 4.1 320 09:29 28.07.2019
4355 Clouds 8 990 99 10000 5.7 320 08:52 28.07.2019
4356 Clouds 8 990 99 10000 5.7 320 08:30 28.07.2019
4357 Clouds 8 991 99 10000 7.2 320 07:59 28.07.2019
4358 Clouds 8 991 99 10000 7.2 320 07:37 28.07.2019
4359 Clouds 7 991 99 10000 8.2 320 06:45 28.07.2019
4360 Rain 7 991 99 10000 9.3 320 05:44 28.07.2019
4361 Clouds 7 993 56 10000 2.1 320 03:39 28.07.2019
4362 Clouds 7 995 56 10000 3.1 340 02:24 28.07.2019
4363 Clouds 7 996 56 10000 7.7 320 01:20 28.07.2019
4364 Rain 7 995 99 10000 7.2 320 00:45 28.07.2019
4365 Rain 7 995 98 10000 7.2 320 00:22 28.07.2019
4366 Clouds 4 995 80 10000 5.1 270 23:46 27.07.2019
4367 Clouds 4 995 80 10000 5.1 270 23:22 27.07.2019
4368 Clouds 4 995 80 10000 3.6 270 22:42 27.07.2019
4369 Clouds 4 995 80 10000 3.6 270 22:22 27.07.2019
4370 Clouds 5 996 80 10000 1.68 320.913 21:43 27.07.2019
4371 Clouds 5 996 80 10000 2.2 306.719 21:20 27.07.2019
4372 Clouds 5 995 80 10000 2.1 140 20:53 27.07.2019
4373 Clouds 5 995 80 10000 2.1 140 20:26 27.07.2019
4374 Clouds 5 996 80 10000 1.5 140 19:58 27.07.2019
4375 Clouds 5 996 80 10000 1.5 140 19:38 27.07.2019
4376 Clouds 5 996 80 10000 1.5 140 19:19 27.07.2019
4377 Clouds 5 996 86 10000 5.1 90 18:45 27.07.2019
4378 Clouds 4 996 86 10000 5.1 90 18:27 27.07.2019
4379 Clear 4 997 80 10000 3.6 90 17:42 27.07.2019
4380 Clear 4 997 80 10000 3.6 90 17:24 27.07.2019
4381 Clear 2 997 69 10000 3.6 290 16:51 27.07.2019
4382 Clear 2 997 69 10000 3.6 290 16:32 27.07.2019
4383 Clouds 2 998 80 10000 5.1 230 15:55 27.07.2019
4384 Clouds 2 998 80 10000 5.1 230 15:25 27.07.2019
4385 Drizzle 2 997 97 10000 8.7 230 14:51 27.07.2019
4386 Drizzle 2 997 97 10000 8.7 230 14:33 27.07.2019
4387 Rain 1 997 97 10000 8.7 230 13:59 27.07.2019
4388 Clouds 1 996 86 10000 5.7 230 13:41 27.07.2019
4389 Clouds 1 996 86 10000 5.7 230 13:21 27.07.2019
4390 Drizzle 1 996 96 10000 6.7 230 12:49 27.07.2019
4391 Drizzle 1 996 96 10000 6.7 230 12:26 27.07.2019
4392 Drizzle 1 996 100 10000 2.6 270 11:46 27.07.2019
4393 Drizzle 1 996 100 10000 2.6 270 11:25 27.07.2019
4394 Rain 2 995 93 10000 4.6 230 10:57 27.07.2019
4395 Rain 2 995 93 10000 4.6 230 10:39 27.07.2019
4396 Rain 2 995 93 10000 4.6 230 10:18 27.07.2019
4397 Rain 2 994 98 10000 7.7 200 09:40 27.07.2019
4398 Rain 2 994 97 10000 7.7 200 09:21 27.07.2019
4399 Rain 2 993 97 10000 4.1 180 08:47 27.07.2019
4400 Rain 2 993 97 10000 4.1 180 08:26 27.07.2019
4401 Clouds 3 993 69 10000 7.2 230 07:45 27.07.2019
4402 Clouds 3 993 69 10000 7.2 230 07:27 27.07.2019
4403 Clouds 4 991 55 10000 7.2 290 06:55 27.07.2019
4404 Clouds 4 991 55 10000 7.2 290 06:28 27.07.2019
4405 Rain 3 990 51 10000 14.9 320 05:43 27.07.2019
4406 Clouds 3 994 64 10000 6.7 320 04:59 27.07.2019
4407 Clouds 3 994 64 10000 6.7 320 04:21 27.07.2019
4408 Clouds 2 996 80 10000 2.6 230 02:44 27.07.2019
4409 Clouds 2 996 80 10000 2.6 230 02:25 27.07.2019
4410 Rain 1 995 87 10000 11.3 230 01:42 27.07.2019
4411 Rain 1 994 90 10000 7.7 270 00:57 27.07.2019
4412 Rain 1 994 90 10000 7.7 270 00:32 27.07.2019
4413 Snow 2 993 81 7000 10.3 230 23:51 26.07.2019
4414 Snow 2 991 80 1000 17 230 23:32 26.07.2019
4415 Drizzle 2 990 80 10000 8.7 230 22:46 26.07.2019
4416 Drizzle 2 990 80 10000 8.7 230 22:27 26.07.2019
4417 Drizzle 4 988 60 10000 15.4 320 21:59 26.07.2019
4418 Drizzle 4 988 60 10000 15.4 320 21:37 26.07.2019
4419 Drizzle 5 988 60 10000 15.4 320 21:18 26.07.2019
4420 Clouds 6 988 56 10000 12.3 270 20:42 26.07.2019
4421 Clouds 6 988 56 10000 12.3 270 20:22 26.07.2019
4422 Clear 6 990 56 10000 3.1 180 19:43 26.07.2019
4423 Clear 6 990 56 10000 3.1 180 19:24 26.07.2019
4424 Clear 5 992 56 10000 7.2 320 18:56 26.07.2019
4425 Clear 5 992 56 10000 7.2 320 18:36 26.07.2019
4426 Clear 5 992 56 10000 7.2 320 18:18 26.07.2019
4427 Clouds 4 993 86 10000 2.51 340.952 17:42 26.07.2019
4428 Clouds 4 993 86 10000 2.51 340.952 17:19 26.07.2019
4429 Clouds 4 993 74 10000 2.51 340.952 16:56 26.07.2019
4430 Clouds 4 993 74 10000 2.51 340.952 16:56 26.07.2019
4431 Clouds 4 993 74 10000 2.51 340.952 16:38 26.07.2019
4432 Clouds 4 993 74 10000 2.51 340.952 16:19 26.07.2019
4433 Clouds 4 993 86 10000 5.1 230 15:45 26.07.2019
4434 Clouds 4 993 86 10000 5.1 230 15:27 26.07.2019
4435 Rain 3 992 93 5000 7.2 230 14:59 26.07.2019
4436 Rain 3 992 93 5000 7.2 230 14:41 26.07.2019
4437 Rain 3 992 93 5000 7.2 230 14:21 26.07.2019
4438 Clouds 5 991 56 10000 4.6 320 13:40 26.07.2019
4439 Clouds 5 991 56 10000 4.6 320 13:22 26.07.2019
4440 Clouds 6 991 48 10000 3.6 320 12:48 26.07.2019
4441 Clouds 6 991 48 10000 3.6 320 12:20 26.07.2019
4442 Clouds 6 991 56 10000 8.2 320 11:40 26.07.2019
4443 Clouds 6 991 56 10000 8.2 320 11:21 26.07.2019
4444 Clouds 6 991 94 10000 2.6 320 10:58 26.07.2019
4445 Clouds 6 991 94 10000 2.6 320 10:38 26.07.2019
4446 Clouds 5 992 94 10000 5.1 320 09:59 26.07.2019
4447 Clouds 5 992 94 10000 5.1 320 09:41 26.07.2019
4448 Clouds 5 992 94 10000 5.1 320 09:21 26.07.2019
4449 Clouds 5 992 75 10000 4.6 320 08:40 26.07.2019
4450 Clouds 5 992 75 10000 4.6 320 08:20 26.07.2019
4451 Clouds 5 992 80 10000 2.1 270 07:36 26.07.2019
4452 Clouds 5 993 75 10000 2.1 230 06:58 26.07.2019
4453 Clouds 5 992 95 10000 1.5 320 05:23 26.07.2019
4454 Clouds 6 992 95 10000 2.1 230 04:29 26.07.2019
4455 Clouds 5 992 75 10000 2.6 90 03:44 26.07.2019
4456 Clouds 7 991 94 10000 7.2 230 01:45 26.07.2019
4457 Clouds 7 991 75 10000 4.1 50 00:50 26.07.2019
4458 Clouds 7 991 75 10000 4.1 50 00:25 26.07.2019
4459 Clouds 8 990 65 10000 6.2 320 23:40 25.07.2019
4460 Clouds 9 990 65 10000 6.2 320 23:19 25.07.2019
4461 Clear 9 989 65 10000 2.1 230 22:41 25.07.2019
4462 Clear 9 989 65 10000 2.1 230 22:21 25.07.2019
4463 Clear 7 989 70 10000 4.1 90 21:47 25.07.2019
4464 Clear 7 989 70 10000 4.1 90 21:23 25.07.2019
4465 Clear 7 989 70 10000 2.1 230 20:49 25.07.2019
4466 Clear 7 989 70 10000 2.1 230 20:31 25.07.2019
4467 Clouds 8 990 57 10000 2.6 230 19:57 25.07.2019
4468 Clouds 8 990 57 10000 2.6 230 19:39 25.07.2019
4469 Clouds 8 990 57 10000 2.6 230 19:21 25.07.2019
4470 Clouds 7 992 61 10000 2.6 360 18:41 25.07.2019
4471 Clouds 7 992 61 10000 2.6 360 18:22 25.07.2019
4472 Clouds 7 992 61 10000 2.38 355.196 17:48 25.07.2019
4473 Clouds 7 992 61 10000 2.38 355.196 17:30 25.07.2019
4474 Clouds 6 994 97 10000 2.38 355.196 16:56 25.07.2019
4475 Clouds 6 994 97 10000 2.38 355.196 16:37 25.07.2019
4476 Clouds 6 994 97 10000 2.38 355.196 16:19 25.07.2019
4477 Clouds 6 994 49 10000 4.6 320 15:43 25.07.2019
4478 Clouds 6 994 49 10000 4.6 320 15:19 25.07.2019
4479 Clouds 7 996 49 10000 4.6 360 14:42 25.07.2019
4480 Clouds 7 996 49 10000 4.6 360 14:23 25.07.2019
4481 Clouds 9 997 97 10000 2.1 230 13:55 25.07.2019
4482 Clouds 9 997 97 10000 2.1 230 13:36 25.07.2019
4483 Clouds 9 997 97 10000 2.1 230 13:18 25.07.2019
4484 Clouds 10 998 97 10000 4.6 360 12:30 25.07.2019
4485 Clouds 9 998 95 10000 7.7 360 11:47 25.07.2019
4486 Clouds 9 998 95 10000 7.7 360 11:26 25.07.2019
4487 Clouds 9 999 95 10000 7.7 360 10:59 25.07.2019
4488 Clouds 9 999 95 10000 7.7 360 10:40 25.07.2019
4489 Clouds 9 999 95 10000 7.7 360 10:22 25.07.2019
4490 Clouds 9 1000 57 10000 2.6 70 09:44 25.07.2019
4491 Clouds 6 1000 57 10000 2.6 70 09:25 25.07.2019
4492 Clouds 6 1001 57 10000 5.1 290 08:44 25.07.2019
4493 Clouds 6 1001 57 10000 5.1 290 08:20 25.07.2019
4494 Clouds 3 1002 86 10000 7.7 360 07:36 25.07.2019
4495 Clouds 4 1002 86 10000 2.12 306.61 06:43 25.07.2019
4496 Clouds 3 1003 86 10000 2.1 50 05:48 25.07.2019
4497 Clouds 3 1003 86 10000 2.1 50 05:30 25.07.2019
4498 Clouds 3 1003 86 10000 2.6 70 04:38 25.07.2019
4499 Clear 3 1005 95 10000 1.5 320 01:48 25.07.2019
4500 Clear 2 1005 95 10000 1.5 320 01:20 25.07.2019
4501 Clear 2 1005 92 10000 1.5 50 00:20 25.07.2019
4502 Clear 2 1005 80 10000 2.1 90 23:50 24.07.2019
4503 Clear 2 1005 80 10000 2.1 90 23:31 24.07.2019
4504 Clear 3 1006 80 10000 2.6 90 22:58 24.07.2019
4505 Clear 3 1006 80 10000 2.6 90 22:39 24.07.2019
4506 Clear 3 1006 80 10000 2.6 90 22:20 24.07.2019
4507 Clear 4 1006 69 10000 3.11 344.209 21:43 24.07.2019
4508 Clear 4 1006 69 10000 3.71 342.571 21:22 24.07.2019
4509 Clear 5 1006 65 10000 1.5 270 20:58 24.07.2019
4510 Clear 5 1006 65 10000 1.5 270 20:38 24.07.2019
4511 Clear 5 1006 65 10000 1.5 270 20:20 24.07.2019
4512 Clear 4 1006 64 10000 4.1 140 19:54 24.07.2019
4513 Clear 4 1006 64 10000 4.1 140 19:36 24.07.2019
4514 Clear 4 1006 64 10000 4.1 140 19:18 24.07.2019
4515 Clouds 4 1006 80 10000 1.5 140 18:40 24.07.2019
4516 Clouds 4 1006 80 10000 1.5 140 18:22 24.07.2019
4517 Clouds 3 1006 74 10000 2.1 360 17:42 24.07.2019
4518 Clouds 3 1006 74 10000 2.1 360 17:20 24.07.2019
4519 Clouds 3 1006 64 10000 6.2 180 16:42 24.07.2019
4520 Clouds 3 1006 64 10000 6.2 180 16:22 24.07.2019
4521 Clouds 2 1008 64 10000 4.1 90 15:41 24.07.2019
4522 Clouds 2 1008 64 10000 4.1 90 15:23 24.07.2019
4523 Clouds 1 1008 64 10000 3.6 320 14:57 24.07.2019
4524 Clouds 1 1008 64 10000 3.6 320 14:38 24.07.2019
4525 Clouds 1 1008 64 10000 3.6 320 14:38 24.07.2019
4526 Clouds 1 1008 64 10000 3.6 320 14:19 24.07.2019
4527 Clouds 1 1009 74 10000 3.6 360 13:37 24.07.2019
4528 Clouds 1 1009 74 10000 3.6 360 13:18 24.07.2019
4529 Clouds 0 1010 90 10000 1.5 360 12:50 24.07.2019
4530 Clouds 0 1010 90 10000 1.5 360 12:30 24.07.2019
4531 Clear -2 1011 86 10000 2.6 360 11:40 24.07.2019
4532 Clear -2 1011 86 10000 2.6 360 11:20 24.07.2019
4533 Clear -4 1011 79 10000 2.1 230 10:44 24.07.2019
4534 Clear -4 1011 79 10000 2.1 230 10:25 24.07.2019
4535 Clear -3 1012 79 10000 2.6 340 09:48 24.07.2019
4536 Clear -3 1012 79 10000 2.6 340 09:25 24.07.2019
4537 Clear -4 1013 85 10000 2.66 354.694 08:58 24.07.2019
4538 Clouds -7 1013 88 0 2.81 349.706 08:32 24.07.2019
4539 Clouds -7 1013 88 0 2.81 349.706 07:52 24.07.2019
4540 Clear -3 1015 86 10000 2.1 360 07:24 24.07.2019
4541 Clear -3 1015 86 10000 2.1 360 06:33 24.07.2019
4542 Clouds -2 1016 86 10000 4.1 320 05:54 24.07.2019
4543 Clouds 0 1016 90 10000 5.1 290 02:54 24.07.2019
4544 Clouds 1 1016 74 10000 6.2 230 01:31 24.07.2019
4545 Clouds 1 1015 74 10000 8.2 230 00:57 24.07.2019
4546 Clouds 1 1015 74 10000 8.2 230 00:23 24.07.2019
4547 Rain 1 1014 80 10000 10.3 230 23:45 23.07.2019
4548 Rain 2 1014 80 10000 10.3 230 23:25 23.07.2019
4549 Rain 2 1014 80 10000 10.3 230 22:55 23.07.2019
4550 Rain 2 1013 74 10000 12.9 230 22:36 23.07.2019
4551 Rain 2 1013 74 10000 12.9 230 22:18 23.07.2019
4552 Rain 2 1012 74 10000 15.4 230 21:42 23.07.2019
4553 Rain 2 1012 74 10000 15.4 230 21:23 23.07.2019
4554 Rain 2 1011 74 10000 13.4 230 20:48 23.07.2019
4555 Rain 2 1011 74 10000 13.4 230 20:27 23.07.2019
4556 Rain 1 1011 74 10000 10.3 230 19:43 23.07.2019
4557 Rain 1 1011 74 10000 10.3 230 19:24 23.07.2019
4558 Clouds 2 1011 69 10000 8.7 230 18:53 23.07.2019
4559 Clouds 2 1011 69 10000 8.7 230 18:25 23.07.2019
4560 Snow 1 1010 74 10000 5.7 230 17:58 23.07.2019
4561 Snow 1 1010 74 10000 5.7 230 17:40 23.07.2019
4562 Snow 1 1010 74 10000 5.7 230 17:20 23.07.2019
4563 Snow 1 1009 74 10000 7.2 230 16:41 23.07.2019
4564 Snow 1 1009 74 10000 7.2 230 16:22 23.07.2019
4565 Clouds 1 1008 80 10000 9.3 180 15:47 23.07.2019
4566 Clouds 1 1008 80 10000 9.3 180 15:27 23.07.2019
4567 Snow 0 1007 95 10000 9.3 230 14:41 23.07.2019
4568 Snow 0 1007 95 10000 9.3 230 14:22 23.07.2019
4569 Snow -1 1005 92 3000 14.4 230 13:59 23.07.2019
4570 Snow -1 1005 92 3000 14.4 230 13:40 23.07.2019
4571 Snow -1 1005 92 3000 14.4 230 13:22 23.07.2019
4572 Snow 0 1003 91 2000 17.5 230 12:49 23.07.2019
4573 Snow 0 1003 91 2000 17.5 230 12:27 23.07.2019
4574 Rain 0 1001 97 10000 15.9 230 11:55 23.07.2019
4575 Rain 0 1001 97 10000 15.9 230 11:37 23.07.2019
4576 Rain 0 1001 97 10000 15.9 230 11:18 23.07.2019
4577 Snow 1 1000 97 8000 16.5 230 10:41 23.07.2019
4578 Snow 1 1000 97 8000 16.5 230 10:21 23.07.2019
4579 Snow 0 1000 97 500 12.9 230 09:41 23.07.2019
4580 Snow 0 1000 96 500 12.9 230 09:20 23.07.2019
4581 Snow 0 999 96 5000 10.3 230 08:43 23.07.2019
4582 Snow 0 999 96 5000 10.3 230 08:20 23.07.2019
4583 Snow 0 999 96 5000 10.3 230 08:20 23.07.2019
4584 Snow 0 999 96 5000 10.3 230 08:20 23.07.2019
4585 Snow 0 998 96 5000 8.7 230 07:55 23.07.2019
4586 Snow 0 998 96 5000 8.7 230 07:36 23.07.2019
4587 Snow 0 998 96 5000 8.7 230 07:36 23.07.2019
4588 Snow 0 997 96 5000 6.2 230 06:50 23.07.2019
4589 Snow 0 997 96 5000 6.2 230 06:30 23.07.2019
4590 Snow 0 994 97 6000 1.5 230 03:39 23.07.2019
4591 Drizzle 1 993 80 10000 4.6 230 01:34 23.07.2019
4592 Rain 1 992 80 10000 2.6 230 00:31 23.07.2019
4593 Clouds 1 992 80 9000 7.7 230 23:56 22.07.2019
4594 Clouds 1 992 80 10000 2.6 230 23:38 22.07.2019
4595 Rain 2 992 80 10000 2.6 230 23:18 22.07.2019
4596 Snow 2 992 97 10000 4.6 230 22:44 22.07.2019
4597 Snow 2 992 97 10000 4.6 230 22:22 22.07.2019
4598 Snow 2 992 97 10000 2.6 270 21:44 22.07.2019
4599 Snow 2 992 96 10000 2.6 270 21:23 22.07.2019
4600 Snow 3 992 100 2000 10.3 230 20:53 22.07.2019
4601 Snow 3 992 100 2000 10.3 230 20:33 22.07.2019
4602 Drizzle 3 991 95 10000 10.3 230 19:58 22.07.2019
4603 Drizzle 3 991 95 10000 10.3 230 19:40 22.07.2019
4604 Drizzle 3 991 95 10000 10.3 230 19:40 22.07.2019
4605 Drizzle 4 991 95 10000 10.3 230 19:21 22.07.2019
4606 Clouds 4 991 95 10000 3.1 270 18:48 22.07.2019
4607 Clouds 4 991 95 10000 3.1 270 18:28 22.07.2019
4608 Rain 3 992 69 10000 2.1 320 17:59 22.07.2019
4609 Rain 3 992 69 10000 2.1 320 17:38 22.07.2019
4610 Rain 3 992 69 10000 2.1 320 17:20 22.07.2019
4611 Rain 2 992 69 10000 3.1 230 16:40 22.07.2019
4612 Rain 2 992 69 10000 3.1 230 16:21 22.07.2019
4613 Rain 2 992 86 10000 2.1 140 15:46 22.07.2019
4614 Rain 2 992 86 10000 2.1 140 15:21 22.07.2019
4615 Clouds 1 992 97 10000 2.6 290 14:59 22.07.2019
4616 Clouds 1 992 97 10000 2.6 290 14:40 22.07.2019
4617 Clouds 1 992 97 10000 2.6 290 14:18 22.07.2019
4618 Clouds 0 992 97 10000 2.6 270 13:40 22.07.2019
4619 Clouds 0 992 97 10000 2.6 270 13:22 22.07.2019
4620 Clouds 1 992 74 10000 2.62 306.162 12:36 22.07.2019
4621 Clouds 0 992 95 10000 2.1 270 11:59 22.07.2019
4622 Clouds 0 992 95 10000 2.1 270 11:41 22.07.2019
4623 Clouds 0 992 95 10000 2.1 270 11:20 22.07.2019
4624 Clouds 1 992 69 10000 1.5 290 10:41 22.07.2019
4625 Clouds 1 992 69 10000 1.5 290 10:23 22.07.2019
4626 Clouds 1 992 74 10000 2.1 270 09:42 22.07.2019
4627 Clouds 1 992 74 10000 2.1 270 09:22 22.07.2019
4628 Clouds 1 992 69 10000 3.1 340 08:44 22.07.2019
4629 Clouds 1 992 69 10000 3.1 340 08:24 22.07.2019
4630 Clouds 1 992 74 10000 4.1 270 07:54 22.07.2019
4631 Clouds 1 992 74 10000 4.1 270 07:31 22.07.2019
4632 Clouds 1 992 69 10000 4.1 270 06:42 22.07.2019
4633 Clouds 2 992 74 10000 4.6 270 03:50 22.07.2019
4634 Clouds 2 991 74 10000 10.8 230 01:51 22.07.2019
4635 Clouds 2 991 80 10000 11.8 230 00:50 22.07.2019
4636 Clouds 2 991 80 10000 11.8 230 00:24 22.07.2019
4637 Drizzle 1 989 80 10000 12.3 230 23:54 21.07.2019
4638 Drizzle 1 989 80 10000 12.3 230 23:26 21.07.2019
4639 Drizzle 1 989 74 10000 11.3 230 22:41 21.07.2019
4640 Drizzle 1 989 74 10000 11.3 230 22:22 21.07.2019
4641 Snow 1 989 74 9000 2.6 270 21:57 21.07.2019
4642 Snow 1 989 74 9000 2.6 270 21:37 21.07.2019
4643 Snow 1 989 74 9000 2.6 270 21:18 21.07.2019
4644 Clouds 1 988 74 10000 7.2 230 20:44 21.07.2019
4645 Clouds 1 988 74 10000 7.2 230 20:25 21.07.2019
4646 Clouds 1 988 74 10000 7.2 230 20:25 21.07.2019
4647 Drizzle 2 988 64 10000 9.3 230 19:55 21.07.2019
4648 Drizzle 2 988 64 10000 9.3 230 19:36 21.07.2019
4649 Drizzle 2 988 64 10000 9.3 230 19:18 21.07.2019
4650 Rain 1 988 74 10000 1.78 261.232 18:44 21.07.2019
4651 Rain 1 988 74 10000 1.9 294.609 18:24 21.07.2019
4652 Rain 1 988 69 10000 2.1 340 17:42 21.07.2019
4653 Rain 1 988 69 10000 2.1 340 17:20 21.07.2019
4654 Clouds 0 988 95 10000 4.6 340 16:45 21.07.2019
4655 Clouds 0 988 95 10000 4.6 340 16:25 21.07.2019
4656 Clouds 1 987 64 10000 4.6 270 15:54 21.07.2019
4657 Clouds 1 987 64 10000 4.6 270 15:36 21.07.2019
4658 Clouds 1 987 64 10000 4.6 270 15:18 21.07.2019
4659 Clear 1 987 64 10000 1.26 301.361 14:41 21.07.2019
4660 Clear 1 987 64 10000 1.26 301.361 14:20 21.07.2019
4661 Clear 1 986 64 10000 3.1 270 13:44 21.07.2019
4662 Clear 1 986 64 10000 3.1 270 13:25 21.07.2019
4663 Clear 1 986 64 10000 3.6 340 12:42 21.07.2019
4664 Clear 1 986 64 10000 3.6 340 12:24 21.07.2019
4665 Clear -1 986 74 10000 3.6 360 11:47 21.07.2019
4666 Clear -1 986 74 10000 3.6 360 11:28 21.07.2019
4667 Clear -1 985 74 10000 3.6 360 10:55 21.07.2019
4668 Clear -1 985 74 10000 3.6 360 10:37 21.07.2019
4669 Clear -1 985 74 10000 3.6 360 10:18 21.07.2019
4670 Clear -1 985 80 10000 3.6 360 09:37 21.07.2019
4671 Clear -1 985 80 10000 3.6 360 09:19 21.07.2019
4672 Clear -1 985 74 10000 1.38 235.481 08:40 21.07.2019
4673 Clear -1 985 74 10000 1.38 235.481 08:22 21.07.2019
4674 Clear 0 984 80 10000 2.6 320 07:32 21.07.2019
4675 Clear 0 984 80 10000 3.1 320 06:42 21.07.2019
4676 Clear 1 983 69 10000 2.6 270 04:23 21.07.2019
4677 Clear 1 983 74 10000 4.1 320 02:20 21.07.2019
4678 Clear 2 982 64 10000 6.2 360 00:51 21.07.2019
4679 Clear 2 982 64 10000 6.2 360 00:24 21.07.2019
4680 Clear 2 982 64 10000 5.1 360 23:57 20.07.2019
4681 Clear 2 982 64 10000 5.1 360 23:37 20.07.2019
4682 Clear 2 982 64 10000 5.1 360 23:18 20.07.2019
4683 Clear 2 982 64 10000 5.1 360 23:18 20.07.2019
4684 Clear 2 982 59 10000 6.7 360 22:42 20.07.2019
4685 Clear 2 982 59 10000 6.7 360 22:20 20.07.2019
4686 Clouds 3 982 47 10000 7.2 360 21:44 20.07.2019
4687 Clouds 3 982 47 10000 7.2 360 21:24 20.07.2019
4688 Clouds 4 982 60 10000 6.2 360 20:44 20.07.2019
4689 Clouds 4 982 60 10000 6.2 360 20:23 20.07.2019
4690 Clouds 3 983 59 10000 1.5 270 19:59 20.07.2019
4691 Clouds 3 983 59 10000 1.5 270 19:38 20.07.2019
4692 Clouds 2 983 59 10000 1.5 270 19:19 20.07.2019
4693 Clouds 2 983 64 10000 2.1 353.068 18:40 20.07.2019
4694 Clouds 2 983 64 10000 2.05 344.762 18:19 20.07.2019
4695 Clear 2 984 69 10000 2.1 340 17:48 20.07.2019
4696 Clear 2 984 69 10000 2.1 340 17:20 20.07.2019
4697 Clear 0 984 74 10000 2.05 344.762 16:43 20.07.2019
4698 Clear 0 984 74 10000 2.05 344.762 16:24 20.07.2019
4699 Clear -2 984 87 10000 2.05 344.762 15:56 20.07.2019
4700 Clear -2 984 87 10000 2.05 344.762 15:37 20.07.2019
4701 Clear -2 984 93 10000 2.08 326.432 15:18 20.07.2019
4702 Clear -1 984 93 10000 2.1 340 14:43 20.07.2019
4703 Clear -1 984 93 10000 2.1 340 14:20 20.07.2019
4704 Clear 0 984 93 10000 4.1 320 13:38 20.07.2019
4705 Clear 0 984 94 10000 4.1 320 13:19 20.07.2019
4706 Clear 1 984 69 10000 1.5 270 12:52 20.07.2019
4707 Clear 1 984 69 10000 1.5 270 12:20 20.07.2019
4708 Clouds 1 983 80 10000 3.6 340 11:52 20.07.2019
4709 Clouds 1 983 80 10000 3.6 340 11:23 20.07.2019
4710 Clear 1 983 74 10000 1.8 335.921 10:55 20.07.2019
4711 Clear 1 983 74 10000 1.8 335.921 10:26 20.07.2019
4712 Clear 2 983 69 10000 2.1 360 09:55 20.07.2019
4713 Clear 2 983 69 10000 2.1 360 09:37 20.07.2019
4714 Clear 2 983 69 10000 2.1 360 09:18 20.07.2019
4715 Clear 2 983 69 10000 2.1 360 09:18 20.07.2019
4716 Clouds 1 983 80 10000 3.6 340 08:39 20.07.2019
4717 Clouds 1 983 80 10000 3.6 340 08:19 20.07.2019
4718 Clouds 1 983 74 10000 3.6 360 07:18 20.07.2019
4719 Clouds 3 983 64 10000 3.6 340 06:35 20.07.2019
4720 Clouds 3 982 64 10000 4.1 270 04:31 20.07.2019
4721 Clouds 3 981 64 10000 1.5 290 02:38 20.07.2019
4722 Clouds 3 980 64 10000 1.5 360 01:21 20.07.2019
4723 Clouds 4 980 55 10000 3.6 320 00:46 20.07.2019
4724 Clouds 4 980 55 10000 3.6 320 00:18 20.07.2019
4725 Clouds 4 980 55 10000 3.6 320 00:18 20.07.2019
4726 Clouds 4 979 64 10000 5.1 320 23:43 19.07.2019
4727 Clouds 3 979 64 10000 5.1 320 23:24 19.07.2019
4728 Clouds 3 978 60 10000 6.2 340 22:45 19.07.2019
4729 Clouds 3 978 60 10000 6.2 340 22:26 19.07.2019
4730 Clouds 5 978 60 10000 7.7 360 21:49 19.07.2019
4731 Clouds 5 978 60 10000 7.7 360 21:31 19.07.2019
4732 Clouds 4 978 56 10000 9.3 340 20:58 19.07.2019
4733 Clouds 4 978 56 10000 9.3 340 20:37 19.07.2019
4734 Clouds 4 978 56 10000 9.3 340 20:18 19.07.2019
4735 Clouds 5 978 64 10000 4.1 320 19:35 19.07.2019
4736 Clouds 5 977 80 10000 3.1 340 18:43 19.07.2019
4737 Clouds 5 977 80 10000 3.1 340 18:23 19.07.2019
4738 Clouds 3 977 69 10000 2.93 335.92 17:55 19.07.2019
4739 Clouds 3 977 69 10000 2.93 335.92 17:29 19.07.2019
4740 Clouds 2 977 74 10000 3.6 140 16:50 19.07.2019
4741 Clouds 2 977 80 10000 2.6 120 16:29 19.07.2019
4742 Clouds 1 976 74 10000 2.6 180 15:56 19.07.2019
4743 Clouds 1 976 74 10000 2.6 180 15:38 19.07.2019
4744 Clouds 1 976 74 10000 2.6 180 15:20 19.07.2019
4745 Clouds 1 1097 74 10000 1.5 340 14:44 19.07.2019
4746 Clouds 1 1097 74 10000 1.5 340 14:25 19.07.2019
4747 Clouds 1 976 86 10000 3.03 320.025 13:46 19.07.2019
4748 Clouds 1 976 86 10000 2.94 335.154 13:27 19.07.2019
4749 Clouds 1 976 89 10000 3.6 290 12:57 19.07.2019
4750 Clouds 1 976 89 10000 3.6 290 12:37 19.07.2019
4751 Clouds 1 976 96 10000 3.6 290 12:19 19.07.2019
4752 Clouds 1 976 96 10000 6.7 20 11:44 19.07.2019
4753 Clouds 1 976 96 10000 6.7 20 11:18 19.07.2019
4754 Clouds 1 977 96 10000 2.42 330.19 10:48 19.07.2019
4755 Clouds 1 977 96 10000 2.42 330.19 10:23 19.07.2019
4756 Clouds 1 978 96 10000 2.42 330.19 09:59 19.07.2019
4757 Clouds 1 978 96 10000 2.42 330.19 09:41 19.07.2019
4758 Clouds 1 978 96 10000 1.92 349.076 09:22 19.07.2019
4759 Rain 1 978 95 10000 2.1 290 08:49 19.07.2019
4760 Rain 1 978 95 10000 2.1 290 08:22 19.07.2019
4761 Rain 2 979 95 10000 2.44 355.071 07:29 19.07.2019
4762 Rain 2 979 97 10000 4.1 110 06:26 19.07.2019
4763 Rain 5 982 44 10000 6.2 360 02:56 19.07.2019
4764 Clouds 2 983 41 10000 5.1 20 01:21 19.07.2019
4765 Clear 3 985 44 10000 8.7 340 00:46 19.07.2019
4766 Clear 2 986 69 10000 2.6 270 23:59 18.07.2019
4767 Clear 2 986 69 10000 2.6 270 23:40 18.07.2019
4768 Clear 2 986 69 10000 2.6 270 23:22 18.07.2019
4769 Clear 2 986 100 10000 8.2 360 22:41 18.07.2019
4770 Clear 2 986 100 10000 8.2 360 22:20 18.07.2019
4771 Clear 3 988 74 10000 2.6 230 21:52 18.07.2019
4772 Clear 3 988 74 10000 2.6 230 21:34 18.07.2019
4773 Clear 4 989 74 10000 2.86 5.902 20:57 18.07.2019
4774 Clear 4 989 74 10000 2.86 5.902 20:38 18.07.2019
4775 Clear 4 989 74 10000 2.86 5.902 20:18 18.07.2019
4776 Clear 4 990 69 10000 3.6 360 19:46 18.07.2019
4777 Clear 4 990 69 10000 3.6 360 19:21 18.07.2019
4778 Clear 4 992 69 10000 1.5 360 18:49 18.07.2019
4779 Clear 4 992 69 10000 1.5 360 18:21 18.07.2019
4780 Clear 3 993 74 10000 2.6 360 17:45 18.07.2019
4781 Clear 3 993 74 10000 2.6 360 17:45 18.07.2019
4782 Clear 3 993 74 10000 2.6 360 17:45 18.07.2019
4783 Clear 3 993 74 10000 2.6 360 17:26 18.07.2019
4784 Clear 1 994 90 10000 2.6 320 16:58 18.07.2019
4785 Clear 1 994 90 10000 2.6 320 16:40 18.07.2019
4786 Clear 1 994 90 10000 2.6 320 16:21 18.07.2019
4787 Clear -1 994 86 10000 3.1 320 15:55 18.07.2019
4788 Clear -1 994 86 10000 3.1 320 15:35 18.07.2019
4789 Clear 1 994 74 10000 4.1 20 14:55 18.07.2019
4790 Clear 1 994 74 10000 4.1 20 14:37 18.07.2019
4791 Clear 3 995 69 10000 3.1 20 13:54 18.07.2019
4792 Clear 3 995 69 10000 3.1 20 13:36 18.07.2019
4793 Clear 3 995 69 10000 1.5 160 13:18 18.07.2019
4794 Clear 3 995 69 10000 1.5 160 12:42 18.07.2019
4795 Clouds 4 995 69 10000 1.5 90 12:18 18.07.2019
4796 Clouds 4 995 69 10000 1.5 90 11:48 18.07.2019
4797 Clouds 4 995 69 10000 1.5 90 11:27 18.07.2019
4798 Clouds 4 995 64 10000 1.63 309.171 10:52 18.07.2019
4799 Clouds 4 995 60 10000 3.1 360 09:52 18.07.2019
4800 Clouds 4 995 60 10000 3.1 360 09:27 18.07.2019
4801 Clouds 4 995 60 10000 3.6 360 08:59 18.07.2019
4802 Clouds 4 995 60 10000 3.6 360 08:41 18.07.2019
4803 Clouds 5 996 56 10000 6.2 320 08:18 18.07.2019
4804 Clouds 5 996 56 10000 6.2 320 07:37 18.07.2019
4805 Clouds 6 996 41 10000 4.6 320 06:58 18.07.2019
4806 Clouds 6 996 41 10000 4.6 320 06:33 18.07.2019
4807 Clouds 5 996 52 10000 6.7 360 04:19 18.07.2019
4808 Clouds 5 996 52 10000 7.7 360 02:52 18.07.2019
4809 Clouds 5 997 48 10000 7.2 360 01:37 18.07.2019
4810 Clouds 4 997 41 10000 6.2 320 00:24 18.07.2019
4811 Clouds 4 997 41 10000 6.2 320 23:49 17.07.2019
4812 Clouds 5 997 41 10000 6.2 320 23:18 17.07.2019
4813 Clouds 5 997 44 10000 7.7 340 22:43 17.07.2019
4814 Clouds 5 997 44 10000 7.7 340 22:23 17.07.2019
4815 Clouds 5 998 35 10000 6.2 320 21:58 17.07.2019
4816 Clouds 5 998 35 10000 6.2 320 21:39 17.07.2019
4817 Clear 5 998 41 10000 6.2 320 21:20 17.07.2019
4818 Clear 5 998 41 10000 6.2 320 20:56 17.07.2019
4819 Clear 5 998 41 10000 6.2 320 20:38 17.07.2019
4820 Clear 5 999 41 10000 4.1 340 20:20 17.07.2019
4821 Clear 5 999 41 10000 4.1 340 19:42 17.07.2019
4822 Clear 5 999 41 10000 4.1 340 19:21 17.07.2019
4823 Clear 5 1000 45 10000 6.2 340 18:56 17.07.2019
4824 Clear 5 1000 45 10000 6.2 340 18:37 17.07.2019
4825 Clear 4 1000 60 10000 9.3 340 18:18 17.07.2019
4826 Clear 4 1000 60 10000 9.3 340 17:43 17.07.2019
4827 Clear 4 1000 60 10000 9.3 340 17:22 17.07.2019
4828 Clouds 5 1000 60 10000 5.7 340 16:42 17.07.2019
4829 Clouds 5 1000 60 10000 5.7 340 16:22 17.07.2019
4830 Clouds 3 1000 64 10000 3.33 350.656 15:51 17.07.2019
4831 Clouds 1 1000 64 10000 3.33 350.656 15:31 17.07.2019
4832 Clouds 1 1001 64 10000 2.65 337.089 14:57 17.07.2019
4833 Clouds 1 1001 64 10000 2.65 337.089 14:39 17.07.2019
4834 Clouds 1 1001 64 10000 2.65 337.089 14:21 17.07.2019
4835 Clouds 1 1001 64 10000 2.65 337.089 14:20 17.07.2019
4836 Clear 2 1001 64 10000 2.65 337.089 13:51 17.07.2019
4837 Clear 2 1001 64 10000 2.64 344.025 13:31 17.07.2019
4838 Clear 2 1001 64 10000 2.64 344.025 13:00 17.07.2019
4839 Clear 2 1001 64 10000 2.64 344.025 12:38 17.07.2019
4840 Clouds 3 1001 64 10000 2.24 334.558 12:19 17.07.2019
4841 Clouds 3 1001 64 10000 2.24 334.558 11:41 17.07.2019
4842 Clear 3 1002 64 10000 2.24 334.558 11:19 17.07.2019
4843 Clear 3 1002 64 10000 2.24 334.558 10:48 17.07.2019
4844 Clear 3 1002 64 10000 2.24 334.558 10:24 17.07.2019
4845 Clear 3 1002 64 10000 2.24 334.558 09:45 17.07.2019
4846 Clear 3 1002 64 10000 2.24 334.558 09:27 17.07.2019
4847 Clear 3 1002 59 10000 2.1 360 08:45 17.07.2019
4848 Clear 3 1002 59 10000 2.1 360 08:24 17.07.2019
4849 Clouds 2 1002 69 10000 4.6 340 07:59 17.07.2019
4850 Clouds 2 1002 69 10000 4.6 340 07:41 17.07.2019
4851 Clouds 2 1002 69 10000 4.6 340 07:21 17.07.2019
4852 Clear 2 1002 74 10000 3.6 360 06:45 17.07.2019
4853 Clear 2 1002 74 10000 3.6 360 06:45 17.07.2019
4854 Clear 2 1002 74 10000 3.6 360 06:45 17.07.2019
4855 Clear 2 1002 74 10000 3.6 360 06:25 17.07.2019
4856 Clouds 3 1001 64 10000 2.6 270 05:39 17.07.2019
4857 Clouds 4 1001 69 10000 8.2 230 04:59 17.07.2019
4858 Clouds 4 1000 69 10000 10.8 230 03:57 17.07.2019
4859 Clouds 4 999 93 10000 11.8 230 02:44 17.07.2019
4860 Clouds 4 998 80 10000 10.8 230 01:42 17.07.2019
4861 Clouds 4 998 80 10000 10.8 230 01:22 17.07.2019
4862 Clouds 4 997 80 10000 12.9 230 00:42 17.07.2019
4863 Clouds 4 997 80 10000 12.9 230 00:22 17.07.2019
4864 -273 0 0 0 0 0 23:46 16.07.2019
4865 Clouds 4 996 80 10000 11.3 230 23:25 16.07.2019
4866 Drizzle 4 994 86 10000 10.3 230 22:57 16.07.2019
4867 Drizzle 4 994 86 10000 10.3 230 22:39 16.07.2019
4868 Drizzle 5 994 80 10000 12.9 230 22:18 16.07.2019
4869 Drizzle 5 994 80 10000 12.9 230 21:41 16.07.2019
4870 Drizzle 5 992 69 10000 15.9 230 21:20 16.07.2019
4871 Drizzle 5 992 69 10000 15.9 230 20:41 16.07.2019
4872 Drizzle 5 992 69 10000 15.9 230 20:23 16.07.2019
4873 Clouds 5 991 56 10000 12.9 230 19:55 16.07.2019
4874 Clouds 5 991 56 10000 12.9 230 19:37 16.07.2019
4875 Rain 5 991 52 10000 10.3 230 19:19 16.07.2019
4876 Rain 5 991 52 10000 10.3 230 18:44 16.07.2019
4877 Rain 5 989 69 10000 15.4 230 18:21 16.07.2019
4878 Rain 5 989 69 10000 15.4 230 17:54 16.07.2019
4879 Rain 5 989 69 10000 15.4 230 17:36 16.07.2019
4880 Rain 5 987 86 10000 16.5 230 16:53 16.07.2019
4881 Rain 5 987 86 10000 16.5 230 16:28 16.07.2019
4882 Drizzle 5 986 93 10000 15.4 230 15:58 16.07.2019
4883 Drizzle 5 986 93 10000 15.4 230 15:39 16.07.2019
4884 Drizzle 4 986 93 10000 15.4 230 15:20 16.07.2019
4885 Drizzle 5 984 75 10000 9.3 200 14:56 16.07.2019
4886 Drizzle 5 984 75 10000 9.3 200 14:38 16.07.2019
4887 Drizzle 4 982 80 10000 6.2 230 14:19 16.07.2019
4888 Drizzle 4 982 80 10000 6.2 230 13:44 16.07.2019
4889 Clouds 5 981 98 10000 4.1 110 13:19 16.07.2019
4890 Clouds 5 981 98 10000 4.1 110 12:44 16.07.2019
4891 Clouds 6 980 70 10000 2.1 320 12:20 16.07.2019
4892 Clouds 6 980 70 10000 2.1 320 11:55 16.07.2019
4893 Clouds 6 980 70 10000 2.1 320 11:36 16.07.2019
4894 Clouds 5 980 75 10000 5.1 320 11:18 16.07.2019
4895 Clouds 5 980 75 10000 5.1 320 10:44 16.07.2019
4896 Clouds 5 980 75 10000 5.1 320 10:20 16.07.2019
4897 Clouds 3 981 93 10000 2.1 320 09:44 16.07.2019
4898 Clouds 3 981 93 10000 2.1 320 09:21 16.07.2019
4899 Clouds 4 981 86 10000 2.6 180 08:58 16.07.2019
4900 Clouds 4 981 86 10000 2.6 180 08:40 16.07.2019
4901 Clouds 4 981 80 10000 3.6 230 08:18 16.07.2019
4902 Clouds 4 981 80 10000 3.6 230 07:40 16.07.2019
4903 Clouds 4 982 80 10000 2.28 340.081 07:18 16.07.2019
4904 Clouds 4 982 80 10000 2.28 340.081 06:43 16.07.2019
4905 Clouds 2 983 93 10000 3.1 20 05:57 16.07.2019
4906 Clouds 2 983 93 10000 3.1 20 05:31 16.07.2019
4907 Clouds 3 984 86 10000 3.6 320 04:52 16.07.2019
4908 Clouds 3 985 86 10000 5.1 360 03:44 16.07.2019
4909 Clouds 3 986 86 10000 3.1 320 02:53 16.07.2019
4910 Clouds 3 987 93 10000 3.6 270 02:28 16.07.2019
4911 Clouds 3 987 93 10000 3.6 270 01:40 16.07.2019
4912 Clouds 3 988 93 10000 2.6 270 00:39 16.07.2019
4913 Clouds 4 990 86 10000 2.6 360 00:19 16.07.2019
4914 Clouds 4 990 86 10000 2.6 360 23:42 15.07.2019
4915 Drizzle 5 990 86 10000 2.6 360 23:23 15.07.2019
4916 Drizzle 5 991 86 10000 2.1 230 22:47 15.07.2019
4917 Drizzle 5 991 86 10000 2.1 230 22:22 15.07.2019
4918 Drizzle 5 992 80 10000 3.1 230 21:57 15.07.2019
4919 Drizzle 5 992 80 10000 3.1 230 21:39 15.07.2019
4920 Drizzle 6 993 75 10000 5.1 360 21:19 15.07.2019
4921 Drizzle 6 993 75 10000 5.1 360 20:45 15.07.2019
4922 Drizzle 6 993 75 10000 5.1 360 20:24 15.07.2019
4923 Drizzle 6 994 75 10000 4.6 360 19:58 15.07.2019
4924 Clouds 6 996 75 10000 5.1 80 19:39 15.07.2019
4925 Clouds 5 998 80 10000 8.2 60 19:19 15.07.2019
4926 Clouds 5 998 80 10000 8.2 60 18:46 15.07.2019
4927 Clouds 4 998 80 10000 8.2 60 18:22 15.07.2019
4928 Clouds 5 998 80 10000 1.5 270 17:58 15.07.2019
4929 Clouds 5 998 80 10000 1.5 270 17:40 15.07.2019
4930 Clouds 5 998 80 10000 1.5 270 17:22 15.07.2019
4931 Clouds 4 999 80 10000 2.28 355.757 16:58 15.07.2019
4932 Clouds 4 999 80 10000 2.28 355.757 16:37 15.07.2019
4933 Clouds 4 1000 86 10000 1.5 230 16:18 15.07.2019
4934 Clouds 4 1000 86 10000 1.5 230 15:41 15.07.2019
4935 Clouds 4 1000 86 10000 1.5 230 15:41 15.07.2019
4936 Clouds 4 1000 86 10000 1.5 230 15:23 15.07.2019
4937 Clouds 4 1001 86 10000 1.5 250 14:59 15.07.2019
4938 Clouds 4 1001 86 10000 1.5 250 14:38 15.07.2019
4939 Clouds 4 1002 95 10000 3.6 360 14:19 15.07.2019
4940 Clouds 4 1002 95 10000 3.6 360 13:47 15.07.2019
4941 Clouds 5 1002 95 10000 1.47 18.804 13:19 15.07.2019
4942 Clouds 5 1002 95 10000 1.47 18.804 12:47 15.07.2019
4943 Clouds 5 1002 95 10000 1.47 18.804 12:27 15.07.2019
4944 Clouds 5 1003 96 10000 2.6 50 11:57 15.07.2019
4945 Clouds 5 1003 96 10000 2.6 50 11:38 15.07.2019
4946 Clouds 4 1003 96 10000 1.04 330.426 11:18 15.07.2019
4947 Clouds 4 1003 96 10000 1.04 330.426 10:40 15.07.2019
4948 Clouds 4 1003 96 10000 1.04 330.426 10:40 15.07.2019
4949 Clouds 4 1003 96 10000 1.04 330.426 10:22 15.07.2019
4950 Clouds 3 1004 93 10000 1.04 330.426 09:42 15.07.2019
4951 Clouds 3 1004 93 10000 2.01 310.385 09:22 15.07.2019
4952 Clouds 3 1004 93 10000 2.6 160 08:47 15.07.2019
4953 Clouds 3 1004 93 10000 2.6 160 08:25 15.07.2019
4954 Clouds 2 1004 93 10000 2.6 70 07:52 15.07.2019
4955 Clouds 2 1004 93 10000 2.6 70 07:32 15.07.2019
4956 Clouds 2 1004 93 10000 2.1 290 06:41 15.07.2019
4957 Clouds 3 1004 86 10000 1.5 50 06:20 15.07.2019
4958 Clouds 3 1004 86 10000 1.5 50 05:42 15.07.2019
4959 Clouds 3 1004 86 10000 2.1 50 04:46 15.07.2019
4960 Clouds 3 1004 86 10000 2.1 50 04:26 15.07.2019
4961 Clear 3 1004 94 10000 1.5 360 03:29 15.07.2019
4962 Clear 3 1004 94 10000 2.6 20 02:23 15.07.2019
4963 Clouds 3 1004 94 10000 2.1 320 01:35 15.07.2019
4964 Clouds 3 1004 94 10000 2.1 320 01:35 15.07.2019
4965 Clouds 3 1003 86 10000 1.5 320 00:54 15.07.2019
4966 Clouds 3 1003 86 10000 1.5 320 00:28 15.07.2019
4967 Clouds 5 1003 86 10000 1.84 323.87 23:59 14.07.2019
4968 Clouds 5 1003 86 10000 1.84 323.87 23:40 14.07.2019
4969 Clouds 5 1003 86 10000 1.84 323.87 23:20 14.07.2019
4970 Clouds 6 1002 75 10000 1.5 320 22:57 14.07.2019
4971 Clouds 6 1002 75 10000 1.5 320 22:38 14.07.2019
4972 Clouds 5 1002 86 10000 1.5 360 22:20 14.07.2019
4973 Clouds 5 1002 86 10000 1.5 360 21:43 14.07.2019
4974 Clouds 5 1002 86 10000 2.1 360 21:19 14.07.2019
4975 Clouds 5 1002 86 10000 2.1 360 21:19 14.07.2019
4976 Clouds 5 1002 86 10000 2.1 360 20:58 14.07.2019
4977 Clouds 5 1002 86 10000 2.1 360 20:38 14.07.2019
4978 Clouds 5 1001 86 10000 1.19 295.101 20:20 14.07.2019
4979 Clouds 5 1001 86 10000 1.19 295.101 19:47 14.07.2019
4980 Clouds 5 1001 86 10000 1.19 295.101 19:28 14.07.2019
4981 Clouds 4 1001 93 10000 1.19 295.101 18:58 14.07.2019
4982 Clouds 4 1001 93 10000 1.19 295.101 18:40 14.07.2019
4983 Clouds 4 1001 93 10000 2.6 360 18:21 14.07.2019
4984 Clouds 4 1001 93 10000 2.6 360 17:57 14.07.2019
4985 Clouds 4 1001 93 10000 2.6 360 17:23 14.07.2019
4986 Clouds 3 1000 96 10000 2.6 360 16:53 14.07.2019
4987 Clouds 3 1000 96 10000 2.6 360 16:25 14.07.2019
4988 Clouds 3 1000 93 10000 2.6 230 15:57 14.07.2019
4989 Clouds 3 1000 93 10000 2.6 230 15:37 14.07.2019
4990 Clouds 4 999 93 10000 2.1 230 14:58 14.07.2019
4991 Clouds 4 999 93 10000 2.1 230 14:37 14.07.2019
4992 Clouds 4 999 93 10000 1.04 282.619 14:19 14.07.2019
4993 Clouds 4 999 93 10000 1.04 282.619 13:45 14.07.2019
4994 Clouds 4 999 93 10000 0.93 270.738 13:22 14.07.2019
4995 Clouds 4 999 93 10000 1.5 320 12:55 14.07.2019
4996 Clouds 4 999 93 10000 1.5 320 12:36 14.07.2019
4997 Clouds 4 998 93 10000 1.5 270 12:18 14.07.2019
4998 Clouds 4 998 93 10000 1.5 270 11:43 14.07.2019
4999 Clouds 4 999 93 10000 2.1 270 11:20 14.07.2019
5000 Clouds 1 999 98 0 1.45 318.248 10:42 14.07.2019
5001 Clouds 1 999 98 0 1.45 318.248 10:20 14.07.2019
5002 Clouds 1 999 98 0 1.45 318.248 09:44 14.07.2019
5003 Drizzle 4 999 86 10000 2.1 270 09:25 14.07.2019
5004 Drizzle 4 999 86 10000 2.1 270 08:45 14.07.2019
5005 Drizzle 4 999 86 10000 2.1 270 08:22 14.07.2019
5006 Clouds 5 1000 80 10000 2.1 320 07:41 14.07.2019
5007 Clouds 5 1000 80 10000 5.7 70 06:59 14.07.2019
5008 Drizzle 5 1001 75 10000 7.2 360 05:45 14.07.2019
5009 Drizzle 5 1001 99 10000 3.6 360 03:50 14.07.2019
5010 Drizzle 5 1001 99 10000 3.6 360 03:32 14.07.2019
5011 Clouds 5 1002 75 10000 6.2 360 02:50 14.07.2019
5012 Clouds 5 1002 75 10000 6.2 360 02:22 14.07.2019
5013 Rain 5 1002 75 10000 5.7 20 01:34 14.07.2019
5014 Clouds 6 1003 70 10000 5.7 360 00:58 14.07.2019
5015 Clouds 6 1003 70 10000 5.7 360 00:39 14.07.2019
5016 Clouds 5 1003 75 10000 6.2 50 00:20 14.07.2019
5017 Clouds 5 1003 75 10000 6.2 50 23:45 13.07.2019
5018 Clouds 5 1003 75 10000 6.2 50 23:25 13.07.2019
5019 Clouds 6 1003 70 10000 4.6 360 22:56 13.07.2019
5020 Clouds 6 1003 70 10000 4.6 360 22:37 13.07.2019
5021 Clouds 6 1003 70 10000 4.6 360 22:37 13.07.2019
5022 Clouds 6 1004 70 10000 5.7 360 22:19 13.07.2019
5023 Clouds 6 1004 70 10000 5.7 360 21:42 13.07.2019
5024 Clouds 6 1004 70 10000 5.1 360 21:19 13.07.2019
5025 Clouds 6 1004 70 10000 5.1 360 21:19 13.07.2019
5026 Clouds 6 1004 70 10000 5.1 360 20:45 13.07.2019
5027 Clouds 7 1004 70 10000 5.1 360 20:26 13.07.2019
5028 Clouds 7 1005 98 10000 2.6 320 19:46 13.07.2019
5029 Clouds 7 1005 98 10000 2.6 320 19:27 13.07.2019
5030 Clouds 6 1005 56 10000 3.6 360 18:44 13.07.2019
5031 Rain 6 1006 80 10000 4.1 360 18:21 13.07.2019
5032 Rain 6 1006 80 10000 4.1 360 17:40 13.07.2019
5033 Rain 6 1006 80 10000 4.1 360 17:20 13.07.2019
5034 Rain 5 1005 80 10000 7.2 20 16:57 13.07.2019
5035 Rain 5 1005 80 10000 7.2 20 16:37 13.07.2019
5036 Rain 5 1005 80 10000 7.2 20 16:37 13.07.2019
5037 Rain 5 1006 86 10000 1.5 270 16:19 13.07.2019
5038 Rain 5 1006 86 10000 1.5 270 15:43 13.07.2019
5039 Rain 5 1006 86 10000 1.5 270 15:21 13.07.2019
5040 Drizzle 5 1006 86 10000 1.5 270 14:44 13.07.2019
5041 Drizzle 5 1006 86 10000 1.5 270 14:22 13.07.2019
5042 Clouds 1 1006 99 0 2.46 11.401 13:46 13.07.2019
5043 Clouds 4 1007 86 10000 2.63 8.965 13:24 13.07.2019
5044 Clouds 4 1007 86 10000 2.63 8.965 12:59 13.07.2019
5045 Clouds 4 1007 86 10000 2.63 8.965 12:39 13.07.2019
5046 Rain 4 1008 80 10000 2.1 270 12:20 13.07.2019
5047 Rain 4 1008 80 10000 2.1 270 11:41 13.07.2019
5048 Drizzle 4 1008 86 10000 1.5 290 11:19 13.07.2019
5049 Drizzle 4 1008 86 10000 1.5 290 10:44 13.07.2019
5050 Drizzle 4 1008 86 10000 1.5 290 10:23 13.07.2019
5051 Drizzle 4 1009 80 10000 3.6 20 09:54 13.07.2019
5052 Drizzle 4 1009 80 10000 3.6 20 09:54 13.07.2019
5053 Drizzle 4 1009 80 10000 3.6 20 09:31 13.07.2019
5054 Drizzle 4 1009 86 10000 3.6 20 08:58 13.07.2019
5055 Drizzle 4 1009 86 10000 3.6 20 08:33 13.07.2019
5056 Clouds 4 1010 80 10000 2.6 360 07:58 13.07.2019
5057 Clouds 4 1010 80 10000 2.6 360 07:30 13.07.2019
5058 Clouds 4 1011 80 10000 3.1 340 06:39 13.07.2019
5059 Clouds 4 1011 80 10000 3.1 360 05:58 13.07.2019
5060 Clouds 4 1012 80 10000 3.6 360 04:49 13.07.2019
5061 Clouds 4 1012 80 10000 3.6 360 04:22 13.07.2019
5062 Clouds 4 1012 80 10000 2.1 320 03:55 13.07.2019
5063 Clouds 4 1012 80 10000 2.1 320 03:37 13.07.2019
5064 Rain 4 1013 80 10000 3.1 340 01:55 13.07.2019
5065 Rain 4 1013 80 10000 3.1 340 01:36 13.07.2019
5066 Rain 4 1013 80 10000 2.1 360 01:18 13.07.2019
5067 Rain 4 1013 80 10000 2.1 360 01:18 13.07.2019
5068 Rain 4 1013 80 10000 2.1 360 00:46 13.07.2019
5069 Clouds 4 1014 80 10000 3.1 50 00:18 13.07.2019
5070 Clouds 4 1014 80 10000 3.1 50 23:43 12.07.2019
5071 Clouds 4 1014 80 10000 3.1 50 23:24 12.07.2019
5072 Clouds 4 1014 86 10000 5.7 50 22:43 12.07.2019
5073 Rain 5 1014 86 10000 5.7 50 22:23 12.07.2019
5074 Rain 5 1014 75 10000 4.1 50 21:42 12.07.2019
5075 Rain 5 1014 75 10000 4.1 50 21:22 12.07.2019
5076 Clouds 5 1014 80 10000 2.6 9.462 20:54 12.07.2019
5077 Clouds 5 1014 80 10000 2.6 9.462 20:54 12.07.2019
5078 Clouds 5 1014 80 10000 2.6 9.462 20:24 12.07.2019
5079 Clouds 5 1015 80 10000 2.1 360 19:45 12.07.2019
5080 Clouds 5 1015 80 10000 2.1 360 19:27 12.07.2019
5081 Rain 5 1016 80 10000 2.6 360 18:59 12.07.2019
5082 Rain 5 1016 80 10000 2.6 360 18:39 12.07.2019
5083 Clouds 4 1016 80 10000 4.1 50 18:20 12.07.2019
5084 Clouds 4 1016 80 10000 4.1 50 17:48 12.07.2019
5085 Clouds 4 1016 80 10000 4.1 50 17:27 12.07.2019
5086 Clouds 3 1016 93 10000 2.6 20 16:44 12.07.2019
5087 Clouds 3 1016 93 10000 2.6 20 16:21 12.07.2019
5088 Clouds 3 1016 93 10000 2.6 340 15:41 12.07.2019
5089 Clouds 3 1016 93 10000 2.6 340 15:21 12.07.2019
5090 Clouds 3 1016 93 10000 1.5 320 14:56 12.07.2019
5091 Clouds 3 1016 93 10000 1.5 320 14:38 12.07.2019
5092 Clouds 3 1016 93 10000 4.1 340 14:20 12.07.2019
5093 Clouds 3 1016 93 10000 4.1 340 13:42 12.07.2019
5094 Clouds 3 1016 86 10000 4.1 340 13:19 12.07.2019
5095 Clouds 3 1016 86 10000 4.1 340 12:40 12.07.2019
5096 Clouds 4 1016 69 10000 5.7 360 12:20 12.07.2019
5097 Clouds 4 1016 69 10000 5.7 360 11:45 12.07.2019
5098 Clouds 4 1016 69 10000 5.7 360 11:23 12.07.2019
5099 Clouds 4 1016 98 10000 6.7 20 10:44 12.07.2019
5100 Clouds 4 1016 98 10000 6.7 20 10:25 12.07.2019
5101 Clouds 4 1016 98 10000 6.2 20 09:55 12.07.2019
5102 Clouds 4 1016 98 10000 6.2 20 09:31 12.07.2019
5103 Clouds 4 1016 98 10000 6.7 20 09:00 12.07.2019
5104 Clouds 4 1016 98 10000 6.7 20 08:41 12.07.2019
5105 Clouds 4 1016 80 10000 7.2 20 08:19 12.07.2019
5106 Clouds 4 1016 80 10000 7.2 20 07:46 12.07.2019
5107 Clouds 4 1016 80 10000 7.2 20 07:27 12.07.2019
5108 Clouds 4 1016 80 10000 7.7 20 06:29 12.07.2019
5109 Clouds 4 1016 99 10000 6.7 50 05:48 12.07.2019
5110 Drizzle 3 1016 93 10000 4.1 50 03:23 12.07.2019
5111 Drizzle 4 1016 93 10000 8.7 90 01:46 12.07.2019
5112 -273 0 0 0 0 0 01:26 12.07.2019
5113 Rain 3 1015 93 10000 9.3 90 00:31 12.07.2019
5114 Rain 3 1015 93 10000 9.8 90 23:50 11.07.2019
5115 Rain 4 1015 93 10000 9.8 90 23:27 11.07.2019
5116 Rain 4 1015 93 10000 9.3 90 22:59 11.07.2019
5117 Rain 4 1015 93 10000 9.3 90 22:39 11.07.2019
5118 Rain 4 1015 93 10000 9.3 90 22:21 11.07.2019
5119 Drizzle 3 1015 93 10000 10.3 90 21:42 11.07.2019
5120 Drizzle 3 1015 93 10000 10.3 90 21:42 11.07.2019
5121 Rain 3 1015 93 10000 8.2 90 21:19 11.07.2019
5122 Rain 3 1015 93 10000 8.2 90 20:56 11.07.2019
5123 Rain 3 1015 93 10000 8.2 90 20:37 11.07.2019
5124 Rain 3 1015 93 10000 8.7 90 20:18 11.07.2019
5125 Rain 3 1015 93 10000 8.7 90 20:18 11.07.2019
5126 Rain 3 1015 93 10000 8.7 90 19:45 11.07.2019
5127 Rain 3 1015 93 10000 8.7 90 19:25 11.07.2019
5128 Rain 3 1015 86 10000 9.3 90 18:53 11.07.2019
5129 Rain 3 1015 86 10000 9.3 90 18:33 11.07.2019
5130 Drizzle 3 1014 93 10000 9.8 70 17:59 11.07.2019
5131 Drizzle 3 1014 93 10000 9.8 70 17:40 11.07.2019
5132 Drizzle 3 1014 93 10000 9.8 70 17:22 11.07.2019
5133 Drizzle 3 1014 93 10000 10.3 90 16:49 11.07.2019
5134 Drizzle 3 1014 93 10000 10.3 90 16:23 11.07.2019
5135 Drizzle 3 1014 93 10000 7.2 90 15:49 11.07.2019
5136 Drizzle 3 1014 93 10000 7.2 90 15:30 11.07.2019
5137 Drizzle 3 1014 93 10000 6.2 50 14:59 11.07.2019
5138 Drizzle 3 1014 93 10000 6.2 50 14:40 11.07.2019
5139 Drizzle 3 1014 93 10000 6.2 50 14:20 11.07.2019
5140 Drizzle 3 1013 86 10000 6.2 50 13:46 11.07.2019
5141 Drizzle 3 1013 86 10000 6.2 50 13:26 11.07.2019
5142 Drizzle 3 1013 86 10000 6.2 50 12:45 11.07.2019
5143 Drizzle 3 1013 86 10000 6.2 50 12:26 11.07.2019
5144 Drizzle 3 1013 86 10000 1.47 46.654 11:53 11.07.2019
5145 Drizzle 3 1013 86 10000 1.47 46.654 11:31 11.07.2019
5146 Drizzle 3 1013 86 10000 1.47 46.654 10:59 11.07.2019
5147 Drizzle 3 1013 86 10000 1.47 46.654 10:41 11.07.2019
5148 Clouds 3 1013 86 10000 1.47 46.654 10:18 11.07.2019
5149 Clouds 3 1013 86 10000 1.47 46.654 09:44 11.07.2019
5150 Clouds 3 1013 86 10000 0.85 45.808 09:24 11.07.2019
5151 Clouds 3 1013 86 10000 1.4 21.87 08:51 11.07.2019
5152 Clouds 3 1013 86 10000 1.4 21.87 08:24 11.07.2019
5153 Clouds 3 1013 86 10000 1.4 21.87 07:52 11.07.2019
5154 Clouds 3 1013 86 10000 1.4 21.87 07:34 11.07.2019
5155 Clouds 2 1013 99 10000 1.5 320 06:35 11.07.2019
5156 Clouds 3 1013 96 10000 1.26 14.686 05:48 11.07.2019
5157 Clouds 3 1013 96 10000 1.26 14.686 05:29 11.07.2019
5158 Clouds 3 1013 96 10000 1.26 14.686 04:53 11.07.2019
5159 Clouds 1 1013 86 10000 1.29 10.674 02:40 11.07.2019
5160 Clouds 3 1013 86 10000 1 270 01:27 11.07.2019
5161 Clouds 3 1013 86 10000 2.1 270 00:26 11.07.2019
5162 Clouds 2 1013 86 10000 2.6 360 23:37 10.07.2019
5163 Clear 3 1013 93 10000 1.4 345.577 23:18 10.07.2019
5164 Clear 3 1013 93 10000 1.4 345.577 22:44 10.07.2019
5165 Clear 4 1013 93 10000 1.4 345.577 22:20 10.07.2019
5166 Clear 4 1013 93 10000 1.4 345.577 21:45 10.07.2019
5167 Clear 4 1013 93 10000 1.4 345.577 21:26 10.07.2019
5168 Clear 4 1013 93 10000 1.56 359.927 20:56 10.07.2019
5169 Clear 4 1013 93 10000 1.56 359.927 20:38 10.07.2019
5170 Clear 4 1014 100 10000 1.56 359.927 20:18 10.07.2019
5171 Clear 4 1014 100 10000 1.56 359.927 19:45 10.07.2019
5172 Clear 4 1014 100 10000 1.56 359.927 19:22 10.07.2019
5173 Clear 4 1014 100 10000 1.56 359.927 18:55 10.07.2019
5174 Clear 4 1014 100 10000 1.56 359.927 18:37 10.07.2019
5175 Clear 2 1014 100 10000 1.44 348.122 18:19 10.07.2019
5176 Clear 2 1014 100 10000 1.44 348.122 17:40 10.07.2019
5177 Clear 1 1014 100 10000 1.44 348.122 17:19 10.07.2019
5178 Clear 1 1014 100 10000 1.44 348.122 16:22 10.07.2019
5179 Clear 1 1015 100 10000 1.44 348.122 15:59 10.07.2019
5180 Clear 1 1015 100 10000 1.44 348.122 15:41 10.07.2019
5181 Clouds 1 1014 100 10000 1.7 329.314 15:19 10.07.2019
5182 Clouds 1 1014 100 10000 1.7 329.314 14:40 10.07.2019
5183 Clouds 1 1014 100 10000 1.7 329.314 14:22 10.07.2019
5184 Clouds 2 1015 100 10000 1.7 329.314 13:44 10.07.2019
5185 Clear 2 1015 100 10000 1.62 333.135 13:19 10.07.2019
5186 Clear 2 1015 100 10000 1.62 333.135 12:55 10.07.2019
5187 Clear 2 1015 100 10000 1.62 333.135 12:37 10.07.2019
5188 Clear 2 1015 93 10000 1.72 337.16 12:18 10.07.2019
5189 Clear 2 1015 93 10000 1.72 337.16 11:43 10.07.2019
5190 Clear 2 1015 93 10000 1.72 337.16 11:21 10.07.2019
5191 Clear 2 1015 93 10000 2.1 230 10:44 10.07.2019
5192 Clear 2 1015 93 10000 1.72 337.16 10:20 10.07.2019
5193 Clear 2 1015 93 10000 1.72 337.16 09:44 10.07.2019
5194 Clear 2 1015 93 10000 1.94 336.751 09:21 10.07.2019
5195 Clear 1 1015 100 10000 1.71 333.014 08:50 10.07.2019
5196 Clear 1 1015 100 10000 1.71 333.014 08:29 10.07.2019
5197 Clear 2 1016 93 10000 2.1 360 07:54 10.07.2019
5198 Clear 2 1016 93 10000 2.1 360 07:32 10.07.2019
5199 Clear 2 1016 93 10000 1.71 333.014 06:44 10.07.2019
5200 Clouds 2 1016 93 10000 1.93 339.075 05:59 10.07.2019
5201 Clouds 2 1016 93 10000 1.93 339.075 04:36 10.07.2019
5202 Clouds 2 1016 93 10000 1.93 339.075 03:38 10.07.2019
5203 Clouds 2 1016 93 10000 2.09 346.96 00:47 10.07.2019
5204 Clouds 2 1016 93 10000 1.53 353.056 00:26 10.07.2019
5205 Clouds 2 1015 100 10000 1.5 320 23:41 09.07.2019
5206 Mist 2 1015 100 10000 1.5 320 23:21 09.07.2019
5207 Mist 2 1015 93 10000 2.1 340 22:41 09.07.2019
5208 Mist 2 1015 93 10000 2.1 340 22:22 09.07.2019
5209 Mist 3 1015 100 10000 2.6 340 21:56 09.07.2019
5210 Mist 3 1015 100 10000 2.6 340 21:37 09.07.2019
5211 Rain 2 1015 100 10000 2.1 320 21:19 09.07.2019
5212 Rain 2 1015 100 10000 2.1 320 20:43 09.07.2019
5213 Rain 3 1015 100 10000 2.1 320 20:24 09.07.2019
5214 Rain 3 1015 100 10000 4.1 340 19:40 09.07.2019
5215 Rain 3 1016 93 10000 4.1 340 19:21 09.07.2019
5216 Rain 3 1016 93 10000 4.1 340 18:45 09.07.2019
5217 Rain 3 1016 93 10000 4.1 340 18:45 09.07.2019
5218 Rain 3 1016 93 10000 4.1 340 18:23 09.07.2019
5219 Clouds 2 1016 94 10000 4.1 360 17:55 09.07.2019
5220 Clouds 2 1016 94 10000 4.1 360 17:37 09.07.2019
5221 Drizzle 2 1016 93 10000 3.6 360 17:18 09.07.2019
5222 Drizzle 2 1016 93 10000 3.6 360 17:18 09.07.2019
5223 Drizzle 2 1016 93 10000 3.6 360 16:46 09.07.2019
5224 Drizzle 2 1016 93 10000 3.6 360 16:24 09.07.2019
5225 Drizzle 2 1015 93 10000 4.1 360 15:49 09.07.2019
5226 Drizzle 2 1015 93 10000 4.1 360 15:29 09.07.2019
5227 Drizzle 2 1015 93 10000 3.1 360 14:47 09.07.2019
5228 Drizzle 2 1015 93 10000 3.1 360 14:47 09.07.2019
5229 Drizzle 2 1015 93 10000 3.1 360 14:25 09.07.2019
5230 Clouds 3 1015 93 10000 2.1 360 13:59 09.07.2019
5231 Clouds 3 1015 93 10000 2.1 360 13:40 09.07.2019
5232 Clouds 3 1015 93 10000 2.1 360 13:21 09.07.2019
5233 Clouds 2 1014 93 10000 1.5 270 12:40 09.07.2019
5234 Clouds 2 1014 93 10000 2.1 320 12:19 09.07.2019
5235 Clouds 2 1014 93 10000 2.1 320 11:57 09.07.2019
5236 Clouds 2 1014 93 10000 2.1 320 11:38 09.07.2019
5237 Clouds 2 1014 93 10000 2.1 320 11:20 09.07.2019
5238 Clear 2 1014 94 10000 2.6 340 10:49 09.07.2019
5239 Clear 2 1014 94 10000 2.6 340 10:27 09.07.2019
5240 Clear 2 1013 93 10000 3.1 340 09:41 09.07.2019
5241 Clear 2 1013 93 10000 3.1 340 09:21 09.07.2019
5242 Clear 2 1013 93 10000 3.1 340 09:21 09.07.2019
5243 Clear 2 1013 93 10000 0.23 329.497 08:45 09.07.2019
5244 Clear 2 1013 93 10000 0.23 329.497 08:23 09.07.2019
5245 Clouds -1 1012 86 10000 2.6 360 03:57 05.07.2019
5246 Clouds -1 1012 86 10000 2.6 360 03:37 05.07.2019
5247 Clouds -1 1013 86 10000 2.52 332.205 03:18 05.07.2019
5248 Clouds -1 1013 86 10000 2.52 332.205 02:37 05.07.2019
5249 Clouds -2 1013 92 10000 1.5 270 01:38 05.07.2019
5250 Clouds -2 1013 86 10000 1 360 01:18 05.07.2019
5251 Clouds -2 1013 86 10000 1 360 00:40 05.07.2019
5252 Clear -2 1013 86 10000 2.3 333.614 23:53 04.07.2019
5253 Clear -2 1013 86 10000 2.3 333.614 23:21 04.07.2019
5254 Clear -2 1014 86 10000 2.3 333.614 22:45 04.07.2019
5255 Clear -2 1014 86 10000 2.3 333.614 22:25 04.07.2019
5256 Clear -1 1014 79 10000 2.3 333.614 21:57 04.07.2019
5257 Clear -1 1014 79 10000 2.3 333.614 21:39 04.07.2019
5258 Clear -1 1014 79 10000 2.39 337.678 21:21 04.07.2019
5259 Clear -2 1014 86 10000 1.5 360 20:40 04.07.2019
5260 Clear -2 1014 86 10000 1.5 360 20:22 04.07.2019
5261 Clear -2 1015 86 10000 1.5 340 19:57 04.07.2019
5262 Clear -2 1015 86 10000 1.5 340 19:38 04.07.2019
5263 Clear -2 1016 92 10000 2.6 340 19:20 04.07.2019
5264 Clear -2 1016 92 10000 2.6 340 18:43 04.07.2019
5265 Clear -2 1016 92 10000 2.6 340 18:25 04.07.2019
5266 Clear -3 1016 92 10000 2.6 320 17:46 04.07.2019
5267 Clear -5 1016 92 10000 3.6 340 17:19 04.07.2019
5268 Clear -7 1016 92 10000 3.1 340 15:59 04.07.2019
5269 Clear -7 1016 92 10000 3.1 340 15:41 04.07.2019
5270 Clear -7 1016 92 10000 3.1 340 15:22 04.07.2019
5271 Clear -8 1016 100 10000 4.1 340 14:56 04.07.2019
5272 Clear -8 1016 100 10000 4.1 340 14:37 04.07.2019
5273 Clear -5 1016 92 10000 4.1 340 14:18 04.07.2019
5274 Clear -5 1016 92 10000 4.1 340 14:18 04.07.2019
5275 Clear -5 1016 92 10000 4.1 340 13:54 04.07.2019
5276 Clear -5 1016 92 10000 4.1 340 13:36 04.07.2019
5277 Clear -5 1016 92 10000 4.1 340 13:18 04.07.2019
5278 Clear -5 1016 92 10000 4.1 340 12:37 04.07.2019
5279 Clear -5 1016 92 10000 3.1 340 12:19 04.07.2019
5280 Clear -5 1016 92 10000 3.1 340 11:39 04.07.2019
5281 Clear -5 1017 100 10000 4.6 340 11:20 04.07.2019
5282 Clear -5 1017 100 10000 4.6 340 10:41 04.07.2019
5283 Clear -5 1017 100 10000 4.6 340 10:23 04.07.2019
5284 Clear -5 1017 79 10000 3.6 320 09:45 04.07.2019
5285 Clear -5 1017 79 10000 3.6 320 09:26 04.07.2019
5286 Clear -5 1017 67 10000 3.1 320 08:57 04.07.2019
5287 Clear -5 1017 67 10000 3.1 320 08:28 04.07.2019
5288 Clear -5 1017 67 10000 3.6 340 07:46 04.07.2019
5289 Clear -5 1017 67 10000 3.6 340 07:23 04.07.2019
5290 Clear -5 1017 92 10000 5.1 360 06:56 04.07.2019
5291 Clear -5 1018 100 10000 4.1 360 05:55 04.07.2019
5292 Clear -5 1018 100 10000 4.1 360 05:36 04.07.2019
5293 Clear -4 1018 92 10000 4.6 360 03:30 04.07.2019
5294 Clear -4 1018 92 10000 5.1 360 01:45 04.07.2019
5295 Clear -4 1018 92 10000 4.6 360 01:25 04.07.2019
5296 Clear -4 1018 92 10000 4.6 360 00:37 04.07.2019
5297 Clear -4 1018 92 10000 3.1 360 23:48 03.07.2019
5298 Clear -3 1018 92 10000 3.1 360 23:20 03.07.2019
5299 Clear -2 1018 92 10000 2.1 60 22:56 03.07.2019
5300 Clear -2 1018 92 10000 2.1 60 22:36 03.07.2019
5301 Clear -1 1018 92 10000 1.5 320 22:18 03.07.2019
5302 Clear -1 1018 92 10000 1.5 320 21:47 03.07.2019
5303 Clear -1 1018 92 10000 1.5 320 21:28 03.07.2019
5304 Clear -1 1018 92 10000 2.6 240 20:47 03.07.2019
5305 Clear -1 1018 92 10000 2.6 240 20:28 03.07.2019
5306 Clear -1 1018 92 10000 3.1 360 19:54 03.07.2019
5307 Clear -1 1018 92 10000 3.1 360 19:36 03.07.2019
5308 Clear -1 1019 86 10000 3.6 360 18:55 03.07.2019
5309 Clear -1 1019 86 10000 3.6 360 18:37 03.07.2019
5310 Clear -3 1019 86 10000 4.1 360 18:18 03.07.2019
5311 Clear -3 1019 86 10000 4.1 360 17:45 03.07.2019
5312 Clear -4 1019 86 10000 1.83 329.514 17:19 03.07.2019
5313 Clear -4 1019 86 10000 1.83 329.514 16:44 03.07.2019
5314 Clear -4 1019 86 10000 1.83 329.514 16:24 03.07.2019
5315 Clear -5 1019 92 10000 5.1 320 15:54 03.07.2019
5316 Clear -5 1019 92 10000 5.1 320 15:36 03.07.2019
5317 Clear -4 1019 79 10000 3.1 320 15:18 03.07.2019
5318 Clear -4 1019 79 10000 3.1 320 14:42 03.07.2019
5319 Clear -3 1018 86 10000 2.1 320 14:20 03.07.2019
5320 Clear -3 1018 86 10000 2.1 320 13:43 03.07.2019
5321 Clear -3 1018 86 10000 2.1 320 13:24 03.07.2019
5322 Clear -3 1018 86 10000 3.1 360 12:51 03.07.2019
5323 Clear -3 1018 86 10000 3.1 320 12:19 03.07.2019
5324 Clear -3 1018 86 10000 3.1 320 11:43 03.07.2019
5325 Clear -3 1018 86 10000 3.1 320 11:23 03.07.2019
5326 Clear -2 1019 79 10000 2.1 270 10:57 03.07.2019
5327 Clear -2 1019 79 10000 2.1 270 10:37 03.07.2019
5328 Clear -3 1019 86 10000 2.6 320 10:18 03.07.2019
5329 Clear -3 1019 86 10000 2.6 320 09:40 03.07.2019
5330 Clear -2 1018 86 10000 1.5 320 09:20 03.07.2019
5331 Clear -2 1018 86 10000 1.5 320 08:52 03.07.2019
5332 Clear -2 1018 86 10000 1.5 320 08:31 03.07.2019
5333 Clouds -2 1019 86 10000 3.1 320 07:45 03.07.2019
5334 Clouds -2 1019 86 10000 3.1 320 07:27 03.07.2019
5335 Clouds -2 1019 86 10000 4.1 340 06:27 03.07.2019
5336 Clouds -2 1019 86 10000 4.6 360 05:35 03.07.2019
5337 Clouds -1 1019 80 10000 4.1 360 04:44 03.07.2019
5338 Clouds -1 1018 86 10000 4.1 50 03:25 03.07.2019
5339 Clouds -1 1018 86 10000 4.1 50 02:23 03.07.2019
5340 Clouds 0 1019 94 10000 4.6 90 01:21 03.07.2019
5341 Clouds 0 1018 94 10000 7.2 90 00:52 03.07.2019
5342 Clouds 0 1018 94 10000 7.2 90 00:32 03.07.2019
5343 Clouds 0 1018 96 10000 4.6 50 23:38 02.07.2019
5344 Clouds 0 1018 96 10000 6.2 50 23:20 02.07.2019
5345 Clouds 0 1018 96 10000 6.2 50 22:57 02.07.2019
5346 Clouds 0 1018 96 10000 6.2 50 22:38 02.07.2019
5347 Clouds 0 1018 96 10000 6.2 50 22:20 02.07.2019
5348 Clouds 1 1017 96 10000 7.7 50 21:46 02.07.2019
5349 Clouds 1 1017 96 10000 7.7 50 21:46 02.07.2019
5350 Clouds 1 1017 89 10000 7.7 50 21:24 02.07.2019
5351 Rain 1 1017 89 10000 7.7 50 20:59 02.07.2019
5352 Rain 1 1017 89 10000 9.3 90 20:40 02.07.2019
5353 Rain 1 1017 89 10000 9.3 90 20:22 02.07.2019
5354 Rain 1 1017 86 10000 6.7 90 19:44 02.07.2019
5355 Rain 1 1017 86 10000 6.7 90 19:24 02.07.2019
5356 Snow 0 1017 86 8000 4.1 90 18:58 02.07.2019
5357 Snow 0 1017 86 8000 4.1 90 18:19 02.07.2019
5358 Rain 0 1017 86 10000 3.1 50 17:58 02.07.2019
5359 Rain 0 1017 86 10000 3.1 50 17:37 02.07.2019
5360 Clouds 1 1016 86 10000 2.1 50 17:19 02.07.2019
5361 Clouds 1 1016 86 10000 2.1 50 16:45 02.07.2019
5362 Snow 0 1016 86 10000 2.1 50 16:26 02.07.2019
5363 Snow 1 1016 69 10000 4.1 140 15:42 02.07.2019
5364 Snow 1 1016 69 10000 4.1 140 15:23 02.07.2019
5365 Clouds 0 1015 86 10000 4.1 140 14:48 02.07.2019
5366 Clouds 0 1015 86 10000 4.1 140 14:28 02.07.2019
5367 Clouds 1 1014 80 10000 4.1 140 13:45 02.07.2019
5368 Clouds 1 1014 80 10000 4.1 140 13:20 02.07.2019
5369 Clouds 1 1014 80 10000 2.6 140 12:45 02.07.2019
5370 Clouds 1 1014 80 10000 2.6 140 12:25 02.07.2019
5371 Clouds 1 1013 80 10000 4.1 140 11:56 02.07.2019
5372 Clouds 1 1013 80 10000 4.1 140 11:37 02.07.2019
5373 Clouds 1 1012 80 10000 3.6 140 11:18 02.07.2019
5374 Clouds 1 1012 80 10000 3.6 140 10:42 02.07.2019
5375 Drizzle 2 1011 93 10000 4.6 140 10:23 02.07.2019
5376 Drizzle 2 1011 93 10000 4.6 140 09:44 02.07.2019
5377 Snow 2 1010 93 10000 2.1 50 09:21 02.07.2019
5378 Snow 2 1010 93 10000 2.1 50 08:42 02.07.2019
5379 Clouds 2 1009 93 10000 4.6 90 08:20 02.07.2019
5380 Clouds 2 1009 93 10000 4.6 90 07:53 02.07.2019
5381 Clouds 2 1009 93 10000 4.6 90 07:21 02.07.2019
5382 Rain 2 1008 93 10000 4.1 90 06:49 02.07.2019
5383 Rain 2 1008 93 10000 4.1 90 06:25 02.07.2019
5384 Rain 2 1005 93 10000 2.1 70 04:39 02.07.2019
5385 Rain 2 1000 93 10000 2.6 140 01:37 02.07.2019
5386 Drizzle 2 996 93 10000 4.1 140 23:49 01.07.2019
5387 Rain 2 995 86 10000 5.7 230 23:22 01.07.2019
5388 Rain 2 995 86 10000 5.7 230 22:46 01.07.2019
5389 Rain 2 995 86 10000 5.7 230 22:27 01.07.2019
5390 Rain 2 994 86 10000 7.2 230 21:47 01.07.2019
5391 Rain 2 994 86 10000 7.2 230 21:26 01.07.2019
5392 Rain 2 993 86 10000 4.6 230 20:52 01.07.2019
5393 Rain 2 993 86 10000 1.5 270 20:22 01.07.2019
5394 Rain 2 993 86 10000 1.5 270 20:22 01.07.2019
5395 Rain 2 993 86 10000 1.5 270 19:59 01.07.2019
5396 Rain 2 993 86 10000 1.5 270 19:40 01.07.2019
5397 Drizzle 1 992 97 10000 6.2 240 19:22 01.07.2019
5398 Drizzle 1 992 86 10000 1.5 320 18:53 01.07.2019
5399 Drizzle 1 992 86 10000 1.5 320 18:31 01.07.2019
5400 Clouds 1 991 96 10000 0.87 236.091 17:58 01.07.2019
5401 Clouds 1 991 96 10000 0.87 236.091 17:40 01.07.2019
5402 Clouds 1 991 96 10000 0.87 236.091 17:21 01.07.2019
5403 Clouds 0 990 96 10000 2.1 270 16:46 01.07.2019
5404 Clouds 0 990 96 10000 2.1 270 16:25 01.07.2019
5405 Clouds -1 990 86 10000 2.1 270 15:47 01.07.2019
5406 Clouds -1 990 86 10000 2.1 270 15:28 01.07.2019
5407 Clouds -1 989 92 10000 1.5 320 14:59 01.07.2019
5408 Snow -1 989 86 3000 3.1 270 14:39 01.07.2019
5409 Snow -1 989 86 3000 3.1 270 14:19 01.07.2019
5410 Snow -1 988 86 5000 3.1 270 13:40 01.07.2019
5411 Snow -1 988 86 5000 3.1 270 13:21 01.07.2019
5412 Clouds 0 988 98 10000 2.6 270 12:44 01.07.2019
5413 Clouds 0 988 85 10000 2.6 270 12:23 01.07.2019
5414 Clouds 1 987 74 10000 2.1 320 11:58 01.07.2019
5415 Clouds 1 987 74 10000 2.1 320 11:38 01.07.2019
5416 Clouds 1 987 74 10000 2.1 320 11:18 01.07.2019
5417 Clouds 2 987 64 10000 2.1 360 10:45 01.07.2019
5418 Clouds 2 987 64 10000 2.1 360 10:21 01.07.2019
5419 Clouds 2 987 69 10000 2.6 320 09:45 01.07.2019
5420 Clouds 2 987 69 10000 2.6 320 09:27 01.07.2019
5421 Clouds 2 987 69 10000 2.6 320 09:27 01.07.2019
5422 Clouds 2 987 64 10000 3.6 360 08:59 01.07.2019
5423 Clouds 2 987 64 10000 3.6 360 08:35 01.07.2019
5424 Clouds 2 988 64 10000 2.1 320 07:37 01.07.2019
5425 Clouds 3 988 64 10000 5.1 360 06:51 01.07.2019
5426 Clouds 3 989 55 10000 8.7 360 05:23 01.07.2019
5427 Rain 3 994 64 10000 7.2 360 01:22 01.07.2019
5428 Rain 3 996 64 10000 10.3 360 00:43 01.07.2019
5429 Rain 3 996 64 10000 10.3 360 00:43 01.07.2019
5430 Rain 3 996 64 10000 10.3 360 00:21 01.07.2019
5431 Clouds 1 998 80 10000 8.2 360 23:27 30.06.2019
5432 Clouds 1 1000 74 10000 10.3 360 22:58 30.06.2019
5433 Clouds 1 1000 74 10000 10.3 360 22:39 30.06.2019
5434 Clouds 0 1000 74 10000 10.3 360 22:19 30.06.2019
5435 Clouds 0 1002 86 10000 1.5 320 21:41 30.06.2019
5436 Clouds 0 1002 86 10000 1.5 320 21:19 30.06.2019
5437 Clouds 1 1003 74 10000 3.46 356.57 20:54 30.06.2019
5438 Clouds 0 1003 74 10000 3.64 348.653 20:36 30.06.2019
5439 Clouds 0 1003 74 10000 3.64 348.653 20:18 30.06.2019
5440 Clear -1 1006 87 10000 4.1 90 19:42 30.06.2019
5441 Clear -1 1006 87 10000 4.1 90 19:24 30.06.2019
5442 Clear -2 1008 80 10000 4.1 360 18:26 30.06.2019
5443 Clear -3 1009 86 10000 2.27 342.485 17:56 30.06.2019
5444 Clear -3 1009 86 10000 2.27 342.485 17:37 30.06.2019
5445 Clear -3 1011 79 10000 5.1 360 17:18 30.06.2019
5446 Clear -3 1011 79 10000 5.1 360 16:44 30.06.2019
5447 Clear -3 1011 79 10000 5.1 360 16:25 30.06.2019
5448 Clear -3 1012 79 10000 6.7 360 15:37 30.06.2019
5449 Clear -5 1013 92 10000 4.6 270 15:18 30.06.2019
5450 Clear -5 1013 92 10000 4.6 270 14:50 30.06.2019
5451 Clear -5 1013 92 10000 4.6 270 14:29 30.06.2019
5452 Clear -4 1014 85 10000 5.1 320 13:47 30.06.2019
5453 Clear -4 1014 85 10000 5.1 320 13:28 30.06.2019
5454 Clear -4 1014 79 10000 4.6 270 12:52 30.06.2019
5455 Clear -4 1014 79 10000 4.6 270 12:28 30.06.2019
5456 Clouds -7 1014 95 0 1.27 268.325 11:58 30.06.2019
5457 Clouds -7 1014 95 0 1.27 268.325 11:38 30.06.2019
5458 Clouds -7 1014 95 0 1.27 268.325 11:38 30.06.2019
5459 Clouds 1 1014 74 10000 5.7 250 11:19 30.06.2019
5460 Clouds 1 1014 74 10000 5.7 250 10:44 30.06.2019
5461 Clouds 1 1014 74 10000 5.7 250 10:20 30.06.2019
5462 Clouds 1 1014 80 10000 5.1 250 09:57 30.06.2019
5463 Clouds 1 1014 80 10000 5.1 250 09:37 30.06.2019
5464 Clouds 1 1014 80 10000 5.1 250 09:19 30.06.2019
5465 Clouds 1 1015 80 10000 7.2 250 08:40 30.06.2019
5466 Clouds 1 1015 80 10000 7.2 250 08:20 30.06.2019
5467 Clouds 1 1014 80 10000 7.7 230 07:42 30.06.2019
5468 Clouds 1 1014 80 10000 7.7 230 07:22 30.06.2019
5469 Rain 1 1014 86 10000 7.7 230 06:33 30.06.2019
5470 Snow 1 1013 86 5000 7.7 230 03:32 30.06.2019
5471 Snow 1 1011 86 8000 6.2 200 01:53 30.06.2019
5472 Snow 1 1011 86 8000 5.7 200 00:46 30.06.2019
5473 Snow 1 1011 86 8000 5.7 200 00:24 30.06.2019
5474 Snow 1 1010 86 5000 2.6 180 23:48 29.06.2019
5475 Snow 1 1010 86 5000 2.6 180 23:22 29.06.2019
5476 Snow 1 1009 86 5000 1.96 223.452 22:47 29.06.2019
5477 Snow 1 1009 86 5000 1.96 223.452 22:23 29.06.2019
5478 Snow 1 1008 86 5000 2.1 50 21:55 29.06.2019
5479 Snow 1 1008 86 3000 2.1 70 21:25 29.06.2019
5480 Snow 1 1007 86 3000 5.7 140 20:47 29.06.2019
5481 Snow 1 1007 86 3000 5.7 140 20:29 29.06.2019
5482 Snow 2 1006 80 1500 7.2 140 19:59 29.06.2019
5483 Rain 2 1005 80 10000 8.2 180 19:41 29.06.2019
5484 Rain 2 1005 80 10000 8.2 180 19:20 29.06.2019
5485 Rain 2 1005 80 10000 8.2 180 19:20 29.06.2019
5486 Clouds 2 1005 85 10000 6.2 180 18:47 29.06.2019
5487 Clouds 2 1005 98 10000 6.2 180 18:24 29.06.2019
5488 Clouds 2 1004 80 10000 6.7 180 17:38 29.06.2019
5489 Clouds 1 1004 80 10000 6.7 180 17:19 29.06.2019
5490 Drizzle 0 1003 98 10000 4.6 140 16:43 29.06.2019
5491 Drizzle 0 1003 98 10000 4.6 140 16:19 29.06.2019
5492 Drizzle 1 1002 98 10000 5.7 180 15:33 29.06.2019
5493 Drizzle 1 1001 100 10000 5.1 180 14:55 29.06.2019
5494 Drizzle 1 1001 100 10000 5.1 180 14:37 29.06.2019
5495 Drizzle 1 1001 100 10000 5.1 180 14:18 29.06.2019
5496 Drizzle 1 1000 97 10000 7.7 230 13:41 29.06.2019
5497 Drizzle 1 1000 98 10000 7.7 230 13:23 29.06.2019
5498 Rain 2 999 98 10000 6.2 230 12:41 29.06.2019
5499 Rain 2 999 98 10000 6.2 230 12:22 29.06.2019
5500 Snow 0 999 98 10000 2.1 360 11:46 29.06.2019
5501 Snow 0 999 98 10000 2.1 360 11:28 29.06.2019
5502 Snow -1 999 92 10000 1.27 246.795 10:52 29.06.2019
5503 Snow -1 999 92 10000 1.27 246.795 10:26 29.06.2019
5504 Clouds -1 999 100 10000 2.1 320 09:58 29.06.2019
5505 Clouds -1 999 100 10000 2.1 320 09:22 29.06.2019
5506 Clouds -1 998 86 10000 2.6 320 08:36 29.06.2019
5507 Clouds -2 998 92 10000 1.02 197.815 07:46 29.06.2019
5508 Clouds -2 998 92 10000 1.02 197.815 07:18 29.06.2019
5509 Clouds -2 998 92 10000 1.02 197.815 06:40 29.06.2019
5510 Clouds -2 998 92 10000 1.28 313.412 06:19 29.06.2019
5511 Clear -1 997 86 10000 2.6 340 01:56 29.06.2019
5512 Clear 0 997 90 10000 1.5 320 00:57 29.06.2019
5513 Clouds 0 997 85 10000 1.5 250 23:55 28.06.2019
5514 Clouds 0 997 85 10000 1.5 250 23:22 28.06.2019
5515 Rain 0 997 85 10000 2.1 290 22:50 28.06.2019
5516 Rain 0 997 85 10000 2.1 290 22:27 28.06.2019
5517 Rain 0 997 85 10000 1.5 180 21:46 28.06.2019
5518 Rain 0 997 81 10000 1.5 180 21:20 28.06.2019
5519 Rain 0 997 82 10000 2.18 331.211 20:43 28.06.2019
5520 Rain 0 997 82 10000 2.18 331.211 20:20 28.06.2019
5521 Clouds 0 998 92 10000 1.5 320 19:43 28.06.2019
5522 Clouds 0 998 92 10000 1.5 320 19:24 28.06.2019
5523 Clouds -1 999 100 10000 2.1 320 18:43 28.06.2019
5524 Clouds -1 999 100 10000 2.1 320 18:22 28.06.2019
5525 Clouds -1 999 100 10000 3.1 320 17:56 28.06.2019
5526 Clouds -1 999 100 10000 3.1 320 17:29 28.06.2019
5527 Clear -1 999 100 10000 5.1 320 16:49 28.06.2019
5528 Clear -1 999 100 10000 5.1 320 16:24 28.06.2019
5529 Clouds -1 999 100 10000 5.1 320 15:48 28.06.2019
5530 Clouds -1 999 100 10000 5.1 320 15:22 28.06.2019
5531 Clouds -2 999 100 10000 5.1 320 14:42 28.06.2019
5532 Clouds -2 999 100 10000 5.1 320 14:22 28.06.2019
5533 Clouds -3 999 100 10000 6.2 320 13:51 28.06.2019
5534 Clouds -3 999 100 10000 6.2 320 13:30 28.06.2019
5535 Clouds -8 1001 88 0 1.96 313.553 12:58 28.06.2019
5536 Clouds -8 1001 88 0 1.96 313.553 12:40 28.06.2019
5537 Clouds -3 999 100 10000 4.6 320 11:54 28.06.2019
5538 Clouds -3 999 100 10000 4.6 320 11:22 28.06.2019
5539 Clouds -3 999 92 10000 4.1 270 10:45 28.06.2019
5540 Clouds -3 999 92 10000 4.1 270 10:21 28.06.2019
5541 Clouds -2 999 100 10000 5.1 270 09:48 28.06.2019
5542 Clouds -2 999 100 10000 5.1 270 09:29 28.06.2019
5543 Clouds -2 999 100 10000 5.7 270 08:47 28.06.2019
5544 Clouds -2 999 100 10000 5.7 270 08:26 28.06.2019
5545 Clouds -2 999 92 10000 7.7 230 07:46 28.06.2019
5546 Clouds -2 999 100 10000 7.2 230 06:58 28.06.2019
5547 Clouds -2 999 92 10000 6.7 230 05:55 28.06.2019
5548 Clouds -2 999 92 10000 6.2 230 01:22 28.06.2019
5549 Rain -2 998 92 10000 7.7 230 00:39 28.06.2019
5550 Rain 0 998 96 10000 10.3 230 23:49 27.06.2019
5551 Rain 0 998 96 10000 10.3 230 23:26 27.06.2019
5552 Rain 0 997 96 10000 10.3 230 22:56 27.06.2019
5553 Rain 0 997 96 10000 10.3 230 22:37 27.06.2019
5554 Rain -1 997 96 10000 10.3 230 22:18 27.06.2019
5555 Rain -1 997 96 10000 10.3 230 22:18 27.06.2019
5556 Rain -1 996 96 10000 10.8 230 21:48 27.06.2019
5557 Rain -1 996 96 10000 10.8 230 21:29 27.06.2019
5558 Rain 0 996 92 10000 8.2 230 20:55 27.06.2019
5559 Rain 0 996 92 10000 8.2 230 20:37 27.06.2019
5560 Rain -1 996 92 10000 8.2 230 20:19 27.06.2019
5561 Rain -1 996 74 10000 10.8 230 19:44 27.06.2019
5562 Rain -1 996 74 10000 10.8 230 19:24 27.06.2019
5563 Rain -2 995 74 10000 10.8 230 18:42 27.06.2019
5564 Rain -2 995 68 10000 7.7 230 18:20 27.06.2019
5565 Rain -2 995 68 10000 7.7 230 17:43 27.06.2019
5566 Rain -2 995 68 10000 7.7 230 17:22 27.06.2019
5567 Rain -2 994 68 10000 5.1 230 16:40 27.06.2019
5568 Rain -2 994 68 10000 5.1 230 16:20 27.06.2019
5569 Snow -1 994 92 10000 5.1 230 15:55 27.06.2019
5570 Snow -1 994 92 10000 5.1 230 15:36 27.06.2019
5571 Rain -1 994 79 10000 7.7 200 14:58 27.06.2019
5572 Rain -1 994 79 10000 7.7 200 14:39 27.06.2019
5573 Rain -1 994 79 10000 7.7 200 14:19 27.06.2019
5574 Snow -3 993 86 5000 9.8 200 13:43 27.06.2019
5575 Snow -3 993 86 5000 9.8 200 13:25 27.06.2019
5576 Snow -3 992 86 3000 10.3 200 12:49 27.06.2019
5577 Snow -3 992 86 3000 10.3 200 12:49 27.06.2019
5578 Snow -3 992 86 3000 10.3 200 12:28 27.06.2019
5579 Rain -2 991 100 10000 11.3 230 11:47 27.06.2019
5580 Rain -2 991 100 10000 11.3 230 11:24 27.06.2019
5581 Snow -2 990 100 3000 12.3 230 10:58 27.06.2019
5582 Snow -2 990 100 3000 12.3 230 10:40 27.06.2019
5583 Snow -2 990 100 3000 12.3 230 10:19 27.06.2019
5584 Snow -2 989 100 500 12.9 230 09:38 27.06.2019
5585 Snow -2 989 100 500 12.9 230 09:20 27.06.2019
5586 Rain -1 988 92 10000 10.3 230 08:48 27.06.2019
5587 Rain -1 988 92 10000 10.3 230 08:48 27.06.2019
5588 Rain -1 988 92 10000 10.3 230 08:27 27.06.2019
5589 Snow -2 988 100 8000 10.8 230 07:45 27.06.2019
5590 Snow -2 988 100 500 9.3 180 06:57 27.06.2019
5591 Snow -2 988 100 500 9.3 180 06:30 27.06.2019
5592 Snow -2 986 92 7000 6.2 230 03:51 27.06.2019
5593 Snow -2 985 79 2500 9.3 230 02:42 27.06.2019
5594 Snow -2 985 79 8000 8.2 230 01:29 27.06.2019
5595 Snow -2 985 79 2500 10.3 180 00:50 27.06.2019
5596 Rain -2 985 79 10000 9.3 200 00:26 27.06.2019
5597 Snow -2 984 79 5000 9.3 230 23:50 26.06.2019
5598 Rain -1 984 79 10000 2.6 200 23:23 26.06.2019
5599 Snow 0 983 80 10000 6.7 230 22:58 26.06.2019
5600 Snow 0 983 80 10000 6.7 230 22:39 26.06.2019
5601 Snow 0 983 80 10000 6.7 230 22:19 26.06.2019
5602 Rain -1 982 80 10000 8.2 180 21:42 26.06.2019
5603 Rain -1 982 80 10000 8.2 180 21:21 26.06.2019
5604 Snow 0 982 69 3000 7.2 160 20:57 26.06.2019
5605 Snow 0 982 69 3000 7.2 160 20:37 26.06.2019
5606 Snow 1 982 69 3000 7.2 160 20:18 26.06.2019
5607 Rain 1 982 90 10000 3.6 230 19:42 26.06.2019
5608 Rain 1 982 90 10000 3.6 230 19:23 26.06.2019
5609 Rain 0 981 90 10000 4.1 230 18:45 26.06.2019
5610 Rain 0 981 84 10000 4.1 230 18:22 26.06.2019
5611 Snow -1 981 92 1500 5.1 180 17:57 26.06.2019
5612 Snow -1 981 92 1500 5.1 180 17:37 26.06.2019
5613 Snow -1 981 92 1500 5.1 180 17:18 26.06.2019
5614 Snow -2 981 92 500 5.1 180 16:46 26.06.2019
5615 Snow -2 981 92 500 5.1 180 16:22 26.06.2019
5616 Snow -2 980 92 2000 4.6 180 15:37 26.06.2019
5617 Snow -2 980 92 2000 4.6 180 15:19 26.06.2019
5618 Snow -1 980 100 10000 1.5 360 14:38 26.06.2019
5619 Snow -1 980 100 10000 1.5 360 14:19 26.06.2019
5620 Snow -1 980 92 2000 2.6 360 13:42 26.06.2019
5621 Snow -1 980 92 2000 2.6 360 13:20 26.06.2019
5622 Snow -1 979 100 10000 2.6 320 12:42 26.06.2019
5623 Snow -1 979 100 10000 2.6 320 12:22 26.06.2019
5624 Snow -2 979 100 2000 2.6 270 11:47 26.06.2019
5625 Snow -2 979 100 2000 2.6 270 11:20 26.06.2019
5626 Snow -2 979 100 3000 2.1 290 10:45 26.06.2019
5627 Snow -2 979 100 3000 2.1 290 10:25 26.06.2019
5628 Snow -1 978 100 10000 2.1 320 09:44 26.06.2019
5629 Snow -1 978 100 10000 2.1 320 09:19 26.06.2019
5630 Clouds -1 978 100 10000 2.6 270 08:49 26.06.2019
5631 Clouds -1 978 100 10000 2.6 270 08:20 26.06.2019
5632 Clouds -1 979 92 10000 2.1 320 07:46 26.06.2019
5633 Clouds -1 978 92 10000 2.6 320 06:57 26.06.2019
5634 Clouds -1 978 92 10000 2.6 320 06:31 26.06.2019
5635 Clouds -1 981 86 10000 2.6 290 01:25 26.06.2019
5636 Clouds -1 982 92 10000 1.12 348.71 00:25 26.06.2019
5637 Rain 1 982 69 10000 2.1 270 23:46 25.06.2019
5638 Rain 0 982 69 10000 2.1 270 23:27 25.06.2019
5639 Rain 0 983 64 10000 2.1 230 22:57 25.06.2019
5640 Rain 0 983 64 10000 2.1 230 22:57 25.06.2019
5641 Rain 0 983 64 10000 2.1 230 22:38 25.06.2019
5642 Rain 0 983 97 10000 1.5 230 22:20 25.06.2019
5643 Rain 0 983 97 10000 1.5 230 21:43 25.06.2019
5644 Rain 0 983 97 10000 1.5 230 21:43 25.06.2019
5645 Rain -1 983 92 10000 1.5 230 21:22 25.06.2019
5646 Rain -1 984 90 10000 4.1 230 20:46 25.06.2019
5647 Rain -1 984 90 10000 4.1 230 20:45 25.06.2019
5648 Rain -1 984 90 10000 4.1 230 20:45 25.06.2019
5649 Rain -1 984 90 10000 4.1 230 20:22 25.06.2019
5650 Rain 0 984 90 10000 5.7 230 19:48 25.06.2019
5651 Rain -1 984 90 10000 5.7 230 19:23 25.06.2019
5652 Rain -1 985 92 10000 3.6 230 18:59 25.06.2019
5653 Rain -1 985 92 10000 3.6 230 18:40 25.06.2019
5654 Rain -1 985 92 10000 3.6 230 18:21 25.06.2019
5655 -273 0 0 0 0 0 17:30 25.06.2019
5656 Snow -1 985 74 10000 7.7 230 16:58 25.06.2019
5657 Snow -1 985 74 10000 7.7 230 16:39 25.06.2019
5658 Snow -1 985 74 10000 7.7 230 16:21 25.06.2019
5659 Rain -1 985 68 10000 6.7 270 15:42 25.06.2019
5660 Rain -1 985 68 10000 6.7 270 15:24 25.06.2019
5661 Rain -1 985 68 10000 6.7 270 15:24 25.06.2019
5662 Snow -1 985 74 1200 2.6 270 14:54 25.06.2019
5663 Rain -1 985 74 10000 1.5 290 14:35 25.06.2019
5664 Rain -1 985 86 10000 4.1 230 13:47 25.06.2019
5665 Rain -1 985 86 10000 4.1 230 13:29 25.06.2019
5666 Clouds -5 986 95 0 2.16 314.27 12:55 25.06.2019
5667 Clouds -5 986 95 0 2.16 314.27 12:36 25.06.2019
5668 Clouds -6 986 96 0 2.29 322.303 12:18 25.06.2019
5669 Clouds -6 986 96 0 2.29 322.303 11:41 25.06.2019
5670 Clouds -6 986 96 0 2.29 322.303 11:21 25.06.2019
5671 Clouds -6 986 96 0 2.29 322.303 10:45 25.06.2019
5672 Clouds -6 986 96 0 2.29 322.303 10:23 25.06.2019
5673 Clouds -6 986 96 0 2.29 322.303 09:55 25.06.2019
5674 Clouds -6 986 96 0 2.29 322.303 09:37 25.06.2019
5675 Clouds -6 988 97 0 1.89 305.386 09:18 25.06.2019
5676 Clouds -6 988 97 0 1.89 305.386 08:43 25.06.2019
5677 Clouds -7 988 97 0 1.97 313.152 08:24 25.06.2019
5678 Clouds -7 988 97 0 1.97 313.152 07:40 25.06.2019
5679 Clouds -7 988 97 0 1.97 313.152 06:58 25.06.2019
5680 Clouds -7 988 97 0 1.97 313.152 06:40 25.06.2019
5681 Snow 0 986 95 10000 8.2 230 02:48 25.06.2019
5682 Snow 0 985 95 10000 9.3 230 01:50 25.06.2019
5683 Snow 0 985 96 10000 7.2 230 00:37 25.06.2019
5684 Snow 1 984 86 10000 7.7 230 23:59 24.06.2019
5685 Snow 1 984 86 10000 7.7 230 23:40 24.06.2019
5686 Snow 1 984 86 10000 7.7 230 23:22 24.06.2019
5687 Clouds 1 984 80 10000 4.1 230 22:41 24.06.2019
5688 Clouds 1 984 80 10000 4.1 230 22:19 24.06.2019
5689 Clouds 1 984 69 10000 2.4 286.014 21:39 24.06.2019
5690 Clouds 1 984 69 10000 2.94 337.269 21:19 24.06.2019
5691 Clouds 2 984 69 10000 1.5 340 20:57 24.06.2019
5692 Clouds 2 984 69 10000 1.5 340 20:39 24.06.2019
5693 Clouds 2 984 69 10000 1.5 340 20:20 24.06.2019
5694 Clouds 2 985 74 10000 2.76 330.265 19:46 24.06.2019
5695 Clouds 2 985 74 10000 2.76 330.265 19:21 24.06.2019
5696 Clouds 2 985 74 10000 2.76 330.265 18:47 24.06.2019
5697 Clouds 2 985 74 10000 2.76 330.265 18:27 24.06.2019
5698 Clouds 2 986 69 10000 2.1 360 17:56 24.06.2019
5699 Clouds 2 986 69 10000 2.1 360 17:35 24.06.2019
5700 Clouds 2 987 80 10000 6.7 230 16:48 24.06.2019
5701 Clouds 2 987 80 10000 6.7 230 16:21 24.06.2019
5702 Rain 1 987 80 10000 8.7 230 15:59 24.06.2019
5703 Rain 1 987 80 10000 8.7 230 15:38 24.06.2019
5704 Rain 1 987 80 10000 8.7 230 15:19 24.06.2019
5705 Rain 1 987 80 10000 9.3 230 14:34 24.06.2019
5706 Rain 1 987 80 5000 10.3 230 13:50 24.06.2019
5707 Rain 1 987 80 5000 10.3 230 13:29 24.06.2019
5708 Snow 1 987 93 3000 11.3 230 12:44 24.06.2019
5709 Snow 1 987 96 3000 11.3 230 12:22 24.06.2019
5710 Snow 1 987 96 3000 10.8 230 11:56 24.06.2019
5711 Snow 1 987 96 3000 10.8 230 11:38 24.06.2019
5712 Snow 1 987 96 3000 10.8 230 11:18 24.06.2019
5713 Snow 1 987 96 2000 12.3 230 10:42 24.06.2019
5714 Snow 1 987 96 2000 12.3 230 10:20 24.06.2019
5715 Drizzle 1 987 96 10000 10.3 230 09:48 24.06.2019
5716 Drizzle 1 987 98 10000 10.3 230 09:20 24.06.2019
5717 Drizzle 2 986 93 10000 14.4 230 08:51 24.06.2019
5718 Drizzle 2 986 93 10000 14.4 230 08:25 24.06.2019
5719 Drizzle 2 986 93 10000 14.4 230 08:25 24.06.2019
5720 Drizzle 2 987 93 10000 7.2 230 07:44 24.06.2019
5721 Drizzle 2 987 93 10000 7.2 230 07:25 24.06.2019
5722 Clouds 2 988 93 10000 2.1 270 06:31 24.06.2019
5723 Rain 3 988 86 10000 3.1 250 05:57 24.06.2019
5724 Drizzle 3 988 86 10000 1.5 270 04:59 24.06.2019
5725 Drizzle 3 988 86 10000 1.5 270 04:21 24.06.2019
5726 Clouds 4 990 98 10000 2.1 70 02:55 24.06.2019
5727 Clouds 4 990 98 10000 2.1 320 01:59 24.06.2019
5728 Clouds 4 990 98 10000 2.1 320 01:41 24.06.2019
5729 Clouds 4 990 97 10000 2.1 320 01:21 24.06.2019
5730 Clouds 4 990 97 10000 2.79 358.973 00:38 24.06.2019
5731 Clouds 3 991 93 10000 1.5 230 00:18 24.06.2019
5732 Clouds 3 991 93 10000 1.5 230 23:43 23.06.2019
5733 Clouds 3 991 93 10000 1.5 230 23:21 23.06.2019
5734 Clouds 4 992 69 10000 1.5 290 22:42 23.06.2019
5735 Clouds 4 992 69 10000 1.5 290 22:20 23.06.2019
5736 Clouds 5 992 65 10000 2.6 270 21:44 23.06.2019
5737 Clouds 5 992 65 10000 2.6 270 21:25 23.06.2019
5738 Clouds 5 993 65 10000 1.5 360 20:58 23.06.2019
5739 Clouds 5 993 65 10000 1.5 360 20:38 23.06.2019
5740 Clouds 5 993 65 10000 1.5 360 20:20 23.06.2019
5741 Clouds 6 994 56 10000 2.1 290 19:43 23.06.2019
5742 Clouds 6 994 56 10000 2.1 290 19:20 23.06.2019
5743 Clouds 6 994 48 10000 4.1 320 18:52 23.06.2019
5744 Clouds 6 994 48 10000 4.1 320 18:22 23.06.2019
5745 Clouds 5 995 65 10000 8.2 360 17:50 23.06.2019
5746 Clouds 5 995 65 10000 8.2 360 17:25 23.06.2019
5747 Clouds 5 995 56 10000 9.3 360 16:55 23.06.2019
5748 Clouds 5 995 56 10000 9.3 360 16:36 23.06.2019
5749 Clouds 5 995 56 10000 9.3 360 16:18 23.06.2019
5750 Clouds 5 996 56 10000 6.2 360 15:40 23.06.2019
5751 Clouds 5 996 56 10000 6.2 360 15:19 23.06.2019
5752 Clouds 5 996 60 10000 7.2 340 14:40 23.06.2019
5753 Clouds 5 996 60 10000 7.2 340 14:22 23.06.2019
5754 Rain 5 996 60 10000 3.6 340 13:56 23.06.2019
5755 Rain 5 996 60 10000 3.6 340 13:36 23.06.2019
5756 Rain 5 996 60 10000 3.6 340 13:18 23.06.2019
5757 Clouds 5 996 60 10000 7.2 360 12:42 23.06.2019
5758 Clouds 5 996 60 10000 7.2 360 12:21 23.06.2019
5759 Clouds 4 996 64 10000 6.7 360 11:50 23.06.2019
5760 Clouds 4 996 64 10000 6.7 360 11:29 23.06.2019
5761 Clouds 4 997 55 10000 7.7 320 10:53 23.06.2019
5762 Clouds 4 997 55 10000 7.7 320 10:22 23.06.2019
5763 Clouds 4 997 55 10000 7.7 320 10:22 23.06.2019
5764 Clouds 2 998 74 10000 3.6 320 09:59 23.06.2019
5765 Clouds 2 998 74 10000 3.6 320 09:28 23.06.2019
5766 Clouds 1 998 80 10000 5.1 320 08:56 23.06.2019
5767 Clouds 1 998 80 10000 5.1 320 08:37 23.06.2019
5768 Clouds 1 998 80 10000 5.1 320 08:19 23.06.2019
5769 Clouds 0 999 95 10000 5.1 320 07:51 23.06.2019
5770 Clouds 0 999 95 10000 5.1 320 07:20 23.06.2019
5771 Clear 0 999 95 10000 1.5 320 06:53 23.06.2019
5772 Clear 0 1000 94 10000 2.6 320 05:54 23.06.2019
5773 Clouds 0 1001 94 10000 1.5 50 03:30 23.06.2019
5774 Clouds 0 1001 92 10000 2.1 360 01:43 23.06.2019
5775 Clouds 0 1001 92 10000 2.1 360 01:24 23.06.2019
5776 Clouds 0 1001 92 10000 3.1 360 00:34 23.06.2019
5777 Clouds 1 1000 86 10000 1.5 290 23:52 22.06.2019
5778 Clouds 1 1000 86 10000 1.5 290 23:27 22.06.2019
5779 Clouds 2 1000 80 10000 2.6 360 22:49 22.06.2019
5780 Clouds 2 1000 80 10000 2.6 360 22:29 22.06.2019
5781 Clouds 2 1000 80 10000 2.6 360 21:59 22.06.2019
5782 Clouds 2 1000 80 10000 2.6 360 21:37 22.06.2019
5783 Clouds 2 1000 80 10000 2.6 360 21:18 22.06.2019
5784 Clouds 2 1000 80 10000 2.1 320 20:48 22.06.2019
5785 Snow 1 1000 80 10000 2.1 320 20:25 22.06.2019
5786 Snow 1 999 80 10000 2.1 320 19:46 22.06.2019
5787 Snow 1 999 80 10000 2.1 320 19:22 22.06.2019
5788 Rain 1 999 86 10000 3.1 290 18:48 22.06.2019
5789 Rain 1 999 86 10000 3.1 290 18:30 22.06.2019
5790 Rain 1 998 80 10000 2.6 320 17:56 22.06.2019
5791 Rain 1 998 80 10000 2.6 320 17:33 22.06.2019
5792 Snow 1 998 80 10000 2.1 180 16:50 22.06.2019
5793 Snow 1 998 80 10000 2.1 180 16:24 22.06.2019
5794 Rain 1 997 86 10000 5.7 180 15:55 22.06.2019
5795 Rain 1 997 86 10000 5.7 180 15:34 22.06.2019
5796 Drizzle 1 996 86 10000 4.1 180 14:58 22.06.2019
5797 Drizzle 1 996 86 10000 4.1 180 14:34 22.06.2019
5798 Rain 2 994 80 10000 6.7 180 13:59 22.06.2019
5799 Rain 2 994 80 10000 6.7 180 13:40 22.06.2019
5800 Rain 2 994 80 10000 6.7 180 13:19 22.06.2019
5801 Drizzle 2 993 96 10000 5.1 180 12:50 22.06.2019
5802 Drizzle 2 993 96 10000 5.1 180 12:32 22.06.2019
5803 Drizzle 2 992 97 10000 4.1 180 11:58 22.06.2019
5804 Drizzle 2 992 97 10000 4.1 180 11:32 22.06.2019
5805 Drizzle 1 990 97 10000 3.1 200 10:49 22.06.2019
5806 Drizzle 1 990 97 10000 3.1 200 10:21 22.06.2019
5807 Rain 1 990 97 10000 3.6 180 09:49 22.06.2019
5808 Rain 1 990 98 10000 3.6 180 09:22 22.06.2019
5809 Rain 1 989 98 10000 2.6 270 08:42 22.06.2019
5810 Rain 1 989 98 10000 2.6 270 08:22 22.06.2019
5811 Snow 0 988 98 8000 2.1 270 07:31 22.06.2019
5812 Snow 0 987 98 8000 1.5 230 06:47 22.06.2019
5813 Snow 0 987 98 8000 1.5 270 05:22 22.06.2019
5814 Snow 0 987 97 8000 0.95 152.219 02:33 22.06.2019
5815 Snow 0 987 98 8000 1.5 270 01:19 22.06.2019
5816 Snow 1 987 98 8000 3.6 160 00:39 22.06.2019
5817 Snow 1 987 98 8000 3.6 160 00:19 22.06.2019
5818 Rain 2 987 93 10000 4.1 110 23:42 21.06.2019
5819 Rain 2 987 93 10000 4.1 110 23:21 21.06.2019
5820 Rain 2 987 93 10000 1.5 110 22:47 21.06.2019
5821 Rain 2 987 93 10000 1.5 110 22:47 21.06.2019
5822 Rain 2 987 93 10000 1.5 110 22:23 21.06.2019
5823 Rain 2 987 93 10000 3.1 90 21:40 21.06.2019
5824 Rain 2 987 93 10000 3.1 90 21:22 21.06.2019
5825 Rain 2 987 93 10000 2.6 50 20:53 21.06.2019
5826 Rain 2 987 93 10000 2.6 50 20:27 21.06.2019
5827 Rain 2 988 96 10000 3.1 90 19:59 21.06.2019
5828 Rain 2 988 96 10000 3.1 90 19:31 21.06.2019
5829 Rain 3 988 96 10000 2.1 360 18:48 21.06.2019
5830 Rain 3 988 96 10000 2.1 360 18:28 21.06.2019
5831 Drizzle 2 989 94 10000 2.6 360 17:46 21.06.2019
5832 Drizzle 2 989 94 10000 2.6 360 17:27 21.06.2019
5833 Clouds 2 989 94 10000 3.1 360 16:40 21.06.2019
5834 Clouds 2 989 94 10000 3.1 360 16:21 21.06.2019
5835 Drizzle 2 990 80 10000 2.6 360 15:39 21.06.2019
5836 Drizzle 2 990 80 10000 2.6 360 15:20 21.06.2019
5837 Drizzle 2 990 90 10000 2.1 360 14:47 21.06.2019
5838 Drizzle 2 990 90 10000 2.1 360 14:28 21.06.2019
5839 Clouds 2 991 80 10000 2.6 360 13:46 21.06.2019
5840 Clouds 2 991 80 10000 2.6 360 13:27 21.06.2019
5841 Clouds 2 991 90 10000 2.6 90 12:58 21.06.2019
5842 Clouds 2 991 90 10000 2.6 90 12:38 21.06.2019
5843 Clouds 2 991 74 10000 2.6 360 12:18 21.06.2019
5844 Clouds 2 991 74 10000 2.6 360 12:18 21.06.2019
5845 Clouds 2 991 74 10000 2.6 360 11:46 21.06.2019
5846 Clouds 2 991 74 10000 2.6 360 11:24 21.06.2019
5847 Clouds 2 992 80 10000 2.1 360 10:49 21.06.2019
5848 Clouds 2 992 80 10000 2.1 360 10:21 21.06.2019
5849 Clouds 2 992 80 10000 2.1 360 10:21 21.06.2019
5850 Clouds 2 992 80 10000 1.5 50 09:56 21.06.2019
5851 Clouds 2 992 80 10000 1.5 50 09:38 21.06.2019
5852 Clouds 2 992 80 10000 1.5 50 09:18 21.06.2019
5853 Clouds 2 993 93 10000 3.6 90 08:42 21.06.2019
5854 Clouds 2 993 94 10000 3.6 90 08:22 21.06.2019
5855 Clouds 1 994 94 10000 2.1 90 07:46 21.06.2019
5856 Clouds 1 994 94 10000 2.1 90 07:26 21.06.2019
5857 Clouds 2 995 80 10000 2.6 50 06:42 21.06.2019
5858 Clouds 1 996 80 10000 2.18 327.71 06:18 21.06.2019
5859 Clouds 1 996 80 10000 2.18 327.71 04:57 21.06.2019
5860 Clear 1 997 80 10000 2.18 327.71 03:58 21.06.2019
5861 Clear 1 997 80 10000 2.18 327.71 03:32 21.06.2019
5862 Clear 1 998 74 10000 2.6 270 02:44 21.06.2019
5863 Clear 1 998 80 10000 2.1 320 01:38 21.06.2019
5864 Clear 1 999 80 10000 2.6 360 00:52 21.06.2019
5865 Clear 0 1000 93 10000 2.03 316.315 00:18 21.06.2019
5866 Clear 0 1000 93 10000 2.03 316.315 23:42 20.06.2019
5867 Clear 2 1000 93 10000 2.03 316.315 23:21 20.06.2019
5868 Clouds 3 1000 80 10000 2.03 316.315 22:46 20.06.2019
5869 Clouds 3 1000 80 10000 2.03 316.315 22:26 20.06.2019
5870 Clouds 4 1000 74 10000 3.1 360 21:57 20.06.2019
5871 Clouds 4 1000 74 10000 3.1 360 21:38 20.06.2019
5872 Clouds 4 1000 74 10000 3.1 360 21:19 20.06.2019
5873 Clouds 4 1000 74 10000 4.1 320 20:46 20.06.2019
5874 Clouds 4 1000 74 10000 4.1 320 20:25 20.06.2019
5875 Clouds 4 1000 90 10000 4.1 290 19:55 20.06.2019
5876 Clouds 4 1000 90 10000 4.1 290 19:36 20.06.2019
5877 Clouds 3 1000 90 10000 4.1 240 19:18 20.06.2019
5878 Clouds 3 1000 90 10000 4.1 240 18:42 20.06.2019
5879 Rain 3 1000 94 10000 4.1 240 18:23 20.06.2019
5880 Rain 3 1000 94 10000 12.3 230 17:51 20.06.2019
5881 Rain 3 1000 94 10000 12.3 230 17:51 20.06.2019
5882 Rain 3 1000 94 10000 12.3 230 17:32 20.06.2019
5883 Rain 3 1000 94 10000 10.3 230 16:48 20.06.2019
5884 Rain 3 1000 94 10000 10.3 230 16:20 20.06.2019
5885 Rain 2 999 93 10000 12.3 230 15:59 20.06.2019
5886 Rain 2 999 93 10000 12.3 230 15:40 20.06.2019
5887 Rain 2 999 93 10000 12.3 230 15:22 20.06.2019
5888 Snow 2 1000 93 10000 13.4 230 14:46 20.06.2019
5889 Snow 2 1000 93 10000 13.4 230 14:23 20.06.2019
5890 Snow 1 999 86 10000 9.8 230 13:41 20.06.2019
5891 Snow 1 999 86 10000 9.8 230 13:20 20.06.2019
5892 Snow 1 998 74 10000 8.7 230 12:49 20.06.2019
5893 Snow 1 998 74 10000 8.7 230 12:24 20.06.2019
5894 Snow 0 998 94 8000 10.3 230 11:49 20.06.2019
5895 Snow 0 998 94 8000 10.3 230 11:30 20.06.2019
5896 Snow 1 998 80 5000 9.3 230 10:58 20.06.2019
5897 Snow 1 998 80 5000 9.3 230 10:39 20.06.2019
5898 Snow 1 998 80 5000 9.3 230 10:20 20.06.2019
5899 Snow 0 998 94 5000 11.3 250 09:40 20.06.2019
5900 Snow 0 998 86 5000 11.3 250 09:22 20.06.2019
5901 Snow 0 997 88 800 8.7 250 08:46 20.06.2019
5902 Snow 0 997 88 800 8.7 250 08:27 20.06.2019
5903 Snow 0 997 88 500 7.7 230 07:54 20.06.2019
5904 Snow 0 997 88 500 7.7 230 07:30 20.06.2019
5905 Snow 0 996 88 8000 6.7 230 06:30 20.06.2019
5906 Snow 0 995 88 3000 3.1 270 05:41 20.06.2019
5907 Snow 0 995 88 2500 4.6 270 03:37 20.06.2019
5908 Clouds 2 996 69 10000 6.2 230 00:34 20.06.2019
5909 Rain 3 996 69 10000 10.8 230 23:59 19.06.2019
5910 Rain 3 996 69 10000 10.8 230 23:41 19.06.2019
5911 Rain 3 996 69 10000 10.8 230 23:23 19.06.2019
5912 Rain 4 994 59 10000 14.4 230 22:47 19.06.2019
5913 Rain 4 994 59 10000 14.4 230 22:20 19.06.2019
5914 Drizzle 3 993 93 10000 19 230 21:47 19.06.2019
5915 Drizzle 3 993 93 10000 19 230 21:26 19.06.2019
5916 Drizzle 6 994 80 10000 11.8 230 20:57 19.06.2019
5917 Drizzle 6 994 80 10000 11.8 230 20:37 19.06.2019
5918 Drizzle 6 994 80 10000 11.8 230 20:19 19.06.2019
5919 Rain 7 993 36 10000 9.3 320 19:41 19.06.2019
5920 Rain 7 993 36 10000 9.3 320 19:21 19.06.2019
5921 Clouds 5 994 60 10000 2.6 320 18:49 19.06.2019
5922 Clouds 5 994 60 10000 2.6 320 18:21 19.06.2019
5923 Clouds 4 996 97 10000 2.14 310.694 17:38 19.06.2019
5924 Clouds 3 996 97 10000 2.14 310.694 17:18 19.06.2019
5925 Clouds 3 997 97 10000 1.5 250 16:40 19.06.2019
5926 Clouds 3 997 97 10000 1.5 250 16:21 19.06.2019
5927 Clouds 2 998 97 10000 2.14 310.694 15:54 19.06.2019
5928 -273 0 0 0 0 0 15:28 19.06.2019
5929 Clouds 2 998 97 10000 2.14 310.694 15:28 19.06.2019
5930 Clouds 2 998 98 10000 1 320 14:57 19.06.2019
5931 Clouds 2 998 98 10000 1 320 14:57 19.06.2019
5932 Clouds 2 998 98 10000 1 320 14:38 19.06.2019
5933 Clouds 2 998 98 10000 1 320 14:20 19.06.2019
5934 Clouds 5 999 75 10000 4.1 270 13:43 19.06.2019
5935 Clouds 5 999 75 10000 4.1 270 13:24 19.06.2019
5936 Clouds 5 999 98 10000 5.1 230 12:44 19.06.2019
5937 Clouds 5 999 98 10000 5.1 230 12:22 19.06.2019
5938 Clouds 4 999 98 10000 6.2 230 11:56 19.06.2019
5939 Clouds 4 999 98 10000 6.2 230 11:37 19.06.2019
5940 Clouds 4 999 98 10000 6.2 230 11:19 19.06.2019
5941 Clouds 5 998 80 10000 11.8 230 10:43 19.06.2019
5942 Clouds 5 998 80 10000 11.8 230 10:43 19.06.2019
5943 Clouds 5 998 80 10000 11.8 230 10:24 19.06.2019
5944 Clouds 4 998 80 10000 3.1 360 09:42 19.06.2019
5945 Clouds 4 998 80 10000 3.1 360 09:22 19.06.2019
5946 Clouds 2 999 93 10000 2.1 90 08:51 19.06.2019
5947 Clouds 2 999 93 10000 2.1 90 08:29 19.06.2019
5948 Clouds 4 999 93 10000 3.1 20 07:49 19.06.2019
5949 Clouds 4 999 93 10000 3.1 20 07:30 19.06.2019
5950 Clouds 5 999 86 10000 1.84 279.313 06:55 19.06.2019
5951 Clouds 5 999 86 10000 1.84 279.313 06:30 19.06.2019
5952 Clouds 5 999 86 10000 1.5 50 05:50 19.06.2019
5953 Clouds 5 999 86 10000 2.1 20 04:41 19.06.2019
5954 Clouds 6 1000 81 10000 1.56 280.534 03:37 19.06.2019
5955 Clouds 6 1000 81 10000 1.58 298.399 02:30 19.06.2019
5956 Clouds 6 1000 87 10000 1.5 320 01:27 19.06.2019
5957 Clouds 6 1000 87 10000 2.1 290 00:52 19.06.2019
5958 Clouds 6 1000 87 10000 2.1 290 00:34 19.06.2019
5959 Rain 6 1001 93 10000 6.7 230 23:58 18.06.2019
5960 Rain 6 1001 93 10000 6.7 230 23:30 18.06.2019
5961 Rain 4 1000 93 10000 7.2 230 22:55 18.06.2019
5962 Rain 4 1000 93 10000 6.2 230 22:37 18.06.2019
5963 Rain 5 1000 93 10000 6.2 230 22:18 18.06.2019
5964 Clouds 6 1000 75 10000 1.79 313.957 21:43 18.06.2019
5965 Clouds 6 1000 75 10000 1.89 293.143 21:21 18.06.2019
5966 Clouds 6 1000 75 10000 1.89 293.143 21:21 18.06.2019
5967 Clouds 5 1000 87 10000 1.74 301.066 20:44 18.06.2019
5968 Clouds 5 1000 87 10000 1.74 301.066 20:26 18.06.2019
5969 Drizzle 5 1000 93 10000 1.74 301.066 19:56 18.06.2019
5970 Drizzle 5 1000 93 10000 1.74 301.066 19:38 18.06.2019
5971 Drizzle 5 1000 93 10000 1.74 301.066 19:19 18.06.2019
5972 Clear 4 1000 100 10000 1.74 301.066 18:45 18.06.2019
5973 Clear 4 1000 100 10000 1.96 310.68 18:24 18.06.2019
5974 Clear 4 1001 93 10000 4.1 360 17:42 18.06.2019
5975 Clear 4 1001 93 10000 4.1 360 17:21 18.06.2019
5976 Clear 3 1001 93 10000 2.1 360 16:47 18.06.2019
5977 Clear 3 1001 93 10000 2.1 360 16:28 18.06.2019
5978 Clear 4 1001 65 10000 1.96 310.68 15:58 18.06.2019
5979 Clear 4 1001 65 10000 1.96 310.68 15:38 18.06.2019
5980 Clear 4 1001 65 10000 2.92 323.252 15:19 18.06.2019
5981 Clear 4 1001 81 10000 2.1 320 14:45 18.06.2019
5982 Clear 4 1001 81 10000 2.1 320 14:22 18.06.2019
5983 Clear 7 1001 87 10000 2.92 323.252 13:58 18.06.2019
5984 Clear 7 1001 87 10000 2.92 323.252 13:38 18.06.2019
5985 Clear 7 1001 87 10000 2.38 317.907 13:20 18.06.2019
5986 Clear 7 1002 81 10000 2.38 317.907 12:43 18.06.2019
5987 Clear 7 1002 81 10000 3.02 316.25 12:25 18.06.2019
5988 Clear 7 1002 81 10000 3.02 316.25 11:45 18.06.2019
5989 Clear 7 1002 81 10000 3.02 316.25 11:23 18.06.2019
5990 Clear 7 1002 81 10000 3.02 316.25 11:23 18.06.2019
5991 Clear 6 1003 93 10000 3.02 316.25 10:57 18.06.2019
5992 Clear 6 1003 93 10000 3.02 316.25 10:38 18.06.2019
5993 Clear 6 1003 93 10000 3.02 316.25 10:19 18.06.2019
5994 Clear 6 1004 93 10000 1.5 360 09:49 18.06.2019
5995 Clear 6 1004 93 10000 1.5 360 09:24 18.06.2019
5996 Clear 6 1004 87 10000 2.6 360 08:46 18.06.2019
5997 Clear 6 1004 87 10000 2.6 360 08:21 18.06.2019
5998 Clear 6 1004 87 10000 2.6 360 08:21 18.06.2019
5999 Clouds 6 1005 93 10000 1.5 290 07:41 18.06.2019
6000 Clouds 6 1005 93 10000 1.5 290 07:23 18.06.2019
6001 Clouds 6 1005 87 10000 3.27 322.573 06:44 18.06.2019
6002 Clouds 8 1006 75 10000 3.2 323.878 05:21 18.06.2019
6003 Clouds 8 1006 75 10000 2.1 340 03:59 18.06.2019
6004 Clouds 8 1006 75 10000 2.6 340 01:59 18.06.2019
6005 Clouds 8 1006 75 10000 2.6 340 01:25 18.06.2019
6006 Clouds 8 1007 75 10000 4.6 340 00:57 18.06.2019
6007 Clouds 8 1007 75 10000 4.6 340 00:30 18.06.2019
6008 Clouds 8 1007 75 10000 2.6 360 23:42 17.06.2019
6009 Clouds 7 1007 75 10000 2.6 360 23:22 17.06.2019
6010 Clouds 6 1007 75 10000 3.1 360 22:58 17.06.2019
6011 Clouds 6 1007 75 10000 3.1 360 22:38 17.06.2019
6012 Clouds 6 1007 75 10000 3.1 360 22:20 17.06.2019
6013 Clouds 7 1007 75 10000 3.6 360 21:42 17.06.2019
6014 Clouds 7 1007 75 10000 3.6 360 21:23 17.06.2019
6015 Clouds 7 1007 75 10000 3.6 360 21:23 17.06.2019
6016 Clouds 7 1006 70 10000 2.6 50 20:40 17.06.2019
6017 Clouds 7 1006 70 10000 2.6 50 20:21 17.06.2019
6018 Clouds 7 1007 70 10000 3.6 340 19:57 17.06.2019
6019 Clouds 7 1007 70 10000 3.6 340 19:39 17.06.2019
6020 Clouds 7 1007 70 10000 3.6 340 19:20 17.06.2019
6021 Clouds 7 1007 70 10000 3.1 20 18:39 17.06.2019
6022 Clouds 7 1007 70 10000 1.5 340 18:18 17.06.2019
6023 Clouds 7 1007 70 10000 1.5 340 18:18 17.06.2019
6024 Clouds 7 1007 70 10000 1.5 340 17:48 17.06.2019
6025 Clouds 7 1007 70 10000 1.5 340 17:30 17.06.2019
6026 Clouds 6 1007 70 10000 5.1 360 16:59 17.06.2019
6027 Clouds 6 1007 70 10000 5.1 360 16:41 17.06.2019
6028 Clouds 6 1007 70 10000 5.1 360 16:23 17.06.2019
6029 Clouds 7 1006 70 10000 5.1 360 15:44 17.06.2019
6030 Clouds 7 1006 61 10000 4.1 320 15:20 17.06.2019
6031 Clouds 7 1006 61 10000 4.1 320 14:56 17.06.2019
6032 Clouds 7 1006 61 10000 4.1 320 14:38 17.06.2019
6033 Clouds 9 1006 66 10000 4.1 20 14:19 17.06.2019
6034 Clouds 9 1006 66 10000 4.1 20 13:42 17.06.2019
6035 Clouds 9 1006 66 10000 4.1 20 13:21 17.06.2019
6036 Clouds 9 1006 66 10000 4.1 20 12:46 17.06.2019
6037 Clouds 9 1006 66 10000 4.1 360 12:22 17.06.2019
6038 Clouds 9 1006 66 10000 4.1 360 11:45 17.06.2019
6039 Clouds 9 1006 66 10000 4.1 360 11:26 17.06.2019
6040 Clouds 10 1006 61 10000 5.7 360 10:56 17.06.2019
6041 Clouds 10 1006 61 10000 5.7 360 10:38 17.06.2019
6042 Clouds 10 1006 53 10000 2.1 360 10:20 17.06.2019
6043 Clouds 10 1006 53 10000 2.1 360 09:39 17.06.2019
6044 Clouds 9 1007 45 10000 3.6 360 09:20 17.06.2019
6045 Clouds 9 1007 45 10000 3.6 360 08:40 17.06.2019
6046 Clouds 10 1007 91 10000 3.1 90 08:22 17.06.2019
6047 Clouds 10 1007 91 10000 3.1 90 07:40 17.06.2019
6048 Clouds 10 1007 53 10000 3.1 90 07:20 17.06.2019
6049 Clouds 10 1007 53 10000 3.1 90 06:30 17.06.2019
6050 Clouds 6 1008 70 10000 3.6 340 05:42 17.06.2019
6051 Clouds 7 1008 70 10000 2.6 340 04:34 17.06.2019
6052 Clouds 8 1009 70 10000 3.1 360 03:35 17.06.2019
6053 Clouds 2 1009 93 0 2.63 319.581 02:58 17.06.2019
6054 Clouds 2 1009 93 0 2.63 319.581 02:40 17.06.2019
6055 Clouds 6 1010 81 10000 3.1 90 01:43 17.06.2019
6056 Clouds 7 1010 75 10000 2.1 140 01:18 17.06.2019
6057 Clouds 7 1010 75 10000 2.1 140 00:41 17.06.2019
6058 Clouds 7 1011 70 10000 3.1 320 00:21 17.06.2019
6059 Clouds 7 1011 70 10000 3.1 320 23:41 16.06.2019
6060 Clouds 9 1011 70 10000 2.41 313.338 23:22 16.06.2019
6061 Clouds 9 1011 70 10000 2.41 313.338 22:56 16.06.2019
6062 Clouds 9 1011 70 10000 2.41 313.338 22:38 16.06.2019
6063 Clouds 10 1010 66 10000 2.41 313.338 22:18 16.06.2019
6064 Clouds 10 1010 66 10000 2.41 313.338 21:41 16.06.2019
6065 Clouds 10 1010 66 10000 2.53 312.785 21:23 16.06.2019
6066 Clouds 11 1010 57 10000 2.53 312.785 20:59 16.06.2019
6067 Clouds 11 1010 57 10000 1.98 310.664 20:37 16.06.2019
6068 Clouds 9 1011 76 10000 1.98 310.664 20:18 16.06.2019
6069 Clouds 9 1011 76 10000 1.98 310.664 19:43 16.06.2019
6070 Clouds 10 1011 70 10000 1.98 310.664 19:22 16.06.2019
6071 Clouds 10 1011 70 10000 1.98 310.664 18:59 16.06.2019
6072 Clouds 10 1011 70 10000 1.98 310.664 18:41 16.06.2019
6073 Clouds 9 1011 66 10000 2.6 340 18:20 16.06.2019
6074 Clouds 9 1011 66 10000 2.6 340 17:48 16.06.2019
6075 Clouds 9 1011 66 10000 2.6 340 17:24 16.06.2019
6076 Clouds 8 1010 75 10000 2.1 340 16:57 16.06.2019
6077 Clouds 8 1010 75 10000 2.1 340 16:39 16.06.2019
6078 Clouds 10 1011 66 10000 4.1 340 16:21 16.06.2019
6079 Clouds 10 1011 66 10000 4.1 340 15:44 16.06.2019
6080 Clouds 10 1011 66 10000 4.1 340 15:24 16.06.2019
6081 Rain 9 1011 70 10000 1.5 20 14:45 16.06.2019
6082 Rain 9 1011 70 10000 1.5 20 14:24 16.06.2019
6083 Rain 9 1011 76 10000 2.65 306.343 13:56 16.06.2019
6084 Rain 9 1011 76 10000 2.65 306.343 13:38 16.06.2019
6085 Rain 7 1012 87 10000 4.1 340 13:20 16.06.2019
6086 Rain 7 1012 87 10000 4.1 340 12:42 16.06.2019
6087 Drizzle 8 1012 75 10000 2.54 304.655 12:21 16.06.2019
6088 Drizzle 8 1012 75 10000 2.54 304.655 11:54 16.06.2019
6089 Drizzle 8 1012 75 10000 2.54 304.655 11:36 16.06.2019
6090 Drizzle 8 1013 75 10000 2.6 50 11:18 16.06.2019
6091 Drizzle 8 1013 75 10000 2.6 50 10:43 16.06.2019
6092 Drizzle 8 1013 70 10000 2.6 270 10:19 16.06.2019
6093 Drizzle 8 1013 70 10000 2.6 270 09:42 16.06.2019
6094 Drizzle 8 1013 70 10000 2.6 270 09:23 16.06.2019
6095 Drizzle 8 1014 70 10000 4.1 360 08:46 16.06.2019
6096 Clouds 7 1014 75 10000 3.6 340 08:20 16.06.2019
6097 Clouds 7 1014 75 10000 3.6 340 07:45 16.06.2019
6098 Clouds 7 1014 75 10000 3.6 340 07:27 16.06.2019
6099 Clouds 8 1014 70 10000 3.6 270 06:52 16.06.2019
6100 Clouds 8 1015 70 10000 8.2 250 05:55 16.06.2019
6101 Clouds 8 1014 70 10000 13.4 230 05:20 16.06.2019
6102 Clouds 8 1014 65 10000 12.9 230 04:21 16.06.2019
6103 Clouds 8 1014 65 10000 12.9 230 03:40 16.06.2019
6104 Clouds 8 1013 70 10000 10.8 230 03:20 16.06.2019
6105 Clouds 8 1013 61 10000 10.3 250 01:48 16.06.2019
6106 Clouds 8 1013 61 10000 10.3 250 01:30 16.06.2019
6107 Clouds 9 1012 61 10000 5.7 290 00:43 16.06.2019
6108 Clouds 9 1012 61 10000 5.7 290 00:25 16.06.2019
6109 Clouds 8 1013 95 10000 6.7 270 23:56 15.06.2019
6110 Clouds 8 1013 95 10000 6.7 270 23:38 15.06.2019
6111 Clouds 8 1012 95 10000 3.6 270 23:19 15.06.2019
6112 Clouds 8 1012 95 10000 3.6 270 22:43 15.06.2019
6113 Clouds 8 1012 95 10000 3.6 270 22:25 15.06.2019
6114 Clouds 8 1012 52 10000 3.1 360 21:44 15.06.2019
6115 Clouds 7 1012 56 10000 4.1 360 21:21 15.06.2019
6116 Clouds 7 1012 56 10000 4.1 360 20:45 15.06.2019
6117 Clouds 7 1012 56 10000 4.1 360 20:23 15.06.2019
6118 Clouds 5 1013 75 10000 3.6 320 19:50 15.06.2019
6119 Clouds 5 1013 75 10000 3.6 320 19:28 15.06.2019
6120 Clouds 4 1013 80 10000 3.16 312.539 18:45 15.06.2019
6121 Clouds 4 1013 80 10000 3.62 316.782 18:26 15.06.2019
6122 Clouds 3 1014 80 10000 3.62 316.782 17:47 15.06.2019
6123 Clouds 3 1014 80 10000 3.62 316.782 17:29 15.06.2019
6124 Clouds 2 1015 86 10000 3.62 316.782 16:49 15.06.2019
6125 Clouds 3 1016 60 10000 2.6 360 16:22 15.06.2019
6126 Clouds 3 1016 60 10000 2.6 360 15:58 15.06.2019
6127 Clouds 3 1016 60 10000 2.6 360 15:40 15.06.2019
6128 Clouds 3 1017 64 10000 2.6 50 15:19 15.06.2019
6129 Clouds 3 1017 64 10000 2.6 50 14:38 15.06.2019
6130 Clouds 4 1018 64 10000 3.1 320 14:18 15.06.2019
6131 Clouds 4 1018 64 10000 3.1 320 13:43 15.06.2019
6132 Clouds -1 1017 79 0 2.82 314.67 13:20 15.06.2019
6133 Clouds -1 1017 79 0 2.82 314.67 12:57 15.06.2019
6134 Clouds -1 1017 79 0 2.82 314.67 12:37 15.06.2019
6135 Clouds 2 1019 80 10000 3.1 360 12:19 15.06.2019
6136 Clouds 2 1019 80 10000 3.1 360 11:41 15.06.2019
6137 Clouds 2 1019 80 10000 3.1 360 11:41 15.06.2019
6138 Clouds 2 1019 80 10000 3.1 360 11:23 15.06.2019
6139 Clouds 2 1020 80 10000 4.6 340 10:42 15.06.2019
6140 Clouds 2 1020 80 10000 4.6 340 10:24 15.06.2019
6141 Clear 2 1021 88 10000 5.7 360 09:47 15.06.2019
6142 Clear 2 1021 91 10000 5.7 360 09:25 15.06.2019
6143 Clear 2 1022 91 10000 6.2 340 08:54 15.06.2019
6144 Clear 2 1022 91 10000 6.2 340 08:33 15.06.2019
6145 Clear 4 1022 69 10000 4.6 320 07:52 15.06.2019
6146 Clear 4 1022 69 10000 4.6 320 07:25 15.06.2019
6147 Clear 4 1022 69 10000 5.1 360 06:44 15.06.2019
6148 Clouds 4 1022 80 10000 5.7 270 06:19 15.06.2019
6149 Clouds 4 1022 80 10000 5.7 270 05:28 15.06.2019
6150 Clouds 5 1021 80 10000 9.3 250 04:46 15.06.2019
6151 Clouds 5 1021 80 10000 6.2 250 03:49 15.06.2019
6152 -273 0 0 0 0 0 02:58 15.06.2019
6153 Clouds 5 1021 80 10000 8.2 250 02:23 15.06.2019
6154 Clouds 5 1021 80 10000 8.2 250 01:50 15.06.2019
6155 Clouds 5 1020 80 10000 4.6 270 00:59 15.06.2019
6156 Clouds 5 1020 80 10000 4.6 270 00:39 15.06.2019
6157 Clouds 4 1019 75 10000 7.2 360 23:55 14.06.2019
6158 Clouds 4 1019 75 10000 7.2 360 23:27 14.06.2019
6159 Clouds 3 1019 98 10000 4.6 270 22:56 14.06.2019
6160 Clouds 3 1019 98 10000 4.6 270 22:37 14.06.2019
6161 Clouds 2 1018 98 10000 5.1 320 22:19 14.06.2019
6162 Clouds 2 1018 98 10000 5.1 320 21:41 14.06.2019
6163 Clouds 3 1018 97 10000 3.6 360 21:22 14.06.2019
6164 Clouds 3 1018 97 10000 3.6 360 20:43 14.06.2019
6165 Clouds 1 1018 97 10000 4.1 360 20:19 14.06.2019
6166 Clouds 1 1018 97 10000 4.1 360 19:57 14.06.2019
6167 Clouds 1 1018 97 10000 4.1 360 19:36 14.06.2019
6168 Clouds 1 1019 80 10000 2.55 315.318 19:18 14.06.2019
6169 Clouds 1 1019 80 10000 2.55 315.318 18:43 14.06.2019
6170 Clouds 1 1019 80 10000 2.61 322.171 18:24 14.06.2019
6171 Rain 0 1019 80 10000 2.1 360 17:55 14.06.2019
6172 Rain 0 1019 80 10000 2.1 360 17:37 14.06.2019
6173 Rain -1 1019 80 10000 2.61 322.171 17:19 14.06.2019
6174 Rain -1 1019 80 10000 2.61 322.171 16:45 14.06.2019
6175 Clear -2 1019 74 10000 2.61 322.171 16:21 14.06.2019
6176 Clear -2 1019 74 10000 2.61 322.171 16:21 14.06.2019
6177 Clear -2 1019 74 10000 2.61 322.171 15:57 14.06.2019
6178 Clear -2 1019 74 10000 2.61 322.171 15:38 14.06.2019
6179 Clear -2 1019 80 10000 2.84 327.431 15:18 14.06.2019
6180 Clear -2 1019 80 10000 2.84 327.431 14:40 14.06.2019
6181 Clear 1 1020 80 10000 3.1 320 14:21 14.06.2019
6182 Clear 1 1020 80 10000 3.1 320 13:44 14.06.2019
6183 Clear 1 1020 80 10000 3.1 320 13:24 14.06.2019
6184 Clear 0 1020 92 10000 2.1 270 12:48 14.06.2019
6185 -273 0 0 0 0 0 12:27 14.06.2019
6186 Clear 0 1021 95 10000 2.1 50 11:59 14.06.2019
6187 Clear 0 1021 95 10000 2.1 50 11:41 14.06.2019
6188 Clear 0 1021 95 10000 2.6 360 11:22 14.06.2019
6189 Clear 0 1021 95 10000 2.6 360 10:45 14.06.2019
6190 Clear 1 1021 86 10000 2.6 360 10:20 14.06.2019
6191 Clear 1 1021 86 10000 2.6 360 09:49 14.06.2019
6192 Clear 1 1021 86 10000 2.6 360 09:31 14.06.2019
6193 Clear 0 1022 89 10000 3.53 343.925 08:47 14.06.2019
6194 Clear 0 1022 89 10000 3.53 343.925 08:20 14.06.2019
6195 Clear 0 1022 89 10000 3.53 343.925 07:53 14.06.2019
6196 Clear 0 1023 89 10000 1.5 340 07:23 14.06.2019
6197 Clear 0 1023 89 10000 1.5 340 06:52 14.06.2019
6198 Clear 0 1023 89 10000 1.5 340 06:52 14.06.2019
6199 Clear -1 1023 80 10000 3.1 320 06:18 14.06.2019
6200 Clear -1 1023 80 10000 3.1 320 05:35 14.06.2019
6201 Clear -1 1023 74 10000 2.1 320 04:51 14.06.2019
6202 Clear -1 1023 68 10000 1.5 290 04:19 14.06.2019
6203 Clear -1 1023 68 10000 1.5 290 03:26 14.06.2019
6204 -273 0 0 0 0 0 02:58 14.06.2019
6205 Clear -1 1024 74 10000 1.5 290 02:35 14.06.2019
6206 Clear -1 1024 68 10000 2.1 290 01:39 14.06.2019
6207 Clear -1 1024 68 10000 2.1 290 01:39 14.06.2019
6208 Clear -1 1023 74 10000 2.53 333.293 00:37 14.06.2019
6209 Clear -1 1023 80 10000 2.31 335.71 00:18 14.06.2019
6210 Clear -1 1023 80 10000 2.31 335.71 23:49 13.06.2019
6211 Clear -1 1023 80 10000 2.31 335.71 23:25 13.06.2019
6212 Clear -1 1023 80 10000 2.31 335.71 22:41 13.06.2019
6213 Clear 0 1023 80 10000 2.31 335.71 22:22 13.06.2019
6214 Clear 0 1023 80 10000 2.31 335.71 21:58 13.06.2019
6215 Clear 0 1023 80 10000 2.31 335.71 21:37 13.06.2019
6216 Clear 0 1023 69 10000 1.89 343.368 21:18 13.06.2019
6217 Clear 0 1023 69 10000 1.89 343.368 20:44 13.06.2019
6218 Clear 0 1023 86 10000 1.89 343.368 20:20 13.06.2019
6219 Clear 0 1023 86 10000 1.89 343.368 19:43 13.06.2019
6220 Clear 0 1023 86 10000 1.89 343.368 19:25 13.06.2019
6221 Clear -1 1024 86 10000 1.89 343.368 18:59 13.06.2019
6222 Clear -1 1024 86 10000 1.89 343.368 18:41 13.06.2019
6223 Clouds -1 1024 92 10000 2.6 320 18:22 13.06.2019
6224 Clouds -1 1024 92 10000 2.6 320 17:45 13.06.2019
6225 Clouds -4 1024 92 10000 2.22 332.282 17:22 13.06.2019
6226 Clouds -4 1024 92 10000 2.22 332.282 16:59 13.06.2019
6227 Clouds -4 1024 92 10000 2.22 332.282 16:40 13.06.2019
6228 Clouds -3 1024 92 10000 2.1 320 16:20 13.06.2019
6229 Clouds -3 1024 92 10000 2.1 320 15:41 13.06.2019
6230 Clouds -4 1024 92 10000 1.5 320 15:22 13.06.2019
6231 Clouds -4 1024 92 10000 1.5 320 14:50 13.06.2019
6232 Clouds -4 1024 92 10000 1.5 320 14:31 13.06.2019
6233 Clouds -3 1023 100 10000 1.5 320 13:55 13.06.2019
6234 Clouds -3 1023 100 10000 1.5 320 13:37 13.06.2019
6235 Clouds -3 1023 100 10000 2.15 331.816 13:19 13.06.2019
6236 Clouds -3 1023 100 10000 2.15 331.816 12:41 13.06.2019
6237 -273 0 0 0 0 0 12:21 13.06.2019
6238 Clear -3 1023 100 10000 2.6 270 11:45 13.06.2019
6239 Clear -3 1023 100 10000 2.6 270 11:26 13.06.2019
6240 Clear -3 1023 92 10000 2.1 340 10:51 13.06.2019
6241 Clear -3 1023 92 10000 2.1 340 10:31 13.06.2019
6242 Clear -3 1023 100 10000 2.1 320 09:56 13.06.2019
6243 Clear -3 1023 100 10000 2.1 320 09:38 13.06.2019
6244 Clear -3 1023 100 10000 2.1 320 09:20 13.06.2019
6245 Clear -3 1023 100 10000 2.1 320 08:43 13.06.2019
6246 Clear -3 1023 100 10000 2.6 320 08:22 13.06.2019
6247 Clear -3 1023 100 10000 2.6 320 07:42 13.06.2019
6248 Clear -3 1023 100 10000 2.6 320 07:24 13.06.2019
6249 Clear -3 1023 92 10000 3.1 320 06:45 13.06.2019
6250 Clear -3 1023 92 10000 2.1 320 06:22 13.06.2019
6251 Clear -3 1023 92 10000 2.1 320 05:53 13.06.2019
6252 Clear -3 1023 92 10000 2.1 320 05:35 13.06.2019
6253 Clear -3 1023 92 10000 3.1 340 03:57 13.06.2019
6254 Clear -2 1023 86 10000 2.6 340 02:23 13.06.2019
6255 Clear -3 1023 86 10000 2.1 270 00:47 13.06.2019
6256 Clear -1 1022 86 10000 3.1 320 23:49 12.06.2019
6257 Clear -1 1022 92 10000 0.79 326.391 23:22 12.06.2019
6258 Clear -1 1022 92 10000 0.79 326.391 22:43 12.06.2019
6259 Clear -1 1022 92 10000 0.79 326.391 22:24 12.06.2019
6260 Clear 1 1021 91 10000 0.79 326.391 21:56 12.06.2019
6261 Clear 1 1021 91 10000 0.79 326.391 21:36 12.06.2019
6262 Clear 1 1021 79 10000 2.1 360 21:18 12.06.2019
6263 Clear 1 1021 79 10000 2.1 360 20:37 12.06.2019
6264 Clear 0 1021 92 10000 0.17 309.078 20:19 12.06.2019
6265 Clear 0 1021 92 10000 0.17 309.078 19:42 12.06.2019
6266 Clear 0 1021 92 10000 0.17 309.078 19:23 12.06.2019
6267 Clear -1 1022 86 10000 0.17 309.078 18:55 12.06.2019
6268 Clear -1 1022 86 10000 0.17 309.078 18:37 12.06.2019
6269 Clouds -1 1021 92 10000 2.1 290 18:18 12.06.2019
6270 Clouds -1 1021 92 10000 2.1 290 17:43 12.06.2019
6271 Clouds -1 1021 86 10000 1 320 17:20 12.06.2019
6272 Clouds -1 1021 86 10000 1 320 16:42 12.06.2019
6273 Clouds -1 1021 86 10000 1 320 16:23 12.06.2019
6274 Clouds -2 1020 92 10000 1.5 320 15:52 12.06.2019
6275 Clouds -2 1020 92 10000 1.5 320 15:32 12.06.2019
6276 Clouds -2 1020 92 10000 1.5 290 14:46 12.06.2019
6277 Clouds -2 1020 92 10000 1.5 290 14:27 12.06.2019
6278 Clouds -3 1019 86 10000 2.6 290 13:43 12.06.2019
6279 Rain -3 1019 86 10000 3.1 290 13:20 12.06.2019
6280 Rain -3 1019 86 10000 3.1 290 12:59 12.06.2019
6281 Rain -3 1019 86 10000 3.1 290 12:38 12.06.2019
6282 Rain -3 1019 86 10000 3.1 290 12:38 12.06.2019
6283 Rain -3 1019 86 10000 3.1 290 12:38 12.06.2019
6284 Clouds -3 1018 86 10000 1.33 282.894 12:19 12.06.2019
6285 Clouds -3 1018 86 10000 1.33 282.894 12:19 12.06.2019
6286 Clouds -3 1018 86 10000 1.33 282.894 12:19 12.06.2019
6287 Clouds -3 1018 86 10000 1.33 282.894 11:46 12.06.2019
6288 Clouds -3 1018 86 10000 1.33 282.894 11:28 12.06.2019
6289 Clouds -3 1017 92 10000 2.1 290 10:51 12.06.2019
6290 Clouds -3 1017 92 10000 2.1 290 10:31 12.06.2019
6291 Clear -3 1016 92 10000 1.33 282.894 09:45 12.06.2019
6292 Clear -3 1016 92 10000 1.5 292.908 09:24 12.06.2019
6293 Clear -2 1016 86 10000 2.1 290 08:58 12.06.2019
6294 Clear -2 1016 86 10000 2.1 290 08:24 12.06.2019
6295 Clear -3 1015 86 10000 2.6 290 07:48 12.06.2019
6296 Clouds -2 1014 86 10000 3.1 270 06:54 12.06.2019
6297 Clouds -2 1013 86 10000 1.5 250 05:52 12.06.2019
6298 Clouds -2 1013 86 10000 1.5 250 05:23 12.06.2019
6299 Rain 0 1009 85 10000 3.1 250 02:18 12.06.2019
6300 Clouds 0 1008 83 10000 3.1 270 00:40 12.06.2019
6301 Clouds 0 1007 80 10000 3.1 270 23:52 11.06.2019
6302 Clouds 0 1007 80 10000 3.1 270 23:33 11.06.2019
6303 Snow 0 1006 81 1500 2.1 290 22:44 11.06.2019
6304 Clouds 1 1005 81 10000 2.6 270 22:23 11.06.2019
6305 Clouds 1 1005 81 10000 2.6 270 21:58 11.06.2019
6306 Clouds 1 1005 81 10000 2.6 270 21:40 11.06.2019
6307 Clouds 1 1004 86 10000 2.1 270 21:21 11.06.2019
6308 Clouds 1 1004 86 10000 2.1 270 20:50 11.06.2019
6309 -273 0 0 0 0 0 20:27 11.06.2019
6310 Rain 1 1003 73 10000 2.6 290 19:58 11.06.2019
6311 -273 0 0 0 0 0 19:40 11.06.2019
6312 -273 0 0 0 0 0 19:39 11.06.2019
6313 Rain 1 1003 73 10000 2.6 290 19:38 11.06.2019
6314 -273 0 0 0 0 0 18:59 11.06.2019
6315 Snow 0 1002 73 5000 2.1 290 18:57 11.06.2019
6316 Snow -1 1001 80 5000 2.1 270 18:23 11.06.2019
6317 Snow -1 1001 80 500 1.5 320 17:42 11.06.2019
6318 Snow -1 999 86 1200 1.5 230 17:24 11.06.2019
6319 Snow -1 999 86 1200 1.5 230 16:59 11.06.2019
6320 Snow -1 999 86 1200 1.5 230 16:40 11.06.2019
6321 Snow -2 999 86 1200 0.9 201.409 16:22 11.06.2019
6322 Rain -2 999 80 10000 0.9 201.409 15:42 11.06.2019
6323 Rain -2 999 80 10000 2.55 292.75 15:24 11.06.2019
6324 Rain -3 997 86 10000 3.1 320 14:54 11.06.2019
6325 Rain -2 997 86 10000 3.1 320 14:23 11.06.2019
6326 Clouds -2 996 86 10000 2.55 292.75 13:56 11.06.2019
6327 Clouds -2 996 86 10000 2.55 292.75 13:36 11.06.2019
6328 Clouds -1 995 86 10000 2.55 292.75 13:18 11.06.2019
6329 Clouds -1 995 86 10000 2.07 286.04 12:40 11.06.2019
6330 Clouds 0 995 68 10000 2.6 320 12:21 11.06.2019
6331 Clouds 0 995 68 10000 2.6 320 11:40 11.06.2019
6332 Clouds 0 995 68 10000 3.1 320 11:21 11.06.2019
6333 Clouds 0 995 68 10000 3.1 320 10:47 11.06.2019
6334 Clouds 0 995 68 10000 3.1 320 10:26 11.06.2019
6335 Clouds 0 994 68 10000 7.7 230 09:50 11.06.2019
6336 Clouds 0 994 69 10000 7.7 230 09:25 11.06.2019
6337 Clouds 1 994 80 10000 8.2 230 08:49 11.06.2019
6338 Clouds 1 994 80 10000 8.2 230 08:30 11.06.2019
6339 Clouds 0 994 69 10000 7.2 230 07:55 11.06.2019
6340 Clouds 0 994 69 10000 7.2 230 07:31 11.06.2019
6341 Clouds 1 993 74 10000 7.2 230 06:51 11.06.2019
6342 Snow 0 992 74 10000 12.3 230 05:00 11.06.2019
6343 Rain 0 991 74 10000 11.8 230 03:47 11.06.2019
6344 Rain 1 990 80 10000 13.9 230 01:41 11.06.2019
6345 Snow 1 989 80 10000 14.9 230 00:48 11.06.2019
6346 Rain 1 988 64 10000 11.8 230 23:56 10.06.2019
6347 Rain 1 988 64 10000 11.8 230 23:38 10.06.2019
6348 Snow 1 986 70 10000 13.4 230 22:58 10.06.2019
6349 Snow 1 986 70 10000 13.4 230 22:40 10.06.2019
6350 Rain 0 986 80 10000 10.3 230 22:22 10.06.2019
6351 Snow 0 987 80 2500 7.7 230 21:41 10.06.2019
6352 Snow 0 987 92 1200 5.56 249.592 21:23 10.06.2019
6353 Snow 0 987 92 1200 5.56 249.592 20:48 10.06.2019
6354 Snow 0 987 92 1200 5.56 249.592 20:26 10.06.2019
6355 Drizzle 0 987 77 1200 5.56 249.592 19:58 10.06.2019
6356 Drizzle 0 987 77 1200 5.56 249.592 19:39 10.06.2019
6357 Drizzle 0 987 80 2500 3.6 160 19:21 10.06.2019
6358 Drizzle 0 987 80 2500 3.6 160 18:55 10.06.2019
6359 Drizzle 0 987 80 2500 3.6 160 18:37 10.06.2019
6360 Snow 0 987 80 2500 4.1 160 18:18 10.06.2019
6361 Snow 0 988 80 8000 3.1 200 17:40 10.06.2019
6362 Rain 0 988 80 10000 4.1 320 17:22 10.06.2019
6363 Rain 0 988 80 10000 4.1 320 16:46 10.06.2019
6364 Rain -1 988 80 10000 4.1 320 16:28 10.06.2019
6365 Clouds -1 990 80 10000 1.5 200 15:46 10.06.2019
6366 Clouds -1 990 80 10000 1.5 200 15:46 10.06.2019
6367 Clouds -1 990 72 10000 1.5 200 15:24 10.06.2019
6368 Clouds -1 991 72 10000 2.6 340 14:59 10.06.2019
6369 Clouds -1 991 72 10000 2.6 340 14:39 10.06.2019
6370 Clouds 0 992 72 10000 5.1 250 14:21 10.06.2019
6371 Clouds 0 992 72 10000 5.1 250 13:43 10.06.2019
6372 Rain 0 992 72 10000 10.3 230 13:23 10.06.2019
6373 Rain 0 992 73 10000 10.3 230 12:45 10.06.2019
6374 Rain 0 992 73 10000 10.3 230 12:27 10.06.2019
6375 Rain 0 992 73 10000 10.8 230 11:49 10.06.2019
6376 Rain 0 992 73 10000 10.8 230 11:30 10.06.2019
6377 Clouds 0 992 73 10000 12.3 230 10:58 10.06.2019
6378 Rain 1 991 80 10000 12.3 230 10:38 10.06.2019
6379 Clouds 1 991 80 10000 10.3 230 10:18 10.06.2019
6380 Clouds 1 991 80 10000 10.3 230 09:47 10.06.2019
6381 Clouds 1 991 80 10000 10.3 230 09:28 10.06.2019
6382 Clouds 1 991 74 10000 9.3 250 08:46 10.06.2019
6383 Clouds 1 991 74 10000 9.3 250 08:26 10.06.2019
6384 Clouds 1 991 74 10000 10.8 250 07:26 10.06.2019
6385 Rain 1 990 80 10000 10.8 230 04:41 10.06.2019
6386 Rain 2 988 80 10000 11.3 230 02:18 10.06.2019
6387 Rain 2 988 80 10000 11.3 230 01:28 10.06.2019
6388 Rain 2 987 80 10000 10.3 230 00:59 10.06.2019
6389 Rain 2 987 80 10000 10.3 230 00:31 10.06.2019
6390 Rain 2 987 80 10000 7.2 230 23:45 09.06.2019
6391 Drizzle 2 987 80 10000 6.7 230 23:21 09.06.2019
6392 Drizzle 2 987 80 10000 6.7 230 22:45 09.06.2019
6393 Drizzle 2 987 80 10000 6.7 230 22:25 09.06.2019
6394 Drizzle 3 986 86 10000 8.2 230 21:46 09.06.2019
6395 Drizzle 3 986 86 10000 8.2 230 21:28 09.06.2019
6396 Drizzle 3 986 87 10000 8.2 230 20:58 09.06.2019
6397 Drizzle 3 986 87 10000 8.2 230 20:40 09.06.2019
6398 Drizzle 3 986 86 10000 10.3 230 20:21 09.06.2019
6399 Drizzle 3 986 86 10000 10.3 230 19:42 09.06.2019
6400 Clouds 3 985 87 10000 11.8 230 19:18 09.06.2019
6401 Clouds 3 985 87 10000 11.8 230 18:43 09.06.2019
6402 Clouds 3 985 93 10000 11.8 230 18:24 09.06.2019
6403 Drizzle 3 985 93 10000 12.9 230 17:50 09.06.2019
6404 Drizzle 3 985 93 10000 12.9 230 17:30 09.06.2019
6405 Drizzle 3 984 93 10000 11.8 230 16:58 09.06.2019
6406 Drizzle 3 984 93 10000 11.8 230 16:58 09.06.2019
6407 Drizzle 3 984 93 10000 11.8 230 16:39 09.06.2019
6408 Drizzle 3 984 93 10000 10.8 230 16:20 09.06.2019
6409 Drizzle 3 984 93 10000 10.8 230 16:20 09.06.2019
6410 Clouds 1 986 93 0 4.1 229.117 15:49 09.06.2019
6411 Clouds 1 986 93 0 4.1 229.117 15:28 09.06.2019
6412 Clouds 2 985 98 0 1.26 214.081 14:51 09.06.2019
6413 Clouds 2 985 98 0 1.26 214.081 14:51 09.06.2019
6414 Clouds 2 985 98 0 1.26 214.081 14:33 09.06.2019
6415 Clouds 2 985 98 0 1.26 214.081 13:57 09.06.2019
6416 Clouds 2 985 98 0 1.26 214.081 13:39 09.06.2019
6417 Clouds 1 985 97 0 2.05 212.328 12:55 09.06.2019
6418 Drizzle 2 983 100 10000 2.05 212.328 12:34 09.06.2019
6419 Drizzle 2 983 100 10000 1.74 193.019 11:51 09.06.2019
6420 Drizzle 2 983 100 10000 1.74 193.019 11:30 09.06.2019
6421 -273 0 0 0 0 0 10:59 09.06.2019
6422 Drizzle 2 984 100 10000 1.73 186.091 10:40 09.06.2019
6423 Drizzle 2 984 93 10000 2.1 270 10:19 09.06.2019
6424 Drizzle 2 984 93 10000 2.1 270 09:38 09.06.2019
6425 Drizzle 2 984 100 10000 2.1 270 09:19 09.06.2019
6426 Drizzle 2 984 100 10000 2.1 270 08:45 09.06.2019
6427 Drizzle 2 984 100 10000 1.5 200 07:53 09.06.2019
6428 Drizzle 3 984 93 10000 3.1 140 06:45 09.06.2019
6429 Drizzle 3 984 93 10000 1.08 153.932 06:20 09.06.2019
6430 Drizzle 3 985 93 10000 1.19 120.806 02:59 09.06.2019
6431 Drizzle 3 986 93 10000 1.5 270 01:37 09.06.2019
6432 Drizzle 3 986 93 10000 1.5 270 01:37 09.06.2019
6433 Drizzle 3 986 93 10000 1.5 270 01:37 09.06.2019
6434 Drizzle 3 986 93 10000 2.6 320 01:19 09.06.2019
6435 Drizzle 3 986 93 10000 2.6 320 00:29 09.06.2019
6436 Drizzle 3 986 93 10000 1.5 270 23:41 08.06.2019
6437 Drizzle 3 986 93 10000 1.5 270 23:23 08.06.2019
6438 Drizzle 3 987 93 10000 1.5 270 22:55 08.06.2019
6439 Drizzle 3 987 93 10000 1.5 270 22:36 08.06.2019
6440 Drizzle 3 987 93 10000 1.11 117.489 22:18 08.06.2019
6441 Drizzle 3 987 93 10000 1.11 117.489 21:41 08.06.2019
6442 Drizzle 3 988 86 10000 0.7 96.069 21:23 08.06.2019
6443 Drizzle 3 988 86 10000 0.7 96.069 20:45 08.06.2019
6444 Drizzle 3 988 86 10000 0.7 96.069 20:25 08.06.2019
6445 Clouds 3 988 86 10000 0.7 96.069 19:56 08.06.2019
6446 Clouds 3 988 86 10000 0.7 96.069 19:37 08.06.2019
6447 Clouds 4 989 86 10000 0.84 122.013 19:19 08.06.2019
6448 Clouds 4 989 86 10000 0.84 122.013 18:41 08.06.2019
6449 Clouds 3 989 86 10000 0.22 93.18 18:23 08.06.2019
6450 Clouds 3 989 86 10000 0.22 93.18 17:45 08.06.2019
6451 Clouds 2 990 94 10000 0.22 93.18 17:22 08.06.2019
6452 Clouds 2 990 94 10000 0.22 93.18 16:53 08.06.2019
6453 Clouds 2 990 94 10000 0.22 93.18 16:34 08.06.2019
6454 Clouds 1 990 94 10000 0.22 93.18 15:52 08.06.2019
6455 Clouds 1 990 94 10000 0.22 93.18 15:33 08.06.2019
6456 Clouds 2 990 93 10000 0.56 263.671 14:48 08.06.2019
6457 Clouds 2 990 93 10000 0.56 263.671 14:29 08.06.2019
6458 Clouds 2 990 93 10000 0.56 263.671 13:49 08.06.2019
6459 Clear 2 990 93 10000 1 267.875 12:53 08.06.2019
6460 Clear 2 990 93 10000 1 267.875 12:33 08.06.2019
6461 Clouds 3 990 91 10000 1.43 284.874 11:51 08.06.2019
6462 Clouds 3 990 91 10000 1.43 284.874 11:27 08.06.2019
6463 Clouds 3 990 91 10000 3.1 360 10:48 08.06.2019
6464 Clouds 3 990 91 10000 3.1 360 10:26 08.06.2019
6465 Clouds 3 990 74 10000 2.1 340 09:57 08.06.2019
6466 Clouds 3 990 74 10000 2.1 340 09:33 08.06.2019
6467 Clouds 3 990 90 10000 2.6 340 08:48 08.06.2019
6468 Clouds 4 990 64 10000 2.6 360 08:20 08.06.2019
6469 Clouds 4 990 64 10000 2.6 360 07:26 08.06.2019
6470 Clouds 4 990 64 10000 2.1 360 06:44 08.06.2019
6471 Clear 3 989 86 10000 2.6 320 03:36 08.06.2019
6472 Clouds 4 989 91 10000 2.1 290 02:20 08.06.2019
6473 Clouds 4 989 80 10000 2.29 330.072 00:31 08.06.2019
6474 Clouds 4 989 89 10000 2.24 340.641 23:58 07.06.2019
6475 Clouds 4 989 89 10000 2.24 340.641 23:21 07.06.2019
6476 Clear 4 989 69 10000 2.24 340.641 22:51 07.06.2019
6477 Clear 5 989 69 10000 1.7 353.403 22:32 07.06.2019
6478 Clear 5 989 88 10000 2.1 20 21:55 07.06.2019
6479 Clear 5 989 88 10000 2.1 20 21:36 07.06.2019
6480 Clear 5 990 80 10000 2.1 340 21:18 07.06.2019
6481 Clear 5 990 80 10000 2.1 340 20:42 07.06.2019
6482 Clear 6 990 60 10000 3.1 360 20:22 07.06.2019
6483 Clear 6 990 60 10000 3.1 360 19:39 07.06.2019
6484 Clear 6 991 60 10000 3.6 340 19:19 07.06.2019
6485 Clear 6 991 60 10000 3.6 340 18:41 07.06.2019
6486 Clear 6 991 60 10000 3.6 340 18:41 07.06.2019
6487 Clear 5 991 84 10000 4.1 340 18:22 07.06.2019
6488 Clear 5 991 84 10000 4.1 340 17:43 07.06.2019
6489 Clear 4 991 74 10000 4.1 340 17:20 07.06.2019
6490 Clear 4 991 74 10000 4.1 340 16:41 07.06.2019
6491 Clear 3 991 64 10000 5.1 340 16:18 07.06.2019
6492 Clear 3 991 64 10000 5.1 340 15:40 07.06.2019
6493 Clear 4 991 69 10000 4.1 340 15:20 07.06.2019
6494 Clear 4 991 69 10000 4.1 340 14:39 07.06.2019
6495 Clear 4 991 69 10000 4.1 340 14:39 07.06.2019
6496 Clouds 4 991 92 10000 5.1 320 14:20 07.06.2019
6497 Clouds 4 991 92 10000 5.1 320 13:28 07.06.2019
6498 Clouds 4 990 93 10000 5.1 320 12:54 07.06.2019
6499 Clouds 4 990 93 10000 5.1 320 12:29 07.06.2019
6500 Clouds 4 990 69 10000 5.7 320 11:58 07.06.2019
6501 Clouds 4 990 69 10000 5.7 320 11:38 07.06.2019
6502 Clouds 5 990 65 10000 3.6 270 11:20 07.06.2019
6503 Clouds 5 990 65 10000 3.6 270 10:42 07.06.2019
6504 Clouds 4 990 93 10000 4.6 270 10:21 07.06.2019
6505 Clouds 4 990 93 10000 4.6 270 09:48 07.06.2019
6506 Clouds 4 990 92 10000 4.6 270 09:24 07.06.2019
6507 Clouds 5 990 92 10000 3.1 320 08:48 07.06.2019
6508 Clouds 5 990 92 10000 3.1 320 08:27 07.06.2019
6509 Clouds 5 989 75 10000 3.6 270 07:51 07.06.2019
6510 Clouds 5 989 75 10000 3.1 320 07:22 07.06.2019
6511 Clouds 5 989 75 10000 3.1 320 06:48 07.06.2019
6512 Clouds 5 989 75 10000 3.1 320 06:24 07.06.2019
6513 Clouds 4 989 80 10000 3.1 270 05:44 07.06.2019
6514 Clouds 5 988 75 10000 4.6 250 02:43 07.06.2019
6515 Clouds 5 987 75 10000 4.1 230 01:38 07.06.2019
6516 Clouds 6 987 75 10000 5.7 230 00:48 07.06.2019
6517 Clouds 5 986 86 10000 5.1 230 00:19 07.06.2019
6518 Clouds 5 986 86 10000 5.1 230 23:38 06.06.2019
6519 Clouds 6 986 75 10000 6.2 230 23:18 06.06.2019
6520 Clouds 6 986 75 10000 6.2 230 22:37 06.06.2019
6521 Clouds 7 985 81 10000 5.7 230 22:19 06.06.2019
6522 Clouds 7 985 81 10000 5.7 230 21:46 06.06.2019
6523 Clouds 7 984 83 10000 5.1 230 21:22 06.06.2019
6524 Clouds 7 984 83 10000 5.1 230 20:57 06.06.2019
6525 Clouds 7 984 83 10000 5.1 230 20:38 06.06.2019
6526 Clouds 7 984 83 10000 3.32 333.736 20:20 06.06.2019
6527 Clouds 7 984 83 10000 3.32 333.736 19:37 06.06.2019
6528 Clouds 6 984 83 10000 3.1 360 19:19 06.06.2019
6529 Clouds 6 984 83 10000 3.1 360 18:44 06.06.2019
6530 Clouds 6 984 87 10000 3.1 360 18:25 06.06.2019
6531 Clouds 5 983 60 10000 2.1 270 17:51 06.06.2019
6532 Clouds 5 983 60 10000 2.1 270 17:26 06.06.2019
6533 Clouds 4 983 60 10000 7.7 360 16:57 06.06.2019
6534 Clouds 4 983 60 10000 7.7 360 16:39 06.06.2019
6535 Clouds 3 983 87 10000 7.7 360 16:20 06.06.2019
6536 Clouds 3 983 87 10000 7.7 360 15:44 06.06.2019
6537 Clouds 3 983 90 10000 7.7 360 15:24 06.06.2019
6538 Clouds 6 983 60 10000 7.7 360 14:45 06.06.2019
6539 Clouds 6 983 60 10000 7.7 360 14:45 06.06.2019
6540 Clouds 6 983 60 10000 6.2 360 14:20 06.06.2019
6541 Clouds 6 983 60 10000 6.2 360 13:52 06.06.2019
6542 Clouds 6 983 60 10000 6.2 360 13:30 06.06.2019
6543 Clouds 7 983 52 10000 3.12 356.89 12:50 06.06.2019
6544 Clouds 7 983 52 10000 3.12 356.89 12:29 06.06.2019
6545 Clouds 8 983 49 10000 6.7 20 11:58 06.06.2019
6546 Clouds 8 983 49 10000 6.7 20 11:40 06.06.2019
6547 Clouds 8 983 49 10000 4.6 20 11:21 06.06.2019
6548 Clouds 8 983 49 10000 4.6 20 10:45 06.06.2019
6549 Clouds 8 983 49 10000 4.6 20 10:26 06.06.2019
6550 Clouds 8 983 45 10000 3.6 340 09:45 06.06.2019
6551 Clouds 8 983 45 10000 3.6 340 09:25 06.06.2019
6552 Clouds 7 984 56 10000 5.1 20 08:51 06.06.2019
6553 Clouds 7 984 56 10000 5.1 20 08:26 06.06.2019
6554 Clouds 8 984 49 10000 6.2 20 07:54 06.06.2019
6555 Clouds 8 984 49 10000 6.2 20 07:26 06.06.2019
6556 Clouds 7 984 56 10000 7.2 20 06:49 06.06.2019
6557 Clear 7 984 56 10000 7.2 360 05:41 06.06.2019
6558 Clear 6 984 87 10000 7.7 360 04:38 06.06.2019
6559 Clear 6 984 70 10000 2.6 90 02:23 06.06.2019
6560 Clear 5 984 75 10000 3.75 358.84 01:56 06.06.2019
6561 Clear 5 984 75 10000 1.5 320 01:18 06.06.2019
6562 Clear 5 984 75 10000 1.5 320 00:31 06.06.2019
6563 Clear 4 984 80 10000 3.2 345.02 23:42 05.06.2019
6564 Clear 5 984 80 10000 3.05 341.541 23:23 05.06.2019
6565 Clear 5 984 75 10000 4.6 320 22:44 05.06.2019
6566 Clouds 6 983 87 10000 1 0 22:23 05.06.2019
6567 Clouds 6 983 87 10000 1 0 21:59 05.06.2019
6568 Clouds 6 983 87 10000 1 0 21:40 05.06.2019
6569 Clear 5 984 75 10000 2.8 347.731 21:22 05.06.2019
6570 Clear 5 984 75 10000 2.8 347.731 20:44 05.06.2019
6571 Clear 5 984 75 10000 2.8 347.731 20:25 05.06.2019
6572 Clear 6 984 80 10000 2.8 347.731 19:44 05.06.2019
6573 Clouds 5 984 86 10000 2.8 347.731 19:20 05.06.2019
6574 Clouds 5 984 86 10000 2.8 347.731 18:47 05.06.2019
6575 Clouds 5 984 86 10000 2.8 347.731 18:28 05.06.2019
6576 Clouds 2 984 100 10000 2.35 339.804 17:50 05.06.2019
6577 Clouds 2 984 100 10000 2.35 339.804 17:25 05.06.2019
6578 Clouds 1 983 81 10000 0.5 80 16:44 05.06.2019
6579 Clouds 1 983 81 10000 1.5 170 16:20 05.06.2019
6580 Clouds 1 983 81 10000 1.5 170 15:55 05.06.2019
6581 Clouds 1 983 81 10000 1.5 170 15:36 05.06.2019
6582 Clouds 2 983 100 10000 2.17 332.174 15:18 05.06.2019
6583 Clouds 2 983 100 10000 2.17 332.174 14:39 05.06.2019
6584 Rain 4 983 93 10000 2.1 340 14:20 05.06.2019
6585 Rain 4 983 93 10000 2.1 340 13:45 05.06.2019
6586 Clouds 4 993 86 10000 2.1 340 13:22 05.06.2019
6587 Clouds 4 993 86 10000 2.1 340 12:51 05.06.2019
6588 Clouds 4 993 86 10000 2.1 340 12:28 05.06.2019
6589 Clouds 4 982 86 10000 2.05 317.853 11:59 05.06.2019
6590 Clouds 4 982 86 10000 2.05 317.853 11:40 05.06.2019
6591 Clouds 5 982 80 10000 2.6 320 11:20 05.06.2019
6592 Clouds 5 982 80 10000 2.6 320 10:44 05.06.2019
6593 Clouds 5 982 80 10000 2.6 320 10:23 05.06.2019
6594 Clouds 5 982 86 10000 3.6 270 09:46 05.06.2019
6595 Clouds 5 982 86 10000 3.6 270 09:24 05.06.2019
6596 Rain 2 983 91 0 2.59 325.488 08:47 05.06.2019
6597 Rain 2 983 91 0 2.59 325.488 07:55 05.06.2019
6598 Clouds 5 982 86 10000 2.65 324.219 07:18 05.06.2019
6599 Clouds 5 982 86 10000 2.65 324.219 06:39 05.06.2019
6600 Drizzle 5 983 86 10000 2.6 20 05:51 05.06.2019
6601 Rain 5 984 86 10000 1.5 230 03:45 05.06.2019
6602 Clear 4 985 86 10000 2.5 2.272 02:24 05.06.2019
6603 Clear 4 986 86 10000 2.1 340 01:30 05.06.2019
6604 Clear 4 987 86 10000 1.5 360 00:45 05.06.2019
6605 Clear 5 988 86 10000 2.1 360 23:47 04.06.2019
6606 Clear 6 988 86 10000 2.1 360 23:28 04.06.2019
6607 Clear 6 988 93 10000 3.6 90 22:58 04.06.2019
6608 Clear 6 988 93 10000 3.6 90 22:39 04.06.2019
6609 Clear 5 989 86 10000 2.6 360 22:21 04.06.2019
6610 Clear 5 989 86 10000 2.6 360 21:56 04.06.2019
6611 Clear 5 989 86 10000 2.6 360 21:38 04.06.2019
6612 Clear 6 989 87 10000 2.6 90 21:18 04.06.2019
6613 Clear 6 989 87 10000 2.6 90 21:18 04.06.2019
6614 Clear 6 989 87 10000 2.6 90 20:38 04.06.2019
6615 Clear 6 990 81 10000 3.1 90 20:19 04.06.2019
6616 Clear 6 990 81 10000 3.1 90 19:47 04.06.2019
6617 Clear 7 991 87 10000 4.1 90 19:23 04.06.2019
6618 Clear 7 991 87 10000 4.1 90 18:51 04.06.2019
6619 Clear 7 991 87 10000 4.1 90 18:27 04.06.2019
6620 Clear 7 991 65 10000 2.1 360 17:50 04.06.2019
6621 Clear 7 991 65 10000 2.1 360 17:29 04.06.2019
6622 Clouds 6 992 75 10000 2.1 270 16:57 04.06.2019
6623 Clouds 7 992 75 10000 2.1 270 16:27 04.06.2019
6624 Clouds 7 991 65 10000 2.6 50 15:51 04.06.2019
6625 Clouds 7 991 65 10000 2.6 50 15:31 04.06.2019
6626 Clouds 5 992 90 10000 3.1 270 14:59 04.06.2019
6627 Clouds 5 992 90 10000 3.1 270 14:38 04.06.2019
6628 Clouds 6 992 70 10000 3.1 270 14:19 04.06.2019
6629 Clouds 6 992 70 10000 3.1 270 13:44 04.06.2019
6630 Clouds 5 992 90 10000 7.7 50 13:20 04.06.2019
6631 Clouds 5 992 92 10000 7.7 50 12:41 04.06.2019
6632 Clear 6 992 87 10000 4.1 50 12:22 04.06.2019
6633 Clear 6 992 87 10000 4.1 50 11:44 04.06.2019
6634 Clear 5 993 75 10000 4.6 340 11:21 04.06.2019
6635 Clear 5 993 75 10000 4.6 340 10:52 04.06.2019
6636 Clear 3 995 86 10000 2.6 20 10:20 04.06.2019
6637 Clear 3 995 86 10000 2.6 20 09:45 04.06.2019
6638 Clear 3 995 92 10000 2.1 290 09:23 04.06.2019
6639 Clear 3 995 92 10000 2.1 290 08:58 04.06.2019
6640 Clear 3 995 92 10000 2.1 290 08:39 04.06.2019
6641 Clear 3 995 92 10000 2.1 290 08:39 04.06.2019
6642 Clear 3 996 86 10000 2.1 320 08:20 04.06.2019
6643 Clear 3 996 86 10000 2.1 320 07:45 04.06.2019
6644 Clear 3 997 86 10000 2.67 3.005 07:21 04.06.2019
6645 Clear 3 997 86 10000 2.67 3.005 06:45 04.06.2019
6646 Clear 3 997 86 10000 2.53 358.027 06:26 04.06.2019
6647 Clear 3 997 94 10000 2.1 340 05:48 04.06.2019
6648 Clear 4 997 80 10000 2.6 340 04:54 04.06.2019
6649 Clear 5 997 75 10000 3.1 340 04:20 04.06.2019
6650 Clear 5 997 75 10000 3.1 340 03:36 04.06.2019
6651 Clouds 5 997 80 10000 1.5 20 02:32 04.06.2019
6652 Clouds 6 996 70 10000 2.1 50 01:39 04.06.2019
6653 Clouds 6 995 93 10000 3.1 270 00:45 04.06.2019
6654 Clouds 6 995 90 10000 3.56 354.2 00:19 04.06.2019
6655 Clouds 6 995 92 10000 3.15 357.814 23:41 03.06.2019
6656 Clouds 8 994 75 10000 6.7 230 23:20 03.06.2019
6657 Clouds 8 994 75 10000 6.7 230 22:46 03.06.2019
6658 Clouds 8 994 75 10000 6.7 230 22:28 03.06.2019
6659 Drizzle 8 994 70 10000 6.2 340 21:57 03.06.2019
6660 Drizzle 8 994 70 10000 6.2 340 21:57 03.06.2019
6661 Drizzle 8 994 70 10000 6.2 340 21:39 03.06.2019
6662 Drizzle 7 994 52 10000 4.6 360 21:19 03.06.2019
6663 Drizzle 7 994 52 10000 4.6 360 20:43 03.06.2019
6664 Drizzle 6 996 56 10000 6.2 360 20:23 03.06.2019
6665 Drizzle 6 996 56 10000 6.2 360 19:58 03.06.2019
6666 Drizzle 6 996 56 10000 6.2 360 19:58 03.06.2019
6667 Drizzle 6 996 56 10000 6.2 360 19:39 03.06.2019
6668 Drizzle 6 997 65 10000 9.3 320 19:21 03.06.2019
6669 Drizzle 6 997 65 10000 9.3 320 18:55 03.06.2019
6670 Drizzle 6 997 65 10000 9.3 320 18:37 03.06.2019
6671 Clouds 7 998 83 10000 5.1 260 18:18 03.06.2019
6672 Clouds 6 998 56 10000 9.3 340 17:38 03.06.2019
6673 Clouds 4 999 65 10000 6.2 340 17:20 03.06.2019
6674 Clouds 4 999 65 10000 6.2 340 16:45 03.06.2019
6675 Clouds 3 1000 69 10000 4.84 10.903 16:20 03.06.2019
6676 Clouds 3 1000 69 10000 4.84 10.903 15:50 03.06.2019
6677 Clouds 3 1000 69 10000 4.84 10.903 15:28 03.06.2019
6678 Clouds 3 1001 92 10000 2.1 250 14:55 03.06.2019
6679 Clouds 3 1001 92 10000 2.1 250 14:36 03.06.2019
6680 Clouds 2 1002 92 10000 1.5 270 14:18 03.06.2019
6681 Clouds 2 1002 92 10000 1.5 270 13:41 03.06.2019
6682 Clouds 2 1004 93 10000 4.1 70 13:19 03.06.2019
6683 Clouds 2 1004 93 10000 4.1 70 12:39 03.06.2019
6684 Clear 1 1005 93 10000 4.1 90 12:21 03.06.2019
6685 Clear 1 1005 93 10000 4.1 90 11:46 03.06.2019
6686 Clear 1 1005 93 10000 4.1 90 11:22 03.06.2019
6687 Clear 2 1006 93 10000 3.6 90 10:52 03.06.2019
6688 Clear 2 1006 93 10000 3.6 90 10:26 03.06.2019
6689 Clear 2 1007 93 10000 2.43 15.611 09:59 03.06.2019
6690 Clear 2 1007 93 10000 2.43 15.611 09:40 03.06.2019
6691 Clear 2 1007 93 10000 2.43 15.611 09:40 03.06.2019
6692 Clear 2 1008 90 10000